<?xml version='1.0' encoding='UTF-8'?><gpx version="1.1" creator="JPX - https://github.com/jenetics/jpx" xmlns="http://www.topografix.com/GPX/1/1"><trk><trkseg><trkpt lat="45.59891750759771" lon="8.213528013524627"><ele>354.0</ele><time>2026-03-22T12:56:45.999Z</time></trkpt><trkpt lat="45.59892608084771" lon="8.2136604262976"><ele>354.0</ele><time>2026-03-22T12:57:29.999Z</time></trkpt><trkpt lat="45.59899444719207" lon="8.213663408351008"><ele>354.0</ele><time>2026-03-22T12:57:31.999Z</time></trkpt><trkpt lat="45.599055229233066" lon="8.213564655270554"><ele>354.0</ele><time>2026-03-22T12:57:34.999Z</time></trkpt><trkpt lat="45.59911106125889" lon="8.213491761814684"><ele>354.0</ele><time>2026-03-22T12:57:36.999Z</time></trkpt><trkpt lat="45.59915340106545" lon="8.213415906391733"><ele>354.0</ele><time>2026-03-22T12:57:38.999Z</time></trkpt><trkpt lat="45.59918704290104" lon="8.213339151716719"><ele>354.0</ele><time>2026-03-22T12:57:41.998Z</time></trkpt><trkpt lat="45.599225973153494" lon="8.213257706068806"><ele>354.0</ele><time>2026-03-22T12:57:46.998Z</time></trkpt><trkpt lat="45.59926396799246" lon="8.213165815115406"><ele>354.0</ele><time>2026-03-22T12:57:49.998Z</time></trkpt><trkpt lat="45.59930547286959" lon="8.213052901811968"><ele>354.0</ele><time>2026-03-22T12:57:52.998Z</time></trkpt><trkpt lat="45.599351637131846" lon="8.212941160716696"><ele>354.0</ele><time>2026-03-22T12:57:54.998Z</time></trkpt><trkpt lat="45.599369024916406" lon="8.212804617975102"><ele>354.0</ele><time>2026-03-22T12:57:56.998Z</time></trkpt><trkpt lat="45.599425231415076" lon="8.21263063202332"><ele>354.6666666666667</ele><time>2026-03-22T12:57:58.998Z</time></trkpt><trkpt lat="45.59945032346896" lon="8.212537572961805"><ele>355.3333333333333</ele><time>2026-03-22T12:57:59.998Z</time></trkpt><trkpt lat="45.59947232150519" lon="8.212438247320446"><ele>356.0</ele><time>2026-03-22T12:58:00.998Z</time></trkpt><trkpt lat="45.599505286940804" lon="8.212326734419682"><ele>356.66666666666663</ele><time>2026-03-22T12:58:01.998Z</time></trkpt><trkpt lat="45.599542705664525" lon="8.212210746308454"><ele>357.3333333333333</ele><time>2026-03-22T12:58:02.998Z</time></trkpt><trkpt lat="45.59960586033863" lon="8.212106389855403"><ele>358.0</ele><time>2026-03-22T12:58:03.998Z</time></trkpt><trkpt lat="45.59965759498515" lon="8.212012534038308"><ele>358.8333333333333</ele><time>2026-03-22T12:58:04.998Z</time></trkpt><trkpt lat="45.59971803512399" lon="8.211911551121483"><ele>359.66666666666663</ele><time>2026-03-22T12:58:05.998Z</time></trkpt><trkpt lat="45.59977219754255" lon="8.211798468563783"><ele>360.5</ele><time>2026-03-22T12:58:06.998Z</time></trkpt><trkpt lat="45.599822794233546" lon="8.211680160793877"><ele>361.3333333333333</ele><time>2026-03-22T12:58:07.998Z</time></trkpt><trkpt lat="45.599842790296215" lon="8.211588870140616"><ele>362.1666666666667</ele><time>2026-03-22T12:58:08.998Z</time></trkpt><trkpt lat="45.59989966011794" lon="8.211536946943394"><ele>363.0</ele><time>2026-03-22T12:58:09.998Z</time></trkpt><trkpt lat="45.59995120993604" lon="8.21139737128939"><ele>364.0</ele><time>2026-03-22T12:58:11.998Z</time></trkpt><trkpt lat="45.60000793706768" lon="8.211281463669023"><ele>365.0</ele><time>2026-03-22T12:58:13.998Z</time></trkpt><trkpt lat="45.60008420551505" lon="8.211158369518444"><ele>366.0</ele><time>2026-03-22T12:58:15.998Z</time></trkpt><trkpt lat="45.60015224587473" lon="8.21110446622126"><ele>367.0</ele><time>2026-03-22T12:58:16.998Z</time></trkpt><trkpt lat="45.60022114761918" lon="8.211044751116393"><ele>368.0</ele><time>2026-03-22T12:58:17.998Z</time></trkpt><trkpt lat="45.60029117932125" lon="8.210999019967145"><ele>369.0</ele><time>2026-03-22T12:58:18.998Z</time></trkpt><trkpt lat="45.6003551169015" lon="8.210982060354892"><ele>369.0</ele><time>2026-03-22T12:58:19.999Z</time></trkpt><trkpt lat="45.60041575640147" lon="8.211024952538976"><ele>369.0</ele><time>2026-03-22T12:58:20.999Z</time></trkpt><trkpt lat="45.60045863847867" lon="8.211098557465615"><ele>369.0</ele><time>2026-03-22T12:58:21.999Z</time></trkpt><trkpt lat="45.600476053171995" lon="8.211217403689941"><ele>369.0</ele><time>2026-03-22T12:58:22.999Z</time></trkpt><trkpt lat="45.600443880660244" lon="8.21134667060673"><ele>369.0</ele><time>2026-03-22T12:58:23.999Z</time></trkpt><trkpt lat="45.60042675673185" lon="8.211478974600848"><ele>369.0</ele><time>2026-03-22T12:58:24.999Z</time></trkpt><trkpt lat="45.600444105086844" lon="8.211614423196774"><ele>369.3333333333333</ele><time>2026-03-22T12:58:25.999Z</time></trkpt><trkpt lat="45.60042138281541" lon="8.211744737925171"><ele>369.6666666666667</ele><time>2026-03-22T12:58:26.999Z</time></trkpt><trkpt lat="45.60044451123346" lon="8.211856888028965"><ele>370.0</ele><time>2026-03-22T12:58:27.999Z</time></trkpt><trkpt lat="45.60047887723743" lon="8.212005881183783"><ele>370.33333333333337</ele><time>2026-03-22T12:58:29.999Z</time></trkpt><trkpt lat="45.60053365948628" lon="8.21207258333653"><ele>370.6666666666667</ele><time>2026-03-22T12:58:30.999Z</time></trkpt><trkpt lat="45.60059706484569" lon="8.212167765373474"><ele>371.0</ele><time>2026-03-22T12:58:31.999Z</time></trkpt><trkpt lat="45.600668625815935" lon="8.212213298903698"><ele>371.0</ele><time>2026-03-22T12:58:32.999Z</time></trkpt><trkpt lat="45.60073889956341" lon="8.21225475782575"><ele>371.0</ele><time>2026-03-22T12:58:33.999Z</time></trkpt><trkpt lat="45.60084706810926" lon="8.212241610033567"><ele>371.0</ele><time>2026-03-22T12:58:35.999Z</time></trkpt><trkpt lat="45.600958145819725" lon="8.212114220437673"><ele>371.0</ele><time>2026-03-22T12:58:37.999Z</time></trkpt><trkpt lat="45.601008868235155" lon="8.211992542635091"><ele>371.0</ele><time>2026-03-22T12:58:38.999Z</time></trkpt><trkpt lat="45.60105564706344" lon="8.211876655142712"><ele>371.0</ele><time>2026-03-22T12:58:39.999Z</time></trkpt><trkpt lat="45.6011048993384" lon="8.211781591322685"><ele>371.0</ele><time>2026-03-22T12:58:40.999Z</time></trkpt><trkpt lat="45.60115596190682" lon="8.21167226040383"><ele>371.0</ele><time>2026-03-22T12:58:41.999Z</time></trkpt><trkpt lat="45.60121776028103" lon="8.211569330318392"><ele>371.0</ele><time>2026-03-22T12:58:42.999Z</time></trkpt><trkpt lat="45.601271794846575" lon="8.211451626620484"><ele>371.0</ele><time>2026-03-22T12:58:43.999Z</time></trkpt><trkpt lat="45.601346988843744" lon="8.211356308743769"><ele>373.5</ele><time>2026-03-22T12:58:44.999Z</time></trkpt><trkpt lat="45.601436395965905" lon="8.211273209518437"><ele>376.0</ele><time>2026-03-22T12:58:45.999Z</time></trkpt><trkpt lat="45.60151680859501" lon="8.211215517446513"><ele>378.5</ele><time>2026-03-22T12:58:46.999Z</time></trkpt><trkpt lat="45.60157658012492" lon="8.211179350329303"><ele>381.0</ele><time>2026-03-22T12:58:47.999Z</time></trkpt><trkpt lat="45.60165770716032" lon="8.211142369222083"><ele>383.49999999999994</ele><time>2026-03-22T12:58:48.999Z</time></trkpt><trkpt lat="45.6017401593683" lon="8.21112367561114"><ele>386.0</ele><time>2026-03-22T12:58:49.999Z</time></trkpt><trkpt lat="45.60182976327209" lon="8.211094143978844"><ele>385.99999999999994</ele><time>2026-03-22T12:58:50.999Z</time></trkpt><trkpt lat="45.601912875512355" lon="8.211107889635338"><ele>386.0</ele><time>2026-03-22T12:58:51.999Z</time></trkpt><trkpt lat="45.60198214375226" lon="8.211095665927166"><ele>386.0</ele><time>2026-03-22T12:58:52.999Z</time></trkpt><trkpt lat="45.60206280728505" lon="8.211038333088089"><ele>386.0</ele><time>2026-03-22T12:58:53.999Z</time></trkpt><trkpt lat="45.60212857360379" lon="8.210994522779814"><ele>385.99999999999994</ele><time>2026-03-22T12:58:54.999Z</time></trkpt><trkpt lat="45.602182983314606" lon="8.210929459024017"><ele>386.0</ele><time>2026-03-22T12:58:55.999Z</time></trkpt><trkpt lat="45.6022647232755" lon="8.21088521527123"><ele>386.3333333333333</ele><time>2026-03-22T12:58:56.999Z</time></trkpt><trkpt lat="45.60232318715175" lon="8.210844372941946"><ele>386.66666666666663</ele><time>2026-03-22T12:58:57.999Z</time></trkpt><trkpt lat="45.602421996050815" lon="8.210929553172285"><ele>387.0</ele><time>2026-03-22T12:58:59.999Z</time></trkpt><trkpt lat="45.60248245615193" lon="8.211018835631789"><ele>387.33333333333337</ele><time>2026-03-22T12:59:00.999Z</time></trkpt><trkpt lat="45.6025304627179" lon="8.211129024876696"><ele>387.6666666666667</ele><time>2026-03-22T12:59:01.999Z</time></trkpt><trkpt lat="45.602599533263714" lon="8.211194896772122"><ele>388.0</ele><time>2026-03-22T12:59:02.999Z</time></trkpt><trkpt lat="45.60267024097759" lon="8.21121551350991"><ele>388.00000000000006</ele><time>2026-03-22T12:59:03.999Z</time></trkpt><trkpt lat="45.602745703862034" lon="8.211198109987738"><ele>388.0</ele><time>2026-03-22T12:59:04.999Z</time></trkpt><trkpt lat="45.60282855793855" lon="8.211173784916843"><ele>388.0</ele><time>2026-03-22T12:59:05.999Z</time></trkpt><trkpt lat="45.60291003374656" lon="8.21111037915274"><ele>388.0</ele><time>2026-03-22T12:59:06.999Z</time></trkpt><trkpt lat="45.60295616033651" lon="8.211027682833356"><ele>388.00000000000006</ele><time>2026-03-22T12:59:07.999Z</time></trkpt><trkpt lat="45.60301872527434" lon="8.210944140503774"><ele>388.0</ele><time>2026-03-22T12:59:08.999Z</time></trkpt><trkpt lat="45.60306826672647" lon="8.210828471937774"><ele>388.1666666666667</ele><time>2026-03-22T12:59:09.999Z</time></trkpt><trkpt lat="45.60311832138528" lon="8.210719835593295"><ele>388.33333333333337</ele><time>2026-03-22T12:59:10.999Z</time></trkpt><trkpt lat="45.60315791721837" lon="8.210626849856483"><ele>388.5</ele><time>2026-03-22T12:59:11.999Z</time></trkpt><trkpt lat="45.60322346313954" lon="8.210495156045312"><ele>388.66666666666663</ele><time>2026-03-22T12:59:13.999Z</time></trkpt><trkpt lat="45.60330138325122" lon="8.210500674819068"><ele>388.8333333333333</ele><time>2026-03-22T12:59:14.999Z</time></trkpt><trkpt lat="45.60337831248605" lon="8.210514199641977"><ele>389.0</ele><time>2026-03-22T12:59:15.999Z</time></trkpt><trkpt lat="45.60342728608851" lon="8.210703952711496"><ele>388.99999999999994</ele><time>2026-03-22T12:59:16.999Z</time></trkpt><trkpt lat="45.60351308613199" lon="8.210780674041773"><ele>389.0</ele><time>2026-03-22T12:59:17.999Z</time></trkpt><trkpt lat="45.60359318995789" lon="8.210859263255077"><ele>389.0</ele><time>2026-03-22T12:59:18.999Z</time></trkpt><trkpt lat="45.603660859031194" lon="8.210885033656167"><ele>389.0</ele><time>2026-03-22T12:59:19.999Z</time></trkpt><trkpt lat="45.6037275421361" lon="8.210892604474472"><ele>388.99999999999994</ele><time>2026-03-22T12:59:20.999Z</time></trkpt><trkpt lat="45.6037968611313" lon="8.210879458295917"><ele>389.0</ele><time>2026-03-22T12:59:21.999Z</time></trkpt><trkpt lat="45.6038566657963" lon="8.210781532504894"><ele>389.66666666666663</ele><time>2026-03-22T12:59:22.999Z</time></trkpt><trkpt lat="45.60392022670085" lon="8.210747007922059"><ele>390.3333333333333</ele><time>2026-03-22T12:59:23.999Z</time></trkpt><trkpt lat="45.60397867905797" lon="8.210681820355203"><ele>391.0</ele><time>2026-03-22T12:59:24.999Z</time></trkpt><trkpt lat="45.604039539202894" lon="8.210643508372986"><ele>391.66666666666663</ele><time>2026-03-22T12:59:25.999Z</time></trkpt><trkpt lat="45.60409924749045" lon="8.210819558235341"><ele>392.3333333333333</ele><time>2026-03-22T12:59:27.999Z</time></trkpt><trkpt lat="45.60410916639024" lon="8.21090880766115"><ele>393.0</ele><time>2026-03-22T12:59:28.999Z</time></trkpt><trkpt lat="45.604186713927724" lon="8.210964398230042"><ele>393.0</ele><time>2026-03-22T12:59:29.999Z</time></trkpt><trkpt lat="45.6042534955551" lon="8.211012271336081"><ele>393.0</ele><time>2026-03-22T12:59:30.999Z</time></trkpt><trkpt lat="45.604175218615175" lon="8.21110124898184"><ele>393.0</ele><time>2026-03-22T12:59:31.999Z</time></trkpt><trkpt lat="45.60408617007057" lon="8.211119774045589"><ele>393.0</ele><time>2026-03-22T12:59:32.999Z</time></trkpt><trkpt lat="45.60395098226607" lon="8.21100501100216"><ele>393.0</ele><time>2026-03-22T12:59:33.999Z</time></trkpt><trkpt lat="45.60468823494419" lon="8.211871145202"><ele>393.79999999999995</ele><time>2026-03-22T12:59:41.998Z</time></trkpt><trkpt lat="45.604761590312" lon="8.211970208122459"><ele>394.6</ele><time>2026-03-22T12:59:42.998Z</time></trkpt><trkpt lat="45.60485658042388" lon="8.212047367328836"><ele>395.4</ele><time>2026-03-22T12:59:43.998Z</time></trkpt><trkpt lat="45.60496126918536" lon="8.212114145817432"><ele>396.20000000000005</ele><time>2026-03-22T12:59:44.998Z</time></trkpt><trkpt lat="45.60505202129615" lon="8.21219985645086"><ele>397.0</ele><time>2026-03-22T12:59:45.998Z</time></trkpt><trkpt lat="45.60513548700371" lon="8.212253802423211"><ele>397.0</ele><time>2026-03-22T12:59:46.998Z</time></trkpt><trkpt lat="45.6052292584121" lon="8.212303163779263"><ele>397.0</ele><time>2026-03-22T12:59:47.998Z</time></trkpt><trkpt lat="45.60532988852582" lon="8.212345193659793"><ele>397.0</ele><time>2026-03-22T12:59:48.998Z</time></trkpt><trkpt lat="45.60544134943462" lon="8.212364435162618"><ele>397.0</ele><time>2026-03-22T12:59:49.998Z</time></trkpt><trkpt lat="45.60555434372934" lon="8.212381337202189"><ele>397.0</ele><time>2026-03-22T12:59:50.998Z</time></trkpt><trkpt lat="45.60565597600625" lon="8.212394296425916"><ele>397.0</ele><time>2026-03-22T12:59:51.998Z</time></trkpt><trkpt lat="45.60572827177327" lon="8.212455309001932"><ele>397.0</ele><time>2026-03-22T12:59:52.998Z</time></trkpt><trkpt lat="45.605794300854406" lon="8.21252710490825"><ele>397.0</ele><time>2026-03-22T12:59:53.998Z</time></trkpt><trkpt lat="45.605868330006565" lon="8.21261175133361"><ele>397.0</ele><time>2026-03-22T12:59:54.998Z</time></trkpt><trkpt lat="45.605934633482306" lon="8.212717477213259"><ele>397.0</ele><time>2026-03-22T12:59:55.998Z</time></trkpt><trkpt lat="45.605997975929974" lon="8.212817217611365"><ele>397.0</ele><time>2026-03-22T12:59:56.998Z</time></trkpt><trkpt lat="45.6060620220214" lon="8.212916127602087"><ele>397.0</ele><time>2026-03-22T12:59:57.998Z</time></trkpt><trkpt lat="45.60612934924323" lon="8.21302482718511"><ele>397.0</ele><time>2026-03-22T12:59:58.998Z</time></trkpt><trkpt lat="45.60618247614403" lon="8.21312953782243"><ele>397.0</ele><time>2026-03-22T12:59:59.998Z</time></trkpt><trkpt lat="45.60620297136813" lon="8.213243590391258"><ele>397.0</ele><time>2026-03-22T13:00:00.998Z</time></trkpt><trkpt lat="45.60621842684232" lon="8.21336930803854"><ele>395.1666666666667</ele><time>2026-03-22T13:00:01.998Z</time></trkpt><trkpt lat="45.6062431282268" lon="8.213500782080972"><ele>393.33333333333337</ele><time>2026-03-22T13:00:02.998Z</time></trkpt><trkpt lat="45.606260130226076" lon="8.213624693263855"><ele>391.5</ele><time>2026-03-22T13:00:03.998Z</time></trkpt><trkpt lat="45.606266952193" lon="8.213750420379418"><ele>389.66666666666663</ele><time>2026-03-22T13:00:04.998Z</time></trkpt><trkpt lat="45.60624986641056" lon="8.213866366378541"><ele>387.8333333333333</ele><time>2026-03-22T13:00:05.998Z</time></trkpt><trkpt lat="45.60623164667132" lon="8.213988684771381"><ele>386.0</ele><time>2026-03-22T13:00:06.998Z</time></trkpt><trkpt lat="45.6062020601777" lon="8.21413166774293"><ele>385.6</ele><time>2026-03-22T13:00:07.998Z</time></trkpt><trkpt lat="45.60618178392633" lon="8.214265806170332"><ele>385.20000000000005</ele><time>2026-03-22T13:00:08.998Z</time></trkpt><trkpt lat="45.606212343215226" lon="8.21438058576614"><ele>384.79999999999995</ele><time>2026-03-22T13:00:09.998Z</time></trkpt><trkpt lat="45.60626937680052" lon="8.214474630149498"><ele>384.4</ele><time>2026-03-22T13:00:10.998Z</time></trkpt><trkpt lat="45.606355004728265" lon="8.214519593566331"><ele>384.0</ele><time>2026-03-22T13:00:11.998Z</time></trkpt><trkpt lat="45.60646050947865" lon="8.214547811312192"><ele>384.0</ele><time>2026-03-22T13:00:12.998Z</time></trkpt><trkpt lat="45.60654699399522" lon="8.214614492294345"><ele>384.0</ele><time>2026-03-22T13:00:13.998Z</time></trkpt><trkpt lat="45.60661110218322" lon="8.214704184271525"><ele>384.0</ele><time>2026-03-22T13:00:14.998Z</time></trkpt><trkpt lat="45.6067031564586" lon="8.214779836269694"><ele>384.0</ele><time>2026-03-22T13:00:15.998Z</time></trkpt><trkpt lat="45.60678297101064" lon="8.214850713201276"><ele>384.0</ele><time>2026-03-22T13:00:16.998Z</time></trkpt><trkpt lat="45.60685261552667" lon="8.214917054651469"><ele>384.3333333333333</ele><time>2026-03-22T13:00:17.998Z</time></trkpt><trkpt lat="45.606900641151114" lon="8.214994731956104"><ele>384.66666666666663</ele><time>2026-03-22T13:00:18.998Z</time></trkpt><trkpt lat="45.60695090502431" lon="8.215076390288159"><ele>385.0</ele><time>2026-03-22T13:00:19.998Z</time></trkpt><trkpt lat="45.6069982418525" lon="8.215180658037307"><ele>385.3333333333333</ele><time>2026-03-22T13:00:20.998Z</time></trkpt><trkpt lat="45.60702344331914" lon="8.215270434864841"><ele>385.66666666666663</ele><time>2026-03-22T13:00:21.998Z</time></trkpt><trkpt lat="45.607019752709924" lon="8.215406672247298"><ele>386.0</ele><time>2026-03-22T13:00:23.998Z</time></trkpt><trkpt lat="45.60695044265334" lon="8.215536289146874"><ele>385.99999999999994</ele><time>2026-03-22T13:00:26Z</time></trkpt><trkpt lat="45.60689306790163" lon="8.215616775840632"><ele>386.0</ele><time>2026-03-22T13:00:27Z</time></trkpt><trkpt lat="45.60681688338676" lon="8.215690757607478"><ele>386.0</ele><time>2026-03-22T13:00:28Z</time></trkpt><trkpt lat="45.60674463162108" lon="8.215760558660191"><ele>386.0</ele><time>2026-03-22T13:00:29Z</time></trkpt><trkpt lat="45.606686353412684" lon="8.215849016448681"><ele>385.99999999999994</ele><time>2026-03-22T13:00:30Z</time></trkpt><trkpt lat="45.60661262672581" lon="8.215914054819374"><ele>386.0</ele><time>2026-03-22T13:00:31Z</time></trkpt><trkpt lat="45.60653900546387" lon="8.216001396696248"><ele>384.8</ele><time>2026-03-22T13:00:32Z</time></trkpt><trkpt lat="45.60650029214788" lon="8.216127863715815"><ele>383.6</ele><time>2026-03-22T13:00:33Z</time></trkpt><trkpt lat="45.60650535774555" lon="8.216282102605978"><ele>382.4</ele><time>2026-03-22T13:00:34Z</time></trkpt><trkpt lat="45.60650336094431" lon="8.216444213675388"><ele>381.2</ele><time>2026-03-22T13:00:35Z</time></trkpt><trkpt lat="45.6065172973527" lon="8.2165507169762"><ele>380.0</ele><time>2026-03-22T13:00:36Z</time></trkpt><trkpt lat="45.60650688811055" lon="8.216647612019552"><ele>377.6</ele><time>2026-03-22T13:00:37Z</time></trkpt><trkpt lat="45.60646735498909" lon="8.216737745344346"><ele>375.2</ele><time>2026-03-22T13:00:38Z</time></trkpt><trkpt lat="45.60639902638634" lon="8.216832530896124"><ele>372.79999999999995</ele><time>2026-03-22T13:00:39Z</time></trkpt><trkpt lat="45.606301299100785" lon="8.216914448676407"><ele>370.4</ele><time>2026-03-22T13:00:40Z</time></trkpt><trkpt lat="45.60621250923531" lon="8.216988924296516"><ele>368.0</ele><time>2026-03-22T13:00:41Z</time></trkpt><trkpt lat="45.60613559339892" lon="8.217110733801325"><ele>367.75</ele><time>2026-03-22T13:00:42Z</time></trkpt><trkpt lat="45.606054078574736" lon="8.217235179792898"><ele>367.5</ele><time>2026-03-22T13:00:43Z</time></trkpt><trkpt lat="45.605980411204854" lon="8.217362129666983"><ele>367.25</ele><time>2026-03-22T13:00:44Z</time></trkpt><trkpt lat="45.60588239941267" lon="8.217494933110668"><ele>367.0</ele><time>2026-03-22T13:00:45Z</time></trkpt><trkpt lat="45.605790211543" lon="8.217615476999363"><ele>367.0</ele><time>2026-03-22T13:00:46Z</time></trkpt><trkpt lat="45.605723519792726" lon="8.217717709195215"><ele>367.0</ele><time>2026-03-22T13:00:47Z</time></trkpt><trkpt lat="45.605671520956726" lon="8.21778816548081"><ele>367.0</ele><time>2026-03-22T13:00:47.999Z</time></trkpt><trkpt lat="45.60558190329887" lon="8.217939142506305"><ele>367.0</ele><time>2026-03-22T13:00:49.999Z</time></trkpt><trkpt lat="45.60553339992825" lon="8.218038948956119"><ele>367.0</ele><time>2026-03-22T13:00:50.999Z</time></trkpt><trkpt lat="45.605469395978" lon="8.218181806322177"><ele>367.0</ele><time>2026-03-22T13:00:51.999Z</time></trkpt><trkpt lat="45.60541185433776" lon="8.218301620407479"><ele>367.0</ele><time>2026-03-22T13:00:52.999Z</time></trkpt><trkpt lat="45.60534649829278" lon="8.218414249503228"><ele>367.0</ele><time>2026-03-22T13:00:53.999Z</time></trkpt><trkpt lat="45.60525874599195" lon="8.218516380201592"><ele>367.0</ele><time>2026-03-22T13:00:54.999Z</time></trkpt><trkpt lat="45.60515721835281" lon="8.21862928251547"><ele>367.0</ele><time>2026-03-22T13:00:55.999Z</time></trkpt><trkpt lat="45.60508885163395" lon="8.21874674801569"><ele>366.8333333333333</ele><time>2026-03-22T13:00:56.999Z</time></trkpt><trkpt lat="45.60503009814479" lon="8.21883570740078"><ele>366.66666666666663</ele><time>2026-03-22T13:00:57.999Z</time></trkpt><trkpt lat="45.604965126837435" lon="8.21887774829976"><ele>366.5</ele><time>2026-03-22T13:00:58.999Z</time></trkpt><trkpt lat="45.60487168879309" lon="8.218881450106357"><ele>366.3333333333333</ele><time>2026-03-22T13:00:59.999Z</time></trkpt><trkpt lat="45.60477387714426" lon="8.218893669286915"><ele>366.1666666666667</ele><time>2026-03-22T13:01:00.999Z</time></trkpt><trkpt lat="45.60468707257576" lon="8.218920857810232"><ele>366.0</ele><time>2026-03-22T13:01:01.999Z</time></trkpt><trkpt lat="45.60462521911308" lon="8.2189779346886"><ele>365.5</ele><time>2026-03-22T13:01:02.999Z</time></trkpt><trkpt lat="45.60455794400025" lon="8.219046007611018"><ele>365.0</ele><time>2026-03-22T13:01:03.999Z</time></trkpt><trkpt lat="45.60447569949655" lon="8.219137091926164"><ele>364.5</ele><time>2026-03-22T13:01:04.999Z</time></trkpt><trkpt lat="45.60440766924131" lon="8.21920527474969"><ele>364.0</ele><time>2026-03-22T13:01:05.999Z</time></trkpt><trkpt lat="45.60433237320206" lon="8.219235029489104"><ele>363.5</ele><time>2026-03-22T13:01:06.999Z</time></trkpt><trkpt lat="45.604242024763366" lon="8.219231930682986"><ele>363.0</ele><time>2026-03-22T13:01:07.999Z</time></trkpt><trkpt lat="45.60415431092767" lon="8.219246237592783"><ele>361.59999999999997</ele><time>2026-03-22T13:01:08.999Z</time></trkpt><trkpt lat="45.6040880075863" lon="8.219322885908452"><ele>360.2</ele><time>2026-03-22T13:01:09.999Z</time></trkpt><trkpt lat="45.603998009528205" lon="8.219427976266182"><ele>358.8</ele><time>2026-03-22T13:01:10.999Z</time></trkpt><trkpt lat="45.603930689402034" lon="8.219535949068073"><ele>357.4</ele><time>2026-03-22T13:01:11.999Z</time></trkpt><trkpt lat="45.60384745361529" lon="8.21964258084689"><ele>356.0</ele><time>2026-03-22T13:01:12.999Z</time></trkpt><trkpt lat="45.60377181147557" lon="8.219772177312697"><ele>355.1666666666667</ele><time>2026-03-22T13:01:13.999Z</time></trkpt><trkpt lat="45.60371515602248" lon="8.219886689492569"><ele>354.33333333333337</ele><time>2026-03-22T13:01:14.999Z</time></trkpt><trkpt lat="45.60367580576337" lon="8.219972090591282"><ele>353.5</ele><time>2026-03-22T13:01:15.999Z</time></trkpt><trkpt lat="45.60364336426722" lon="8.220050012781144"><ele>352.6666666666667</ele><time>2026-03-22T13:01:16.999Z</time></trkpt><trkpt lat="45.60360339063593" lon="8.220124053438319"><ele>351.8333333333333</ele><time>2026-03-22T13:01:17.999Z</time></trkpt><trkpt lat="45.60352730373113" lon="8.22021307435537"><ele>351.0</ele><time>2026-03-22T13:01:18.999Z</time></trkpt><trkpt lat="45.60346973612833" lon="8.220315252304887"><ele>351.20000000000005</ele><time>2026-03-22T13:01:19.999Z</time></trkpt><trkpt lat="45.603436652772785" lon="8.220420557157302"><ele>351.40000000000003</ele><time>2026-03-22T13:01:20.999Z</time></trkpt><trkpt lat="45.6034109339422" lon="8.220535155119542"><ele>351.6</ele><time>2026-03-22T13:01:21.999Z</time></trkpt><trkpt lat="45.603365072456754" lon="8.220668755953964"><ele>351.8</ele><time>2026-03-22T13:01:22.999Z</time></trkpt><trkpt lat="45.60330436951853" lon="8.22081223902115"><ele>352.0</ele><time>2026-03-22T13:01:23.999Z</time></trkpt><trkpt lat="45.603240985010494" lon="8.220957982497255"><ele>352.0</ele><time>2026-03-22T13:01:24.999Z</time></trkpt><trkpt lat="45.603200344810496" lon="8.221079490128497"><ele>352.0</ele><time>2026-03-22T13:01:25.999Z</time></trkpt><trkpt lat="45.60319780370806" lon="8.221178636139154"><ele>352.0</ele><time>2026-03-22T13:01:26.999Z</time></trkpt><trkpt lat="45.60322453504558" lon="8.22129330929041"><ele>352.0</ele><time>2026-03-22T13:01:27.999Z</time></trkpt><trkpt lat="45.60323845530357" lon="8.221393803027864"><ele>352.0</ele><time>2026-03-22T13:01:28.999Z</time></trkpt><trkpt lat="45.60321191014907" lon="8.22153744971251"><ele>352.0</ele><time>2026-03-22T13:01:29.999Z</time></trkpt><trkpt lat="45.60317806148827" lon="8.221708131946745"><ele>352.0</ele><time>2026-03-22T13:01:30.999Z</time></trkpt><trkpt lat="45.60316535486011" lon="8.221864239247719"><ele>352.0</ele><time>2026-03-22T13:01:31.999Z</time></trkpt><trkpt lat="45.60315399325558" lon="8.222029139508757"><ele>352.0</ele><time>2026-03-22T13:01:32.999Z</time></trkpt><trkpt lat="45.603129212993686" lon="8.222160722918222"><ele>352.0</ele><time>2026-03-22T13:01:33.999Z</time></trkpt><trkpt lat="45.603087202591915" lon="8.222274799593759"><ele>352.0</ele><time>2026-03-22T13:01:34.999Z</time></trkpt><trkpt lat="45.60303423492297" lon="8.222388914388617"><ele>351.0</ele><time>2026-03-22T13:01:35.999Z</time></trkpt><trkpt lat="45.602990464757255" lon="8.222493225869584"><ele>350.0</ele><time>2026-03-22T13:01:36.999Z</time></trkpt><trkpt lat="45.60297194658776" lon="8.222585401231788"><ele>349.0</ele><time>2026-03-22T13:01:37.999Z</time></trkpt><trkpt lat="45.60295920272796" lon="8.222696198243863"><ele>348.0</ele><time>2026-03-22T13:01:38.999Z</time></trkpt><trkpt lat="45.60294486156866" lon="8.222808128323697"><ele>347.0</ele><time>2026-03-22T13:01:39.999Z</time></trkpt><trkpt lat="45.60292365670442" lon="8.222923447302792"><ele>346.0</ele><time>2026-03-22T13:01:40.999Z</time></trkpt><trkpt lat="45.602904613943096" lon="8.223029411247756"><ele>346.0</ele><time>2026-03-22T13:01:41.999Z</time></trkpt><trkpt lat="45.60285985608023" lon="8.223137263994833"><ele>346.0</ele><time>2026-03-22T13:01:42.999Z</time></trkpt><trkpt lat="45.60279500616381" lon="8.223234452546698"><ele>346.0</ele><time>2026-03-22T13:01:43.999Z</time></trkpt><trkpt lat="45.60273459585739" lon="8.223311079574804"><ele>346.0</ele><time>2026-03-22T13:01:44.999Z</time></trkpt><trkpt lat="45.6026657087987" lon="8.223395021152093"><ele>346.0</ele><time>2026-03-22T13:01:45.999Z</time></trkpt><trkpt lat="45.60261458287148" lon="8.223490528087455"><ele>346.0</ele><time>2026-03-22T13:01:46.999Z</time></trkpt><trkpt lat="45.602568214829255" lon="8.22358160177188"><ele>345.3333333333333</ele><time>2026-03-22T13:01:47.999Z</time></trkpt><trkpt lat="45.60251699639371" lon="8.223671507561354"><ele>344.66666666666663</ele><time>2026-03-22T13:01:48.999Z</time></trkpt><trkpt lat="45.60246305462921" lon="8.223758755288893"><ele>344.0</ele><time>2026-03-22T13:01:49.999Z</time></trkpt><trkpt lat="45.60242430046653" lon="8.22387799203474"><ele>343.3333333333333</ele><time>2026-03-22T13:01:50.998Z</time></trkpt><trkpt lat="45.60239354554938" lon="8.223994503591161"><ele>342.6666666666667</ele><time>2026-03-22T13:01:51.998Z</time></trkpt><trkpt lat="45.60238538440853" lon="8.224129779078075"><ele>342.0</ele><time>2026-03-22T13:01:52.998Z</time></trkpt><trkpt lat="45.602358465826235" lon="8.224253186142093"><ele>341.3333333333333</ele><time>2026-03-22T13:01:53.998Z</time></trkpt><trkpt lat="45.602320485388766" lon="8.2243602492562"><ele>340.6666666666667</ele><time>2026-03-22T13:01:54.998Z</time></trkpt><trkpt lat="45.60227823899802" lon="8.224453111729032"><ele>340.0</ele><time>2026-03-22T13:01:55.998Z</time></trkpt><trkpt lat="45.602269495832005" lon="8.224560979447123"><ele>339.33333333333337</ele><time>2026-03-22T13:01:56.998Z</time></trkpt><trkpt lat="45.60226962521007" lon="8.224686349498551"><ele>338.6666666666667</ele><time>2026-03-22T13:01:57.998Z</time></trkpt><trkpt lat="45.602265510019436" lon="8.22479249719691"><ele>338.0</ele><time>2026-03-22T13:01:58.998Z</time></trkpt><trkpt lat="45.602206435621625" lon="8.224952745876108"><ele>335.79999999999995</ele><time>2026-03-22T13:02:00.998Z</time></trkpt><trkpt lat="45.602167418078544" lon="8.225026712397144"><ele>333.6</ele><time>2026-03-22T13:02:01.998Z</time></trkpt><trkpt lat="45.602087377823665" lon="8.225150456764325"><ele>331.4</ele><time>2026-03-22T13:02:03.998Z</time></trkpt><trkpt lat="45.6019913509334" lon="8.225252351619217"><ele>329.20000000000005</ele><time>2026-03-22T13:02:05.998Z</time></trkpt><trkpt lat="45.60188101487678" lon="8.22527454342955"><ele>327.0</ele><time>2026-03-22T13:02:07.998Z</time></trkpt><trkpt lat="45.60178286006018" lon="8.225258736242665"><ele>327.0</ele><time>2026-03-22T13:02:09.998Z</time></trkpt><trkpt lat="45.60168577414792" lon="8.225253590396354"><ele>327.0</ele><time>2026-03-22T13:02:11.998Z</time></trkpt><trkpt lat="45.60171108599857" lon="8.225352720103798"><ele>327.0</ele><time>2026-03-22T13:02:16.998Z</time></trkpt><trkpt lat="45.60178444086195" lon="8.22540358540974"><ele>327.0</ele><time>2026-03-22T13:02:18.998Z</time></trkpt><trkpt lat="45.60185941799542" lon="8.225489061512468"><ele>327.0</ele><time>2026-03-22T13:02:20.998Z</time></trkpt><trkpt lat="45.60194719138474" lon="8.225558406681063"><ele>327.0</ele><time>2026-03-22T13:02:22.998Z</time></trkpt><trkpt lat="45.60202905385978" lon="8.225573826532164"><ele>327.0</ele><time>2026-03-22T13:02:24.998Z</time></trkpt><trkpt lat="45.60208344317223" lon="8.225623468406187"><ele>327.0</ele><time>2026-03-22T13:02:26.998Z</time></trkpt><trkpt lat="45.60205599926004" lon="8.225712033893494"><ele>327.0</ele><time>2026-03-22T13:02:28.998Z</time></trkpt><trkpt lat="45.60197404778203" lon="8.22573080768413"><ele>327.0</ele><time>2026-03-22T13:02:31Z</time></trkpt><trkpt lat="45.601907649725156" lon="8.225728483909304"><ele>327.0</ele><time>2026-03-22T13:02:33Z</time></trkpt><trkpt lat="45.601836265586996" lon="8.225727456662538"><ele>327.0</ele><time>2026-03-22T13:02:35Z</time></trkpt><trkpt lat="45.60176850499782" lon="8.225746549468678"><ele>327.0</ele><time>2026-03-22T13:02:37Z</time></trkpt><trkpt lat="45.601733778998984" lon="8.225829100782278"><ele>325.0</ele><time>2026-03-22T13:02:39Z</time></trkpt><trkpt lat="45.60172761584843" lon="8.225936325269236"><ele>323.0</ele><time>2026-03-22T13:02:41Z</time></trkpt><trkpt lat="45.601739397865494" lon="8.226046868616962"><ele>321.0</ele><time>2026-03-22T13:02:43Z</time></trkpt><trkpt lat="45.60174567437088" lon="8.226179325145473"><ele>319.0</ele><time>2026-03-22T13:02:45Z</time></trkpt><trkpt lat="45.601731009001114" lon="8.226321059044624"><ele>317.0</ele><time>2026-03-22T13:02:47Z</time></trkpt><trkpt lat="45.6016915256331" lon="8.226444079677345"><ele>315.0</ele><time>2026-03-22T13:02:49Z</time></trkpt><trkpt lat="45.60161763123107" lon="8.226555269008484"><ele>312.4</ele><time>2026-03-22T13:02:51Z</time></trkpt><trkpt lat="45.601536421998375" lon="8.226659253117015"><ele>309.8</ele><time>2026-03-22T13:02:53Z</time></trkpt><trkpt lat="45.6014372846088" lon="8.226751913747112"><ele>307.2</ele><time>2026-03-22T13:02:55Z</time></trkpt><trkpt lat="45.60132575686116" lon="8.226812233692806"><ele>304.6</ele><time>2026-03-22T13:02:56.999Z</time></trkpt><trkpt lat="45.60126639836318" lon="8.226843283673965"><ele>302.0</ele><time>2026-03-22T13:02:57.999Z</time></trkpt><trkpt lat="45.60115336367486" lon="8.226888405668314"><ele>300.75</ele><time>2026-03-22T13:02:59.999Z</time></trkpt><trkpt lat="45.601043142503684" lon="8.226911971166937"><ele>299.5</ele><time>2026-03-22T13:03:01.999Z</time></trkpt><trkpt lat="45.60092750570193" lon="8.226916071629379"><ele>298.25</ele><time>2026-03-22T13:03:03.999Z</time></trkpt><trkpt lat="45.60080970371314" lon="8.22690341662052"><ele>297.0</ele><time>2026-03-22T13:03:05.999Z</time></trkpt><trkpt lat="45.60072258736827" lon="8.226807708057729"><ele>297.0</ele><time>2026-03-22T13:03:07.999Z</time></trkpt><trkpt lat="45.60065085041763" lon="8.22668439261569"><ele>297.0</ele><time>2026-03-22T13:03:09.999Z</time></trkpt><trkpt lat="45.60061338461317" lon="8.226529648814333"><ele>297.0</ele><time>2026-03-22T13:03:11.999Z</time></trkpt><trkpt lat="45.60063289550561" lon="8.22642711588472"><ele>297.0</ele><time>2026-03-22T13:03:12.999Z</time></trkpt><trkpt lat="45.600646598911574" lon="8.226333559604988"><ele>297.0</ele><time>2026-03-22T13:03:13.999Z</time></trkpt><trkpt lat="45.6006579715132" lon="8.226244835068991"><ele>297.0</ele><time>2026-03-22T13:03:14.999Z</time></trkpt><trkpt lat="45.600655510528306" lon="8.226150538154648"><ele>298.0</ele><time>2026-03-22T13:03:15.999Z</time></trkpt><trkpt lat="45.60059414391101" lon="8.226003727239528"><ele>299.0</ele><time>2026-03-22T13:03:17.999Z</time></trkpt><trkpt lat="45.600520093023775" lon="8.225951108047688"><ele>300.0</ele><time>2026-03-22T13:03:18.999Z</time></trkpt><trkpt lat="45.600466981927646" lon="8.225891936237781"><ele>301.0</ele><time>2026-03-22T13:03:19.999Z</time></trkpt><trkpt lat="45.60041311164871" lon="8.225819906625095"><ele>302.0</ele><time>2026-03-22T13:03:20.999Z</time></trkpt><trkpt lat="45.60037068951458" lon="8.225747905345331"><ele>303.0</ele><time>2026-03-22T13:03:21.999Z</time></trkpt><trkpt lat="45.60033503544293" lon="8.225571916485302"><ele>303.0</ele><time>2026-03-22T13:03:23.999Z</time></trkpt><trkpt lat="45.60035794290411" lon="8.225485069276937"><ele>303.0</ele><time>2026-03-22T13:03:24.999Z</time></trkpt><trkpt lat="45.600383512519926" lon="8.225357209449173"><ele>303.0</ele><time>2026-03-22T13:03:26.999Z</time></trkpt><trkpt lat="45.60026175274901" lon="8.225356105187783"><ele>303.0</ele><time>2026-03-22T13:03:28.999Z</time></trkpt><trkpt lat="45.600217585974285" lon="8.225482036866993"><ele>303.0</ele><time>2026-03-22T13:03:29.999Z</time></trkpt><trkpt lat="45.60019405348361" lon="8.225581494821142"><ele>299.0</ele><time>2026-03-22T13:03:30.999Z</time></trkpt><trkpt lat="45.60017816031614" lon="8.225672733389084"><ele>295.0</ele><time>2026-03-22T13:03:31.999Z</time></trkpt><trkpt lat="45.60016747216207" lon="8.225763699097973"><ele>291.0</ele><time>2026-03-22T13:03:32.999Z</time></trkpt><trkpt lat="45.600160812942896" lon="8.225854750594932"><ele>287.0</ele><time>2026-03-22T13:03:33.999Z</time></trkpt><trkpt lat="45.60015995559385" lon="8.226022126815685"><ele>283.0</ele><time>2026-03-22T13:03:35.999Z</time></trkpt><trkpt lat="45.60025093854736" lon="8.226163134242546"><ele>279.0</ele><time>2026-03-22T13:03:37.999Z</time></trkpt><trkpt lat="45.600294865056405" lon="8.22625742675114"><ele>279.0</ele><time>2026-03-22T13:03:39.999Z</time></trkpt><trkpt lat="45.60022221288758" lon="8.226299499968098"><ele>279.0</ele><time>2026-03-22T13:03:41.999Z</time></trkpt><trkpt lat="45.600140434186635" lon="8.226249780055301"><ele>279.0</ele><time>2026-03-22T13:03:43.999Z</time></trkpt><trkpt lat="45.60007809153849" lon="8.226187254775386"><ele>279.0</ele><time>2026-03-22T13:03:44.999Z</time></trkpt><trkpt lat="45.60001685123983" lon="8.226147896352924"><ele>279.0</ele><time>2026-03-22T13:03:45.999Z</time></trkpt><trkpt lat="45.59996080588346" lon="8.226098603840885"><ele>279.0</ele><time>2026-03-22T13:03:46.999Z</time></trkpt><trkpt lat="45.59985367186296" lon="8.226096038351036"><ele>279.0</ele><time>2026-03-22T13:03:48.999Z</time></trkpt><trkpt lat="45.59980922586889" lon="8.22618133717011"><ele>279.0</ele><time>2026-03-22T13:03:49.999Z</time></trkpt><trkpt lat="45.59980805557999" lon="8.226305792213536"><ele>279.0</ele><time>2026-03-22T13:03:50.999Z</time></trkpt><trkpt lat="45.599841032973615" lon="8.226435378756692"><ele>279.0</ele><time>2026-03-22T13:03:51.999Z</time></trkpt><trkpt lat="45.599867140800285" lon="8.226534267057945"><ele>279.0</ele><time>2026-03-22T13:03:52.999Z</time></trkpt><trkpt lat="45.59989015474047" lon="8.226618432310437"><ele>279.0</ele><time>2026-03-22T13:03:53.999Z</time></trkpt><trkpt lat="45.59992148971698" lon="8.226768534574283"><ele>278.1666666666667</ele><time>2026-03-22T13:03:55.999Z</time></trkpt><trkpt lat="45.59991203748692" lon="8.22692721212909"><ele>277.3333333333333</ele><time>2026-03-22T13:03:57.998Z</time></trkpt><trkpt lat="45.59985381804133" lon="8.226989715371626"><ele>276.5</ele><time>2026-03-22T13:04:00.998Z</time></trkpt><trkpt lat="45.59980257462206" lon="8.226930904441971"><ele>275.66666666666663</ele><time>2026-03-22T13:04:01.998Z</time></trkpt><trkpt lat="45.59977867816168" lon="8.227050367004772"><ele>274.8333333333333</ele><time>2026-03-22T13:04:05.998Z</time></trkpt><trkpt lat="45.59983373770831" lon="8.227126097074265"><ele>274.0</ele><time>2026-03-22T13:04:07.998Z</time></trkpt><trkpt lat="45.59985280629977" lon="8.227220899660013"><ele>273.0</ele><time>2026-03-22T13:04:09.998Z</time></trkpt><trkpt lat="45.59982870559648" lon="8.227335874575068"><ele>272.0</ele><time>2026-03-22T13:04:12.998Z</time></trkpt><trkpt lat="45.599813974581366" lon="8.227446457649698"><ele>271.0</ele><time>2026-03-22T13:04:14.998Z</time></trkpt><trkpt lat="45.599848553642744" lon="8.227562325461145"><ele>270.0</ele><time>2026-03-22T13:04:16.998Z</time></trkpt><trkpt lat="45.5999291443659" lon="8.22763813633222"><ele>269.0</ele><time>2026-03-22T13:04:18.998Z</time></trkpt><trkpt lat="45.60001992911342" lon="8.227665861511106"><ele>268.0</ele><time>2026-03-22T13:04:20.998Z</time></trkpt><trkpt lat="45.60010063330361" lon="8.227716450021694"><ele>268.0</ele><time>2026-03-22T13:04:22.998Z</time></trkpt><trkpt lat="45.60019862350204" lon="8.227754258299113"><ele>268.0</ele><time>2026-03-22T13:04:24.998Z</time></trkpt><trkpt lat="45.60028968424654" lon="8.227799318659578"><ele>268.0</ele><time>2026-03-22T13:04:26.998Z</time></trkpt><trkpt lat="45.60037693774123" lon="8.227866204878053"><ele>268.0</ele><time>2026-03-22T13:04:28.998Z</time></trkpt><trkpt lat="45.60046425904041" lon="8.227951831798473"><ele>268.0</ele><time>2026-03-22T13:04:30.998Z</time></trkpt><trkpt lat="45.600520613276785" lon="8.228051862646561"><ele>268.0</ele><time>2026-03-22T13:04:32.998Z</time></trkpt><trkpt lat="45.60055207421255" lon="8.22813057060921"><ele>268.0</ele><time>2026-03-22T13:04:34.998Z</time></trkpt><trkpt lat="45.600592481929596" lon="8.228221658386325"><ele>268.0</ele><time>2026-03-22T13:04:38Z</time></trkpt><trkpt lat="45.60063400863155" lon="8.228294623797202"><ele>268.0</ele><time>2026-03-22T13:04:42Z</time></trkpt><trkpt lat="45.6006759861418" lon="8.22836992488374"><ele>268.0</ele><time>2026-03-22T13:04:46Z</time></trkpt><trkpt lat="45.60072346497889" lon="8.228436883599834"><ele>268.0</ele><time>2026-03-22T13:05:01Z</time></trkpt><trkpt lat="45.6007584512861" lon="8.228527446828814"><ele>268.0</ele><time>2026-03-22T13:05:03Z</time></trkpt><trkpt lat="45.600817048291134" lon="8.228587710846966"><ele>268.0</ele><time>2026-03-22T13:05:06Z</time></trkpt><trkpt lat="45.600875497937594" lon="8.228638571465801"><ele>268.0</ele><time>2026-03-22T13:05:08.999Z</time></trkpt><trkpt lat="45.600955936200286" lon="8.228702733302846"><ele>268.0</ele><time>2026-03-22T13:05:11.999Z</time></trkpt><trkpt lat="45.60101042287423" lon="8.228761433744475"><ele>268.0</ele><time>2026-03-22T13:05:15.999Z</time></trkpt><trkpt lat="45.60102691760056" lon="8.228865017133298"><ele>268.0</ele><time>2026-03-22T13:05:18.999Z</time></trkpt><trkpt lat="45.601030219473316" lon="8.228957046661682"><ele>268.0</ele><time>2026-03-22T13:05:37.999Z</time></trkpt><trkpt lat="45.601047804254684" lon="8.229086853248283"><ele>268.66666666666663</ele><time>2026-03-22T13:05:39.999Z</time></trkpt><trkpt lat="45.60105830831594" lon="8.229243816527397"><ele>269.3333333333333</ele><time>2026-03-22T13:05:41.999Z</time></trkpt><trkpt lat="45.60106545599116" lon="8.229336326357949"><ele>270.0</ele><time>2026-03-22T13:05:42.999Z</time></trkpt><trkpt lat="45.60106847362495" lon="8.229440377376577"><ele>270.6666666666667</ele><time>2026-03-22T13:05:43.999Z</time></trkpt><trkpt lat="45.60108370108968" lon="8.229557145882064"><ele>271.33333333333337</ele><time>2026-03-22T13:05:44.999Z</time></trkpt><trkpt lat="45.60108789207767" lon="8.229658197039052"><ele>272.0</ele><time>2026-03-22T13:05:45.999Z</time></trkpt><trkpt lat="45.60105394261124" lon="8.229778158559698"><ele>273.0</ele><time>2026-03-22T13:05:50.999Z</time></trkpt><trkpt lat="45.60103007032494" lon="8.229868971276057"><ele>274.0</ele><time>2026-03-22T13:05:52.999Z</time></trkpt><trkpt lat="45.60098769383516" lon="8.229961942702598"><ele>275.0</ele><time>2026-03-22T13:05:54.999Z</time></trkpt><trkpt lat="45.600952445927334" lon="8.230080626439102"><ele>276.0</ele><time>2026-03-22T13:05:56.999Z</time></trkpt><trkpt lat="45.60092950151397" lon="8.230226988796913"><ele>277.0</ele><time>2026-03-22T13:05:58.999Z</time></trkpt><trkpt lat="45.60090418973788" lon="8.230331944432026"><ele>278.0</ele><time>2026-03-22T13:05:59.999Z</time></trkpt><trkpt lat="45.60089768222574" lon="8.23045233903898"><ele>278.0</ele><time>2026-03-22T13:06:00.999Z</time></trkpt><trkpt lat="45.600873950816855" lon="8.230562727081564"><ele>278.0</ele><time>2026-03-22T13:06:01.999Z</time></trkpt><trkpt lat="45.60083226640175" lon="8.230681228739748"><ele>278.0</ele><time>2026-03-22T13:06:02.999Z</time></trkpt><trkpt lat="45.60077976654997" lon="8.230831307006365"><ele>278.0</ele><time>2026-03-22T13:06:03.999Z</time></trkpt><trkpt lat="45.600714901164984" lon="8.230983707499782"><ele>278.0</ele><time>2026-03-22T13:06:04.999Z</time></trkpt><trkpt lat="45.60067040330885" lon="8.231080915461495"><ele>279.2</ele><time>2026-03-22T13:06:05.999Z</time></trkpt><trkpt lat="45.60063823807476" lon="8.231191699323556"><ele>280.4</ele><time>2026-03-22T13:06:07.998Z</time></trkpt><trkpt lat="45.60071709769665" lon="8.231273745978966"><ele>281.59999999999997</ele><time>2026-03-22T13:06:09.998Z</time></trkpt><trkpt lat="45.60077657406511" lon="8.231376496849295"><ele>282.8</ele><time>2026-03-22T13:06:11.998Z</time></trkpt><trkpt lat="45.600883114063016" lon="8.231502788117295"><ele>284.0</ele><time>2026-03-22T13:06:13.998Z</time></trkpt><trkpt lat="45.60096550141291" lon="8.231528213489945"><ele>284.59999999999997</ele><time>2026-03-22T13:06:14.998Z</time></trkpt><trkpt lat="45.60105828987497" lon="8.231562425303363"><ele>285.2</ele><time>2026-03-22T13:06:15.998Z</time></trkpt><trkpt lat="45.60115868281516" lon="8.231620351454763"><ele>285.79999999999995</ele><time>2026-03-22T13:06:16.998Z</time></trkpt><trkpt lat="45.60126074213895" lon="8.231680058489921"><ele>286.4</ele><time>2026-03-22T13:06:17.998Z</time></trkpt><trkpt lat="45.601314678930706" lon="8.23175062027455"><ele>287.0</ele><time>2026-03-22T13:06:18.998Z</time></trkpt><trkpt lat="45.601387106899125" lon="8.231762019381303"><ele>287.0</ele><time>2026-03-22T13:06:26.998Z</time></trkpt><trkpt lat="45.601457193275145" lon="8.231786511439095"><ele>287.0</ele><time>2026-03-22T13:06:34.998Z</time></trkpt><trkpt lat="45.601528274399314" lon="8.231826983436358"><ele>287.0</ele><time>2026-03-22T13:06:37.998Z</time></trkpt><trkpt lat="45.60158641281878" lon="8.231903409454155"><ele>287.0</ele><time>2026-03-22T13:06:39.998Z</time></trkpt><trkpt lat="45.6016822566638" lon="8.232016519579757"><ele>287.0</ele><time>2026-03-22T13:06:42Z</time></trkpt><trkpt lat="45.601745303336166" lon="8.232103944300038"><ele>287.0</ele><time>2026-03-22T13:06:43Z</time></trkpt><trkpt lat="45.60182105354025" lon="8.232182881667178"><ele>287.0</ele><time>2026-03-22T13:06:44Z</time></trkpt><trkpt lat="45.60190619793867" lon="8.23226241978822"><ele>287.0</ele><time>2026-03-22T13:06:45Z</time></trkpt><trkpt lat="45.601986975373585" lon="8.2323261559047"><ele>287.0</ele><time>2026-03-22T13:06:46Z</time></trkpt><trkpt lat="45.602072227446435" lon="8.232426642135461"><ele>287.0</ele><time>2026-03-22T13:06:47Z</time></trkpt><trkpt lat="45.60215037512606" lon="8.232524815449715"><ele>287.0</ele><time>2026-03-22T13:06:48Z</time></trkpt><trkpt lat="45.60219185632611" lon="8.232597166935514"><ele>289.4</ele><time>2026-03-22T13:06:49Z</time></trkpt><trkpt lat="45.602280435054936" lon="8.232604500852801"><ele>291.79999999999995</ele><time>2026-03-22T13:06:51Z</time></trkpt><trkpt lat="45.60234714394321" lon="8.23258490586787"><ele>294.2</ele><time>2026-03-22T13:06:52Z</time></trkpt><trkpt lat="45.60243966159507" lon="8.232721960046762"><ele>296.59999999999997</ele><time>2026-03-22T13:06:54Z</time></trkpt><trkpt lat="45.602497214732075" lon="8.232840784782836"><ele>299.0</ele><time>2026-03-22T13:06:55Z</time></trkpt><trkpt lat="45.6025612957307" lon="8.232956601607672"><ele>299.0</ele><time>2026-03-22T13:06:56Z</time></trkpt><trkpt lat="45.60264354912189" lon="8.233042403217732"><ele>299.0</ele><time>2026-03-22T13:06:57Z</time></trkpt><trkpt lat="45.60270795168425" lon="8.233158253466254"><ele>299.0</ele><time>2026-03-22T13:06:58Z</time></trkpt><trkpt lat="45.60276406099997" lon="8.233282512754709"><ele>299.0</ele><time>2026-03-22T13:06:59Z</time></trkpt><trkpt lat="45.60282838442044" lon="8.233350092698526"><ele>299.0</ele><time>2026-03-22T13:07:00Z</time></trkpt><trkpt lat="45.60295765756323" lon="8.233387903850351"><ele>301.33333333333337</ele><time>2026-03-22T13:07:02Z</time></trkpt><trkpt lat="45.6030619988758" lon="8.233477399336062"><ele>303.6666666666667</ele><time>2026-03-22T13:07:04Z</time></trkpt><trkpt lat="45.603132330480385" lon="8.233507463845786"><ele>306.0</ele><time>2026-03-22T13:07:05Z</time></trkpt><trkpt lat="45.60320001067482" lon="8.233552396856954"><ele>308.3333333333333</ele><time>2026-03-22T13:07:06Z</time></trkpt><trkpt lat="45.6032687628741" lon="8.233598513217478"><ele>310.66666666666663</ele><time>2026-03-22T13:07:07Z</time></trkpt><trkpt lat="45.60336181048011" lon="8.233652877239352"><ele>313.0</ele><time>2026-03-22T13:07:09Z</time></trkpt><trkpt lat="45.60343811160676" lon="8.233737187429718"><ele>313.0</ele><time>2026-03-22T13:07:10Z</time></trkpt><trkpt lat="45.603533405822844" lon="8.233845699225489"><ele>313.0</ele><time>2026-03-22T13:07:11Z</time></trkpt><trkpt lat="45.60362173384459" lon="8.233918250870056"><ele>313.0</ele><time>2026-03-22T13:07:12Z</time></trkpt><trkpt lat="45.60370228582826" lon="8.233920182401652"><ele>313.0</ele><time>2026-03-22T13:07:13Z</time></trkpt><trkpt lat="45.60378104383417" lon="8.23389509965924"><ele>313.0</ele><time>2026-03-22T13:07:14Z</time></trkpt><trkpt lat="45.603866282496355" lon="8.233920472658523"><ele>314.6</ele><time>2026-03-22T13:07:14.999Z</time></trkpt><trkpt lat="45.6039508971967" lon="8.233920342374045"><ele>316.20000000000005</ele><time>2026-03-22T13:07:15.999Z</time></trkpt><trkpt lat="45.604041545793706" lon="8.23392525252711"><ele>317.8</ele><time>2026-03-22T13:07:16.999Z</time></trkpt><trkpt lat="45.60414277569522" lon="8.233992325061896"><ele>319.40000000000003</ele><time>2026-03-22T13:07:18.999Z</time></trkpt><trkpt lat="45.60420857986653" lon="8.234090558945367"><ele>321.0</ele><time>2026-03-22T13:07:19.999Z</time></trkpt><trkpt lat="45.60426109727331" lon="8.234193623517678"><ele>321.20000000000005</ele><time>2026-03-22T13:07:20.999Z</time></trkpt><trkpt lat="45.60427876868771" lon="8.234286923778868"><ele>321.40000000000003</ele><time>2026-03-22T13:07:21.999Z</time></trkpt><trkpt lat="45.6042936543211" lon="8.234412419672806"><ele>321.6</ele><time>2026-03-22T13:07:22.999Z</time></trkpt><trkpt lat="45.604340964530785" lon="8.234542722521265"><ele>321.8</ele><time>2026-03-22T13:07:23.999Z</time></trkpt><trkpt lat="45.604423975088174" lon="8.23469032005788"><ele>322.0</ele><time>2026-03-22T13:07:24.999Z</time></trkpt><trkpt lat="45.60455183414611" lon="8.234835328328856"><ele>324.6</ele><time>2026-03-22T13:07:25.999Z</time></trkpt><trkpt lat="45.60466983321472" lon="8.234977124518025"><ele>327.20000000000005</ele><time>2026-03-22T13:07:26.999Z</time></trkpt><trkpt lat="45.60472710195017" lon="8.235121602076566"><ele>329.8</ele><time>2026-03-22T13:07:27.999Z</time></trkpt><trkpt lat="45.60475047702742" lon="8.235236105899258"><ele>332.4</ele><time>2026-03-22T13:07:28.999Z</time></trkpt><trkpt lat="45.604769468606506" lon="8.235361014460139"><ele>335.0</ele><time>2026-03-22T13:07:29.999Z</time></trkpt><trkpt lat="45.604850605091286" lon="8.23547079791722"><ele>335.0</ele><time>2026-03-22T13:07:30.999Z</time></trkpt><trkpt lat="45.604950280005035" lon="8.235591825862574"><ele>335.0</ele><time>2026-03-22T13:07:31.999Z</time></trkpt><trkpt lat="45.60507340618131" lon="8.2356840410146"><ele>335.0</ele><time>2026-03-22T13:07:32.999Z</time></trkpt><trkpt lat="45.6051695383038" lon="8.235768171652904"><ele>335.0</ele><time>2026-03-22T13:07:33.999Z</time></trkpt><trkpt lat="45.605245935581046" lon="8.235824980554906"><ele>334.83333333333337</ele><time>2026-03-22T13:07:34.999Z</time></trkpt><trkpt lat="45.60531811317008" lon="8.235862221775339"><ele>334.6666666666667</ele><time>2026-03-22T13:07:35.999Z</time></trkpt><trkpt lat="45.60538890665842" lon="8.235884077104405"><ele>334.5</ele><time>2026-03-22T13:07:36.999Z</time></trkpt><trkpt lat="45.605476111285746" lon="8.235881870845763"><ele>334.3333333333333</ele><time>2026-03-22T13:07:37.999Z</time></trkpt><trkpt lat="45.60556152981887" lon="8.23587259906235"><ele>334.16666666666663</ele><time>2026-03-22T13:07:38.999Z</time></trkpt><trkpt lat="45.605648534516604" lon="8.235889826821031"><ele>334.0</ele><time>2026-03-22T13:07:39.999Z</time></trkpt><trkpt lat="45.60573444476433" lon="8.23589778497713"><ele>335.2</ele><time>2026-03-22T13:07:40.999Z</time></trkpt><trkpt lat="45.60581732446682" lon="8.235891418531338"><ele>336.4</ele><time>2026-03-22T13:07:41.999Z</time></trkpt><trkpt lat="45.60591463091611" lon="8.235887994527873"><ele>337.6</ele><time>2026-03-22T13:07:42.999Z</time></trkpt><trkpt lat="45.60599312158063" lon="8.235875706843887"><ele>338.8</ele><time>2026-03-22T13:07:43.999Z</time></trkpt><trkpt lat="45.60603098180454" lon="8.235999256420143"><ele>340.0</ele><time>2026-03-22T13:07:45.999Z</time></trkpt><trkpt lat="45.60601147722194" lon="8.236137426215883"><ele>340.0</ele><time>2026-03-22T13:07:46.999Z</time></trkpt><trkpt lat="45.606003358357384" lon="8.236305283830246"><ele>340.0</ele><time>2026-03-22T13:07:47.999Z</time></trkpt><trkpt lat="45.60599598725879" lon="8.236434437794971"><ele>340.0</ele><time>2026-03-22T13:07:48.999Z</time></trkpt><trkpt lat="45.605936653645394" lon="8.23650895787702"><ele>340.0</ele><time>2026-03-22T13:09:41.999Z</time></trkpt><trkpt lat="45.60586081015739" lon="8.23655514776334"><ele>340.0</ele><time>2026-03-22T13:09:44.999Z</time></trkpt><trkpt lat="45.60578151573884" lon="8.236609059196404"><ele>340.0</ele><time>2026-03-22T13:09:46.999Z</time></trkpt><trkpt lat="45.605668106983224" lon="8.236673848937507"><ele>340.0</ele><time>2026-03-22T13:09:48.999Z</time></trkpt><trkpt lat="45.605628477785125" lon="8.23689718570116"><ele>340.0</ele><time>2026-03-22T13:09:50.999Z</time></trkpt><trkpt lat="45.605534280222216" lon="8.23698661817164"><ele>340.0</ele><time>2026-03-22T13:09:52.999Z</time></trkpt><trkpt lat="45.60543844606886" lon="8.236936135953398"><ele>340.0</ele><time>2026-03-22T13:09:53.999Z</time></trkpt><trkpt lat="45.605371986263506" lon="8.237057476491403"><ele>340.0</ele><time>2026-03-22T13:09:55.999Z</time></trkpt><trkpt lat="45.60533386856502" lon="8.237131719728483"><ele>340.0</ele><time>2026-03-22T13:09:58.999Z</time></trkpt><trkpt lat="45.605278450483" lon="8.237207390847667"><ele>340.0</ele><time>2026-03-22T13:10:06.999Z</time></trkpt><trkpt lat="45.60522271623863" lon="8.237267823646311"><ele>340.0</ele><time>2026-03-22T13:10:08.999Z</time></trkpt><trkpt lat="45.60515913444078" lon="8.237353785486127"><ele>340.0</ele><time>2026-03-22T13:10:10.999Z</time></trkpt><trkpt lat="45.605084462117475" lon="8.237450043113435"><ele>342.0</ele><time>2026-03-22T13:10:12.999Z</time></trkpt><trkpt lat="45.60498716031322" lon="8.237530444203385"><ele>344.0</ele><time>2026-03-22T13:10:14.998Z</time></trkpt><trkpt lat="45.60489722875958" lon="8.23763393928549"><ele>346.0</ele><time>2026-03-22T13:10:16.998Z</time></trkpt><trkpt lat="45.60480608312065" lon="8.237736571577235"><ele>348.0</ele><time>2026-03-22T13:10:18.998Z</time></trkpt><trkpt lat="45.60471208151974" lon="8.23781205521975"><ele>348.0</ele><time>2026-03-22T13:10:20.998Z</time></trkpt><trkpt lat="45.604642525631625" lon="8.237861152708696"><ele>348.0</ele><time>2026-03-22T13:10:22.998Z</time></trkpt><trkpt lat="45.6045431928549" lon="8.237861066520708"><ele>348.0</ele><time>2026-03-22T13:10:25.998Z</time></trkpt><trkpt lat="45.6044728372852" lon="8.237891583976435"><ele>348.0</ele><time>2026-03-22T13:10:27.998Z</time></trkpt><trkpt lat="45.60438003192184" lon="8.237960449589153"><ele>348.0</ele><time>2026-03-22T13:10:29.998Z</time></trkpt><trkpt lat="45.6042600550732" lon="8.238006531913433"><ele>347.6666666666667</ele><time>2026-03-22T13:10:31.998Z</time></trkpt><trkpt lat="45.60419432252841" lon="8.238037138934317"><ele>347.3333333333333</ele><time>2026-03-22T13:10:32.998Z</time></trkpt><trkpt lat="45.60412951620817" lon="8.2380413957659"><ele>347.0</ele><time>2026-03-22T13:10:33.998Z</time></trkpt><trkpt lat="45.60406274307336" lon="8.23806140642013"><ele>346.66666666666663</ele><time>2026-03-22T13:10:34.998Z</time></trkpt><trkpt lat="45.603999905725445" lon="8.238078874994294"><ele>346.3333333333333</ele><time>2026-03-22T13:10:35.998Z</time></trkpt><trkpt lat="45.60393466894106" lon="8.238095298624376"><ele>346.0</ele><time>2026-03-22T13:10:36.998Z</time></trkpt><trkpt lat="45.60381521826973" lon="8.238117943159665"><ele>346.0</ele><time>2026-03-22T13:10:38.998Z</time></trkpt><trkpt lat="45.603705350096355" lon="8.238134525342815"><ele>346.0</ele><time>2026-03-22T13:10:40.998Z</time></trkpt><trkpt lat="45.60359234834354" lon="8.238147878668228"><ele>346.0</ele><time>2026-03-22T13:10:42.998Z</time></trkpt><trkpt lat="45.603485751424714" lon="8.238170270104042"><ele>346.0</ele><time>2026-03-22T13:10:44.998Z</time></trkpt><trkpt lat="45.60339221552586" lon="8.238165714984364"><ele>346.0</ele><time>2026-03-22T13:10:45.998Z</time></trkpt><trkpt lat="45.60329633543984" lon="8.238181166846442"><ele>345.8333333333333</ele><time>2026-03-22T13:10:47.998Z</time></trkpt><trkpt lat="45.60323291791729" lon="8.238199809945746"><ele>345.66666666666663</ele><time>2026-03-22T13:10:48.998Z</time></trkpt><trkpt lat="45.603120193803214" lon="8.238175594575255"><ele>345.5</ele><time>2026-03-22T13:10:50.998Z</time></trkpt><trkpt lat="45.60305336033327" lon="8.238170272951121"><ele>345.3333333333333</ele><time>2026-03-22T13:10:51.998Z</time></trkpt><trkpt lat="45.602956968344685" lon="8.238166287360068"><ele>345.1666666666667</ele><time>2026-03-22T13:10:54Z</time></trkpt><trkpt lat="45.60285847455503" lon="8.238129124140551"><ele>345.0</ele><time>2026-03-22T13:10:56Z</time></trkpt><trkpt lat="45.602777482474536" lon="8.238087288853974"><ele>344.0</ele><time>2026-03-22T13:10:58Z</time></trkpt><trkpt lat="45.602693334673894" lon="8.237998096236348"><ele>343.0</ele><time>2026-03-22T13:11:00Z</time></trkpt><trkpt lat="45.602649859398745" lon="8.237892778055208"><ele>342.0</ele><time>2026-03-22T13:11:01Z</time></trkpt><trkpt lat="45.60260849971267" lon="8.237807911297146"><ele>341.0</ele><time>2026-03-22T13:11:02Z</time></trkpt><trkpt lat="45.60256896311305" lon="8.23772802782825"><ele>340.0</ele><time>2026-03-22T13:11:03Z</time></trkpt><trkpt lat="45.602525388783356" lon="8.237644651954618"><ele>339.0</ele><time>2026-03-22T13:11:04Z</time></trkpt><trkpt lat="45.60248026029581" lon="8.237563560478202"><ele>339.0</ele><time>2026-03-22T13:11:05Z</time></trkpt><trkpt lat="45.602432617296195" lon="8.237503995720473"><ele>339.0</ele><time>2026-03-22T13:11:06Z</time></trkpt><trkpt lat="45.60233864973783" lon="8.237524411943562"><ele>339.0</ele><time>2026-03-22T13:11:07Z</time></trkpt><trkpt lat="45.602259673769034" lon="8.23752998594257"><ele>339.0</ele><time>2026-03-22T13:11:08Z</time></trkpt><trkpt lat="45.602174340365536" lon="8.23753564879466"><ele>339.0</ele><time>2026-03-22T13:11:09Z</time></trkpt><trkpt lat="45.60207288008626" lon="8.237571790091906"><ele>339.0</ele><time>2026-03-22T13:11:10Z</time></trkpt><trkpt lat="45.601979984822684" lon="8.237619776375022"><ele>336.6666666666667</ele><time>2026-03-22T13:11:11Z</time></trkpt><trkpt lat="45.60189239371582" lon="8.237680837432519"><ele>334.3333333333333</ele><time>2026-03-22T13:11:12Z</time></trkpt><trkpt lat="45.601811738826136" lon="8.237759140833047"><ele>332.0</ele><time>2026-03-22T13:11:13Z</time></trkpt><trkpt lat="45.60175487785299" lon="8.237864519358563"><ele>329.66666666666663</ele><time>2026-03-22T13:11:14Z</time></trkpt><trkpt lat="45.60169732883564" lon="8.237928816469351"><ele>327.3333333333333</ele><time>2026-03-22T13:11:14.999Z</time></trkpt><trkpt lat="45.60163430557556" lon="8.237953044119177"><ele>325.0</ele><time>2026-03-22T13:11:15.999Z</time></trkpt><trkpt lat="45.60156657482952" lon="8.237939955762684"><ele>325.0</ele><time>2026-03-22T13:11:16.999Z</time></trkpt><trkpt lat="45.60150484414508" lon="8.237865056362402"><ele>325.0</ele><time>2026-03-22T13:11:17.999Z</time></trkpt><trkpt lat="45.60144956270533" lon="8.237760635805838"><ele>325.0</ele><time>2026-03-22T13:11:18.999Z</time></trkpt><trkpt lat="45.60140599664001" lon="8.237676416381488"><ele>325.0</ele><time>2026-03-22T13:11:19.999Z</time></trkpt><trkpt lat="45.601348251731125" lon="8.2376260660535"><ele>325.0</ele><time>2026-03-22T13:11:20.999Z</time></trkpt><trkpt lat="45.60128256522113" lon="8.237592286661124"><ele>325.0</ele><time>2026-03-22T13:11:21.999Z</time></trkpt><trkpt lat="45.601206902834605" lon="8.237547289487352"><ele>323.4</ele><time>2026-03-22T13:11:23.999Z</time></trkpt><trkpt lat="45.60114947033532" lon="8.237427690603534"><ele>321.8</ele><time>2026-03-22T13:11:25.999Z</time></trkpt><trkpt lat="45.60109716284385" lon="8.237375224401536"><ele>320.2</ele><time>2026-03-22T13:11:26.999Z</time></trkpt><trkpt lat="45.60111828527005" lon="8.237165716484537"><ele>318.6</ele><time>2026-03-22T13:11:27.999Z</time></trkpt><trkpt lat="45.60110872933135" lon="8.237032254323"><ele>317.0</ele><time>2026-03-22T13:11:28.999Z</time></trkpt><trkpt lat="45.601093295841046" lon="8.236930149872078"><ele>316.83333333333337</ele><time>2026-03-22T13:11:29.999Z</time></trkpt><trkpt lat="45.60106439872751" lon="8.236813383830588"><ele>316.6666666666667</ele><time>2026-03-22T13:11:31.999Z</time></trkpt><trkpt lat="45.60104938054497" lon="8.23671681874837"><ele>316.5</ele><time>2026-03-22T13:11:46.999Z</time></trkpt><trkpt lat="45.60098843959282" lon="8.236628695370689"><ele>316.3333333333333</ele><time>2026-03-22T13:11:48.999Z</time></trkpt><trkpt lat="45.600900435713086" lon="8.236683372059932"><ele>316.16666666666663</ele><time>2026-03-22T13:11:50.999Z</time></trkpt><trkpt lat="45.600800446842825" lon="8.236680131226551"><ele>316.0</ele><time>2026-03-22T13:11:52.999Z</time></trkpt><trkpt lat="45.60070037070719" lon="8.236665632223174"><ele>316.0</ele><time>2026-03-22T13:11:54.999Z</time></trkpt><trkpt lat="45.6006353558055" lon="8.236675779929818"><ele>316.0</ele><time>2026-03-22T13:11:55.999Z</time></trkpt><trkpt lat="45.600547451186195" lon="8.236618796387113"><ele>316.0</ele><time>2026-03-22T13:11:57.999Z</time></trkpt><trkpt lat="45.600533406691696" lon="8.23645524265655"><ele>316.0</ele><time>2026-03-22T13:12:00.999Z</time></trkpt><trkpt lat="45.60055485139819" lon="8.236292862862319"><ele>316.0</ele><time>2026-03-22T13:12:02.999Z</time></trkpt><trkpt lat="45.60052463658474" lon="8.23620947282981"><ele>316.00000000000006</ele><time>2026-03-22T13:12:03.999Z</time></trkpt><trkpt lat="45.60048298129189" lon="8.236133994967908"><ele>316.0</ele><time>2026-03-22T13:12:04.999Z</time></trkpt><trkpt lat="45.600432818926436" lon="8.236053289143515"><ele>316.0</ele><time>2026-03-22T13:12:05.999Z</time></trkpt><trkpt lat="45.60038171321826" lon="8.235979616841895"><ele>316.0</ele><time>2026-03-22T13:12:06.999Z</time></trkpt><trkpt lat="45.60031087392347" lon="8.23592611103769"><ele>316.0</ele><time>2026-03-22T13:12:07.999Z</time></trkpt><trkpt lat="45.60024231958229" lon="8.2358935293109"><ele>316.00000000000006</ele><time>2026-03-22T13:12:08.999Z</time></trkpt><trkpt lat="45.60017940189044" lon="8.23587277297421"><ele>316.0</ele><time>2026-03-22T13:12:09.999Z</time></trkpt><trkpt lat="45.60013535937969" lon="8.23578128541759"><ele>314.66666666666663</ele><time>2026-03-22T13:12:11.999Z</time></trkpt><trkpt lat="45.60010791083532" lon="8.235669695618347"><ele>313.3333333333333</ele><time>2026-03-22T13:12:14.998Z</time></trkpt><trkpt lat="45.60005405351402" lon="8.23555843416311"><ele>312.0</ele><time>2026-03-22T13:12:17.998Z</time></trkpt><trkpt lat="45.600002535068626" lon="8.235491733988557"><ele>310.6666666666667</ele><time>2026-03-22T13:12:19.998Z</time></trkpt><trkpt lat="45.59995945903987" lon="8.2354038667261"><ele>309.33333333333337</ele><time>2026-03-22T13:12:22.998Z</time></trkpt><trkpt lat="45.59991327719336" lon="8.235289112605933"><ele>308.0</ele><time>2026-03-22T13:12:26.998Z</time></trkpt><trkpt lat="45.59987062611419" lon="8.235208041427953"><ele>308.0</ele><time>2026-03-22T13:12:28.998Z</time></trkpt><trkpt lat="45.59983429710409" lon="8.235130054768508"><ele>308.0</ele><time>2026-03-22T13:12:31.998Z</time></trkpt><trkpt lat="45.59979468816353" lon="8.235058089525415"><ele>308.0</ele><time>2026-03-22T13:12:41.998Z</time></trkpt><trkpt lat="45.599735760269105" lon="8.234970966219299"><ele>308.0</ele><time>2026-03-22T13:12:48.998Z</time></trkpt><trkpt lat="45.599690298628566" lon="8.234779049295582"><ele>308.0</ele><time>2026-03-22T13:12:50.998Z</time></trkpt><trkpt lat="45.599676829280654" lon="8.23467135643375"><ele>308.0</ele><time>2026-03-22T13:12:51.998Z</time></trkpt><trkpt lat="45.5996626324685" lon="8.234570583673428"><ele>307.0</ele><time>2026-03-22T13:12:52.998Z</time></trkpt><trkpt lat="45.59963347530475" lon="8.234478081829822"><ele>306.0</ele><time>2026-03-22T13:12:53.998Z</time></trkpt><trkpt lat="45.59959084318465" lon="8.234391053485465"><ele>305.0</ele><time>2026-03-22T13:12:54.998Z</time></trkpt><trkpt lat="45.59953702085105" lon="8.234302454751797"><ele>304.0</ele><time>2026-03-22T13:12:55.998Z</time></trkpt><trkpt lat="45.59948922331393" lon="8.234227901630788"><ele>303.0</ele><time>2026-03-22T13:12:56.998Z</time></trkpt><trkpt lat="45.59942056271806" lon="8.23411165836508"><ele>302.0</ele><time>2026-03-22T13:12:59Z</time></trkpt><trkpt lat="45.599385288908" lon="8.234035452618166"><ele>300.4</ele><time>2026-03-22T13:13:00Z</time></trkpt><trkpt lat="45.59931924023119" lon="8.23390545745689"><ele>298.79999999999995</ele><time>2026-03-22T13:13:02Z</time></trkpt><trkpt lat="45.59923010160438" lon="8.23387116716624"><ele>297.2</ele><time>2026-03-22T13:13:04Z</time></trkpt><trkpt lat="45.59909981977983" lon="8.233876914208839"><ele>295.59999999999997</ele><time>2026-03-22T13:13:06Z</time></trkpt><trkpt lat="45.5990323747223" lon="8.233898655016334"><ele>294.0</ele><time>2026-03-22T13:13:07Z</time></trkpt><trkpt lat="45.59895412403232" lon="8.233918187516997"><ele>294.0</ele><time>2026-03-22T13:13:08Z</time></trkpt><trkpt lat="45.59887595444155" lon="8.23391939182888"><ele>294.0</ele><time>2026-03-22T13:13:09Z</time></trkpt><trkpt lat="45.598800558968286" lon="8.233903065086906"><ele>294.0</ele><time>2026-03-22T13:13:10Z</time></trkpt><trkpt lat="45.598703932947835" lon="8.23389991263325"><ele>294.0</ele><time>2026-03-22T13:13:11Z</time></trkpt><trkpt lat="45.59861047872468" lon="8.233899740063197"><ele>294.0</ele><time>2026-03-22T13:13:12Z</time></trkpt><trkpt lat="45.59852334407279" lon="8.233880691242113"><ele>294.0</ele><time>2026-03-22T13:13:13Z</time></trkpt><trkpt lat="45.598446402355094" lon="8.233858077200658"><ele>293.1666666666667</ele><time>2026-03-22T13:13:14Z</time></trkpt><trkpt lat="45.59836638589462" lon="8.233843938413816"><ele>292.3333333333333</ele><time>2026-03-22T13:13:15Z</time></trkpt><trkpt lat="45.59828069654955" lon="8.233818937788607"><ele>291.5</ele><time>2026-03-22T13:13:16Z</time></trkpt><trkpt lat="45.59818634918266" lon="8.233804417599307"><ele>290.66666666666663</ele><time>2026-03-22T13:13:17Z</time></trkpt><trkpt lat="45.5981098572274" lon="8.233803221726967"><ele>289.8333333333333</ele><time>2026-03-22T13:13:18Z</time></trkpt><trkpt lat="45.59803601520728" lon="8.23380164090264"><ele>289.0</ele><time>2026-03-22T13:13:18.999Z</time></trkpt><trkpt lat="45.597967001746994" lon="8.233790436510644"><ele>289.0</ele><time>2026-03-22T13:13:19.999Z</time></trkpt><trkpt lat="45.59790283554141" lon="8.233789722520463"><ele>289.0</ele><time>2026-03-22T13:13:20.999Z</time></trkpt><trkpt lat="45.59780235147475" lon="8.233801120133306"><ele>289.0</ele><time>2026-03-22T13:13:22.999Z</time></trkpt><trkpt lat="45.59771988233473" lon="8.233816899822772"><ele>289.0</ele><time>2026-03-22T13:13:24.999Z</time></trkpt><trkpt lat="45.59763683582797" lon="8.233806119120107"><ele>289.0</ele><time>2026-03-22T13:13:26.999Z</time></trkpt><trkpt lat="45.59753505749304" lon="8.233811725280363"><ele>289.0</ele><time>2026-03-22T13:13:28.999Z</time></trkpt><trkpt lat="45.59746506609538" lon="8.233809813563939"><ele>288.8</ele><time>2026-03-22T13:13:29.999Z</time></trkpt><trkpt lat="45.59735904216285" lon="8.233761506051104"><ele>288.59999999999997</ele><time>2026-03-22T13:13:31.999Z</time></trkpt><trkpt lat="45.59729673762055" lon="8.233734850494077"><ele>288.4</ele><time>2026-03-22T13:13:32.999Z</time></trkpt><trkpt lat="45.5971983001602" lon="8.233651355599207"><ele>288.2</ele><time>2026-03-22T13:13:34.999Z</time></trkpt><trkpt lat="45.597092042199364" lon="8.233558069614999"><ele>288.0</ele><time>2026-03-22T13:13:36.999Z</time></trkpt><trkpt lat="45.5969981130759" lon="8.233461397040402"><ele>286.3333333333333</ele><time>2026-03-22T13:13:38.999Z</time></trkpt><trkpt lat="45.596914053449474" lon="8.233380338310415"><ele>284.6666666666667</ele><time>2026-03-22T13:13:40.999Z</time></trkpt><trkpt lat="45.596853365242595" lon="8.233310163313254"><ele>283.0</ele><time>2026-03-22T13:13:41.999Z</time></trkpt><trkpt lat="45.59678684396179" lon="8.233256294347044"><ele>281.33333333333337</ele><time>2026-03-22T13:13:42.999Z</time></trkpt><trkpt lat="45.59672858647728" lon="8.233208729817031"><ele>279.6666666666667</ele><time>2026-03-22T13:13:43.999Z</time></trkpt><trkpt lat="45.59666638479841" lon="8.233169113640747"><ele>278.0</ele><time>2026-03-22T13:13:44.999Z</time></trkpt><trkpt lat="45.5966058569344" lon="8.233133029002962"><ele>276.83333333333337</ele><time>2026-03-22T13:13:45.999Z</time></trkpt><trkpt lat="45.5965316056031" lon="8.233078758682185"><ele>275.6666666666667</ele><time>2026-03-22T13:13:46.999Z</time></trkpt><trkpt lat="45.59646749974906" lon="8.233057015924942"><ele>274.5</ele><time>2026-03-22T13:13:47.999Z</time></trkpt><trkpt lat="45.59639195074203" lon="8.233008741042418"><ele>273.3333333333333</ele><time>2026-03-22T13:13:48.999Z</time></trkpt><trkpt lat="45.59632969795165" lon="8.23296749105761"><ele>272.16666666666663</ele><time>2026-03-22T13:13:49.999Z</time></trkpt><trkpt lat="45.59626817434317" lon="8.232924914662005"><ele>271.0</ele><time>2026-03-22T13:13:50.999Z</time></trkpt><trkpt lat="45.59617000507821" lon="8.23283116394534"><ele>270.2</ele><time>2026-03-22T13:13:52.999Z</time></trkpt><trkpt lat="45.5960940388466" lon="8.232693619546403"><ele>269.40000000000003</ele><time>2026-03-22T13:13:54.999Z</time></trkpt><trkpt lat="45.59598777897171" lon="8.23266900698401"><ele>268.6</ele><time>2026-03-22T13:13:56.999Z</time></trkpt><trkpt lat="45.59592404452801" lon="8.232669140997901"><ele>267.8</ele><time>2026-03-22T13:13:57.999Z</time></trkpt><trkpt lat="45.59586953675377" lon="8.232715443197918"><ele>267.0</ele><time>2026-03-22T13:13:58.999Z</time></trkpt><trkpt lat="45.59577349987056" lon="8.232821450590246"><ele>267.0</ele><time>2026-03-22T13:14:00.999Z</time></trkpt><trkpt lat="45.59568133159288" lon="8.232952639918015"><ele>267.0</ele><time>2026-03-22T13:14:02.999Z</time></trkpt><trkpt lat="45.595602452297236" lon="8.2330594929236"><ele>267.0</ele><time>2026-03-22T13:14:04.999Z</time></trkpt><trkpt lat="45.59550131211311" lon="8.233177338304984"><ele>267.0</ele><time>2026-03-22T13:14:06.999Z</time></trkpt><trkpt lat="45.5954367413411" lon="8.233230978393555"><ele>267.0</ele><time>2026-03-22T13:14:07.999Z</time></trkpt><trkpt lat="45.59538698587852" lon="8.233295168440087"><ele>265.6</ele><time>2026-03-22T13:14:08.999Z</time></trkpt><trkpt lat="45.59527971966772" lon="8.233350485126582"><ele>264.2</ele><time>2026-03-22T13:14:10.999Z</time></trkpt><trkpt lat="45.59521582401436" lon="8.233474159135834"><ele>262.8</ele><time>2026-03-22T13:14:12.999Z</time></trkpt><trkpt lat="45.59511605609702" lon="8.23353055198124"><ele>261.4</ele><time>2026-03-22T13:14:14.999Z</time></trkpt><trkpt lat="45.59502162594933" lon="8.233477435558514"><ele>260.0</ele><time>2026-03-22T13:14:16.999Z</time></trkpt><trkpt lat="45.594956380704076" lon="8.23345387912843"><ele>260.0</ele><time>2026-03-22T13:14:19.998Z</time></trkpt><trkpt lat="45.59494255029947" lon="8.233344324140772"><ele>260.0</ele><time>2026-03-22T13:14:53.998Z</time></trkpt><trkpt lat="45.59497588514336" lon="8.233192758001657"><ele>260.0</ele><time>2026-03-22T13:14:55.998Z</time></trkpt><trkpt lat="45.59499607776565" lon="8.23309285453714"><ele>260.0</ele><time>2026-03-22T13:14:56.998Z</time></trkpt><trkpt lat="45.59501232424354" lon="8.232983471747946"><ele>260.0</ele><time>2026-03-22T13:14:57.998Z</time></trkpt><trkpt lat="45.595031091043296" lon="8.2328591118869"><ele>260.0</ele><time>2026-03-22T13:14:58.998Z</time></trkpt><trkpt lat="45.59505034013156" lon="8.232732283264843"><ele>260.0</ele><time>2026-03-22T13:14:59.998Z</time></trkpt><trkpt lat="45.59507223461962" lon="8.232602583195797"><ele>260.0</ele><time>2026-03-22T13:15:00.998Z</time></trkpt><trkpt lat="45.595096112520885" lon="8.23247466140486"><ele>260.0</ele><time>2026-03-22T13:15:01.998Z</time></trkpt><trkpt lat="45.595114583266955" lon="8.232350784692539"><ele>260.0</ele><time>2026-03-22T13:15:02.998Z</time></trkpt><trkpt lat="45.59513944183833" lon="8.232225538473786"><ele>260.0</ele><time>2026-03-22T13:15:04Z</time></trkpt><trkpt lat="45.5951566136584" lon="8.23210662561293"><ele>260.33333333333337</ele><time>2026-03-22T13:15:05Z</time></trkpt><trkpt lat="45.595176225885325" lon="8.231988641231359"><ele>260.6666666666667</ele><time>2026-03-22T13:15:06Z</time></trkpt><trkpt lat="45.59515433466221" lon="8.23189953353712"><ele>261.0</ele><time>2026-03-22T13:15:07Z</time></trkpt><trkpt lat="45.59510090294344" lon="8.231823687079393"><ele>261.3333333333333</ele><time>2026-03-22T13:15:08Z</time></trkpt><trkpt lat="45.59501127600161" lon="8.231722539334474"><ele>261.66666666666663</ele><time>2026-03-22T13:15:10Z</time></trkpt><trkpt lat="45.59495048328784" lon="8.231690460470528"><ele>262.0</ele><time>2026-03-22T13:15:11Z</time></trkpt><trkpt lat="45.594831484158235" lon="8.231716524204483"><ele>262.0</ele><time>2026-03-22T13:15:13Z</time></trkpt><trkpt lat="45.59476383433504" lon="8.23172818133053"><ele>262.0</ele><time>2026-03-22T13:15:14Z</time></trkpt><trkpt lat="45.594694956181485" lon="8.231743397352925"><ele>262.0</ele><time>2026-03-22T13:15:15Z</time></trkpt><trkpt lat="45.594626090709255" lon="8.231754401799655"><ele>262.0</ele><time>2026-03-22T13:15:16Z</time></trkpt><trkpt lat="45.59452468517028" lon="8.231770334581487"><ele>262.0</ele><time>2026-03-22T13:15:18Z</time></trkpt><trkpt lat="45.5944576260535" lon="8.231797277423704"><ele>262.0</ele><time>2026-03-22T13:15:20.999Z</time></trkpt><trkpt lat="45.5943424737154" lon="8.231858582460323"><ele>263.3333333333333</ele><time>2026-03-22T13:15:22.999Z</time></trkpt><trkpt lat="45.59428423390958" lon="8.231940556936772"><ele>264.66666666666663</ele><time>2026-03-22T13:15:23.999Z</time></trkpt><trkpt lat="45.59423430850816" lon="8.232022591893655"><ele>266.0</ele><time>2026-03-22T13:15:24.999Z</time></trkpt><trkpt lat="45.594186200640486" lon="8.232101640846418"><ele>267.3333333333333</ele><time>2026-03-22T13:15:25.999Z</time></trkpt><trkpt lat="45.59413813945788" lon="8.23216421974496"><ele>268.6666666666667</ele><time>2026-03-22T13:15:26.999Z</time></trkpt><trkpt lat="45.59408468961245" lon="8.232221114881234"><ele>270.0</ele><time>2026-03-22T13:15:27.999Z</time></trkpt><trkpt lat="45.593979329090295" lon="8.232282383718767"><ele>270.0</ele><time>2026-03-22T13:15:29.999Z</time></trkpt><trkpt lat="45.59391301716851" lon="8.232276680456435"><ele>270.0</ele><time>2026-03-22T13:15:31.999Z</time></trkpt><trkpt lat="45.59383185129002" lon="8.232264677242112"><ele>270.0</ele><time>2026-03-22T13:15:33.999Z</time></trkpt><trkpt lat="45.59371361917879" lon="8.232261459687669"><ele>270.0</ele><time>2026-03-22T13:15:35.999Z</time></trkpt><trkpt lat="45.593613218005935" lon="8.232836683759656"><ele>271.5</ele><time>2026-03-22T13:15:37.999Z</time></trkpt><trkpt lat="45.59351537060563" lon="8.232255811490129"><ele>273.0</ele><time>2026-03-22T13:15:39.999Z</time></trkpt><trkpt lat="45.59338798929694" lon="8.232251659435612"><ele>273.0</ele><time>2026-03-22T13:15:41.999Z</time></trkpt><trkpt lat="45.59332094259584" lon="8.23224947402178"><ele>273.0</ele><time>2026-03-22T13:15:42.999Z</time></trkpt><trkpt lat="45.59325140681176" lon="8.232247207455794"><ele>273.0</ele><time>2026-03-22T13:15:43.999Z</time></trkpt><trkpt lat="45.59315153738339" lon="8.23227513335203"><ele>273.0</ele><time>2026-03-22T13:15:45.999Z</time></trkpt><trkpt lat="45.59306908745361" lon="8.232224852861648"><ele>273.0</ele><time>2026-03-22T13:15:47.999Z</time></trkpt><trkpt lat="45.5929892007198" lon="8.232196624161025"><ele>273.0</ele><time>2026-03-22T13:15:50.999Z</time></trkpt><trkpt lat="45.59289698414083" lon="8.232146147411944"><ele>272.6</ele><time>2026-03-22T13:15:54.999Z</time></trkpt><trkpt lat="45.592807026252515" lon="8.232102980188607"><ele>272.20000000000005</ele><time>2026-03-22T13:15:56.999Z</time></trkpt><trkpt lat="45.59271818267165" lon="8.232157764246049"><ele>271.8</ele><time>2026-03-22T13:15:58.999Z</time></trkpt><trkpt lat="45.592617350091956" lon="8.232213677588616"><ele>271.40000000000003</ele><time>2026-03-22T13:16:00.999Z</time></trkpt><trkpt lat="45.59251093427898" lon="8.232258808001472"><ele>271.0</ele><time>2026-03-22T13:16:02.999Z</time></trkpt><trkpt lat="45.59242101809784" lon="8.2322996040103"><ele>271.0</ele><time>2026-03-22T13:16:04.999Z</time></trkpt><trkpt lat="45.59233594446045" lon="8.232334591336262"><ele>271.0</ele><time>2026-03-22T13:16:06.999Z</time></trkpt><trkpt lat="45.5922179309598" lon="8.232306107334681"><ele>271.0</ele><time>2026-03-22T13:16:08.999Z</time></trkpt><trkpt lat="45.592113708382946" lon="8.232293684754163"><ele>271.0</ele><time>2026-03-22T13:16:10.999Z</time></trkpt><trkpt lat="45.59202861521868" lon="8.232244373310715"><ele>271.0</ele><time>2026-03-22T13:16:12.999Z</time></trkpt><trkpt lat="45.59194507902896" lon="8.23219097804869"><ele>268.5</ele><time>2026-03-22T13:16:17.999Z</time></trkpt><trkpt lat="45.59175325172512" lon="8.232348425713392"><ele>266.0</ele><time>2026-03-22T13:16:18.999Z</time></trkpt><trkpt lat="45.59165818660259" lon="8.232388375006176"><ele>263.5</ele><time>2026-03-22T13:16:21.998Z</time></trkpt><trkpt lat="45.59157680324807" lon="8.23239270653207"><ele>261.0</ele><time>2026-03-22T13:16:23.998Z</time></trkpt><trkpt lat="45.59149103141231" lon="8.232349434093909"><ele>261.0</ele><time>2026-03-22T13:16:25.998Z</time></trkpt><trkpt lat="45.591386262626884" lon="8.232317603717108"><ele>261.0</ele><time>2026-03-22T13:16:27.998Z</time></trkpt><trkpt lat="45.59130063335269" lon="8.232321685335666"><ele>261.0</ele><time>2026-03-22T13:16:29.998Z</time></trkpt><trkpt lat="45.59122510778925" lon="8.232383027977203"><ele>261.0</ele><time>2026-03-22T13:16:31.998Z</time></trkpt><trkpt lat="45.591137722733166" lon="8.232440527129807"><ele>261.0</ele><time>2026-03-22T13:16:33.998Z</time></trkpt><trkpt lat="45.5910258603963" lon="8.232500380701582"><ele>260.0</ele><time>2026-03-22T13:16:35.998Z</time></trkpt><trkpt lat="45.5909637501842" lon="8.232529216925585"><ele>259.0</ele><time>2026-03-22T13:16:36.998Z</time></trkpt><trkpt lat="45.59089905662639" lon="8.232550196785255"><ele>258.0</ele><time>2026-03-22T13:16:37.998Z</time></trkpt><trkpt lat="45.59083343501934" lon="8.232559575007857"><ele>257.0</ele><time>2026-03-22T13:16:38.998Z</time></trkpt><trkpt lat="45.590767671241736" lon="8.232561686668335"><ele>256.0</ele><time>2026-03-22T13:16:39.998Z</time></trkpt><trkpt lat="45.59069484806349" lon="8.232531648178565"><ele>255.0</ele><time>2026-03-22T13:16:40.998Z</time></trkpt><trkpt lat="45.590618232031915" lon="8.232539761816055"><ele>254.0</ele><time>2026-03-22T13:16:41.998Z</time></trkpt><trkpt lat="45.59053590048466" lon="8.232516781532448"><ele>254.0</ele><time>2026-03-22T13:16:42.998Z</time></trkpt><trkpt lat="45.59045294733809" lon="8.232504074015223"><ele>253.99999999999997</ele><time>2026-03-22T13:16:43.998Z</time></trkpt><trkpt lat="45.59036112294407" lon="8.23250629419617"><ele>253.99999999999997</ele><time>2026-03-22T13:16:44.998Z</time></trkpt><trkpt lat="45.590269224653454" lon="8.232519186143243"><ele>254.0</ele><time>2026-03-22T13:16:45.998Z</time></trkpt><trkpt lat="45.590174815292265" lon="8.232544705551065"><ele>254.0</ele><time>2026-03-22T13:16:46.998Z</time></trkpt><trkpt lat="45.59007921222193" lon="8.232550023624446"><ele>253.79999999999998</ele><time>2026-03-22T13:16:47.998Z</time></trkpt><trkpt lat="45.58998652727127" lon="8.23257601101272"><ele>253.59999999999997</ele><time>2026-03-22T13:16:48.998Z</time></trkpt><trkpt lat="45.58990311352073" lon="8.23262843513273"><ele>253.4</ele><time>2026-03-22T13:16:49.998Z</time></trkpt><trkpt lat="45.58981362952096" lon="8.232652428273365"><ele>253.2</ele><time>2026-03-22T13:16:50.998Z</time></trkpt><trkpt lat="45.5897224093474" lon="8.232671915351325"><ele>253.0</ele><time>2026-03-22T13:16:51.998Z</time></trkpt><trkpt lat="45.589632860682386" lon="8.232705367455072"><ele>253.0</ele><time>2026-03-22T13:16:52.998Z</time></trkpt><trkpt lat="45.58954605602044" lon="8.232751445937446"><ele>253.0</ele><time>2026-03-22T13:16:53.998Z</time></trkpt><trkpt lat="45.58945415434336" lon="8.232796757385705"><ele>253.0</ele><time>2026-03-22T13:16:54.998Z</time></trkpt><trkpt lat="45.58936301432602" lon="8.232842441785447"><ele>253.0</ele><time>2026-03-22T13:16:55.998Z</time></trkpt><trkpt lat="45.58926575116785" lon="8.232860771288983"><ele>253.0</ele><time>2026-03-22T13:16:56.998Z</time></trkpt><trkpt lat="45.589176773185315" lon="8.232909315037391"><ele>253.0</ele><time>2026-03-22T13:16:57.998Z</time></trkpt><trkpt lat="45.58908576304736" lon="8.232906000065851"><ele>253.0</ele><time>2026-03-22T13:16:58.998Z</time></trkpt><trkpt lat="45.58898890327488" lon="8.232906521944539"><ele>253.0</ele><time>2026-03-22T13:16:59.998Z</time></trkpt><trkpt lat="45.588893096922874" lon="8.232913144689235"><ele>253.0</ele><time>2026-03-22T13:17:00.998Z</time></trkpt><trkpt lat="45.58880237312536" lon="8.232913005446857"><ele>253.0</ele><time>2026-03-22T13:17:01.998Z</time></trkpt><trkpt lat="45.58871972752824" lon="8.2329022976403"><ele>252.71428571428575</ele><time>2026-03-22T13:17:02.998Z</time></trkpt><trkpt lat="45.5886446615204" lon="8.232880009127792"><ele>252.42857142857144</ele><time>2026-03-22T13:17:03.998Z</time></trkpt><trkpt lat="45.588564336866426" lon="8.232856225036967"><ele>252.14285714285714</ele><time>2026-03-22T13:17:04.998Z</time></trkpt><trkpt lat="45.588502334285074" lon="8.232817234412337"><ele>251.85714285714286</ele><time>2026-03-22T13:17:05.998Z</time></trkpt><trkpt lat="45.588442594635104" lon="8.232757158275694"><ele>251.57142857142856</ele><time>2026-03-22T13:17:06.998Z</time></trkpt><trkpt lat="45.58838096432971" lon="8.232731575532291"><ele>251.28571428571425</ele><time>2026-03-22T13:17:07.998Z</time></trkpt><trkpt lat="45.58830024290316" lon="8.232741201097525"><ele>250.99999999999997</ele><time>2026-03-22T13:17:09Z</time></trkpt><trkpt lat="45.588224074694594" lon="8.232756354171846"><ele>251.00000000000003</ele><time>2026-03-22T13:17:10Z</time></trkpt><trkpt lat="45.58815072255362" lon="8.232787018946"><ele>251.0</ele><time>2026-03-22T13:17:11Z</time></trkpt><trkpt lat="45.588076381383786" lon="8.232827834351294"><ele>251.0</ele><time>2026-03-22T13:17:12Z</time></trkpt><trkpt lat="45.58799806354864" lon="8.232865286958384"><ele>251.0</ele><time>2026-03-22T13:17:13Z</time></trkpt><trkpt lat="45.5879185612374" lon="8.232922153570197"><ele>251.00000000000003</ele><time>2026-03-22T13:17:14Z</time></trkpt><trkpt lat="45.58784238178286" lon="8.232983059813277"><ele>251.0</ele><time>2026-03-22T13:17:15Z</time></trkpt><trkpt lat="45.58777081422758" lon="8.233031720013427"><ele>250.16666666666669</ele><time>2026-03-22T13:17:16Z</time></trkpt><trkpt lat="45.58769595637233" lon="8.23307012799382"><ele>249.33333333333334</ele><time>2026-03-22T13:17:17Z</time></trkpt><trkpt lat="45.58762344394987" lon="8.233087498803277"><ele>248.5</ele><time>2026-03-22T13:17:18Z</time></trkpt><trkpt lat="45.58752564799531" lon="8.233064211946699"><ele>247.66666666666669</ele><time>2026-03-22T13:17:20Z</time></trkpt><trkpt lat="45.58743650858" lon="8.23295395186167"><ele>246.83333333333334</ele><time>2026-03-22T13:17:22Z</time></trkpt><trkpt lat="45.58739110105808" lon="8.232870416523083"><ele>246.0</ele><time>2026-03-22T13:17:23.999Z</time></trkpt><trkpt lat="45.587309235439164" lon="8.232844073821385"><ele>246.0</ele><time>2026-03-22T13:18:23.998Z</time></trkpt><trkpt lat="45.587246090291856" lon="8.23290684087084"><ele>246.0</ele><time>2026-03-22T13:18:26.998Z</time></trkpt><trkpt lat="45.587182903384026" lon="8.232945185042814"><ele>246.0</ele><time>2026-03-22T13:18:28.998Z</time></trkpt><trkpt lat="45.5870972474797" lon="8.232974758233619"><ele>246.0</ele><time>2026-03-22T13:18:30.998Z</time></trkpt><trkpt lat="45.58700906976029" lon="8.233004642599143"><ele>246.0</ele><time>2026-03-22T13:18:32.998Z</time></trkpt><trkpt lat="45.58691445961519" lon="8.233052288053784"><ele>246.0</ele><time>2026-03-22T13:18:34.998Z</time></trkpt><trkpt lat="45.58680192353177" lon="8.2330839222092"><ele>245.83333333333334</ele><time>2026-03-22T13:18:36.998Z</time></trkpt><trkpt lat="45.58671294654709" lon="8.233115874991917"><ele>245.66666666666669</ele><time>2026-03-22T13:18:38.998Z</time></trkpt><trkpt lat="45.58664648653726" lon="8.23313883060784"><ele>245.5</ele><time>2026-03-22T13:18:40.998Z</time></trkpt><trkpt lat="45.58657230875454" lon="8.233164452029882"><ele>245.33333333333334</ele><time>2026-03-22T13:18:47.998Z</time></trkpt><trkpt lat="45.58651137570413" lon="8.233194709382156"><ele>245.16666666666669</ele><time>2026-03-22T13:18:49.999Z</time></trkpt><trkpt lat="45.586432230355406" lon="8.233281453627047"><ele>245.0</ele><time>2026-03-22T13:18:52.999Z</time></trkpt><trkpt lat="45.58636214672093" lon="8.233447398108217"><ele>245.0</ele><time>2026-03-22T13:18:54.999Z</time></trkpt><trkpt lat="45.58629134780308" lon="8.233497049116751"><ele>245.0</ele><time>2026-03-22T13:18:55.999Z</time></trkpt><trkpt lat="45.58622201069212" lon="8.233479598659029"><ele>245.0</ele><time>2026-03-22T13:18:56.999Z</time></trkpt><trkpt lat="45.58612465661209" lon="8.233499563421075"><ele>245.0</ele><time>2026-03-22T13:18:57.999Z</time></trkpt><trkpt lat="45.58597302423417" lon="8.23350556462242"><ele>245.0</ele><time>2026-03-22T13:18:58.999Z</time></trkpt><trkpt lat="45.585804208508755" lon="8.233520166528452"><ele>245.2</ele><time>2026-03-22T13:18:59.999Z</time></trkpt><trkpt lat="45.58566629166059" lon="8.233629007735466"><ele>245.4</ele><time>2026-03-22T13:19:00.999Z</time></trkpt><trkpt lat="45.5855663775306" lon="8.233664485490134"><ele>245.60000000000002</ele><time>2026-03-22T13:19:01.999Z</time></trkpt><trkpt lat="45.585490356238694" lon="8.233685982440113"><ele>245.8</ele><time>2026-03-22T13:19:02.999Z</time></trkpt><trkpt lat="45.58539533794305" lon="8.233689048076949"><ele>246.0</ele><time>2026-03-22T13:19:06.999Z</time></trkpt><trkpt lat="45.58534083837919" lon="8.233783884482225"><ele>246.14285714285717</ele><time>2026-03-22T13:19:10.999Z</time></trkpt><trkpt lat="45.58530263171472" lon="8.233862965045622"><ele>246.28571428571428</ele><time>2026-03-22T13:19:21.001Z</time></trkpt><trkpt lat="45.58529296161926" lon="8.233976344833096"><ele>246.42857142857144</ele><time>2026-03-22T13:19:23.001Z</time></trkpt><trkpt lat="45.585309933155216" lon="8.234066615575825"><ele>246.57142857142858</ele><time>2026-03-22T13:19:24.001Z</time></trkpt><trkpt lat="45.585322576208895" lon="8.234175817568895"><ele>246.71428571428572</ele><time>2026-03-22T13:19:25.001Z</time></trkpt><trkpt lat="45.58530034251906" lon="8.23429555989318"><ele>246.85714285714286</ele><time>2026-03-22T13:19:26.001Z</time></trkpt><trkpt lat="45.585326848055914" lon="8.234389295542021"><ele>247.0</ele><time>2026-03-22T13:19:27.001Z</time></trkpt><trkpt lat="45.585382374419765" lon="8.23448046154451"><ele>247.39999999999998</ele><time>2026-03-22T13:19:28.001Z</time></trkpt><trkpt lat="45.585424294897216" lon="8.234605925522239"><ele>247.79999999999998</ele><time>2026-03-22T13:19:29.001Z</time></trkpt><trkpt lat="45.585426952748826" lon="8.234767219509022"><ele>248.2</ele><time>2026-03-22T13:19:30Z</time></trkpt><trkpt lat="45.58542465546572" lon="8.23490876851825"><ele>248.6</ele><time>2026-03-22T13:19:31Z</time></trkpt><trkpt lat="45.58542465546766" lon="8.235004263600544"><ele>249.0</ele><time>2026-03-22T13:19:32Z</time></trkpt><trkpt lat="45.58539623632913" lon="8.235153546352246"><ele>249.66666666666669</ele><time>2026-03-22T13:19:34Z</time></trkpt><trkpt lat="45.58538818910795" lon="8.235245494630975"><ele>250.33333333333334</ele><time>2026-03-22T13:19:35Z</time></trkpt><trkpt lat="45.585392417435095" lon="8.235369809006682"><ele>251.0</ele><time>2026-03-22T13:19:37Z</time></trkpt><trkpt lat="45.585732143931864" lon="8.235478982586395"><ele>251.00000000000003</ele><time>2026-03-22T13:19:38Z</time></trkpt><trkpt lat="45.58580702242081" lon="8.235525570348594"><ele>251.0</ele><time>2026-03-22T13:19:39Z</time></trkpt><trkpt lat="45.585888061826644" lon="8.23557105107382"><ele>251.0</ele><time>2026-03-22T13:19:40Z</time></trkpt><trkpt lat="45.58598364988745" lon="8.235598554497455"><ele>251.0</ele><time>2026-03-22T13:19:41Z</time></trkpt><trkpt lat="45.586081254665814" lon="8.235580194722976"><ele>251.00000000000003</ele><time>2026-03-22T13:19:42Z</time></trkpt><trkpt lat="45.5861466898912" lon="8.235544250376726"><ele>251.0</ele><time>2026-03-22T13:19:43Z</time></trkpt><trkpt lat="45.58622891399443" lon="8.235509783922616"><ele>251.00000000000003</ele><time>2026-03-22T13:19:45Z</time></trkpt><trkpt lat="45.58627831129064" lon="8.23559228211227"><ele>251.0</ele><time>2026-03-22T13:19:48Z</time></trkpt><trkpt lat="45.58634566194749" lon="8.235640601972671"><ele>251.0</ele><time>2026-03-22T13:19:50Z</time></trkpt><trkpt lat="45.586415953245925" lon="8.235662658819422"><ele>251.0</ele><time>2026-03-22T13:19:53Z</time></trkpt><trkpt lat="45.586485034391075" lon="8.235679795711784"><ele>251.00000000000003</ele><time>2026-03-22T13:19:58Z</time></trkpt><trkpt lat="45.58650656119122" lon="8.23577380601876"><ele>251.0</ele><time>2026-03-22T13:21:02.999Z</time></trkpt><trkpt lat="45.58647999323325" lon="8.235908762624852"><ele>251.83333333333334</ele><time>2026-03-22T13:21:04.999Z</time></trkpt><trkpt lat="45.586444353964026" lon="8.23599599328612"><ele>252.66666666666669</ele><time>2026-03-22T13:21:07.999Z</time></trkpt><trkpt lat="45.58637046939206" lon="8.236035866171088"><ele>253.5</ele><time>2026-03-22T13:21:09.999Z</time></trkpt><trkpt lat="45.586301323594796" lon="8.236045150807563"><ele>254.33333333333331</ele><time>2026-03-22T13:21:12.999Z</time></trkpt><trkpt lat="45.58622711286689" lon="8.236093186900098"><ele>255.16666666666666</ele><time>2026-03-22T13:21:14.999Z</time></trkpt><trkpt lat="45.586210104376896" lon="8.236225344642826"><ele>256.0</ele><time>2026-03-22T13:21:17.999Z</time></trkpt><trkpt lat="45.58620608885977" lon="8.236335268320413"><ele>256.8333333333333</ele><time>2026-03-22T13:21:20.001Z</time></trkpt><trkpt lat="45.58618070331467" lon="8.236470404445848"><ele>257.66666666666663</ele><time>2026-03-22T13:21:22.001Z</time></trkpt><trkpt lat="45.58615697423298" lon="8.236556606600217"><ele>258.5</ele><time>2026-03-22T13:21:23.001Z</time></trkpt><trkpt lat="45.58612254455667" lon="8.236696551953175"><ele>259.3333333333333</ele><time>2026-03-22T13:21:25.001Z</time></trkpt><trkpt lat="45.586041446278635" lon="8.236711530342413"><ele>260.1666666666667</ele><time>2026-03-22T13:21:27.001Z</time></trkpt><trkpt lat="45.58597236761362" lon="8.236688049207961"><ele>261.0</ele><time>2026-03-22T13:21:28.001Z</time></trkpt><trkpt lat="45.585863858619454" lon="8.236753305942354"><ele>262.1666666666667</ele><time>2026-03-22T13:21:30.001Z</time></trkpt><trkpt lat="45.58581947636874" lon="8.236828372885803"><ele>263.3333333333333</ele><time>2026-03-22T13:21:31.001Z</time></trkpt><trkpt lat="45.585789503293725" lon="8.236929321086857"><ele>264.5</ele><time>2026-03-22T13:21:32.001Z</time></trkpt><trkpt lat="45.585760481689206" lon="8.237054593589889"><ele>265.66666666666663</ele><time>2026-03-22T13:21:33.001Z</time></trkpt><trkpt lat="45.58574176384657" lon="8.237189307969548"><ele>266.8333333333333</ele><time>2026-03-22T13:21:34Z</time></trkpt><trkpt lat="45.58574778994792" lon="8.237302146413718"><ele>268.0</ele><time>2026-03-22T13:21:35Z</time></trkpt><trkpt lat="45.58575687071651" lon="8.237479114200397"><ele>269.6</ele><time>2026-03-22T13:21:37Z</time></trkpt><trkpt lat="45.5857873846781" lon="8.237598607748069"><ele>271.20000000000005</ele><time>2026-03-22T13:21:38Z</time></trkpt><trkpt lat="45.58580170277528" lon="8.237728531447708"><ele>272.8</ele><time>2026-03-22T13:21:39Z</time></trkpt><trkpt lat="45.585805925719264" lon="8.237871550348592"><ele>274.40000000000003</ele><time>2026-03-22T13:21:40Z</time></trkpt><trkpt lat="45.58582067757115" lon="8.23799832300798"><ele>276.0</ele><time>2026-03-22T13:21:41Z</time></trkpt><trkpt lat="45.58582572765461" lon="8.238139332298804"><ele>277.8</ele><time>2026-03-22T13:21:42Z</time></trkpt><trkpt lat="45.585810500308746" lon="8.238257446682402"><ele>279.6</ele><time>2026-03-22T13:21:43Z</time></trkpt><trkpt lat="45.58580712176506" lon="8.238384281157087"><ele>281.4</ele><time>2026-03-22T13:21:44Z</time></trkpt><trkpt lat="45.58581243743027" lon="8.23853668593427"><ele>283.2</ele><time>2026-03-22T13:21:45Z</time></trkpt><trkpt lat="45.585779817181695" lon="8.238694745490353"><ele>285.0</ele><time>2026-03-22T13:21:46Z</time></trkpt><trkpt lat="45.585755566660666" lon="8.238814844579903"><ele>286.4</ele><time>2026-03-22T13:21:47Z</time></trkpt><trkpt lat="45.58577169605294" lon="8.239005871520359"><ele>287.8</ele><time>2026-03-22T13:21:49Z</time></trkpt><trkpt lat="45.58577212391627" lon="8.239114925939944"><ele>289.2</ele><time>2026-03-22T13:21:50Z</time></trkpt><trkpt lat="45.5857634762759" lon="8.239246265835417"><ele>290.6</ele><time>2026-03-22T13:21:51Z</time></trkpt><trkpt lat="45.58573206131415" lon="8.239382781591317"><ele>292.0</ele><time>2026-03-22T13:21:52Z</time></trkpt><trkpt lat="45.58569948575011" lon="8.239510654713996"><ele>292.0</ele><time>2026-03-22T13:21:53Z</time></trkpt><trkpt lat="45.5856502318656" lon="8.23958953774914"><ele>292.0</ele><time>2026-03-22T13:21:54Z</time></trkpt><trkpt lat="45.58560079389417" lon="8.239653715209158"><ele>292.0</ele><time>2026-03-22T13:21:55Z</time></trkpt><trkpt lat="45.585597077872244" lon="8.239816092489283"><ele>292.0</ele><time>2026-03-22T13:21:57Z</time></trkpt><trkpt lat="45.585683311430564" lon="8.239926183180174"><ele>292.0</ele><time>2026-03-22T13:21:59Z</time></trkpt><trkpt lat="45.585729958892124" lon="8.240006324113072"><ele>292.0</ele><time>2026-03-22T13:22:01Z</time></trkpt><trkpt lat="45.58572866993454" lon="8.24011248946236"><ele>292.2</ele><time>2026-03-22T13:22:03Z</time></trkpt><trkpt lat="45.58563104832882" lon="8.240208518571318"><ele>292.4</ele><time>2026-03-22T13:22:05Z</time></trkpt><trkpt lat="45.58557160495113" lon="8.240278543990135"><ele>292.6</ele><time>2026-03-22T13:22:08Z</time></trkpt><trkpt lat="45.58550983700983" lon="8.240338782085535"><ele>292.8</ele><time>2026-03-22T13:22:09Z</time></trkpt><trkpt lat="45.58546505015458" lon="8.240413524149346"><ele>293.0</ele><time>2026-03-22T13:22:11Z</time></trkpt><trkpt lat="45.5853174563343" lon="8.240580829030693"><ele>293.4</ele><time>2026-03-22T13:22:12Z</time></trkpt><trkpt lat="45.585256657536306" lon="8.24065202317473"><ele>293.8</ele><time>2026-03-22T13:22:13Z</time></trkpt><trkpt lat="45.5851884579391" lon="8.240719770520643"><ele>294.2</ele><time>2026-03-22T13:22:14Z</time></trkpt><trkpt lat="45.58510023182365" lon="8.240785617286047"><ele>294.6</ele><time>2026-03-22T13:22:15Z</time></trkpt><trkpt lat="45.58498181866407" lon="8.240866553542931"><ele>295.0</ele><time>2026-03-22T13:22:16Z</time></trkpt><trkpt lat="45.58490760414069" lon="8.240932512739079"><ele>295.0</ele><time>2026-03-22T13:22:17Z</time></trkpt><trkpt lat="45.58484899555221" lon="8.240969178437059"><ele>295.0</ele><time>2026-03-22T13:22:18Z</time></trkpt><trkpt lat="45.58478020234384" lon="8.240998808209605"><ele>295.0</ele><time>2026-03-22T13:22:19Z</time></trkpt><trkpt lat="45.584707971476156" lon="8.241048840767748"><ele>295.0</ele><time>2026-03-22T13:22:20Z</time></trkpt><trkpt lat="45.584603110964395" lon="8.2410581563305"><ele>295.0</ele><time>2026-03-22T13:22:22Z</time></trkpt><trkpt lat="45.58456906596685" lon="8.241185402425502"><ele>295.0</ele><time>2026-03-22T13:22:24Z</time></trkpt><trkpt lat="45.58454144587509" lon="8.241291372922815"><ele>294.5</ele><time>2026-03-22T13:22:25Z</time></trkpt><trkpt lat="45.58448673387448" lon="8.241393829273415"><ele>294.0</ele><time>2026-03-22T13:22:26Z</time></trkpt><trkpt lat="45.584421105704436" lon="8.241454118945459"><ele>293.5</ele><time>2026-03-22T13:22:27Z</time></trkpt><trkpt lat="45.584360056633436" lon="8.24155967936846"><ele>293.0</ele><time>2026-03-22T13:22:29Z</time></trkpt><trkpt lat="45.584298286748066" lon="8.241648309610554"><ele>292.5</ele><time>2026-03-22T13:22:38.999Z</time></trkpt><trkpt lat="45.584238774151615" lon="8.24173204356597"><ele>292.0</ele><time>2026-03-22T13:23:05.999Z</time></trkpt><trkpt lat="45.58421302736847" lon="8.241819775830795"><ele>292.5</ele><time>2026-03-22T13:23:07.999Z</time></trkpt><trkpt lat="45.58420289443024" lon="8.241912713592427"><ele>293.0</ele><time>2026-03-22T13:23:08.999Z</time></trkpt><trkpt lat="45.58422387654207" lon="8.242031888473814"><ele>293.5</ele><time>2026-03-22T13:23:10.999Z</time></trkpt><trkpt lat="45.58420299526166" lon="8.242140712802126"><ele>294.0</ele><time>2026-03-22T13:23:11.999Z</time></trkpt><trkpt lat="45.5841427554273" lon="8.242266051432487"><ele>294.5</ele><time>2026-03-22T13:23:12.999Z</time></trkpt><trkpt lat="45.58406797708004" lon="8.242383444262178"><ele>295.0</ele><time>2026-03-22T13:23:13.999Z</time></trkpt><trkpt lat="45.58399219152471" lon="8.242447255657094"><ele>295.0</ele><time>2026-03-22T13:23:14.999Z</time></trkpt><trkpt lat="45.58386114862524" lon="8.242501275780699"><ele>295.0</ele><time>2026-03-22T13:23:16.999Z</time></trkpt><trkpt lat="45.58380587060774" lon="8.24245649578374"><ele>295.0</ele><time>2026-03-22T13:23:18.999Z</time></trkpt><trkpt lat="45.58375164408018" lon="8.242378754542948"><ele>295.0</ele><time>2026-03-22T13:23:19.999Z</time></trkpt><trkpt lat="45.583626694222524" lon="8.24238027767284"><ele>295.0</ele><time>2026-03-22T13:23:21.999Z</time></trkpt><trkpt lat="45.583521380457626" lon="8.242308517375331"><ele>293.8</ele><time>2026-03-22T13:23:23.999Z</time></trkpt><trkpt lat="45.5834406112238" lon="8.24223694691333"><ele>292.6</ele><time>2026-03-22T13:23:25Z</time></trkpt><trkpt lat="45.58333730736927" lon="8.242204513270096"><ele>291.4</ele><time>2026-03-22T13:23:26Z</time></trkpt><trkpt lat="45.58326900174357" lon="8.242187886134117"><ele>290.2</ele><time>2026-03-22T13:23:27Z</time></trkpt><trkpt lat="45.58319801881828" lon="8.24222605821617"><ele>289.0</ele><time>2026-03-22T13:23:28Z</time></trkpt><trkpt lat="45.583079878898545" lon="8.242229602067512"><ele>289.0</ele><time>2026-03-22T13:23:29Z</time></trkpt><trkpt lat="45.5830005190776" lon="8.242208021272713"><ele>289.0</ele><time>2026-03-22T13:23:30Z</time></trkpt><trkpt lat="45.58290300640802" lon="8.242224963727175"><ele>289.0</ele><time>2026-03-22T13:23:31Z</time></trkpt><trkpt lat="45.582798695044744" lon="8.242175350466665"><ele>289.0</ele><time>2026-03-22T13:23:33Z</time></trkpt><trkpt lat="45.58270411420707" lon="8.24223078108038"><ele>289.0</ele><time>2026-03-22T13:23:36Z</time></trkpt><trkpt lat="45.58258936507107" lon="8.242312622390484"><ele>291.0</ele><time>2026-03-22T13:23:38Z</time></trkpt><trkpt lat="45.58251223195575" lon="8.242344332483253"><ele>293.0</ele><time>2026-03-22T13:23:39Z</time></trkpt><trkpt lat="45.582406364068454" lon="8.242445258758423"><ele>295.0</ele><time>2026-03-22T13:23:41Z</time></trkpt><trkpt lat="45.58231738885151" lon="8.242514350881052"><ele>297.0</ele><time>2026-03-22T13:23:42Z</time></trkpt><trkpt lat="45.58219523949644" lon="8.242560845445556"><ele>299.0</ele><time>2026-03-22T13:23:43Z</time></trkpt><trkpt lat="45.58206081347229" lon="8.242596242281678"><ele>299.0</ele><time>2026-03-22T13:23:44Z</time></trkpt><trkpt lat="45.58197782950907" lon="8.242626378693299"><ele>299.0</ele><time>2026-03-22T13:23:45Z</time></trkpt><trkpt lat="45.58190096255276" lon="8.242649114054753"><ele>299.0</ele><time>2026-03-22T13:23:46Z</time></trkpt><trkpt lat="45.581789652116235" lon="8.242600531502271"><ele>299.0</ele><time>2026-03-22T13:23:48Z</time></trkpt><trkpt lat="45.581685498288515" lon="8.242542262862068"><ele>299.0</ele><time>2026-03-22T13:23:50Z</time></trkpt><trkpt lat="45.58162452131449" lon="8.242477795909128"><ele>299.0</ele><time>2026-03-22T13:24:08Z</time></trkpt><trkpt lat="45.58153975706045" lon="8.242413481315596"><ele>299.0</ele><time>2026-03-22T13:24:11Z</time></trkpt><trkpt lat="45.581450069953284" lon="8.242486068618694"><ele>299.0</ele><time>2026-03-22T13:24:13Z</time></trkpt><trkpt lat="45.581383732647495" lon="8.242529493878592"><ele>299.0</ele><time>2026-03-22T13:24:16Z</time></trkpt><trkpt lat="45.581286474587074" lon="8.242585685784988"><ele>299.0</ele><time>2026-03-22T13:24:18Z</time></trkpt><trkpt lat="45.58123169424866" lon="8.242636617514574"><ele>299.0</ele><time>2026-03-22T13:24:19Z</time></trkpt><trkpt lat="45.58117390891714" lon="8.242542624334066"><ele>298.4</ele><time>2026-03-22T13:24:22Z</time></trkpt><trkpt lat="45.58106869368239" lon="8.242417052772874"><ele>297.79999999999995</ele><time>2026-03-22T13:24:25Z</time></trkpt><trkpt lat="45.58100195109254" lon="8.242363540336319"><ele>297.20000000000005</ele><time>2026-03-22T13:24:26Z</time></trkpt><trkpt lat="45.58092516123225" lon="8.24234022896824"><ele>296.6</ele><time>2026-03-22T13:24:27Z</time></trkpt><trkpt lat="45.58082023704255" lon="8.242285782117547"><ele>296.0</ele><time>2026-03-22T13:24:28Z</time></trkpt><trkpt lat="45.58068654601482" lon="8.242276096606268"><ele>295.0</ele><time>2026-03-22T13:24:29Z</time></trkpt><trkpt lat="45.5805439638258" lon="8.242270591699564"><ele>294.0</ele><time>2026-03-22T13:24:30Z</time></trkpt><trkpt lat="45.580413233616895" lon="8.242287598066527"><ele>293.0</ele><time>2026-03-22T13:24:31Z</time></trkpt><trkpt lat="45.58030920436111" lon="8.242303025390568"><ele>292.0</ele><time>2026-03-22T13:24:31.999Z</time></trkpt><trkpt lat="45.58021262354726" lon="8.242344100558029"><ele>290.8333333333333</ele><time>2026-03-22T13:24:32.999Z</time></trkpt><trkpt lat="45.58013817116311" lon="8.242374722490279"><ele>289.66666666666663</ele><time>2026-03-22T13:24:34.999Z</time></trkpt><trkpt lat="45.580053319038775" lon="8.242444336996092"><ele>288.5</ele><time>2026-03-22T13:25:28.999Z</time></trkpt><trkpt lat="45.580123175887955" lon="8.242457056832642"><ele>287.3333333333333</ele><time>2026-03-22T13:35:41.998Z</time></trkpt><trkpt lat="45.58006753430189" lon="8.24237727959974"><ele>286.1666666666667</ele><time>2026-03-22T13:35:55.998Z</time></trkpt><trkpt lat="45.579999260153976" lon="8.242366844532617"><ele>285.0</ele><time>2026-03-22T13:35:57.998Z</time></trkpt><trkpt lat="45.5799446398088" lon="8.24231398723547"><ele>285.5</ele><time>2026-03-22T13:35:58.998Z</time></trkpt><trkpt lat="45.57990160891545" lon="8.242247533214963"><ele>286.0</ele><time>2026-03-22T13:36:00Z</time></trkpt><trkpt lat="45.57986057575478" lon="8.242168912212128"><ele>286.5</ele><time>2026-03-22T13:36:01Z</time></trkpt><trkpt lat="45.579824411542624" lon="8.242088525477323"><ele>287.0</ele><time>2026-03-22T13:36:02Z</time></trkpt><trkpt lat="45.579783915910724" lon="8.242017729517308"><ele>287.5</ele><time>2026-03-22T13:36:03Z</time></trkpt><trkpt lat="45.57966711783464" lon="8.241924797902763"><ele>288.0</ele><time>2026-03-22T13:36:05Z</time></trkpt><trkpt lat="45.579588061083314" lon="8.241901201830478"><ele>288.0</ele><time>2026-03-22T13:36:06Z</time></trkpt><trkpt lat="45.57952323406837" lon="8.241863423160368"><ele>288.0</ele><time>2026-03-22T13:36:07Z</time></trkpt><trkpt lat="45.57945872939444" lon="8.24180115737875"><ele>288.0</ele><time>2026-03-22T13:36:08Z</time></trkpt><trkpt lat="45.57937582092404" lon="8.24177598560883"><ele>288.0</ele><time>2026-03-22T13:36:09Z</time></trkpt><trkpt lat="45.5792896401711" lon="8.241795059046975"><ele>288.0</ele><time>2026-03-22T13:36:10Z</time></trkpt><trkpt lat="45.57921669486821" lon="8.241833729311105"><ele>288.0</ele><time>2026-03-22T13:36:11Z</time></trkpt><trkpt lat="45.57914833278627" lon="8.241900926269768"><ele>288.8333333333333</ele><time>2026-03-22T13:36:12Z</time></trkpt><trkpt lat="45.579095498133505" lon="8.241968413624052"><ele>289.6666666666667</ele><time>2026-03-22T13:36:13Z</time></trkpt><trkpt lat="45.57903841422792" lon="8.242019886762916"><ele>290.5</ele><time>2026-03-22T13:36:15Z</time></trkpt><trkpt lat="45.578956359161694" lon="8.242092816741067"><ele>291.33333333333337</ele><time>2026-03-22T13:36:19Z</time></trkpt><trkpt lat="45.57890040807742" lon="8.242134714859363"><ele>292.1666666666667</ele><time>2026-03-22T13:36:20Z</time></trkpt><trkpt lat="45.578829945986094" lon="8.242189273793256"><ele>293.0</ele><time>2026-03-22T13:36:21Z</time></trkpt><trkpt lat="45.578763351576434" lon="8.242261464519753"><ele>291.2</ele><time>2026-03-22T13:36:22Z</time></trkpt><trkpt lat="45.578680418792274" lon="8.242311593831822"><ele>289.4</ele><time>2026-03-22T13:36:24Z</time></trkpt><trkpt lat="45.578674531148394" lon="8.242209781451477"><ele>287.59999999999997</ele><time>2026-03-22T13:36:26Z</time></trkpt><trkpt lat="45.57861759502972" lon="8.242136928815512"><ele>285.8</ele><time>2026-03-22T13:36:29Z</time></trkpt><trkpt lat="45.578560582392946" lon="8.242055496037437"><ele>284.0</ele><time>2026-03-22T13:36:31Z</time></trkpt><trkpt lat="45.578412326266054" lon="8.241896326720706"><ele>284.0</ele><time>2026-03-22T13:36:32Z</time></trkpt><trkpt lat="45.57833026400482" lon="8.241872112729258"><ele>284.0</ele><time>2026-03-22T13:36:33Z</time></trkpt><trkpt lat="45.57826040855746" lon="8.241819671629377"><ele>284.0</ele><time>2026-03-22T13:36:34Z</time></trkpt><trkpt lat="45.57815817570463" lon="8.241708963741846"><ele>284.0</ele><time>2026-03-22T13:36:35Z</time></trkpt><trkpt lat="45.57805702494869" lon="8.241600203512846"><ele>284.0</ele><time>2026-03-22T13:36:36Z</time></trkpt><trkpt lat="45.577985007530906" lon="8.241505557668155"><ele>283.75</ele><time>2026-03-22T13:36:37Z</time></trkpt><trkpt lat="45.57791567577387" lon="8.241403649935139"><ele>283.5</ele><time>2026-03-22T13:36:38Z</time></trkpt><trkpt lat="45.5778377658226" lon="8.241309166167271"><ele>283.25</ele><time>2026-03-22T13:36:39Z</time></trkpt><trkpt lat="45.57773298656398" lon="8.241190383934645"><ele>283.0</ele><time>2026-03-22T13:36:40Z</time></trkpt><trkpt lat="45.577608346721114" lon="8.24106070139458"><ele>281.4</ele><time>2026-03-22T13:36:41Z</time></trkpt><trkpt lat="45.57751823724147" lon="8.240940870038504"><ele>279.8</ele><time>2026-03-22T13:36:42Z</time></trkpt><trkpt lat="45.57746568204676" lon="8.240856840013821"><ele>278.2</ele><time>2026-03-22T13:36:43Z</time></trkpt><trkpt lat="45.57741583614667" lon="8.240728533029099"><ele>276.6</ele><time>2026-03-22T13:36:44Z</time></trkpt><trkpt lat="45.577357256392446" lon="8.240587411071596"><ele>275.0</ele><time>2026-03-22T13:36:45Z</time></trkpt><trkpt lat="45.577309225383985" lon="8.24052196270155"><ele>275.0</ele><time>2026-03-22T13:36:45.999Z</time></trkpt><trkpt lat="45.577246684511266" lon="8.240488923466891"><ele>275.0</ele><time>2026-03-22T13:36:46.999Z</time></trkpt><trkpt lat="45.57711930472085" lon="8.240514858607977"><ele>275.0</ele><time>2026-03-22T13:36:48.999Z</time></trkpt><trkpt lat="45.577075886410015" lon="8.240595373205968"><ele>275.0</ele><time>2026-03-22T13:36:49.999Z</time></trkpt><trkpt lat="45.577073181371304" lon="8.240745339015938"><ele>275.0</ele><time>2026-03-22T13:36:51.999Z</time></trkpt><trkpt lat="45.57707675146029" lon="8.240836124504405"><ele>275.0</ele><time>2026-03-22T13:36:52.999Z</time></trkpt><trkpt lat="45.57704474808859" lon="8.241061159957676"><ele>275.0</ele><time>2026-03-22T13:36:55.999Z</time></trkpt><trkpt lat="45.577042687032844" lon="8.241180795894529"><ele>275.0</ele><time>2026-03-22T13:36:56.999Z</time></trkpt><trkpt lat="45.577068336996845" lon="8.241299251377583"><ele>275.0</ele><time>2026-03-22T13:36:57.999Z</time></trkpt><trkpt lat="45.577109174596096" lon="8.241401543566134"><ele>275.0</ele><time>2026-03-22T13:36:58.999Z</time></trkpt><trkpt lat="45.57714666520916" lon="8.241482859035289"><ele>275.0</ele><time>2026-03-22T13:36:59.999Z</time></trkpt><trkpt lat="45.57714833358891" lon="8.241585575235375"><ele>275.0</ele><time>2026-03-22T13:37:01.999Z</time></trkpt><trkpt lat="45.57707224594951" lon="8.241639540898413"><ele>275.0</ele><time>2026-03-22T13:37:11.999Z</time></trkpt><trkpt lat="45.57701503157308" lon="8.241588942649846"><ele>275.0</ele><time>2026-03-22T13:37:13.999Z</time></trkpt><trkpt lat="45.576938357372896" lon="8.24151033102638"><ele>275.0</ele><time>2026-03-22T13:37:15.999Z</time></trkpt><trkpt lat="45.57686256339702" lon="8.241402742027425"><ele>275.0</ele><time>2026-03-22T13:37:17.999Z</time></trkpt><trkpt lat="45.57680182518858" lon="8.241330473895607"><ele>275.0</ele><time>2026-03-22T13:37:18.999Z</time></trkpt><trkpt lat="45.57672491749677" lon="8.24126007699807"><ele>275.0</ele><time>2026-03-22T13:37:19.999Z</time></trkpt><trkpt lat="45.57663732561118" lon="8.241183266621467"><ele>274.0</ele><time>2026-03-22T13:37:20.999Z</time></trkpt><trkpt lat="45.57657353423351" lon="8.241085813750336"><ele>273.0</ele><time>2026-03-22T13:37:21.999Z</time></trkpt><trkpt lat="45.576530729833955" lon="8.24095801850645"><ele>272.0</ele><time>2026-03-22T13:37:22.999Z</time></trkpt><trkpt lat="45.57646969448493" lon="8.240839716080865"><ele>271.0</ele><time>2026-03-22T13:37:23.999Z</time></trkpt><trkpt lat="45.57640198073226" lon="8.240753921333733"><ele>270.0</ele><time>2026-03-22T13:37:25.999Z</time></trkpt><trkpt lat="45.576307456967996" lon="8.240701821229623"><ele>270.0</ele><time>2026-03-22T13:37:27.999Z</time></trkpt><trkpt lat="45.57623348765375" lon="8.240702937290585"><ele>270.0</ele><time>2026-03-22T13:37:28.999Z</time></trkpt><trkpt lat="45.57612919009331" lon="8.240668900396825"><ele>270.0</ele><time>2026-03-22T13:37:30.999Z</time></trkpt><trkpt lat="45.575954811554894" lon="8.240573597499733"><ele>270.0</ele><time>2026-03-22T13:37:32.999Z</time></trkpt><trkpt lat="45.57586761974838" lon="8.240575498977288"><ele>270.5</ele><time>2026-03-22T13:37:33.999Z</time></trkpt><trkpt lat="45.57579794427368" lon="8.240653697074093"><ele>271.0</ele><time>2026-03-22T13:37:36.999Z</time></trkpt><trkpt lat="45.57571028314953" lon="8.24063066756739"><ele>271.5</ele><time>2026-03-22T13:37:38.999Z</time></trkpt><trkpt lat="45.57568805708988" lon="8.240537147310489"><ele>272.0</ele><time>2026-03-22T13:37:40.999Z</time></trkpt><trkpt lat="45.575718831632884" lon="8.240440153558252"><ele>272.5</ele><time>2026-03-22T13:37:42.999Z</time></trkpt><trkpt lat="45.575731891946276" lon="8.240314013378974"><ele>273.0</ele><time>2026-03-22T13:37:44.999Z</time></trkpt><trkpt lat="45.57571029115149" lon="8.240203319327044"><ele>272.0</ele><time>2026-03-22T13:37:46.999Z</time></trkpt><trkpt lat="45.57562397136886" lon="8.240078849092484"><ele>271.0</ele><time>2026-03-22T13:37:48.999Z</time></trkpt><trkpt lat="45.5756026760563" lon="8.239980144259675"><ele>270.0</ele><time>2026-03-22T13:37:49.999Z</time></trkpt><trkpt lat="45.57555683187916" lon="8.2398718155893"><ele>269.0</ele><time>2026-03-22T13:37:50.999Z</time></trkpt><trkpt lat="45.57552193164668" lon="8.239756763014167"><ele>268.0</ele><time>2026-03-22T13:37:51.998Z</time></trkpt><trkpt lat="45.57549590009801" lon="8.239672959257367"><ele>267.0</ele><time>2026-03-22T13:37:52.998Z</time></trkpt><trkpt lat="45.57545375583046" lon="8.239786640794375"><ele>267.0</ele><time>2026-03-22T13:37:54.998Z</time></trkpt><trkpt lat="45.57535948310209" lon="8.239895618708587"><ele>267.0</ele><time>2026-03-22T13:37:56.998Z</time></trkpt><trkpt lat="45.575269082032435" lon="8.24000799232484"><ele>267.0</ele><time>2026-03-22T13:37:58.998Z</time></trkpt><trkpt lat="45.575223239915736" lon="8.240105853207357"><ele>267.0</ele><time>2026-03-22T13:37:59.998Z</time></trkpt><trkpt lat="45.57518108959194" lon="8.240173133386357"><ele>267.0</ele><time>2026-03-22T13:38:00.998Z</time></trkpt><trkpt lat="45.57511340241315" lon="8.24016757357863"><ele>266.6</ele><time>2026-03-22T13:38:06Z</time></trkpt><trkpt lat="45.57496830230922" lon="8.240220426824491"><ele>266.2</ele><time>2026-03-22T13:38:08Z</time></trkpt><trkpt lat="45.57485306936365" lon="8.240232322065163"><ele>265.8</ele><time>2026-03-22T13:38:09Z</time></trkpt><trkpt lat="45.57476633195506" lon="8.240244791839508"><ele>265.4</ele><time>2026-03-22T13:38:10Z</time></trkpt><trkpt lat="45.574683617816255" lon="8.240279961412499"><ele>265.0</ele><time>2026-03-22T13:38:11Z</time></trkpt><trkpt lat="45.574600672752716" lon="8.240309997775983"><ele>264.6</ele><time>2026-03-22T13:38:12Z</time></trkpt><trkpt lat="45.57449887010306" lon="8.240288393883969"><ele>264.2</ele><time>2026-03-22T13:38:13Z</time></trkpt><trkpt lat="45.574409866981" lon="8.240287001898965"><ele>263.8</ele><time>2026-03-22T13:38:14Z</time></trkpt><trkpt lat="45.57430348703437" lon="8.24031580659677"><ele>263.4</ele><time>2026-03-22T13:38:15Z</time></trkpt><trkpt lat="45.574189227560936" lon="8.240329959561429"><ele>263.0</ele><time>2026-03-22T13:38:16Z</time></trkpt><trkpt lat="45.57411865255668" lon="8.240358702756211"><ele>263.0</ele><time>2026-03-22T13:38:17Z</time></trkpt><trkpt lat="45.57404697961317" lon="8.24033977746809"><ele>263.0</ele><time>2026-03-22T13:38:18Z</time></trkpt><trkpt lat="45.57397527863829" lon="8.240286031481165"><ele>263.0</ele><time>2026-03-22T13:38:20Z</time></trkpt><trkpt lat="45.57398135176446" lon="8.240194824021572"><ele>263.0</ele><time>2026-03-22T13:38:21Z</time></trkpt><trkpt lat="45.57395827085125" lon="8.240087977106457"><ele>263.0</ele><time>2026-03-22T13:38:22Z</time></trkpt><trkpt lat="45.573929036039" lon="8.239927915677955"><ele>263.0</ele><time>2026-03-22T13:38:24Z</time></trkpt><trkpt lat="45.57397218179857" lon="8.239833977322384"><ele>262.2</ele><time>2026-03-22T13:38:25Z</time></trkpt><trkpt lat="45.5739640207804" lon="8.239695798475253"><ele>261.4</ele><time>2026-03-22T13:38:27Z</time></trkpt><trkpt lat="45.573920376240444" lon="8.239564650547624"><ele>260.59999999999997</ele><time>2026-03-22T13:38:29Z</time></trkpt><trkpt lat="45.57388801681299" lon="8.239418434186142"><ele>259.8</ele><time>2026-03-22T13:38:30Z</time></trkpt><trkpt lat="45.57388851845854" lon="8.239261033214321"><ele>259.0</ele><time>2026-03-22T13:38:31Z</time></trkpt><trkpt lat="45.57389810744603" lon="8.239135836671684"><ele>259.0</ele><time>2026-03-22T13:38:32Z</time></trkpt><trkpt lat="45.57390298293812" lon="8.239025832835889"><ele>259.0</ele><time>2026-03-22T13:38:33Z</time></trkpt><trkpt lat="45.57391037979792" lon="8.238874345431794"><ele>259.0</ele><time>2026-03-22T13:38:35Z</time></trkpt><trkpt lat="45.57385461315176" lon="8.238807217460359"><ele>259.0</ele><time>2026-03-22T13:38:37Z</time></trkpt><trkpt lat="45.573758560611964" lon="8.238796592563867"><ele>259.0</ele><time>2026-03-22T13:38:39Z</time></trkpt><trkpt lat="45.57364467603606" lon="8.238775592673553"><ele>258.3333333333333</ele><time>2026-03-22T13:38:41Z</time></trkpt><trkpt lat="45.57359770334718" lon="8.23871398292016"><ele>257.66666666666663</ele><time>2026-03-22T13:38:43Z</time></trkpt><trkpt lat="45.57353633523457" lon="8.238758291958835"><ele>257.0</ele><time>2026-03-22T13:39:13.999Z</time></trkpt><trkpt lat="45.57342241019787" lon="8.238814577584893"><ele>256.3333333333333</ele><time>2026-03-22T13:39:19.999Z</time></trkpt><trkpt lat="45.573358891550505" lon="8.23883088953122"><ele>255.66666666666666</ele><time>2026-03-22T13:39:20.999Z</time></trkpt><trkpt lat="45.57325484361116" lon="8.238864200351102"><ele>255.0</ele><time>2026-03-22T13:39:22.999Z</time></trkpt><trkpt lat="45.573128709869366" lon="8.238830843621415"><ele>255.0</ele><time>2026-03-22T13:39:24.999Z</time></trkpt><trkpt lat="45.57306216088571" lon="8.238826406048567"><ele>255.0</ele><time>2026-03-22T13:39:25.999Z</time></trkpt><trkpt lat="45.57299273889047" lon="8.238819964075597"><ele>255.0</ele><time>2026-03-22T13:39:26.999Z</time></trkpt><trkpt lat="45.572912331753784" lon="8.238783698332696"><ele>255.0</ele><time>2026-03-22T13:39:27.999Z</time></trkpt><trkpt lat="45.57284508584246" lon="8.238748826393707"><ele>255.0</ele><time>2026-03-22T13:39:30.999Z</time></trkpt><trkpt lat="45.57278029816915" lon="8.238707772687885"><ele>255.0</ele><time>2026-03-22T13:39:32.999Z</time></trkpt><trkpt lat="45.572682636191246" lon="8.23865724657483"><ele>254.6</ele><time>2026-03-22T13:39:34.999Z</time></trkpt><trkpt lat="45.572539462316364" lon="8.238609830459712"><ele>254.2</ele><time>2026-03-22T13:39:36.999Z</time></trkpt><trkpt lat="45.57247517875907" lon="8.238590696787123"><ele>253.8</ele><time>2026-03-22T13:39:37.999Z</time></trkpt><trkpt lat="45.57240431925411" lon="8.238551134769171"><ele>253.4</ele><time>2026-03-22T13:39:39.999Z</time></trkpt><trkpt lat="45.57229666926779" lon="8.238536669251038"><ele>253.0</ele><time>2026-03-22T13:39:43.999Z</time></trkpt><trkpt lat="45.57219301687622" lon="8.238524857577936"><ele>253.0</ele><time>2026-03-22T13:39:45.999Z</time></trkpt><trkpt lat="45.57210089010168" lon="8.23843653011898"><ele>253.0</ele><time>2026-03-22T13:39:47.999Z</time></trkpt><trkpt lat="45.57201979394461" lon="8.238355463555557"><ele>253.0</ele><time>2026-03-22T13:39:49.999Z</time></trkpt><trkpt lat="45.57193525643008" lon="8.238350665293916"><ele>253.0</ele><time>2026-03-22T13:39:51.999Z</time></trkpt><trkpt lat="45.57182724714678" lon="8.23825018261568"><ele>253.0</ele><time>2026-03-22T13:39:54.999Z</time></trkpt><trkpt lat="45.5717613328408" lon="8.23817251228139"><ele>252.60000000000002</ele><time>2026-03-22T13:39:56.999Z</time></trkpt><trkpt lat="45.57169714152152" lon="8.23804097621761"><ele>252.20000000000002</ele><time>2026-03-22T13:39:59.999Z</time></trkpt><trkpt lat="45.57160408875486" lon="8.237922888058275"><ele>251.8</ele><time>2026-03-22T13:40:01.998Z</time></trkpt><trkpt lat="45.57156003303409" lon="8.237837793391142"><ele>251.4</ele><time>2026-03-22T13:40:03.998Z</time></trkpt><trkpt lat="45.57150157122496" lon="8.23777479697014"><ele>251.0</ele><time>2026-03-22T13:40:04.998Z</time></trkpt><trkpt lat="45.57143951926855" lon="8.237689134128326"><ele>251.00000000000003</ele><time>2026-03-22T13:40:05.998Z</time></trkpt><trkpt lat="45.57138365163356" lon="8.237612287694182"><ele>251.0</ele><time>2026-03-22T13:40:06.998Z</time></trkpt><trkpt lat="45.571331568990196" lon="8.23748185189218"><ele>251.0</ele><time>2026-03-22T13:40:08.998Z</time></trkpt><trkpt lat="45.57129007229422" lon="8.23737517804554"><ele>251.0</ele><time>2026-03-22T13:40:10.998Z</time></trkpt><trkpt lat="45.571258194609136" lon="8.237296989457395"><ele>251.00000000000003</ele><time>2026-03-22T13:40:13Z</time></trkpt><trkpt lat="45.571222022046236" lon="8.237206469681118"><ele>251.0</ele><time>2026-03-22T13:40:15Z</time></trkpt><trkpt lat="45.57114368958841" lon="8.237125698216472"><ele>249.83333333333334</ele><time>2026-03-22T13:40:17Z</time></trkpt><trkpt lat="45.5710595250953" lon="8.237082795787694"><ele>248.66666666666669</ele><time>2026-03-22T13:40:19Z</time></trkpt><trkpt lat="45.57100349270048" lon="8.237039255334466"><ele>247.5</ele><time>2026-03-22T13:40:20Z</time></trkpt><trkpt lat="45.57092871331043" lon="8.2370065214531"><ele>246.33333333333331</ele><time>2026-03-22T13:40:21Z</time></trkpt><trkpt lat="45.57086224529546" lon="8.237008788326914"><ele>245.16666666666666</ele><time>2026-03-22T13:40:22Z</time></trkpt><trkpt lat="45.57079175572969" lon="8.237015391223311"><ele>244.0</ele><time>2026-03-22T13:40:24Z</time></trkpt><trkpt lat="45.57070802297339" lon="8.23700941320324"><ele>243.99999999999997</ele><time>2026-03-22T13:40:28Z</time></trkpt><trkpt lat="45.57064232764759" lon="8.236997506797982"><ele>244.0</ele><time>2026-03-22T13:40:30Z</time></trkpt><trkpt lat="45.57054717648018" lon="8.23697265595741"><ele>244.0</ele><time>2026-03-22T13:40:32Z</time></trkpt><trkpt lat="45.570479631149745" lon="8.236936380415258"><ele>244.0</ele><time>2026-03-22T13:40:35Z</time></trkpt><trkpt lat="45.57042449243924" lon="8.236862690446834"><ele>243.99999999999997</ele><time>2026-03-22T13:40:44Z</time></trkpt><trkpt lat="45.57034852543524" lon="8.236743227427887"><ele>244.0</ele><time>2026-03-22T13:40:46Z</time></trkpt><trkpt lat="45.57029235624501" lon="8.236678082787586"><ele>243.99999999999997</ele><time>2026-03-22T13:40:51Z</time></trkpt><trkpt lat="45.57021390361419" lon="8.236679863957255"><ele>244.0</ele><time>2026-03-22T13:40:55Z</time></trkpt><trkpt lat="45.570142068344644" lon="8.2367281512825"><ele>243.99999999999997</ele><time>2026-03-22T13:40:57Z</time></trkpt><trkpt lat="45.570076450729026" lon="8.236736076482854"><ele>243.99999999999997</ele><time>2026-03-22T13:40:58Z</time></trkpt><trkpt lat="45.57001436756562" lon="8.236766320384762"><ele>244.0</ele><time>2026-03-22T13:41:01Z</time></trkpt><trkpt lat="45.56994096623894" lon="8.236770397402244"><ele>243.99999999999997</ele><time>2026-03-22T13:41:03Z</time></trkpt><trkpt lat="45.569890831160784" lon="8.236699796142164"><ele>243.99999999999997</ele><time>2026-03-22T13:41:04.999Z</time></trkpt><trkpt lat="45.5698372345958" lon="8.236560749205097"><ele>243.99999999999997</ele><time>2026-03-22T13:41:06.999Z</time></trkpt><trkpt lat="45.56980330057099" lon="8.236479048983622"><ele>244.0</ele><time>2026-03-22T13:41:07.999Z</time></trkpt><trkpt lat="45.56977498899019" lon="8.236375601988444"><ele>244.0</ele><time>2026-03-22T13:41:08.999Z</time></trkpt><trkpt lat="45.569744151253445" lon="8.236270865109496"><ele>244.0</ele><time>2026-03-22T13:41:10.999Z</time></trkpt><trkpt lat="45.56973146432727" lon="8.236134121457397"><ele>243.99999999999997</ele><time>2026-03-22T13:41:18.999Z</time></trkpt><trkpt lat="45.569704447488064" lon="8.236012974834207"><ele>244.0</ele><time>2026-03-22T13:41:20.999Z</time></trkpt><trkpt lat="45.56968178120476" lon="8.23590576209727"><ele>243.0</ele><time>2026-03-22T13:41:22.999Z</time></trkpt><trkpt lat="45.56963648247996" lon="8.23578150943033"><ele>241.99999999999997</ele><time>2026-03-22T13:41:24.999Z</time></trkpt><trkpt lat="45.569596828364524" lon="8.23563652971347"><ele>240.99999999999997</ele><time>2026-03-22T13:41:26.999Z</time></trkpt><trkpt lat="45.569600388379655" lon="8.235505629132474"><ele>240.0</ele><time>2026-03-22T13:41:28.999Z</time></trkpt><trkpt lat="45.56958285101988" lon="8.235408604861565"><ele>239.0</ele><time>2026-03-22T13:42:07.999Z</time></trkpt><trkpt lat="45.56963659991466" lon="8.235222635121643"><ele>238.2</ele><time>2026-03-22T13:42:09.998Z</time></trkpt><trkpt lat="45.569657075123224" lon="8.23513326267479"><ele>237.39999999999998</ele><time>2026-03-22T13:42:10.998Z</time></trkpt><trkpt lat="45.56967730529931" lon="8.23496292177534"><ele>236.6</ele><time>2026-03-22T13:42:12.998Z</time></trkpt><trkpt lat="45.56973412923579" lon="8.23482076121524"><ele>235.8</ele><time>2026-03-22T13:42:14.998Z</time></trkpt><trkpt lat="45.56979769559632" lon="8.23468408229326"><ele>235.0</ele><time>2026-03-22T13:42:16.998Z</time></trkpt><trkpt lat="45.56979865560023" lon="8.234583665640118"><ele>234.66666666666666</ele><time>2026-03-22T13:42:18Z</time></trkpt><trkpt lat="45.5697860068858" lon="8.234488379395117"><ele>234.33333333333331</ele><time>2026-03-22T13:42:19Z</time></trkpt><trkpt lat="45.56978027412314" lon="8.234395698786999"><ele>234.0</ele><time>2026-03-22T13:42:20Z</time></trkpt><trkpt lat="45.56976822261656" lon="8.234232879623555"><ele>233.66666666666669</ele><time>2026-03-22T13:42:22Z</time></trkpt><trkpt lat="45.56975304797574" lon="8.234101712926831"><ele>233.33333333333334</ele><time>2026-03-22T13:42:24Z</time></trkpt><trkpt lat="45.56976848935275" lon="8.233972192085428"><ele>233.0</ele><time>2026-03-22T13:42:26Z</time></trkpt><trkpt lat="45.569777061121094" lon="8.2338468896128"><ele>233.8</ele><time>2026-03-22T13:42:28Z</time></trkpt><trkpt lat="45.569738879703266" lon="8.233775281481966"><ele>234.60000000000002</ele><time>2026-03-22T13:42:30Z</time></trkpt><trkpt lat="45.56961941944745" lon="8.233729609040843"><ele>235.39999999999998</ele><time>2026-03-22T13:42:32Z</time></trkpt><trkpt lat="45.569533165158525" lon="8.233730428342378"><ele>236.2</ele><time>2026-03-22T13:42:33Z</time></trkpt><trkpt lat="45.56944120282016" lon="8.233674736220882"><ele>237.0</ele><time>2026-03-22T13:42:34Z</time></trkpt><trkpt lat="45.569352793650125" lon="8.233662047063644"><ele>237.16666666666666</ele><time>2026-03-22T13:42:35Z</time></trkpt><trkpt lat="45.56926937496402" lon="8.23369164831554"><ele>237.33333333333331</ele><time>2026-03-22T13:42:36Z</time></trkpt><trkpt lat="45.56919761088312" lon="8.233678544653626"><ele>237.5</ele><time>2026-03-22T13:42:37Z</time></trkpt><trkpt lat="45.569123612126766" lon="8.233665738562694"><ele>237.66666666666666</ele><time>2026-03-22T13:42:38Z</time></trkpt><trkpt lat="45.569048064083724" lon="8.233653354658307"><ele>237.83333333333331</ele><time>2026-03-22T13:42:39Z</time></trkpt><trkpt lat="45.56896828857664" lon="8.23364153921797"><ele>238.0</ele><time>2026-03-22T13:42:40Z</time></trkpt><trkpt lat="45.56888180183967" lon="8.233632094828279"><ele>237.99999999999997</ele><time>2026-03-22T13:42:41Z</time></trkpt><trkpt lat="45.568796271402256" lon="8.233614978695663"><ele>238.0</ele><time>2026-03-22T13:42:42Z</time></trkpt><trkpt lat="45.56870681394527" lon="8.233565009454395"><ele>238.0</ele><time>2026-03-22T13:42:43Z</time></trkpt><trkpt lat="45.5686249759849" lon="8.233553210925693"><ele>238.0</ele><time>2026-03-22T13:42:44Z</time></trkpt><trkpt lat="45.568537491952455" lon="8.233540598404065"><ele>237.99999999999997</ele><time>2026-03-22T13:42:45Z</time></trkpt><trkpt lat="45.568446746301184" lon="8.233527515656677"><ele>238.0</ele><time>2026-03-22T13:42:46Z</time></trkpt><trkpt lat="45.56835803390941" lon="8.233514726044442"><ele>238.0</ele><time>2026-03-22T13:42:47Z</time></trkpt><trkpt lat="45.568271536618916" lon="8.233502255781124"><ele>238.0</ele><time>2026-03-22T13:42:48Z</time></trkpt><trkpt lat="45.56817440242869" lon="8.23348825200285"><ele>238.0</ele><time>2026-03-22T13:42:49Z</time></trkpt><trkpt lat="45.56808580978999" lon="8.23347513440665"><ele>238.0</ele><time>2026-03-22T13:42:50Z</time></trkpt><trkpt lat="45.56799124211576" lon="8.23345753400964"><ele>238.0</ele><time>2026-03-22T13:42:51Z</time></trkpt><trkpt lat="45.567908284226924" lon="8.233450221516513"><ele>237.16666666666666</ele><time>2026-03-22T13:42:52Z</time></trkpt><trkpt lat="45.567837080153495" lon="8.233388189649954"><ele>236.33333333333331</ele><time>2026-03-22T13:42:53Z</time></trkpt><trkpt lat="45.567775719453486" lon="8.233308330406834"><ele>235.5</ele><time>2026-03-22T13:42:54Z</time></trkpt><trkpt lat="45.56772158677941" lon="8.233218550391292"><ele>234.66666666666669</ele><time>2026-03-22T13:42:55Z</time></trkpt><trkpt lat="45.56767269354583" lon="8.233114978379195"><ele>233.83333333333334</ele><time>2026-03-22T13:42:56Z</time></trkpt><trkpt lat="45.56763102846138" lon="8.233002850878082"><ele>233.0</ele><time>2026-03-22T13:42:57Z</time></trkpt><trkpt lat="45.56759195271965" lon="8.232886654010994"><ele>232.83333333333334</ele><time>2026-03-22T13:42:58Z</time></trkpt><trkpt lat="45.567558992737744" lon="8.23277249689274"><ele>232.66666666666669</ele><time>2026-03-22T13:42:59Z</time></trkpt><trkpt lat="45.56752124077055" lon="8.232662355002889"><ele>232.5</ele><time>2026-03-22T13:43:00Z</time></trkpt><trkpt lat="45.56746828394304" lon="8.232566280239926"><ele>232.33333333333331</ele><time>2026-03-22T13:43:01Z</time></trkpt><trkpt lat="45.56742823284187" lon="8.232456894855646"><ele>232.16666666666666</ele><time>2026-03-22T13:43:02Z</time></trkpt><trkpt lat="45.567399205403206" lon="8.232338596156422"><ele>232.0</ele><time>2026-03-22T13:43:03Z</time></trkpt><trkpt lat="45.567359477557716" lon="8.232228788496469"><ele>231.83333333333331</ele><time>2026-03-22T13:43:03.999Z</time></trkpt><trkpt lat="45.567321751016394" lon="8.232120902051234"><ele>231.66666666666666</ele><time>2026-03-22T13:43:04.999Z</time></trkpt><trkpt lat="45.56728217925306" lon="8.23201443735228"><ele>231.5</ele><time>2026-03-22T13:43:05.999Z</time></trkpt><trkpt lat="45.567239864492706" lon="8.23190677227974"><ele>231.33333333333331</ele><time>2026-03-22T13:43:06.999Z</time></trkpt><trkpt lat="45.567199414034775" lon="8.231798515270691"><ele>231.16666666666666</ele><time>2026-03-22T13:43:07.999Z</time></trkpt><trkpt lat="45.567157980742714" lon="8.231688529397873"><ele>231.0</ele><time>2026-03-22T13:43:08.999Z</time></trkpt><trkpt lat="45.56710454920229" lon="8.231591224666087"><ele>231.0</ele><time>2026-03-22T13:43:09.999Z</time></trkpt><trkpt lat="45.56707778937465" lon="8.231473800733859"><ele>231.0</ele><time>2026-03-22T13:43:10.999Z</time></trkpt><trkpt lat="45.567023945088664" lon="8.231380878612384"><ele>231.0</ele><time>2026-03-22T13:43:11.999Z</time></trkpt><trkpt lat="45.56698691453161" lon="8.23128424298051"><ele>231.0</ele><time>2026-03-22T13:43:12.999Z</time></trkpt><trkpt lat="45.566951681291066" lon="8.231192297659774"><ele>231.0</ele><time>2026-03-22T13:43:13.999Z</time></trkpt><trkpt lat="45.56691807595066" lon="8.231104600496941"><ele>231.0</ele><time>2026-03-22T13:43:14.999Z</time></trkpt><trkpt lat="45.56688470835354" lon="8.231018280032758"><ele>231.0</ele><time>2026-03-22T13:43:15.999Z</time></trkpt><trkpt lat="45.566833287383425" lon="8.23088895809695"><ele>231.00000000000003</ele><time>2026-03-22T13:43:17.999Z</time></trkpt><trkpt lat="45.56693249938181" lon="8.230839673469948"><ele>231.00000000000003</ele><time>2026-03-22T13:43:20.999Z</time></trkpt><trkpt lat="45.567004004301666" lon="8.23079689722559"><ele>231.0</ele><time>2026-03-22T13:43:21.999Z</time></trkpt><trkpt lat="45.56708985923272" lon="8.230771598193462"><ele>231.0</ele><time>2026-03-22T13:43:22.999Z</time></trkpt><trkpt lat="45.567141709187574" lon="8.230668957798638"><ele>232.0</ele><time>2026-03-22T13:43:23.999Z</time></trkpt><trkpt lat="45.56720812788037" lon="8.230586800429212"><ele>233.00000000000003</ele><time>2026-03-22T13:43:24.999Z</time></trkpt><trkpt lat="45.56728733618057" lon="8.230480024973508"><ele>234.00000000000003</ele><time>2026-03-22T13:43:26.999Z</time></trkpt><trkpt lat="45.56737732546216" lon="8.23033131259105"><ele>235.0</ele><time>2026-03-22T13:43:28.999Z</time></trkpt><trkpt lat="45.56745480697947" lon="8.230229006701395"><ele>236.0</ele><time>2026-03-22T13:43:29.999Z</time></trkpt><trkpt lat="45.56756063400113" lon="8.230170720622448"><ele>236.00000000000003</ele><time>2026-03-22T13:43:30.999Z</time></trkpt><trkpt lat="45.567636618509816" lon="8.230095060346931"><ele>236.0</ele><time>2026-03-22T13:43:31.999Z</time></trkpt><trkpt lat="45.56770265909822" lon="8.230059325644175"><ele>236.0</ele><time>2026-03-22T13:43:32.999Z</time></trkpt><trkpt lat="45.56777247301556" lon="8.230028004859477"><ele>236.0</ele><time>2026-03-22T13:43:34.999Z</time></trkpt><trkpt lat="45.567866058517666" lon="8.230001774759259"><ele>236.00000000000003</ele><time>2026-03-22T13:43:36.999Z</time></trkpt><trkpt lat="45.56798133086584" lon="8.229975865182524"><ele>236.0</ele><time>2026-03-22T13:43:38.999Z</time></trkpt><trkpt lat="45.56805398012347" lon="8.229963106597873"><ele>236.00000000000003</ele><time>2026-03-22T13:43:39.999Z</time></trkpt><trkpt lat="45.56814921142715" lon="8.229976356534292"><ele>236.0</ele><time>2026-03-22T13:43:40.999Z</time></trkpt><trkpt lat="45.568223595922014" lon="8.22993769033675"><ele>236.0</ele><time>2026-03-22T13:43:41.999Z</time></trkpt><trkpt lat="45.5682884064827" lon="8.229919722430123"><ele>236.0</ele><time>2026-03-22T13:43:42.999Z</time></trkpt><trkpt lat="45.56835803493475" lon="8.229877446483119"><ele>236.00000000000003</ele><time>2026-03-22T13:43:43.999Z</time></trkpt><trkpt lat="45.56842344386625" lon="8.229828491883367"><ele>236.0</ele><time>2026-03-22T13:43:44.999Z</time></trkpt><trkpt lat="45.568489133010274" lon="8.229729654751603"><ele>236.0</ele><time>2026-03-22T13:43:46.999Z</time></trkpt><trkpt lat="45.56854871333102" lon="8.22959034628058"><ele>236.00000000000003</ele><time>2026-03-22T13:43:49.999Z</time></trkpt><trkpt lat="45.56862448650276" lon="8.229508541996747"><ele>236.00000000000003</ele><time>2026-03-22T13:43:50.999Z</time></trkpt><trkpt lat="45.568692254183574" lon="8.229405221948728"><ele>236.0</ele><time>2026-03-22T13:43:51.999Z</time></trkpt><trkpt lat="45.56871224634321" lon="8.229206152291532"><ele>236.0</ele><time>2026-03-22T13:43:52.999Z</time></trkpt><trkpt lat="45.568753705758766" lon="8.229079441275978"><ele>237.66666666666669</ele><time>2026-03-22T13:43:53.999Z</time></trkpt><trkpt lat="45.5687770514657" lon="8.228974755069986"><ele>239.33333333333334</ele><time>2026-03-22T13:43:54.999Z</time></trkpt><trkpt lat="45.56879920514298" lon="8.22887259509214"><ele>241.0</ele><time>2026-03-22T13:43:55.999Z</time></trkpt><trkpt lat="45.56884136646553" lon="8.228758445291144"><ele>242.66666666666669</ele><time>2026-03-22T13:43:56.999Z</time></trkpt><trkpt lat="45.568887716514276" lon="8.228626705001307"><ele>244.33333333333334</ele><time>2026-03-22T13:43:57.999Z</time></trkpt><trkpt lat="45.56891272491424" lon="8.228484221805655"><ele>246.0</ele><time>2026-03-22T13:43:58.999Z</time></trkpt><trkpt lat="45.56894270616954" lon="8.228365383695877"><ele>246.0</ele><time>2026-03-22T13:43:59.999Z</time></trkpt><trkpt lat="45.56897645041767" lon="8.2282809999864"><ele>246.00000000000003</ele><time>2026-03-22T13:44:00.999Z</time></trkpt><trkpt lat="45.569040473409466" lon="8.22813857936734"><ele>246.00000000000003</ele><time>2026-03-22T13:44:02.999Z</time></trkpt><trkpt lat="45.56912541946772" lon="8.227984478327055"><ele>246.0</ele><time>2026-03-22T13:44:04.999Z</time></trkpt><trkpt lat="45.56916073537548" lon="8.22788917537063"><ele>246.0</ele><time>2026-03-22T13:44:05.999Z</time></trkpt><trkpt lat="45.569211079389895" lon="8.227775484807378"><ele>248.5</ele><time>2026-03-22T13:44:06.999Z</time></trkpt><trkpt lat="45.56925461762877" lon="8.227676180591034"><ele>251.0</ele><time>2026-03-22T13:44:07.999Z</time></trkpt><trkpt lat="45.569284914798985" lon="8.227578248339997"><ele>253.5</ele><time>2026-03-22T13:44:08.999Z</time></trkpt><trkpt lat="45.56931963346982" lon="8.227495692901751"><ele>256.0</ele><time>2026-03-22T13:44:09.998Z</time></trkpt><trkpt lat="45.56935531524501" lon="8.227393483544533"><ele>258.5</ele><time>2026-03-22T13:44:10.998Z</time></trkpt><trkpt lat="45.56940946437098" lon="8.227288076105888"><ele>261.0</ele><time>2026-03-22T13:44:11.998Z</time></trkpt><trkpt lat="45.56946081105496" lon="8.227195032132634"><ele>261.3333333333333</ele><time>2026-03-22T13:44:12.998Z</time></trkpt><trkpt lat="45.56950406137428" lon="8.227095933815372"><ele>261.6666666666667</ele><time>2026-03-22T13:44:13.998Z</time></trkpt><trkpt lat="45.56955001819578" lon="8.22699762220452"><ele>262.0</ele><time>2026-03-22T13:44:14.998Z</time></trkpt><trkpt lat="45.56958604339336" lon="8.226898782491238"><ele>262.33333333333337</ele><time>2026-03-22T13:44:15.998Z</time></trkpt><trkpt lat="45.56961753719112" lon="8.226804559674214"><ele>262.6666666666667</ele><time>2026-03-22T13:44:16.998Z</time></trkpt><trkpt lat="45.569658789868704" lon="8.226706513535289"><ele>263.0</ele><time>2026-03-22T13:44:17.998Z</time></trkpt><trkpt lat="45.56968921992211" lon="8.22660821882792"><ele>263.0</ele><time>2026-03-22T13:44:18.998Z</time></trkpt><trkpt lat="45.56970851606861" lon="8.226518552460597"><ele>263.0</ele><time>2026-03-22T13:44:19.998Z</time></trkpt><trkpt lat="45.56974568930019" lon="8.226425945128273"><ele>263.0</ele><time>2026-03-22T13:44:20.998Z</time></trkpt><trkpt lat="45.56979712201031" lon="8.226309781363346"><ele>263.0</ele><time>2026-03-22T13:44:21.998Z</time></trkpt><trkpt lat="45.56984512066934" lon="8.226202207207871"><ele>263.0</ele><time>2026-03-22T13:44:23Z</time></trkpt><trkpt lat="45.56989770183987" lon="8.226107541256754"><ele>263.0</ele><time>2026-03-22T13:44:24Z</time></trkpt><trkpt lat="45.56996456537608" lon="8.226021367263867"><ele>264.0</ele><time>2026-03-22T13:44:25Z</time></trkpt><trkpt lat="45.57002532718005" lon="8.225928278097722"><ele>265.0</ele><time>2026-03-22T13:44:26Z</time></trkpt><trkpt lat="45.57007145984219" lon="8.225844939690626"><ele>266.0</ele><time>2026-03-22T13:44:27Z</time></trkpt><trkpt lat="45.57011843995838" lon="8.22574653158622"><ele>267.0</ele><time>2026-03-22T13:44:28Z</time></trkpt><trkpt lat="45.57017242464466" lon="8.225648541001354"><ele>268.0</ele><time>2026-03-22T13:44:29Z</time></trkpt><trkpt lat="45.570230755632075" lon="8.225559245558284"><ele>269.0</ele><time>2026-03-22T13:44:30Z</time></trkpt><trkpt lat="45.57028342694986" lon="8.225462109250635"><ele>269.0</ele><time>2026-03-22T13:44:31Z</time></trkpt><trkpt lat="45.57032972162911" lon="8.225345826824022"><ele>269.0</ele><time>2026-03-22T13:44:32Z</time></trkpt><trkpt lat="45.5703826288495" lon="8.225243237816228"><ele>269.0</ele><time>2026-03-22T13:44:33Z</time></trkpt><trkpt lat="45.570427556180725" lon="8.225150968397719"><ele>269.0</ele><time>2026-03-22T13:44:34Z</time></trkpt><trkpt lat="45.57047395057255" lon="8.225069979795686"><ele>269.0</ele><time>2026-03-22T13:44:36Z</time></trkpt><trkpt lat="45.570535366192935" lon="8.224989800027995"><ele>269.0</ele><time>2026-03-22T13:44:38Z</time></trkpt><trkpt lat="45.570587638546385" lon="8.224917403084259"><ele>269.83333333333337</ele><time>2026-03-22T13:44:39Z</time></trkpt><trkpt lat="45.570646974307074" lon="8.224842075241469"><ele>270.6666666666667</ele><time>2026-03-22T13:44:40Z</time></trkpt><trkpt lat="45.57071321480992" lon="8.224773484414644"><ele>271.5</ele><time>2026-03-22T13:44:41Z</time></trkpt><trkpt lat="45.57078318256505" lon="8.224695096609665"><ele>272.3333333333333</ele><time>2026-03-22T13:44:42Z</time></trkpt><trkpt lat="45.570864705377836" lon="8.22464612829259"><ele>273.16666666666663</ele><time>2026-03-22T13:44:43Z</time></trkpt><trkpt lat="45.57094493911365" lon="8.22460972276555"><ele>274.0</ele><time>2026-03-22T13:44:44Z</time></trkpt><trkpt lat="45.571042157422255" lon="8.224587934144923"><ele>275.2</ele><time>2026-03-22T13:44:45Z</time></trkpt><trkpt lat="45.571156670666355" lon="8.22457922323853"><ele>276.4</ele><time>2026-03-22T13:44:46Z</time></trkpt><trkpt lat="45.571273073455004" lon="8.224570985950903"><ele>277.6</ele><time>2026-03-22T13:44:47Z</time></trkpt><trkpt lat="45.5713733966672" lon="8.224557303615597"><ele>278.8</ele><time>2026-03-22T13:44:48Z</time></trkpt><trkpt lat="45.57147357986539" lon="8.224551518853122"><ele>280.0</ele><time>2026-03-22T13:44:49Z</time></trkpt><trkpt lat="45.57157853046537" lon="8.224535915672783"><ele>281.6</ele><time>2026-03-22T13:44:50Z</time></trkpt><trkpt lat="45.571685153285536" lon="8.224526126371394"><ele>283.2</ele><time>2026-03-22T13:44:51Z</time></trkpt><trkpt lat="45.57179264980639" lon="8.224513735814813"><ele>284.8</ele><time>2026-03-22T13:44:52Z</time></trkpt><trkpt lat="45.57189554240075" lon="8.22449560649615"><ele>286.4</ele><time>2026-03-22T13:44:53Z</time></trkpt><trkpt lat="45.57200351506278" lon="8.224482225679413"><ele>288.0</ele><time>2026-03-22T13:44:54Z</time></trkpt><trkpt lat="45.572107695677566" lon="8.224470979566858"><ele>289.4</ele><time>2026-03-22T13:44:55Z</time></trkpt><trkpt lat="45.572211053220165" lon="8.224456148217232"><ele>290.8</ele><time>2026-03-22T13:44:56Z</time></trkpt><trkpt lat="45.572311201820774" lon="8.22444072114442"><ele>292.2</ele><time>2026-03-22T13:44:57Z</time></trkpt><trkpt lat="45.57240025770069" lon="8.224428597394137"><ele>293.6</ele><time>2026-03-22T13:44:58Z</time></trkpt><trkpt lat="45.57247991870325" lon="8.224416004706502"><ele>295.0</ele><time>2026-03-22T13:44:59Z</time></trkpt><trkpt lat="45.572557856465586" lon="8.22438446911289"><ele>295.0</ele><time>2026-03-22T13:45:00Z</time></trkpt><trkpt lat="45.57262342777307" lon="8.224340641753761"><ele>295.0</ele><time>2026-03-22T13:45:01Z</time></trkpt><trkpt lat="45.572686847132" lon="8.224289832630072"><ele>295.0</ele><time>2026-03-22T13:45:02Z</time></trkpt><trkpt lat="45.57277122322481" lon="8.224233735079713"><ele>295.0</ele><time>2026-03-22T13:45:03Z</time></trkpt><trkpt lat="45.57286354743086" lon="8.224173773751774"><ele>295.0</ele><time>2026-03-22T13:45:04Z</time></trkpt><trkpt lat="45.57294126242125" lon="8.224105586806935"><ele>295.0</ele><time>2026-03-22T13:45:05Z</time></trkpt><trkpt lat="45.57299938742899" lon="8.224015722806712"><ele>295.0</ele><time>2026-03-22T13:45:06Z</time></trkpt><trkpt lat="45.57301382932281" lon="8.223919257824853"><ele>295.0</ele><time>2026-03-22T13:45:07Z</time></trkpt><trkpt lat="45.57300435493771" lon="8.223830291826026"><ele>295.0</ele><time>2026-03-22T13:45:08Z</time></trkpt><trkpt lat="45.57304136271686" lon="8.223622307446773"><ele>295.0</ele><time>2026-03-22T13:45:10Z</time></trkpt><trkpt lat="45.57305540577317" lon="8.223495899662188"><ele>295.0</ele><time>2026-03-22T13:45:11Z</time></trkpt><trkpt lat="45.57307551380736" lon="8.223372194690718"><ele>295.0</ele><time>2026-03-22T13:45:11.999Z</time></trkpt><trkpt lat="45.573089842847736" lon="8.223247144108013"><ele>295.0</ele><time>2026-03-22T13:45:12.999Z</time></trkpt><trkpt lat="45.573088899065134" lon="8.223145642185143"><ele>295.0</ele><time>2026-03-22T13:45:13.999Z</time></trkpt><trkpt lat="45.57307757571368" lon="8.223040066385337"><ele>295.0</ele><time>2026-03-22T13:45:14.999Z</time></trkpt><trkpt lat="45.57305963180395" lon="8.222952498619396"><ele>295.0</ele><time>2026-03-22T13:45:15.999Z</time></trkpt><trkpt lat="45.57304007094998" lon="8.222857003891587"><ele>295.0</ele><time>2026-03-22T13:45:16.999Z</time></trkpt><trkpt lat="45.57301299240437" lon="8.22274629201414"><ele>295.8333333333333</ele><time>2026-03-22T13:45:17.999Z</time></trkpt><trkpt lat="45.57300863761161" lon="8.222630164303352"><ele>296.66666666666663</ele><time>2026-03-22T13:45:18.999Z</time></trkpt><trkpt lat="45.57300047768708" lon="8.22249612271917"><ele>297.5</ele><time>2026-03-22T13:45:20.999Z</time></trkpt><trkpt lat="45.57304839189719" lon="8.222416227803203"><ele>298.3333333333333</ele><time>2026-03-22T13:45:22.999Z</time></trkpt><trkpt lat="45.57302529983791" lon="8.222285570795936"><ele>299.1666666666667</ele><time>2026-03-22T13:45:23.999Z</time></trkpt><trkpt lat="45.57308042397481" lon="8.222225495830163"><ele>300.0</ele><time>2026-03-22T13:45:24.999Z</time></trkpt><trkpt lat="45.57315002415781" lon="8.222155580116297"><ele>300.0</ele><time>2026-03-22T13:45:25.999Z</time></trkpt><trkpt lat="45.573225716097284" lon="8.22208546470752"><ele>300.0</ele><time>2026-03-22T13:45:26.999Z</time></trkpt><trkpt lat="45.573304442088414" lon="8.22201548715074"><ele>300.0</ele><time>2026-03-22T13:45:27.999Z</time></trkpt><trkpt lat="45.57337396468164" lon="8.22193375389123"><ele>300.0</ele><time>2026-03-22T13:45:28.999Z</time></trkpt><trkpt lat="45.5734388141992" lon="8.221840509537897"><ele>300.0</ele><time>2026-03-22T13:45:29.999Z</time></trkpt><trkpt lat="45.573508664603175" lon="8.221730470856771"><ele>300.0</ele><time>2026-03-22T13:45:30.999Z</time></trkpt><trkpt lat="45.573576872594344" lon="8.221614486816355"><ele>300.0</ele><time>2026-03-22T13:45:31.999Z</time></trkpt><trkpt lat="45.57364403393927" lon="8.221492368114644"><ele>300.0</ele><time>2026-03-22T13:45:32.999Z</time></trkpt><trkpt lat="45.57370991835203" lon="8.221361768346146"><ele>300.0</ele><time>2026-03-22T13:45:33.999Z</time></trkpt><trkpt lat="45.57376707155449" lon="8.221225552448184"><ele>300.0</ele><time>2026-03-22T13:45:34.999Z</time></trkpt><trkpt lat="45.573829126374086" lon="8.221088206925753"><ele>300.8</ele><time>2026-03-22T13:45:35.999Z</time></trkpt><trkpt lat="45.57389246362346" lon="8.220962119113764"><ele>301.6</ele><time>2026-03-22T13:45:36.999Z</time></trkpt><trkpt lat="45.573964170272156" lon="8.22084540212105"><ele>302.4</ele><time>2026-03-22T13:45:37.999Z</time></trkpt><trkpt lat="45.57405719594726" lon="8.220767662869697"><ele>303.2</ele><time>2026-03-22T13:45:38.999Z</time></trkpt><trkpt lat="45.574100526099976" lon="8.220637578877785"><ele>304.0</ele><time>2026-03-22T13:45:39.999Z</time></trkpt><trkpt lat="45.57415583413807" lon="8.220518347026427"><ele>304.0</ele><time>2026-03-22T13:45:40.999Z</time></trkpt><trkpt lat="45.57421653374934" lon="8.22041226650994"><ele>304.0</ele><time>2026-03-22T13:45:41.999Z</time></trkpt><trkpt lat="45.57427141093345" lon="8.22031889320587"><ele>304.0</ele><time>2026-03-22T13:45:42.999Z</time></trkpt><trkpt lat="45.57431358786262" lon="8.220237189780617"><ele>304.0</ele><time>2026-03-22T13:45:43.999Z</time></trkpt><trkpt lat="45.574362376254676" lon="8.220124963186612"><ele>304.0</ele><time>2026-03-22T13:45:45.999Z</time></trkpt><trkpt lat="45.574434384459515" lon="8.219945407349925"><ele>304.0</ele><time>2026-03-22T13:45:48.999Z</time></trkpt><trkpt lat="45.57449410341961" lon="8.219903170056124"><ele>304.0</ele><time>2026-03-22T13:45:49.999Z</time></trkpt><trkpt lat="45.57482150704909" lon="8.220342355376184"><ele>305.3333333333333</ele><time>2026-03-22T13:45:51.999Z</time></trkpt><trkpt lat="45.574887411480304" lon="8.220434051312768"><ele>306.66666666666663</ele><time>2026-03-22T13:45:52.999Z</time></trkpt><trkpt lat="45.574962928602986" lon="8.220507582538405"><ele>308.0</ele><time>2026-03-22T13:45:53.999Z</time></trkpt><trkpt lat="45.57505127301455" lon="8.220533804320647"><ele>309.3333333333333</ele><time>2026-03-22T13:45:54.999Z</time></trkpt><trkpt lat="45.575139903193175" lon="8.220529921845547"><ele>310.6666666666667</ele><time>2026-03-22T13:45:55.999Z</time></trkpt><trkpt lat="45.57522306977759" lon="8.220502020487098"><ele>312.0</ele><time>2026-03-22T13:45:56.999Z</time></trkpt><trkpt lat="45.5752922317307" lon="8.220483822282164"><ele>310.6666666666667</ele><time>2026-03-22T13:45:57.999Z</time></trkpt><trkpt lat="45.57535452846432" lon="8.220456467833198"><ele>309.3333333333333</ele><time>2026-03-22T13:45:58.999Z</time></trkpt><trkpt lat="45.575435368365376" lon="8.220389678050289"><ele>308.0</ele><time>2026-03-22T13:45:59.999Z</time></trkpt><trkpt lat="45.57551771372811" lon="8.220337978055605"><ele>306.66666666666663</ele><time>2026-03-22T13:46:00.999Z</time></trkpt><trkpt lat="45.57558246278388" lon="8.220355579755598"><ele>305.3333333333333</ele><time>2026-03-22T13:46:01.999Z</time></trkpt><trkpt lat="45.57564486277193" lon="8.220430300900192"><ele>304.0</ele><time>2026-03-22T13:46:02.999Z</time></trkpt><trkpt lat="45.575693013662026" lon="8.220584239857526"><ele>302.66666666666663</ele><time>2026-03-22T13:46:03.999Z</time></trkpt><trkpt lat="45.57574301033798" lon="8.220672698293743"><ele>301.3333333333333</ele><time>2026-03-22T13:46:04.999Z</time></trkpt><trkpt lat="45.5758130757822" lon="8.220706930500004"><ele>300.0</ele><time>2026-03-22T13:46:05.999Z</time></trkpt><trkpt lat="45.57587983550434" lon="8.22073703435807"><ele>298.6666666666667</ele><time>2026-03-22T13:46:06.999Z</time></trkpt><trkpt lat="45.57597321519082" lon="8.220772163237319"><ele>297.33333333333337</ele><time>2026-03-22T13:46:07.999Z</time></trkpt><trkpt lat="45.576037953091664" lon="8.220851086976975"><ele>296.0</ele><time>2026-03-22T13:46:08.999Z</time></trkpt><trkpt lat="45.576052545637424" lon="8.22098163917098"><ele>296.0</ele><time>2026-03-22T13:46:09.999Z</time></trkpt><trkpt lat="45.57606727148031" lon="8.221121269236216"><ele>296.0</ele><time>2026-03-22T13:46:10.999Z</time></trkpt><trkpt lat="45.57608246526899" lon="8.221297476589813"><ele>296.0</ele><time>2026-03-22T13:46:11.999Z</time></trkpt><trkpt lat="45.57607609919173" lon="8.221402250239583"><ele>296.0</ele><time>2026-03-22T13:46:12.999Z</time></trkpt><trkpt lat="45.57612345756489" lon="8.22154246524607"><ele>296.0</ele><time>2026-03-22T13:46:14.999Z</time></trkpt><trkpt lat="45.5761829601007" lon="8.22159233289606"><ele>291.25</ele><time>2026-03-22T13:46:15.999Z</time></trkpt><trkpt lat="45.57627432949339" lon="8.22161949487959"><ele>286.5</ele><time>2026-03-22T13:46:17.998Z</time></trkpt><trkpt lat="45.57637001167789" lon="8.221483356086557"><ele>281.75</ele><time>2026-03-22T13:46:19.998Z</time></trkpt><trkpt lat="45.57651780449508" lon="8.221518118869103"><ele>277.0</ele><time>2026-03-22T13:46:21.998Z</time></trkpt><trkpt lat="45.57659524284989" lon="8.221514220441593"><ele>277.0</ele><time>2026-03-22T13:46:22.998Z</time></trkpt><trkpt lat="45.576659748006165" lon="8.22158259656998"><ele>277.0</ele><time>2026-03-22T13:46:24.998Z</time></trkpt><trkpt lat="45.57661266739934" lon="8.221674536640705"><ele>277.0</ele><time>2026-03-22T13:46:26.998Z</time></trkpt><trkpt lat="45.57656365222361" lon="8.221777511755457"><ele>277.0</ele><time>2026-03-22T13:46:27.998Z</time></trkpt><trkpt lat="45.57650173131103" lon="8.221900123166646"><ele>277.0</ele><time>2026-03-22T13:46:29Z</time></trkpt><trkpt lat="45.576455668305194" lon="8.222001311616156"><ele>277.0</ele><time>2026-03-22T13:46:30Z</time></trkpt><trkpt lat="45.57643840813901" lon="8.222109333362905"><ele>277.0</ele><time>2026-03-22T13:46:31Z</time></trkpt><trkpt lat="45.57644020456313" lon="8.222248664402517"><ele>277.0</ele><time>2026-03-22T13:46:33Z</time></trkpt><trkpt lat="45.576361215709994" lon="8.222402290130503"><ele>277.0</ele><time>2026-03-22T13:46:35Z</time></trkpt><trkpt lat="45.57629946661107" lon="8.222509292138506"><ele>277.0</ele><time>2026-03-22T13:46:36Z</time></trkpt><trkpt lat="45.5762193540325" lon="8.222601085745119"><ele>277.0</ele><time>2026-03-22T13:46:37Z</time></trkpt><trkpt lat="45.57613717999958" lon="8.222690738253098"><ele>275.6</ele><time>2026-03-22T13:46:38Z</time></trkpt><trkpt lat="45.576061551506115" lon="8.222786547606832"><ele>274.2</ele><time>2026-03-22T13:46:39Z</time></trkpt><trkpt lat="45.57598232457101" lon="8.222878431338533"><ele>272.8</ele><time>2026-03-22T13:46:40Z</time></trkpt><trkpt lat="45.57589045795266" lon="8.222971639560171"><ele>271.4</ele><time>2026-03-22T13:46:41Z</time></trkpt><trkpt lat="45.575827785237266" lon="8.223048570612972"><ele>270.0</ele><time>2026-03-22T13:46:42Z</time></trkpt><trkpt lat="45.5757755938084" lon="8.223154911382016"><ele>268.0</ele><time>2026-03-22T13:46:43Z</time></trkpt><trkpt lat="45.57570968069662" lon="8.223256109782943"><ele>266.0</ele><time>2026-03-22T13:46:44Z</time></trkpt><trkpt lat="45.57565759780439" lon="8.223389035005406"><ele>264.0</ele><time>2026-03-22T13:46:46Z</time></trkpt><trkpt lat="45.57568507425886" lon="8.223512132792374"><ele>262.0</ele><time>2026-03-22T13:46:47Z</time></trkpt><trkpt lat="45.57572209720614" lon="8.22367458179273"><ele>260.0</ele><time>2026-03-22T13:46:48Z</time></trkpt><trkpt lat="45.57575948038496" lon="8.223813267481379"><ele>260.0</ele><time>2026-03-22T13:46:49Z</time></trkpt><trkpt lat="45.57583797368627" lon="8.223942649427535"><ele>260.0</ele><time>2026-03-22T13:46:50Z</time></trkpt><trkpt lat="45.575939616508855" lon="8.224049799635496"><ele>260.0</ele><time>2026-03-22T13:46:51Z</time></trkpt><trkpt lat="45.57597811981969" lon="8.224143431253303"><ele>260.0</ele><time>2026-03-22T13:46:52Z</time></trkpt><trkpt lat="45.57602578757562" lon="8.224215442340318"><ele>260.0</ele><time>2026-03-22T13:46:54Z</time></trkpt><trkpt lat="45.57611746480426" lon="8.22415393721803"><ele>259.1666666666667</ele><time>2026-03-22T13:46:55Z</time></trkpt><trkpt lat="45.57619646199809" lon="8.22408019622349"><ele>258.33333333333337</ele><time>2026-03-22T13:46:56Z</time></trkpt><trkpt lat="45.576279137851195" lon="8.22400460969653"><ele>257.5</ele><time>2026-03-22T13:46:57Z</time></trkpt><trkpt lat="45.576367517050784" lon="8.223924260277442"><ele>256.6666666666667</ele><time>2026-03-22T13:46:58Z</time></trkpt><trkpt lat="45.576426371637154" lon="8.223879512280314"><ele>255.83333333333334</ele><time>2026-03-22T13:46:59Z</time></trkpt><trkpt lat="45.57646608800218" lon="8.22380508240219"><ele>255.0</ele><time>2026-03-22T13:47:00Z</time></trkpt><trkpt lat="45.576482563153945" lon="8.223704088441073"><ele>255.0</ele><time>2026-03-22T13:47:01Z</time></trkpt><trkpt lat="45.576524383622264" lon="8.223636274796984"><ele>255.0</ele><time>2026-03-22T13:47:02Z</time></trkpt><trkpt lat="45.57659692253467" lon="8.22361992191574"><ele>255.0</ele><time>2026-03-22T13:47:03Z</time></trkpt><trkpt lat="45.57668107067356" lon="8.223580953431895"><ele>255.0</ele><time>2026-03-22T13:47:04Z</time></trkpt><trkpt lat="45.576734072763" lon="8.22348805842163"><ele>255.0</ele><time>2026-03-22T13:47:05Z</time></trkpt><trkpt lat="45.576829614923575" lon="8.223385730973476"><ele>255.0</ele><time>2026-03-22T13:47:06Z</time></trkpt><trkpt lat="45.576952448850676" lon="8.22331249851007"><ele>253.75</ele><time>2026-03-22T13:47:07Z</time></trkpt><trkpt lat="45.577080508543766" lon="8.223232824876321"><ele>252.5</ele><time>2026-03-22T13:47:08Z</time></trkpt><trkpt lat="45.57719403554276" lon="8.223146188500154"><ele>251.25</ele><time>2026-03-22T13:47:09Z</time></trkpt><trkpt lat="45.57727701861166" lon="8.223064217863707"><ele>250.0</ele><time>2026-03-22T13:47:10Z</time></trkpt><trkpt lat="45.57735231266079" lon="8.222985660345826"><ele>250.0</ele><time>2026-03-22T13:47:11Z</time></trkpt><trkpt lat="45.5774365150898" lon="8.222938284119131"><ele>250.0</ele><time>2026-03-22T13:47:12Z</time></trkpt><trkpt lat="45.577508739977105" lon="8.222871240237831"><ele>250.0</ele><time>2026-03-22T13:47:13Z</time></trkpt><trkpt lat="45.57754618879247" lon="8.22279048780978"><ele>250.0</ele><time>2026-03-22T13:47:14Z</time></trkpt><trkpt lat="45.57758467829982" lon="8.22266491479982"><ele>250.0</ele><time>2026-03-22T13:47:15Z</time></trkpt><trkpt lat="45.57763561575838" lon="8.222516233910905"><ele>250.0</ele><time>2026-03-22T13:47:16Z</time></trkpt><trkpt lat="45.57770022637895" lon="8.222408014225184"><ele>250.0</ele><time>2026-03-22T13:47:16.999Z</time></trkpt><trkpt lat="45.57774213644623" lon="8.222333910622506"><ele>250.0</ele><time>2026-03-22T13:47:17.999Z</time></trkpt><trkpt lat="45.57784627263246" lon="8.22225564908772"><ele>250.0</ele><time>2026-03-22T13:47:19.999Z</time></trkpt><trkpt lat="45.577921774519744" lon="8.2222187725576"><ele>250.0</ele><time>2026-03-22T13:47:20.999Z</time></trkpt><trkpt lat="45.578009184782935" lon="8.222101198212235"><ele>249.4</ele><time>2026-03-22T13:47:21.999Z</time></trkpt><trkpt lat="45.57807795498778" lon="8.221989808249479"><ele>248.8</ele><time>2026-03-22T13:47:22.999Z</time></trkpt><trkpt lat="45.578157627061934" lon="8.22191203467164"><ele>248.2</ele><time>2026-03-22T13:47:23.999Z</time></trkpt><trkpt lat="45.57825256949706" lon="8.22187068810624"><ele>247.6</ele><time>2026-03-22T13:47:24.999Z</time></trkpt><trkpt lat="45.57838019859288" lon="8.221851496676825"><ele>247.0</ele><time>2026-03-22T13:47:25.999Z</time></trkpt><trkpt lat="45.57846848653624" lon="8.22186417421792"><ele>247.0</ele><time>2026-03-22T13:47:26.999Z</time></trkpt><trkpt lat="45.57854324528041" lon="8.22190153705587"><ele>247.0</ele><time>2026-03-22T13:47:27.999Z</time></trkpt><trkpt lat="45.578617767455675" lon="8.221940984264501"><ele>247.0</ele><time>2026-03-22T13:47:28.999Z</time></trkpt><trkpt lat="45.57869726798198" lon="8.221919575958763"><ele>247.0</ele><time>2026-03-22T13:47:29.999Z</time></trkpt><trkpt lat="45.57878305087492" lon="8.221898186357818"><ele>247.0</ele><time>2026-03-22T13:47:31.999Z</time></trkpt><trkpt lat="45.57892391479919" lon="8.221845553675806"><ele>247.39999999999998</ele><time>2026-03-22T13:47:33.999Z</time></trkpt><trkpt lat="45.57902442435557" lon="8.22181103655288"><ele>247.79999999999998</ele><time>2026-03-22T13:47:34.999Z</time></trkpt><trkpt lat="45.57910918247524" lon="8.221771179177898"><ele>248.2</ele><time>2026-03-22T13:47:35.999Z</time></trkpt><trkpt lat="45.57919013324119" lon="8.221709262961845"><ele>248.6</ele><time>2026-03-22T13:47:36.999Z</time></trkpt><trkpt lat="45.57927961138219" lon="8.22167218432386"><ele>249.0</ele><time>2026-03-22T13:47:37.999Z</time></trkpt><trkpt lat="45.57937409799661" lon="8.221598863454762"><ele>249.0</ele><time>2026-03-22T13:47:38.999Z</time></trkpt><trkpt lat="45.57946081714704" lon="8.221545529696826"><ele>248.99999999999997</ele><time>2026-03-22T13:47:39.999Z</time></trkpt><trkpt lat="45.57956892094426" lon="8.221519477445968"><ele>248.99999999999997</ele><time>2026-03-22T13:47:40.999Z</time></trkpt><trkpt lat="45.57966088298058" lon="8.221482175166964"><ele>249.0</ele><time>2026-03-22T13:47:41.999Z</time></trkpt><trkpt lat="45.57972417540132" lon="8.22146632552775"><ele>249.0</ele><time>2026-03-22T13:47:42.999Z</time></trkpt><trkpt lat="45.57980395883163" lon="8.221518873508668"><ele>248.6</ele><time>2026-03-22T13:47:44.999Z</time></trkpt><trkpt lat="45.57979912003569" lon="8.22141368634888"><ele>248.2</ele><time>2026-03-22T13:47:45.999Z</time></trkpt><trkpt lat="45.57975660161481" lon="8.221299710891108"><ele>247.79999999999998</ele><time>2026-03-22T13:47:46.999Z</time></trkpt><trkpt lat="45.57969981713581" lon="8.22117898060332"><ele>247.39999999999998</ele><time>2026-03-22T13:47:56.999Z</time></trkpt><trkpt lat="45.57963786594304" lon="8.220993796982263"><ele>247.0</ele><time>2026-03-22T13:47:58.999Z</time></trkpt><trkpt lat="45.57959046735074" lon="8.220853745193052"><ele>247.0</ele><time>2026-03-22T13:47:59.999Z</time></trkpt><trkpt lat="45.579585077744966" lon="8.220705702287534"><ele>247.0</ele><time>2026-03-22T13:48:00.999Z</time></trkpt><trkpt lat="45.57960342541442" lon="8.220546384728923"><ele>247.0</ele><time>2026-03-22T13:48:01.999Z</time></trkpt><trkpt lat="45.57962727453721" lon="8.220386823881592"><ele>247.0</ele><time>2026-03-22T13:48:02.999Z</time></trkpt><trkpt lat="45.579647369563865" lon="8.220243456640393"><ele>247.0</ele><time>2026-03-22T13:48:03.999Z</time></trkpt><trkpt lat="45.57965687852116" lon="8.220087946984478"><ele>247.0</ele><time>2026-03-22T13:48:04.999Z</time></trkpt><trkpt lat="45.579673274437326" lon="8.219945199214186"><ele>247.0</ele><time>2026-03-22T13:48:05.999Z</time></trkpt><trkpt lat="45.57969079315111" lon="8.219837612796082"><ele>247.0</ele><time>2026-03-22T13:48:06.999Z</time></trkpt><trkpt lat="45.579727590183445" lon="8.219757491769565"><ele>247.0</ele><time>2026-03-22T13:48:07.999Z</time></trkpt><trkpt lat="45.57980579693466" lon="8.219658194301184"><ele>247.0</ele><time>2026-03-22T13:48:08.999Z</time></trkpt><trkpt lat="45.579892794798106" lon="8.219557766079935"><ele>247.6</ele><time>2026-03-22T13:48:09.999Z</time></trkpt><trkpt lat="45.579961613772404" lon="8.219452958146213"><ele>248.2</ele><time>2026-03-22T13:48:10.999Z</time></trkpt><trkpt lat="45.580038537961634" lon="8.219348545870288"><ele>248.8</ele><time>2026-03-22T13:48:11.999Z</time></trkpt><trkpt lat="45.58012313862868" lon="8.21924869951251"><ele>249.4</ele><time>2026-03-22T13:48:12.999Z</time></trkpt><trkpt lat="45.58018711704281" lon="8.219226325395741"><ele>250.0</ele><time>2026-03-22T13:48:14.999Z</time></trkpt><trkpt lat="45.5802829255593" lon="8.219205687359654"><ele>249.99999999999997</ele><time>2026-03-22T13:48:51Z</time></trkpt><trkpt lat="45.580345268549756" lon="8.21918629050924"><ele>250.0</ele><time>2026-03-22T13:48:52Z</time></trkpt><trkpt lat="45.58040994559647" lon="8.219161589538693"><ele>250.0</ele><time>2026-03-22T13:48:53Z</time></trkpt><trkpt lat="45.58042913801273" lon="8.219072243249268"><ele>250.0</ele><time>2026-03-22T13:48:56Z</time></trkpt><trkpt lat="45.58040387034819" lon="8.21896173927054"><ele>249.99999999999997</ele><time>2026-03-22T13:48:58Z</time></trkpt><trkpt lat="45.580383330631" lon="8.218813706872885"><ele>250.0</ele><time>2026-03-22T13:49:00Z</time></trkpt><trkpt lat="45.580380018479126" lon="8.21871029177917"><ele>250.8</ele><time>2026-03-22T13:49:03Z</time></trkpt><trkpt lat="45.58036033172994" lon="8.218577455751067"><ele>251.6</ele><time>2026-03-22T13:49:06Z</time></trkpt><trkpt lat="45.580389023089" lon="8.218453639919765"><ele>252.39999999999998</ele><time>2026-03-22T13:49:08Z</time></trkpt><trkpt lat="45.580421494041566" lon="8.218347101137546"><ele>253.2</ele><time>2026-03-22T13:49:09Z</time></trkpt><trkpt lat="45.580458927202386" lon="8.218243762549754"><ele>254.0</ele><time>2026-03-22T13:49:10Z</time></trkpt><trkpt lat="45.580565071684994" lon="8.218181660963888"><ele>255.66666666666669</ele><time>2026-03-22T13:49:12Z</time></trkpt><trkpt lat="45.58064898634775" lon="8.218114743248584"><ele>257.3333333333333</ele><time>2026-03-22T13:49:13Z</time></trkpt><trkpt lat="45.580701817998026" lon="8.218014715951417"><ele>259.0</ele><time>2026-03-22T13:49:14Z</time></trkpt><trkpt lat="45.58069191783666" lon="8.217629762872969"><ele>259.0</ele><time>2026-03-22T13:49:16Z</time></trkpt><trkpt lat="45.58071718560254" lon="8.217417531462283"><ele>259.0</ele><time>2026-03-22T13:49:17Z</time></trkpt><trkpt lat="45.58075246807639" lon="8.217166627621342"><ele>259.0</ele><time>2026-03-22T13:49:18Z</time></trkpt><trkpt lat="45.580767771715315" lon="8.217018134253461"><ele>259.0</ele><time>2026-03-22T13:49:19Z</time></trkpt><trkpt lat="45.58081557772535" lon="8.21688940957953"><ele>260.16666666666663</ele><time>2026-03-22T13:49:20.999Z</time></trkpt><trkpt lat="45.58082678018925" lon="8.216990886708833"><ele>261.3333333333333</ele><time>2026-03-22T13:49:24.999Z</time></trkpt><trkpt lat="45.58089526525137" lon="8.21697502414973"><ele>262.5</ele><time>2026-03-22T13:49:26.999Z</time></trkpt><trkpt lat="45.58093846353713" lon="8.216875823325339"><ele>263.6666666666667</ele><time>2026-03-22T13:49:27.999Z</time></trkpt><trkpt lat="45.5809771295529" lon="8.216738151649784"><ele>264.83333333333337</ele><time>2026-03-22T13:49:28.999Z</time></trkpt><trkpt lat="45.581022468274035" lon="8.216660272210731"><ele>266.0</ele><time>2026-03-22T13:49:29.999Z</time></trkpt><trkpt lat="45.581097260000696" lon="8.216630090829778"><ele>268.75</ele><time>2026-03-22T13:49:30.999Z</time></trkpt><trkpt lat="45.58124772305811" lon="8.216724369038594"><ele>271.5</ele><time>2026-03-22T13:49:32.999Z</time></trkpt><trkpt lat="45.581313118829875" lon="8.216779408889842"><ele>274.25</ele><time>2026-03-22T13:49:33.999Z</time></trkpt><trkpt lat="45.581444343264415" lon="8.216776297484033"><ele>277.0</ele><time>2026-03-22T13:49:35.999Z</time></trkpt><trkpt lat="45.58154394363792" lon="8.216789684185953"><ele>277.0</ele><time>2026-03-22T13:49:36.999Z</time></trkpt><trkpt lat="45.58162715512696" lon="8.216811971188005"><ele>277.0</ele><time>2026-03-22T13:49:37.999Z</time></trkpt><trkpt lat="45.58172529508434" lon="8.216742157612433"><ele>277.0</ele><time>2026-03-22T13:49:38.999Z</time></trkpt><trkpt lat="45.58184358869027" lon="8.216650574262005"><ele>277.0</ele><time>2026-03-22T13:49:39.999Z</time></trkpt><trkpt lat="45.58197658285364" lon="8.216622098718618"><ele>276.75</ele><time>2026-03-22T13:49:40.999Z</time></trkpt><trkpt lat="45.58209465695833" lon="8.216528756426838"><ele>276.5</ele><time>2026-03-22T13:49:41.999Z</time></trkpt><trkpt lat="45.58219056032921" lon="8.216475616988557"><ele>276.25</ele><time>2026-03-22T13:49:42.999Z</time></trkpt><trkpt lat="45.58227579023632" lon="8.216388868242701"><ele>276.0</ele><time>2026-03-22T13:49:43.999Z</time></trkpt><trkpt lat="45.58237256873733" lon="8.216217080478266"><ele>279.2</ele><time>2026-03-22T13:49:46.999Z</time></trkpt><trkpt lat="45.58243519094149" lon="8.216107525951587"><ele>282.40000000000003</ele><time>2026-03-22T13:49:47.999Z</time></trkpt><trkpt lat="45.582489182651585" lon="8.216030223173808"><ele>285.6</ele><time>2026-03-22T13:49:48.999Z</time></trkpt><trkpt lat="45.58252226651703" lon="8.215922459116122"><ele>288.8</ele><time>2026-03-22T13:49:49.999Z</time></trkpt><trkpt lat="45.582575452741146" lon="8.215840817181919"><ele>292.0</ele><time>2026-03-22T13:49:50.999Z</time></trkpt><trkpt lat="45.582659827586426" lon="8.215706004411492"><ele>293.5</ele><time>2026-03-22T13:49:51.999Z</time></trkpt><trkpt lat="45.58271370120669" lon="8.215552874954053"><ele>295.0</ele><time>2026-03-22T13:49:52.999Z</time></trkpt><trkpt lat="45.58275715559736" lon="8.215387353017407"><ele>296.5</ele><time>2026-03-22T13:49:53.999Z</time></trkpt><trkpt lat="45.582792871386246" lon="8.215229824862128"><ele>298.0</ele><time>2026-03-22T13:49:54.999Z</time></trkpt><trkpt lat="45.582829290891475" lon="8.215102933116087"><ele>298.0</ele><time>2026-03-22T13:49:55.999Z</time></trkpt><trkpt lat="45.5828426452502" lon="8.21496670916483"><ele>298.0</ele><time>2026-03-22T13:49:56.999Z</time></trkpt><trkpt lat="45.58285240692932" lon="8.214829928784573"><ele>298.0</ele><time>2026-03-22T13:49:57.999Z</time></trkpt><trkpt lat="45.58287242471284" lon="8.214678533964996"><ele>298.0</ele><time>2026-03-22T13:49:58.999Z</time></trkpt><trkpt lat="45.582878727758114" lon="8.21456212457893"><ele>298.0</ele><time>2026-03-22T13:49:59.999Z</time></trkpt><trkpt lat="45.58290128461418" lon="8.21446774562837"><ele>300.8</ele><time>2026-03-22T13:50:00.999Z</time></trkpt><trkpt lat="45.58295605771092" lon="8.21438505028455"><ele>303.6</ele><time>2026-03-22T13:50:01.999Z</time></trkpt><trkpt lat="45.58304489518571" lon="8.214343854569767"><ele>306.4</ele><time>2026-03-22T13:50:02.999Z</time></trkpt><trkpt lat="45.58315667580355" lon="8.21429409564151"><ele>309.2</ele><time>2026-03-22T13:50:03.999Z</time></trkpt><trkpt lat="45.5832878022707" lon="8.21429715239297"><ele>312.0</ele><time>2026-03-22T13:50:04.999Z</time></trkpt><trkpt lat="45.583370867263625" lon="8.214266129135185"><ele>312.0</ele><time>2026-03-22T13:50:05.999Z</time></trkpt><trkpt lat="45.5834002919201" lon="8.214170086851507"><ele>312.0</ele><time>2026-03-22T13:50:06.999Z</time></trkpt><trkpt lat="45.5834298133175" lon="8.214056144476219"><ele>312.0</ele><time>2026-03-22T13:50:08.999Z</time></trkpt><trkpt lat="45.583557904626794" lon="8.213978023736477"><ele>312.0</ele><time>2026-03-22T13:50:10.999Z</time></trkpt><trkpt lat="45.5836225453726" lon="8.213885201724832"><ele>312.0</ele><time>2026-03-22T13:50:11.999Z</time></trkpt><trkpt lat="45.58369612493177" lon="8.21383137334382"><ele>312.5</ele><time>2026-03-22T13:50:12.999Z</time></trkpt><trkpt lat="45.58378490578919" lon="8.213836765964272"><ele>313.0</ele><time>2026-03-22T13:50:13.999Z</time></trkpt><trkpt lat="45.58386109873745" lon="8.213796743600444"><ele>313.5</ele><time>2026-03-22T13:50:14.999Z</time></trkpt><trkpt lat="45.58391182908929" lon="8.213713669540182"><ele>314.0</ele><time>2026-03-22T13:50:15.999Z</time></trkpt><trkpt lat="45.58396424641024" lon="8.213617957753641"><ele>314.5</ele><time>2026-03-22T13:50:16.999Z</time></trkpt><trkpt lat="45.58404130388591" lon="8.213526780518137"><ele>315.0</ele><time>2026-03-22T13:50:17.999Z</time></trkpt><trkpt lat="45.5840980590649" lon="8.213427632631282"><ele>315.0</ele><time>2026-03-22T13:50:18.999Z</time></trkpt><trkpt lat="45.58412725353078" lon="8.213305728520549"><ele>315.0</ele><time>2026-03-22T13:50:19.999Z</time></trkpt><trkpt lat="45.58417015732537" lon="8.213150448782047"><ele>315.0</ele><time>2026-03-22T13:50:20.999Z</time></trkpt><trkpt lat="45.58419053154531" lon="8.212988488968788"><ele>315.0</ele><time>2026-03-22T13:50:21.998Z</time></trkpt><trkpt lat="45.58423342711063" lon="8.212882569488004"><ele>315.0</ele><time>2026-03-22T13:50:22.998Z</time></trkpt><trkpt lat="45.58428403920673" lon="8.212760418776327"><ele>314.8</ele><time>2026-03-22T13:50:23.998Z</time></trkpt><trkpt lat="45.58434837779147" lon="8.21269225218645"><ele>314.6</ele><time>2026-03-22T13:50:24.998Z</time></trkpt><trkpt lat="45.584448565539006" lon="8.212616329112857"><ele>314.4</ele><time>2026-03-22T13:50:25.998Z</time></trkpt><trkpt lat="45.58455003065567" lon="8.212546551920056"><ele>314.2</ele><time>2026-03-22T13:50:26.998Z</time></trkpt><trkpt lat="45.584638771981126" lon="8.21244704485978"><ele>314.0</ele><time>2026-03-22T13:50:27.998Z</time></trkpt><trkpt lat="45.584699983810395" lon="8.212358088043834"><ele>315.33333333333337</ele><time>2026-03-22T13:50:28.998Z</time></trkpt><trkpt lat="45.584757977475675" lon="8.212258558986278"><ele>316.6666666666667</ele><time>2026-03-22T13:50:29.998Z</time></trkpt><trkpt lat="45.58480501356637" lon="8.212168068972124"><ele>318.0</ele><time>2026-03-22T13:50:30.998Z</time></trkpt><trkpt lat="45.584853337127896" lon="8.212077157634553"><ele>319.3333333333333</ele><time>2026-03-22T13:50:31.998Z</time></trkpt><trkpt lat="45.58490439034547" lon="8.211967354085047"><ele>320.66666666666663</ele><time>2026-03-22T13:50:33.998Z</time></trkpt><trkpt lat="45.58491065571114" lon="8.212119259874886"><ele>322.0</ele><time>2026-03-22T13:50:36.998Z</time></trkpt><trkpt lat="45.584917921994894" lon="8.212278299343408"><ele>320.66666666666663</ele><time>2026-03-22T13:50:37.998Z</time></trkpt><trkpt lat="45.584949041052994" lon="8.212426144328079"><ele>319.3333333333333</ele><time>2026-03-22T13:50:38.998Z</time></trkpt><trkpt lat="45.58496962683923" lon="8.212540365997873"><ele>318.0</ele><time>2026-03-22T13:50:39.998Z</time></trkpt><trkpt lat="45.584988480583874" lon="8.212663174358882"><ele>316.6666666666667</ele><time>2026-03-22T13:50:41Z</time></trkpt><trkpt lat="45.585006054483294" lon="8.212756274056506"><ele>315.33333333333337</ele><time>2026-03-22T13:50:42Z</time></trkpt><trkpt lat="45.58502212745335" lon="8.21286145219657"><ele>314.0</ele><time>2026-03-22T13:50:43Z</time></trkpt><trkpt lat="45.58502014121568" lon="8.212969340273668"><ele>314.0</ele><time>2026-03-22T13:50:44Z</time></trkpt><trkpt lat="45.58501269000245" lon="8.213083719622556"><ele>314.0</ele><time>2026-03-22T13:50:45Z</time></trkpt><trkpt lat="45.58501243889804" lon="8.213213593505586"><ele>314.0</ele><time>2026-03-22T13:50:47Z</time></trkpt><trkpt lat="45.58508937094555" lon="8.213308380218646"><ele>314.0</ele><time>2026-03-22T13:50:50Z</time></trkpt><trkpt lat="45.5851362956589" lon="8.21321745335983"><ele>314.0</ele><time>2026-03-22T13:50:54Z</time></trkpt><trkpt lat="45.58517156348404" lon="8.213132178795938"><ele>314.0</ele><time>2026-03-22T13:51:15Z</time></trkpt><trkpt lat="45.58519144522015" lon="8.213019675412145"><ele>314.0</ele><time>2026-03-22T13:51:32.999Z</time></trkpt><trkpt lat="45.58518907705408" lon="8.212841604594063"><ele>314.0</ele><time>2026-03-22T13:51:34.999Z</time></trkpt><trkpt lat="45.585207501535585" lon="8.21275321842889"><ele>314.0</ele><time>2026-03-22T13:51:35.999Z</time></trkpt><trkpt lat="45.58527942456282" lon="8.212677398938506"><ele>314.0</ele><time>2026-03-22T13:51:37.999Z</time></trkpt><trkpt lat="45.585335454856455" lon="8.21273749738703"><ele>314.0</ele><time>2026-03-22T13:51:38.999Z</time></trkpt><trkpt lat="45.585251393135195" lon="8.21264058038489"><ele>314.0</ele><time>2026-03-22T13:51:39.999Z</time></trkpt><trkpt lat="45.58531172526269" lon="8.212668327053873"><ele>314.0</ele><time>2026-03-22T13:51:40.999Z</time></trkpt><trkpt lat="45.58543142309303" lon="8.212708077128285"><ele>314.0</ele><time>2026-03-22T13:51:42.999Z</time></trkpt><trkpt lat="45.585491957552485" lon="8.21266053526029"><ele>314.0</ele><time>2026-03-22T13:51:44.999Z</time></trkpt><trkpt lat="45.58549507118458" lon="8.212453849134116"><ele>314.0</ele><time>2026-03-22T13:51:46.999Z</time></trkpt><trkpt lat="45.585462835879476" lon="8.212283400853899"><ele>314.1666666666667</ele><time>2026-03-22T13:51:47.999Z</time></trkpt><trkpt lat="45.585448477311154" lon="8.212156231887139"><ele>314.33333333333337</ele><time>2026-03-22T13:51:48.999Z</time></trkpt><trkpt lat="45.58544103990811" lon="8.212060018494865"><ele>314.5</ele><time>2026-03-22T13:51:49.999Z</time></trkpt><trkpt lat="45.58551574838068" lon="8.21206708351451"><ele>314.6666666666667</ele><time>2026-03-22T13:51:53.999Z</time></trkpt><trkpt lat="45.58558731796456" lon="8.21198538558316"><ele>314.8333333333333</ele><time>2026-03-22T13:51:55.999Z</time></trkpt><trkpt lat="45.58565419549391" lon="8.211960160037298"><ele>315.0</ele><time>2026-03-22T13:51:56.999Z</time></trkpt><trkpt lat="45.58576670279047" lon="8.212052342541446"><ele>315.0</ele><time>2026-03-22T13:51:58.999Z</time></trkpt><trkpt lat="45.58586027944744" lon="8.21204531863063"><ele>315.0</ele><time>2026-03-22T13:52:00.999Z</time></trkpt><trkpt lat="45.585934364600234" lon="8.21190354128357"><ele>315.0</ele><time>2026-03-22T13:52:02.999Z</time></trkpt><trkpt lat="45.58598974829111" lon="8.211819052629094"><ele>315.0</ele><time>2026-03-22T13:52:03.999Z</time></trkpt><trkpt lat="45.58602639818564" lon="8.211735187536183"><ele>315.0</ele><time>2026-03-22T13:52:04.999Z</time></trkpt><trkpt lat="45.5860640647628" lon="8.211619307635091"><ele>316.0</ele><time>2026-03-22T13:52:05.999Z</time></trkpt><trkpt lat="45.58609921589001" lon="8.211488138239549"><ele>317.0</ele><time>2026-03-22T13:52:06.999Z</time></trkpt><trkpt lat="45.5861415275047" lon="8.2113659755769"><ele>318.0</ele><time>2026-03-22T13:52:07.999Z</time></trkpt><trkpt lat="45.58599838772214" lon="8.211001575884225"><ele>318.0</ele><time>2026-03-22T13:52:08.999Z</time></trkpt><trkpt lat="45.586054193163314" lon="8.210867722545435"><ele>318.0</ele><time>2026-03-22T13:52:10.999Z</time></trkpt><trkpt lat="45.58609588537042" lon="8.210797327208747"><ele>318.0</ele><time>2026-03-22T13:52:12.999Z</time></trkpt><trkpt lat="45.5861395800512" lon="8.210910194921441"><ele>318.0</ele><time>2026-03-22T13:52:15.999Z</time></trkpt><trkpt lat="45.58618940763596" lon="8.210975050627455"><ele>318.0</ele><time>2026-03-22T13:52:16.999Z</time></trkpt><trkpt lat="45.58625164945209" lon="8.21111519588443"><ele>318.0</ele><time>2026-03-22T13:52:18.999Z</time></trkpt><trkpt lat="45.58637272395916" lon="8.211130328590123"><ele>318.0</ele><time>2026-03-22T13:52:21.998Z</time></trkpt><trkpt lat="45.58646634060127" lon="8.211107988048182"><ele>318.0</ele><time>2026-03-22T13:52:22.998Z</time></trkpt><trkpt lat="45.58644846904659" lon="8.210968071891054"><ele>318.0</ele><time>2026-03-22T13:52:25.998Z</time></trkpt><trkpt lat="45.58650532363496" lon="8.210912546871317"><ele>318.0</ele><time>2026-03-22T13:52:27.998Z</time></trkpt><trkpt lat="45.586589896263526" lon="8.210899016002596"><ele>318.0</ele><time>2026-03-22T13:52:28.998Z</time></trkpt><trkpt lat="45.586667398580936" lon="8.210867402795682"><ele>318.0</ele><time>2026-03-22T13:52:29.998Z</time></trkpt><trkpt lat="45.586742668942954" lon="8.210848146912156"><ele>318.0</ele><time>2026-03-22T13:52:30.998Z</time></trkpt><trkpt lat="45.58683616991113" lon="8.210798757687366"><ele>318.0</ele><time>2026-03-22T13:52:31.998Z</time></trkpt><trkpt lat="45.58692639928434" lon="8.210771448075453"><ele>318.0</ele><time>2026-03-22T13:52:32.998Z</time></trkpt><trkpt lat="45.587019682384025" lon="8.21072489318199"><ele>318.0</ele><time>2026-03-22T13:52:33.998Z</time></trkpt><trkpt lat="45.58708891075285" lon="8.210650224504876"><ele>318.0</ele><time>2026-03-22T13:52:34.998Z</time></trkpt><trkpt lat="45.58711094953572" lon="8.210504253352411"><ele>318.4</ele><time>2026-03-22T13:52:36.998Z</time></trkpt><trkpt lat="45.587083412121025" lon="8.210370408196606"><ele>318.8</ele><time>2026-03-22T13:52:37.998Z</time></trkpt><trkpt lat="45.58705318824586" lon="8.210247662557615"><ele>319.2</ele><time>2026-03-22T13:52:38.998Z</time></trkpt><trkpt lat="45.58698484104098" lon="8.210175276225971"><ele>319.6</ele><time>2026-03-22T13:52:40.998Z</time></trkpt><trkpt lat="45.58706207659685" lon="8.210121745923823"><ele>320.0</ele><time>2026-03-22T13:52:43.998Z</time></trkpt><trkpt lat="45.587150603729754" lon="8.210149573064095"><ele>320.0</ele><time>2026-03-22T13:52:44.998Z</time></trkpt><trkpt lat="45.587245359866195" lon="8.210136511575062"><ele>320.0</ele><time>2026-03-22T13:52:46Z</time></trkpt><trkpt lat="45.587345332979574" lon="8.210165473228194"><ele>320.0</ele><time>2026-03-22T13:52:47Z</time></trkpt><trkpt lat="45.587479271435114" lon="8.210251016294416"><ele>320.0</ele><time>2026-03-22T13:52:48Z</time></trkpt><trkpt lat="45.587587446601084" lon="8.210316065186012"><ele>320.0</ele><time>2026-03-22T13:52:49Z</time></trkpt><trkpt lat="45.5876490153895" lon="8.210389863299527"><ele>320.0</ele><time>2026-03-22T13:52:50Z</time></trkpt><trkpt lat="45.58771100624477" lon="8.2104492557748"><ele>320.0</ele><time>2026-03-22T13:52:51Z</time></trkpt><trkpt lat="45.58778024047957" lon="8.210572870738812"><ele>320.0</ele><time>2026-03-22T13:52:52Z</time></trkpt><trkpt lat="45.587830454841864" lon="8.210700195949272"><ele>320.0</ele><time>2026-03-22T13:52:53Z</time></trkpt><trkpt lat="45.587868783748114" lon="8.210782387197735"><ele>320.0</ele><time>2026-03-22T13:52:54Z</time></trkpt><trkpt lat="45.58794860521923" lon="8.210848928343609"><ele>316.1666666666667</ele><time>2026-03-22T13:52:55Z</time></trkpt><trkpt lat="45.588010020632694" lon="8.210926156247831"><ele>312.33333333333337</ele><time>2026-03-22T13:52:56Z</time></trkpt><trkpt lat="45.58805036841892" lon="8.21103237801689"><ele>308.5</ele><time>2026-03-22T13:52:57Z</time></trkpt><trkpt lat="45.588038160183984" lon="8.211162648849204"><ele>304.6666666666667</ele><time>2026-03-22T13:52:59Z</time></trkpt><trkpt lat="45.587989431973966" lon="8.211259305166958"><ele>300.8333333333333</ele><time>2026-03-22T13:53:00Z</time></trkpt><trkpt lat="45.58793336935198" lon="8.21137788157113"><ele>297.0</ele><time>2026-03-22T13:53:01Z</time></trkpt><trkpt lat="45.58788931590814" lon="8.211503443662831"><ele>296.2</ele><time>2026-03-22T13:53:02Z</time></trkpt><trkpt lat="45.58782959135647" lon="8.211592121898693"><ele>295.4</ele><time>2026-03-22T13:53:03Z</time></trkpt><trkpt lat="45.58772524665173" lon="8.211607549164981"><ele>294.6</ele><time>2026-03-22T13:53:05Z</time></trkpt><trkpt lat="45.58766075761237" lon="8.211649231858395"><ele>293.8</ele><time>2026-03-22T13:53:07Z</time></trkpt><trkpt lat="45.58777221042891" lon="8.21170651033643"><ele>293.0</ele><time>2026-03-22T13:53:09Z</time></trkpt><trkpt lat="45.58785892322595" lon="8.211657838993563"><ele>293.0</ele><time>2026-03-22T13:53:10Z</time></trkpt><trkpt lat="45.58793260080537" lon="8.211595455358195"><ele>293.0</ele><time>2026-03-22T13:53:11Z</time></trkpt><trkpt lat="45.5880178568851" lon="8.211511027226763"><ele>293.0</ele><time>2026-03-22T13:53:12Z</time></trkpt><trkpt lat="45.58811221693846" lon="8.2113957193273"><ele>293.0</ele><time>2026-03-22T13:53:13Z</time></trkpt><trkpt lat="45.5882093151374" lon="8.211319336621475"><ele>293.0</ele><time>2026-03-22T13:53:14Z</time></trkpt><trkpt lat="45.58828822371655" lon="8.21126820634489"><ele>293.8</ele><time>2026-03-22T13:53:15Z</time></trkpt><trkpt lat="45.588349011217154" lon="8.211206842741042"><ele>294.6</ele><time>2026-03-22T13:53:16Z</time></trkpt><trkpt lat="45.58835828575368" lon="8.211011883109904"><ele>295.4</ele><time>2026-03-22T13:53:18Z</time></trkpt><trkpt lat="45.58831243314763" lon="8.210889780184367"><ele>296.2</ele><time>2026-03-22T13:53:19Z</time></trkpt><trkpt lat="45.58827866034631" lon="8.210770404261478"><ele>297.0</ele><time>2026-03-22T13:53:20Z</time></trkpt><trkpt lat="45.58828326250982" lon="8.210674708103477"><ele>297.2</ele><time>2026-03-22T13:53:21Z</time></trkpt><trkpt lat="45.58830787816028" lon="8.2104724506507"><ele>297.4</ele><time>2026-03-22T13:53:23.999Z</time></trkpt><trkpt lat="45.588322855038946" lon="8.210296602379506"><ele>297.6</ele><time>2026-03-22T13:53:24.999Z</time></trkpt><trkpt lat="45.58832327569856" lon="8.210169711715116"><ele>297.8</ele><time>2026-03-22T13:53:25.999Z</time></trkpt><trkpt lat="45.58838432405743" lon="8.210108318459033"><ele>298.0</ele><time>2026-03-22T13:53:29.999Z</time></trkpt><trkpt lat="45.58849827011844" lon="8.210139355581349"><ele>298.0</ele><time>2026-03-22T13:53:31.999Z</time></trkpt><trkpt lat="45.58853471237111" lon="8.2099881987769"><ele>298.0</ele><time>2026-03-22T13:53:33.999Z</time></trkpt><trkpt lat="45.588526002479256" lon="8.209885663547976"><ele>298.0</ele><time>2026-03-22T13:53:35.999Z</time></trkpt><trkpt lat="45.588507312837685" lon="8.20976471781487"><ele>298.0</ele><time>2026-03-22T13:53:37.999Z</time></trkpt><trkpt lat="45.58847578454414" lon="8.20966801703664"><ele>298.0</ele><time>2026-03-22T13:53:38.999Z</time></trkpt><trkpt lat="45.58844626138798" lon="8.209535891101392"><ele>298.0</ele><time>2026-03-22T13:53:39.999Z</time></trkpt><trkpt lat="45.58844323476909" lon="8.209394063534376"><ele>298.8333333333333</ele><time>2026-03-22T13:53:40.999Z</time></trkpt><trkpt lat="45.58844871489885" lon="8.20927200681333"><ele>299.66666666666663</ele><time>2026-03-22T13:53:41.999Z</time></trkpt><trkpt lat="45.58852869079797" lon="8.20918339559156"><ele>300.5</ele><time>2026-03-22T13:53:43.999Z</time></trkpt><trkpt lat="45.588599897816586" lon="8.209155662406598"><ele>301.3333333333333</ele><time>2026-03-22T13:53:44.999Z</time></trkpt><trkpt lat="45.58866311558493" lon="8.209134484104897"><ele>302.1666666666667</ele><time>2026-03-22T13:53:45.999Z</time></trkpt><trkpt lat="45.5887358526669" lon="8.209169275160722"><ele>303.0</ele><time>2026-03-22T13:53:46.999Z</time></trkpt><trkpt lat="45.58887608473723" lon="8.209167066780118"><ele>303.4</ele><time>2026-03-22T13:53:48.999Z</time></trkpt><trkpt lat="45.58895432264178" lon="8.20911739562496"><ele>303.8</ele><time>2026-03-22T13:53:49.999Z</time></trkpt><trkpt lat="45.58903056952838" lon="8.209040911370199"><ele>304.2</ele><time>2026-03-22T13:53:50.999Z</time></trkpt><trkpt lat="45.58911093684923" lon="8.208963326420065"><ele>304.6</ele><time>2026-03-22T13:53:51.999Z</time></trkpt><trkpt lat="45.58920507982425" lon="8.20888017635757"><ele>305.0</ele><time>2026-03-22T13:53:52.999Z</time></trkpt><trkpt lat="45.58928228987172" lon="8.208811357084086"><ele>305.0</ele><time>2026-03-22T13:53:53.999Z</time></trkpt><trkpt lat="45.589352360544076" lon="8.208730188848834"><ele>305.0</ele><time>2026-03-22T13:53:54.999Z</time></trkpt><trkpt lat="45.58940671464316" lon="8.208606231843142"><ele>305.0</ele><time>2026-03-22T13:53:55.999Z</time></trkpt><trkpt lat="45.58947507517712" lon="8.208460517858903"><ele>305.0</ele><time>2026-03-22T13:53:56.999Z</time></trkpt><trkpt lat="45.58954275560019" lon="8.20831389990034"><ele>305.0</ele><time>2026-03-22T13:53:57.999Z</time></trkpt><trkpt lat="45.58956966047747" lon="8.208184540124186"><ele>303.8</ele><time>2026-03-22T13:53:58.999Z</time></trkpt><trkpt lat="45.58951417495152" lon="8.20804191819207"><ele>302.6</ele><time>2026-03-22T13:54:00.999Z</time></trkpt><trkpt lat="45.58940626590168" lon="8.20799506052597"><ele>301.4</ele><time>2026-03-22T13:54:01.999Z</time></trkpt><trkpt lat="45.589278583830286" lon="8.207966590804956"><ele>300.2</ele><time>2026-03-22T13:54:02.999Z</time></trkpt><trkpt lat="45.58921373493904" lon="8.207953911122557"><ele>299.0</ele><time>2026-03-22T13:54:03.999Z</time></trkpt><trkpt lat="45.58913525130418" lon="8.208010992760459"><ele>300.2</ele><time>2026-03-22T13:54:04.999Z</time></trkpt><trkpt lat="45.589056405744095" lon="8.208108059584903"><ele>301.4</ele><time>2026-03-22T13:54:05.999Z</time></trkpt><trkpt lat="45.58897677307824" lon="8.208232788503755"><ele>302.6</ele><time>2026-03-22T13:54:06.999Z</time></trkpt><trkpt lat="45.58888863222674" lon="8.208325842408883"><ele>303.8</ele><time>2026-03-22T13:54:07.999Z</time></trkpt><trkpt lat="45.588815276571054" lon="8.208417136399182"><ele>305.0</ele><time>2026-03-22T13:54:08.999Z</time></trkpt><trkpt lat="45.5887189459616" lon="8.208487761991233"><ele>306.6</ele><time>2026-03-22T13:54:09.999Z</time></trkpt><trkpt lat="45.58863481897759" lon="8.208549738048225"><ele>308.2</ele><time>2026-03-22T13:54:10.999Z</time></trkpt><trkpt lat="45.588541397900336" lon="8.208594150983895"><ele>309.8</ele><time>2026-03-22T13:54:11.999Z</time></trkpt><trkpt lat="45.588431081327585" lon="8.208620726561012"><ele>311.4</ele><time>2026-03-22T13:54:12.999Z</time></trkpt><trkpt lat="45.5883245449455" lon="8.208657295943112"><ele>313.0</ele><time>2026-03-22T13:54:13.999Z</time></trkpt><trkpt lat="45.588237934832264" lon="8.208659923167371"><ele>313.0</ele><time>2026-03-22T13:54:14.999Z</time></trkpt><trkpt lat="45.5881581389171" lon="8.208617277129402"><ele>313.0</ele><time>2026-03-22T13:54:15.999Z</time></trkpt><trkpt lat="45.588056058851095" lon="8.208652904615136"><ele>313.0</ele><time>2026-03-22T13:54:17.999Z</time></trkpt><trkpt lat="45.58804474414619" lon="8.2087586759223"><ele>313.0</ele><time>2026-03-22T13:54:18.999Z</time></trkpt><trkpt lat="45.588113277667496" lon="8.208845082963348"><ele>313.0</ele><time>2026-03-22T13:54:19.999Z</time></trkpt><trkpt lat="45.58816273918165" lon="8.208927494576681"><ele>313.0</ele><time>2026-03-22T13:54:20.999Z</time></trkpt><trkpt lat="45.588142321034134" lon="8.20901454516069"><ele>313.0</ele><time>2026-03-22T13:54:21.998Z</time></trkpt><trkpt lat="45.58803647034141" lon="8.209067856756615"><ele>313.0</ele><time>2026-03-22T13:54:23.998Z</time></trkpt><trkpt lat="45.587962335242786" lon="8.209032945785298"><ele>313.0</ele><time>2026-03-22T13:54:24.998Z</time></trkpt><trkpt lat="45.587916515521194" lon="8.208880937870736"><ele>313.0</ele><time>2026-03-22T13:54:26.998Z</time></trkpt><trkpt lat="45.58794366601654" lon="8.208663118072572"><ele>313.0</ele><time>2026-03-22T13:54:28.998Z</time></trkpt><trkpt lat="45.58793402876058" lon="8.208526045912066"><ele>313.0</ele><time>2026-03-22T13:54:29.998Z</time></trkpt><trkpt lat="45.58793442720703" lon="8.208391737663108"><ele>313.0</ele><time>2026-03-22T13:54:30.998Z</time></trkpt><trkpt lat="45.58794954496236" lon="8.208277659795133"><ele>313.0</ele><time>2026-03-22T13:54:31.998Z</time></trkpt><trkpt lat="45.58804722386089" lon="8.20821892688129"><ele>313.0</ele><time>2026-03-22T13:54:33.998Z</time></trkpt><trkpt lat="45.588156583466414" lon="8.20837172652497"><ele>313.0</ele><time>2026-03-22T13:54:35.998Z</time></trkpt><trkpt lat="45.588229278240014" lon="8.20841235526194"><ele>313.0</ele><time>2026-03-22T13:54:36.998Z</time></trkpt><trkpt lat="45.58830630509471" lon="8.208395048330486"><ele>313.0</ele><time>2026-03-22T13:54:37.998Z</time></trkpt><trkpt lat="45.58840017771556" lon="8.208355921341761"><ele>313.0</ele><time>2026-03-22T13:54:38.998Z</time></trkpt><trkpt lat="45.58848868321837" lon="8.208308715783804"><ele>313.0</ele><time>2026-03-22T13:54:39.998Z</time></trkpt><trkpt lat="45.58859611780269" lon="8.208302477157972"><ele>313.0</ele><time>2026-03-22T13:54:40.998Z</time></trkpt><trkpt lat="45.58869350954664" lon="8.208258472802395"><ele>313.0</ele><time>2026-03-22T13:54:41.998Z</time></trkpt><trkpt lat="45.58874538403042" lon="8.208142725274675"><ele>313.0</ele><time>2026-03-22T13:54:42.998Z</time></trkpt><trkpt lat="45.588767448355235" lon="8.208020054184358"><ele>313.0</ele><time>2026-03-22T13:54:43.998Z</time></trkpt><trkpt lat="45.58882031545368" lon="8.207897516035498"><ele>313.0</ele><time>2026-03-22T13:54:44.998Z</time></trkpt><trkpt lat="45.58889481643151" lon="8.2077584825236"><ele>313.0</ele><time>2026-03-22T13:54:45.998Z</time></trkpt><trkpt lat="45.588983878946394" lon="8.207621828605747"><ele>313.0</ele><time>2026-03-22T13:54:46.998Z</time></trkpt><trkpt lat="45.589064573729566" lon="8.207484471949142"><ele>313.0</ele><time>2026-03-22T13:54:47.998Z</time></trkpt><trkpt lat="45.58912604499363" lon="8.207372138816552"><ele>313.0</ele><time>2026-03-22T13:54:48.998Z</time></trkpt><trkpt lat="45.58915476940283" lon="8.20726267314042"><ele>313.0</ele><time>2026-03-22T13:54:49.998Z</time></trkpt><trkpt lat="45.58914830746356" lon="8.207148528476974"><ele>314.0</ele><time>2026-03-22T13:54:50.998Z</time></trkpt><trkpt lat="45.5890912564631" lon="8.207039560199167"><ele>315.0</ele><time>2026-03-22T13:54:52Z</time></trkpt><trkpt lat="45.58900340321052" lon="8.206932086145152"><ele>316.0</ele><time>2026-03-22T13:54:53Z</time></trkpt><trkpt lat="45.58893429704302" lon="8.206826844842746"><ele>317.0</ele><time>2026-03-22T13:54:54Z</time></trkpt><trkpt lat="45.58886384868512" lon="8.206929553825095"><ele>318.0</ele><time>2026-03-22T13:54:57Z</time></trkpt><trkpt lat="45.58886211370604" lon="8.207028294492513"><ele>318.0</ele><time>2026-03-22T13:54:58Z</time></trkpt><trkpt lat="45.58877785298888" lon="8.207026266136154"><ele>318.0</ele><time>2026-03-22T13:55:02Z</time></trkpt><trkpt lat="45.58872611801104" lon="8.206974434102218"><ele>318.0</ele><time>2026-03-22T13:55:03Z</time></trkpt><trkpt lat="45.588681006752225" lon="8.206895107325012"><ele>318.0</ele><time>2026-03-22T13:55:04Z</time></trkpt><trkpt lat="45.5886302763642" lon="8.206810547326434"><ele>318.0</ele><time>2026-03-22T13:55:05Z</time></trkpt><trkpt lat="45.58858646252415" lon="8.20674019835478"><ele>318.0</ele><time>2026-03-22T13:55:06Z</time></trkpt><trkpt lat="45.5885379566365" lon="8.20666657125844"><ele>318.0</ele><time>2026-03-22T13:55:08Z</time></trkpt><trkpt lat="45.588446377117116" lon="8.20659669957085"><ele>320.0</ele><time>2026-03-22T13:55:12Z</time></trkpt><trkpt lat="45.588357627002054" lon="8.206499950531938"><ele>322.0</ele><time>2026-03-22T13:55:14Z</time></trkpt><trkpt lat="45.58826604857137" lon="8.206392153296594"><ele>324.0</ele><time>2026-03-22T13:55:16Z</time></trkpt><trkpt lat="45.588195430466456" lon="8.206298535264184"><ele>326.0</ele><time>2026-03-22T13:55:18Z</time></trkpt><trkpt lat="45.58814568338583" lon="8.206214338821919"><ele>328.0</ele><time>2026-03-22T13:55:20Z</time></trkpt><trkpt lat="45.58815111031342" lon="8.206083356551503"><ele>329.25</ele><time>2026-03-22T13:55:22.999Z</time></trkpt><trkpt lat="45.588222998251304" lon="8.205936717600554"><ele>330.5</ele><time>2026-03-22T13:55:24.999Z</time></trkpt><trkpt lat="45.588241021696156" lon="8.205758689759847"><ele>331.75</ele><time>2026-03-22T13:55:25.999Z</time></trkpt><trkpt lat="45.58836305173781" lon="8.205770165259375"><ele>333.0</ele><time>2026-03-22T13:55:26.999Z</time></trkpt><trkpt lat="45.58845287786248" lon="8.205681810850159"><ele>334.0</ele><time>2026-03-22T13:55:27.999Z</time></trkpt><trkpt lat="45.58850962267804" lon="8.20549996713414"><ele>335.0</ele><time>2026-03-22T13:55:28.999Z</time></trkpt><trkpt lat="45.588613575400075" lon="8.205399811657196"><ele>336.0</ele><time>2026-03-22T13:55:29.999Z</time></trkpt><trkpt lat="45.58872425747442" lon="8.205296293160915"><ele>337.0</ele><time>2026-03-22T13:55:30.999Z</time></trkpt><trkpt lat="45.588838801362776" lon="8.205190263171609"><ele>337.0</ele><time>2026-03-22T13:55:31.999Z</time></trkpt><trkpt lat="45.588951523905166" lon="8.205085816386118"><ele>337.0</ele><time>2026-03-22T13:55:32.999Z</time></trkpt><trkpt lat="45.58907792851936" lon="8.204968527632648"><ele>337.0</ele><time>2026-03-22T13:55:33.999Z</time></trkpt><trkpt lat="45.58919817878319" lon="8.20485660730692"><ele>337.0</ele><time>2026-03-22T13:55:34.999Z</time></trkpt><trkpt lat="45.58932154252555" lon="8.204740266034786"><ele>336.66666666666663</ele><time>2026-03-22T13:55:35.999Z</time></trkpt><trkpt lat="45.58944742077916" lon="8.204621553443523"><ele>336.3333333333333</ele><time>2026-03-22T13:55:36.999Z</time></trkpt><trkpt lat="45.58957300197933" lon="8.204503826864547"><ele>336.0</ele><time>2026-03-22T13:55:37.999Z</time></trkpt><trkpt lat="45.58969754924203" lon="8.20438764737475"><ele>336.0</ele><time>2026-03-22T13:55:38.999Z</time></trkpt><trkpt lat="45.58982150032218" lon="8.204272023991605"><ele>336.0</ele><time>2026-03-22T13:55:39.999Z</time></trkpt><trkpt lat="45.58994419259745" lon="8.204157293468306"><ele>336.0</ele><time>2026-03-22T13:55:40.999Z</time></trkpt><trkpt lat="45.59006501870026" lon="8.20404242389379"><ele>336.0</ele><time>2026-03-22T13:55:41.999Z</time></trkpt><trkpt lat="45.59018328845612" lon="8.20392998447997"><ele>335.75</ele><time>2026-03-22T13:55:42.999Z</time></trkpt><trkpt lat="45.59029866790969" lon="8.20382249901056"><ele>335.5</ele><time>2026-03-22T13:55:43.999Z</time></trkpt><trkpt lat="45.59041278714531" lon="8.203718782934459"><ele>335.25</ele><time>2026-03-22T13:55:44.999Z</time></trkpt><trkpt lat="45.590526662721416" lon="8.20362273709779"><ele>335.0</ele><time>2026-03-22T13:55:45.999Z</time></trkpt><trkpt lat="45.59064762211042" lon="8.20355620515399"><ele>335.0</ele><time>2026-03-22T13:55:46.999Z</time></trkpt><trkpt lat="45.59077973904311" lon="8.203538203346952"><ele>335.0</ele><time>2026-03-22T13:55:47.999Z</time></trkpt><trkpt lat="45.590899222394235" lon="8.20354655065777"><ele>335.0</ele><time>2026-03-22T13:55:48.999Z</time></trkpt><trkpt lat="45.591017015993344" lon="8.203605718252815"><ele>335.0</ele><time>2026-03-22T13:55:49.999Z</time></trkpt><trkpt lat="45.59113141944408" lon="8.203668310080607"><ele>332.5</ele><time>2026-03-22T13:55:50.999Z</time></trkpt><trkpt lat="45.59123797147214" lon="8.203761427367727"><ele>330.0</ele><time>2026-03-22T13:55:51.999Z</time></trkpt><trkpt lat="45.59131275578124" lon="8.203888743200077"><ele>327.5</ele><time>2026-03-22T13:55:52.999Z</time></trkpt><trkpt lat="45.59136889838527" lon="8.20402685783269"><ele>325.0</ele><time>2026-03-22T13:55:53.999Z</time></trkpt><trkpt lat="45.59140274344061" lon="8.204174347050287"><ele>325.0</ele><time>2026-03-22T13:55:54.999Z</time></trkpt><trkpt lat="45.591438341479474" lon="8.204323453543756"><ele>325.0</ele><time>2026-03-22T13:55:55.999Z</time></trkpt><trkpt lat="45.59147361789349" lon="8.204471201131772"><ele>325.0</ele><time>2026-03-22T13:55:56.999Z</time></trkpt><trkpt lat="45.59150919033282" lon="8.204620147534683"><ele>325.0</ele><time>2026-03-22T13:55:57.999Z</time></trkpt><trkpt lat="45.5915422770205" lon="8.204758658290393"><ele>325.0</ele><time>2026-03-22T13:55:58.999Z</time></trkpt><trkpt lat="45.59157487195831" lon="8.204884776169306"><ele>325.2</ele><time>2026-03-22T13:55:59.999Z</time></trkpt><trkpt lat="45.591603603796564" lon="8.204992598371359"><ele>325.4</ele><time>2026-03-22T13:56:00.999Z</time></trkpt><trkpt lat="45.591626000296415" lon="8.205083405383437"><ele>325.6</ele><time>2026-03-22T13:56:01.999Z</time></trkpt><trkpt lat="45.59166069520757" lon="8.205162559948104"><ele>325.8</ele><time>2026-03-22T13:56:03.999Z</time></trkpt><trkpt lat="45.59184170863468" lon="8.205080309862492"><ele>326.0</ele><time>2026-03-22T13:56:04.999Z</time></trkpt><trkpt lat="45.59193528884393" lon="8.205207659296216"><ele>329.20000000000005</ele><time>2026-03-22T13:56:06.999Z</time></trkpt><trkpt lat="45.59201906979811" lon="8.205300460483107"><ele>332.40000000000003</ele><time>2026-03-22T13:56:08.999Z</time></trkpt><trkpt lat="45.59206074573182" lon="8.205384814864912"><ele>335.6</ele><time>2026-03-22T13:56:09.999Z</time></trkpt><trkpt lat="45.592150703642815" lon="8.205424635809079"><ele>338.8</ele><time>2026-03-22T13:56:10.999Z</time></trkpt><trkpt lat="45.59223659712331" lon="8.205563362917266"><ele>342.0</ele><time>2026-03-22T13:56:11.999Z</time></trkpt><trkpt lat="45.59228284981095" lon="8.205719950445102"><ele>344.25</ele><time>2026-03-22T13:56:12.999Z</time></trkpt><trkpt lat="45.59235584538017" lon="8.205877336662606"><ele>346.5</ele><time>2026-03-22T13:56:13.999Z</time></trkpt><trkpt lat="45.59242361318053" lon="8.205994900481134"><ele>348.75</ele><time>2026-03-22T13:56:14.999Z</time></trkpt><trkpt lat="45.59250499471239" lon="8.206115862315833"><ele>351.0</ele><time>2026-03-22T13:56:15.999Z</time></trkpt><trkpt lat="45.59258589062921" lon="8.206222492036188"><ele>351.0</ele><time>2026-03-22T13:56:16.999Z</time></trkpt><trkpt lat="45.592672351860855" lon="8.206328102555034"><ele>351.0</ele><time>2026-03-22T13:56:17.999Z</time></trkpt><trkpt lat="45.592771505552456" lon="8.206436111173753"><ele>351.0</ele><time>2026-03-22T13:56:18.999Z</time></trkpt><trkpt lat="45.592852005591894" lon="8.20652148245662"><ele>351.0</ele><time>2026-03-22T13:56:19.999Z</time></trkpt><trkpt lat="45.59294571136768" lon="8.206571119708718"><ele>351.0</ele><time>2026-03-22T13:56:21.999Z</time></trkpt><trkpt lat="45.5930058219535" lon="8.20662249655966"><ele>351.5</ele><time>2026-03-22T13:56:22.998Z</time></trkpt><trkpt lat="45.59307140462144" lon="8.206642699468262"><ele>352.0</ele><time>2026-03-22T13:56:23.998Z</time></trkpt><trkpt lat="45.593136159206175" lon="8.20664620433042"><ele>352.5</ele><time>2026-03-22T13:56:24.998Z</time></trkpt><trkpt lat="45.593241933732294" lon="8.206627775038257"><ele>353.0</ele><time>2026-03-22T13:56:26.998Z</time></trkpt><trkpt lat="45.593346947453895" lon="8.206638019837577"><ele>353.5</ele><time>2026-03-22T13:56:28.998Z</time></trkpt><trkpt lat="45.59340972354072" lon="8.206585458932063"><ele>354.0</ele><time>2026-03-22T13:56:31.998Z</time></trkpt><trkpt lat="45.59349031152815" lon="8.206470181245178"><ele>355.2857142857143</ele><time>2026-03-22T13:56:33.998Z</time></trkpt><trkpt lat="45.593520294104096" lon="8.206371012213136"><ele>356.57142857142856</ele><time>2026-03-22T13:56:34.998Z</time></trkpt><trkpt lat="45.59354486845442" lon="8.206268692111168"><ele>357.85714285714283</ele><time>2026-03-22T13:56:35.998Z</time></trkpt><trkpt lat="45.5935728979173" lon="8.206169233116903"><ele>359.1428571428571</ele><time>2026-03-22T13:56:36.998Z</time></trkpt><trkpt lat="45.59358252757797" lon="8.206057477600114"><ele>360.42857142857144</ele><time>2026-03-22T13:56:37.998Z</time></trkpt><trkpt lat="45.59358356495818" lon="8.205949973839722"><ele>361.71428571428567</ele><time>2026-03-22T13:56:38.998Z</time></trkpt><trkpt lat="45.593594107421694" lon="8.205853469067181"><ele>363.0</ele><time>2026-03-22T13:56:39.998Z</time></trkpt><trkpt lat="45.593623260395795" lon="8.20575949122674"><ele>363.0</ele><time>2026-03-22T13:56:40.998Z</time></trkpt><trkpt lat="45.59365949574068" lon="8.205671545325693"><ele>363.0</ele><time>2026-03-22T13:56:41.998Z</time></trkpt><trkpt lat="45.59369331118354" lon="8.205585185830435"><ele>363.0</ele><time>2026-03-22T13:56:42.998Z</time></trkpt><trkpt lat="45.593731979147165" lon="8.205503728924617"><ele>363.0</ele><time>2026-03-22T13:56:43.998Z</time></trkpt><trkpt lat="45.593836490879305" lon="8.205408349636452"><ele>363.0</ele><time>2026-03-22T13:56:45.998Z</time></trkpt><trkpt lat="45.593928416035645" lon="8.205391491482793"><ele>363.0</ele><time>2026-03-22T13:56:46.998Z</time></trkpt><trkpt lat="45.59403231225968" lon="8.205348592040757"><ele>364.6666666666667</ele><time>2026-03-22T13:56:47.998Z</time></trkpt><trkpt lat="45.594111722458614" lon="8.205277317471104"><ele>366.3333333333333</ele><time>2026-03-22T13:56:48.998Z</time></trkpt><trkpt lat="45.59416824724283" lon="8.205175090896025"><ele>368.0</ele><time>2026-03-22T13:56:49.998Z</time></trkpt><trkpt lat="45.594210424015984" lon="8.205060726420665"><ele>369.66666666666663</ele><time>2026-03-22T13:56:50.998Z</time></trkpt><trkpt lat="45.59425757969135" lon="8.204953644211532"><ele>371.3333333333333</ele><time>2026-03-22T13:56:51.998Z</time></trkpt><trkpt lat="45.594305543801745" lon="8.204853058820706"><ele>373.0</ele><time>2026-03-22T13:56:52.998Z</time></trkpt><trkpt lat="45.59435821711633" lon="8.204758697568248"><ele>373.0</ele><time>2026-03-22T13:56:53.998Z</time></trkpt><trkpt lat="45.594406389470265" lon="8.204663601741167"><ele>373.0</ele><time>2026-03-22T13:56:54.998Z</time></trkpt><trkpt lat="45.59443911099417" lon="8.204558924657487"><ele>373.0</ele><time>2026-03-22T13:56:55.998Z</time></trkpt><trkpt lat="45.59444393775911" lon="8.204444559810304"><ele>373.0</ele><time>2026-03-22T13:56:56.998Z</time></trkpt><trkpt lat="45.594433221005765" lon="8.204340528299085"><ele>373.0</ele><time>2026-03-22T13:56:58Z</time></trkpt><trkpt lat="45.59452353173689" lon="8.204200771381412"><ele>373.0</ele><time>2026-03-22T13:57:00Z</time></trkpt><trkpt lat="45.59459771213353" lon="8.204177437034982"><ele>375.16666666666663</ele><time>2026-03-22T13:57:01Z</time></trkpt><trkpt lat="45.59466061492964" lon="8.2042243749026"><ele>377.3333333333333</ele><time>2026-03-22T13:57:02Z</time></trkpt><trkpt lat="45.59471384330793" lon="8.204314236714923"><ele>379.5</ele><time>2026-03-22T13:57:03Z</time></trkpt><trkpt lat="45.594772631723615" lon="8.204400217181782"><ele>381.66666666666663</ele><time>2026-03-22T13:57:04Z</time></trkpt><trkpt lat="45.59484528175136" lon="8.204472914866958"><ele>383.8333333333333</ele><time>2026-03-22T13:57:05Z</time></trkpt><trkpt lat="45.594916065319744" lon="8.204525340671877"><ele>386.0</ele><time>2026-03-22T13:57:06Z</time></trkpt><trkpt lat="45.594985648500945" lon="8.204524460261904"><ele>386.0</ele><time>2026-03-22T13:57:07Z</time></trkpt><trkpt lat="45.595037961095116" lon="8.204453277559153"><ele>386.0</ele><time>2026-03-22T13:57:08Z</time></trkpt><trkpt lat="45.59505386937571" lon="8.204334075965146"><ele>386.0</ele><time>2026-03-22T13:57:09Z</time></trkpt><trkpt lat="45.59504792912478" lon="8.204189485275691"><ele>386.0</ele><time>2026-03-22T13:57:10Z</time></trkpt><trkpt lat="45.59505504412315" lon="8.204044635797077"><ele>386.0</ele><time>2026-03-22T13:57:11Z</time></trkpt><trkpt lat="45.59509152142162" lon="8.203904156004443"><ele>386.4</ele><time>2026-03-22T13:57:12Z</time></trkpt><trkpt lat="45.5951447859416" lon="8.203797394586505"><ele>386.8</ele><time>2026-03-22T13:57:13Z</time></trkpt><trkpt lat="45.595196175058" lon="8.203680071018772"><ele>387.2</ele><time>2026-03-22T13:57:14Z</time></trkpt><trkpt lat="45.595280537741026" lon="8.20362053818949"><ele>387.59999999999997</ele><time>2026-03-22T13:57:15Z</time></trkpt><trkpt lat="45.595366202872675" lon="8.20356361655047"><ele>388.0</ele><time>2026-03-22T13:57:16Z</time></trkpt><trkpt lat="45.59544967127147" lon="8.203516071214155"><ele>388.59999999999997</ele><time>2026-03-22T13:57:17Z</time></trkpt><trkpt lat="45.5955386317561" lon="8.203485059614454"><ele>389.2</ele><time>2026-03-22T13:57:18Z</time></trkpt><trkpt lat="45.59563078424941" lon="8.203544803083703"><ele>389.8</ele><time>2026-03-22T13:57:19Z</time></trkpt><trkpt lat="45.59571823562786" lon="8.203577419506342"><ele>390.4</ele><time>2026-03-22T13:57:20Z</time></trkpt><trkpt lat="45.59579943802667" lon="8.203624870958995"><ele>391.0</ele><time>2026-03-22T13:57:21Z</time></trkpt><trkpt lat="45.59587473594058" lon="8.203673459974482"><ele>391.00000000000006</ele><time>2026-03-22T13:57:22Z</time></trkpt><trkpt lat="45.595939926400675" lon="8.203712138666216"><ele>391.0</ele><time>2026-03-22T13:57:23Z</time></trkpt><trkpt lat="45.59603615563791" lon="8.203741841481277"><ele>391.0</ele><time>2026-03-22T13:57:24.999Z</time></trkpt><trkpt lat="45.59608764617174" lon="8.203641403323266"><ele>391.0</ele><time>2026-03-22T13:57:26.999Z</time></trkpt><trkpt lat="45.59613941061192" lon="8.203540669186834"><ele>391.00000000000006</ele><time>2026-03-22T13:57:28.999Z</time></trkpt><trkpt lat="45.59621168492353" lon="8.203536587679803"><ele>391.0</ele><time>2026-03-22T13:57:29.999Z</time></trkpt><trkpt lat="45.59630179140555" lon="8.203517660657008"><ele>392.50000000000006</ele><time>2026-03-22T13:57:30.999Z</time></trkpt><trkpt lat="45.59639067747759" lon="8.203467885444836"><ele>394.0</ele><time>2026-03-22T13:57:31.999Z</time></trkpt><trkpt lat="45.596478761197524" lon="8.203410149467818"><ele>395.5</ele><time>2026-03-22T13:57:32.999Z</time></trkpt><trkpt lat="45.5965653259681" lon="8.20337635695666"><ele>397.0</ele><time>2026-03-22T13:57:33.999Z</time></trkpt><trkpt lat="45.59665503806421" lon="8.203365602520567"><ele>398.50000000000006</ele><time>2026-03-22T13:57:34.999Z</time></trkpt><trkpt lat="45.596715550777276" lon="8.203334124888402"><ele>400.0</ele><time>2026-03-22T13:57:35.999Z</time></trkpt><trkpt lat="45.59676843209478" lon="8.203248933389203"><ele>400.50000000000006</ele><time>2026-03-22T13:57:36.999Z</time></trkpt><trkpt lat="45.59681097883346" lon="8.203110768300782"><ele>401.0</ele><time>2026-03-22T13:57:37.999Z</time></trkpt><trkpt lat="45.59685181702572" lon="8.202996125381983"><ele>401.5</ele><time>2026-03-22T13:57:38.999Z</time></trkpt><trkpt lat="45.59689522989171" lon="8.202925516064033"><ele>402.0</ele><time>2026-03-22T13:57:39.999Z</time></trkpt><trkpt lat="45.59695720953567" lon="8.20289528781074"><ele>402.50000000000006</ele><time>2026-03-22T13:57:40.999Z</time></trkpt><trkpt lat="45.59705456738918" lon="8.202864265424962"><ele>403.0</ele><time>2026-03-22T13:57:41.999Z</time></trkpt><trkpt lat="45.597150577485365" lon="8.20283090354695"><ele>403.0</ele><time>2026-03-22T13:57:42.999Z</time></trkpt><trkpt lat="45.59724579637107" lon="8.202778627012396"><ele>403.0</ele><time>2026-03-22T13:57:43.999Z</time></trkpt><trkpt lat="45.59732138337964" lon="8.20269935011969"><ele>403.0</ele><time>2026-03-22T13:57:44.999Z</time></trkpt><trkpt lat="45.5973868817555" lon="8.202651962485962"><ele>403.0</ele><time>2026-03-22T13:57:45.999Z</time></trkpt><trkpt lat="45.59750673501624" lon="8.202646581886459"><ele>403.0</ele><time>2026-03-22T13:57:47.999Z</time></trkpt><trkpt lat="45.59758081304143" lon="8.202681272063465"><ele>403.00000000000006</ele><time>2026-03-22T13:57:48.999Z</time></trkpt><trkpt lat="45.59765530320503" lon="8.202719690070188"><ele>403.0</ele><time>2026-03-22T13:57:49.999Z</time></trkpt><trkpt lat="45.59773265611579" lon="8.202690934186336"><ele>403.0</ele><time>2026-03-22T13:57:51.999Z</time></trkpt><trkpt lat="45.597749203932956" lon="8.20260084328401"><ele>403.0</ele><time>2026-03-22T13:57:52.999Z</time></trkpt><trkpt lat="45.597756124384276" lon="8.202476052253619"><ele>403.00000000000006</ele><time>2026-03-22T13:57:53.999Z</time></trkpt><trkpt lat="45.597762316923415" lon="8.20232570712929"><ele>403.0</ele><time>2026-03-22T13:57:54.999Z</time></trkpt><trkpt lat="45.59772645875565" lon="8.202185284402594"><ele>400.59999999999997</ele><time>2026-03-22T13:57:55.999Z</time></trkpt><trkpt lat="45.597663860355944" lon="8.202065040953746"><ele>398.2</ele><time>2026-03-22T13:57:56.999Z</time></trkpt><trkpt lat="45.597604985557844" lon="8.201925837256306"><ele>395.8</ele><time>2026-03-22T13:57:57.999Z</time></trkpt><trkpt lat="45.597539328984844" lon="8.201808974318135"><ele>393.4</ele><time>2026-03-22T13:57:58.999Z</time></trkpt><trkpt lat="45.59751357502108" lon="8.201688539135603"><ele>391.0</ele><time>2026-03-22T13:58:00.999Z</time></trkpt><trkpt lat="45.59759259159554" lon="8.20149455434943"><ele>391.33333333333337</ele><time>2026-03-22T13:58:02.999Z</time></trkpt><trkpt lat="45.59762868853085" lon="8.201365564293745"><ele>391.6666666666667</ele><time>2026-03-22T13:58:03.999Z</time></trkpt><trkpt lat="45.5976712090058" lon="8.20128831858048"><ele>392.0</ele><time>2026-03-22T13:58:04.999Z</time></trkpt><trkpt lat="45.597726181955565" lon="8.20113201625304"><ele>392.33333333333337</ele><time>2026-03-22T13:58:06.999Z</time></trkpt><trkpt lat="45.59778437228426" lon="8.201078627582268"><ele>392.6666666666667</ele><time>2026-03-22T13:58:09.999Z</time></trkpt><trkpt lat="45.59784523821442" lon="8.201047638338633"><ele>393.0</ele><time>2026-03-22T13:58:10.999Z</time></trkpt><trkpt lat="45.59792441319764" lon="8.201029652743857"><ele>393.0</ele><time>2026-03-22T13:58:11.999Z</time></trkpt><trkpt lat="45.598013526955995" lon="8.20100186557455"><ele>393.0</ele><time>2026-03-22T13:58:12.999Z</time></trkpt><trkpt lat="45.598103174556876" lon="8.200976535181706"><ele>393.0</ele><time>2026-03-22T13:58:13.999Z</time></trkpt><trkpt lat="45.59820552577803" lon="8.200989091836398"><ele>393.0</ele><time>2026-03-22T13:58:15.999Z</time></trkpt><trkpt lat="45.59824271818543" lon="8.200874327841913"><ele>393.0</ele><time>2026-03-22T13:58:18.999Z</time></trkpt><trkpt lat="45.598184049806186" lon="8.200764988073828"><ele>393.0</ele><time>2026-03-22T13:58:20.999Z</time></trkpt><trkpt lat="45.59824604148089" lon="8.200696507479087"><ele>393.0</ele><time>2026-03-22T13:58:22.999Z</time></trkpt><trkpt lat="45.59815708367056" lon="8.200719063301596"><ele>393.0</ele><time>2026-03-22T13:58:25.998Z</time></trkpt><trkpt lat="45.59813422920028" lon="8.20083892050819"><ele>393.0</ele><time>2026-03-22T13:58:27.998Z</time></trkpt><trkpt lat="45.59807712589986" lon="8.200798580699198"><ele>393.0</ele><time>2026-03-22T13:58:29.998Z</time></trkpt><trkpt lat="45.59800997144237" lon="8.2007338858616"><ele>393.0</ele><time>2026-03-22T13:58:30.998Z</time></trkpt><trkpt lat="45.597946587742655" lon="8.200672679913275"><ele>393.0</ele><time>2026-03-22T13:58:31.998Z</time></trkpt><trkpt lat="45.5979441221003" lon="8.200570724510985"><ele>393.0</ele><time>2026-03-22T13:58:33.998Z</time></trkpt><trkpt lat="45.59791705628447" lon="8.200475760383348"><ele>393.0</ele><time>2026-03-22T13:58:35.998Z</time></trkpt><trkpt lat="45.59797995848561" lon="8.200597081509411"><ele>393.0</ele><time>2026-03-22T13:58:40.998Z</time></trkpt><trkpt lat="45.59803635944479" lon="8.200692232111152"><ele>393.0</ele><time>2026-03-22T13:58:42.998Z</time></trkpt><trkpt lat="45.59806853503363" lon="8.200588086849686"><ele>393.0</ele><time>2026-03-22T13:58:44.998Z</time></trkpt><trkpt lat="45.59811182208678" lon="8.20041466978329"><ele>391.3333333333333</ele><time>2026-03-22T13:58:46.998Z</time></trkpt><trkpt lat="45.59816184769715" lon="8.200316641607657"><ele>389.6666666666667</ele><time>2026-03-22T13:58:47.998Z</time></trkpt><trkpt lat="45.59819230834859" lon="8.200234326707097"><ele>388.0</ele><time>2026-03-22T13:58:48.998Z</time></trkpt><trkpt lat="45.598177668199696" lon="8.200101724734122"><ele>386.33333333333337</ele><time>2026-03-22T13:58:50.998Z</time></trkpt><trkpt lat="45.598109671803144" lon="8.200032992377016"><ele>384.6666666666667</ele><time>2026-03-22T13:58:51.998Z</time></trkpt><trkpt lat="45.59805746626947" lon="8.199971094861652"><ele>383.0</ele><time>2026-03-22T13:58:52.998Z</time></trkpt><trkpt lat="45.59802175083835" lon="8.199862740636043"><ele>381.2</ele><time>2026-03-22T13:58:53.998Z</time></trkpt><trkpt lat="45.59797302224297" lon="8.199683124633212"><ele>379.4</ele><time>2026-03-22T13:58:54.998Z</time></trkpt><trkpt lat="45.597921718388136" lon="8.199532256599301"><ele>377.59999999999997</ele><time>2026-03-22T13:58:55.998Z</time></trkpt><trkpt lat="45.59788080805981" lon="8.199422651902536"><ele>375.79999999999995</ele><time>2026-03-22T13:58:56.998Z</time></trkpt><trkpt lat="45.5978434336741" lon="8.199299537766484"><ele>374.0</ele><time>2026-03-22T13:58:57.998Z</time></trkpt><trkpt lat="45.59779533317622" lon="8.199172815204696"><ele>370.6666666666667</ele><time>2026-03-22T13:58:58.998Z</time></trkpt><trkpt lat="45.597752555468695" lon="8.199100750962169"><ele>367.33333333333337</ele><time>2026-03-22T13:58:59.998Z</time></trkpt><trkpt lat="45.59773295375848" lon="8.199008573097728"><ele>364.0</ele><time>2026-03-22T13:59:00.998Z</time></trkpt><trkpt lat="45.597796143687006" lon="8.198891007533703"><ele>360.6666666666667</ele><time>2026-03-22T13:59:02.998Z</time></trkpt><trkpt lat="45.59781926922086" lon="8.19880612366465"><ele>357.3333333333333</ele><time>2026-03-22T13:59:04Z</time></trkpt><trkpt lat="45.59786347396433" lon="8.1987329954317"><ele>354.0</ele><time>2026-03-22T13:59:05Z</time></trkpt><trkpt lat="45.59789715010178" lon="8.198601738378903"><ele>354.0</ele><time>2026-03-22T13:59:07Z</time></trkpt><trkpt lat="45.598005775281365" lon="8.198483648755904"><ele>354.0</ele><time>2026-03-22T13:59:09Z</time></trkpt><trkpt lat="45.59795195557667" lon="8.198411102188542"><ele>354.0</ele><time>2026-03-22T13:59:12Z</time></trkpt><trkpt lat="45.59792835186649" lon="8.198248853635866"><ele>354.0</ele><time>2026-03-22T13:59:14Z</time></trkpt><trkpt lat="45.597947521292554" lon="8.19815415912253"><ele>354.0</ele><time>2026-03-22T13:59:15Z</time></trkpt><trkpt lat="45.59794197637928" lon="8.198050241489302"><ele>351.5</ele><time>2026-03-22T13:59:17Z</time></trkpt><trkpt lat="45.59795076236767" lon="8.197934460124253"><ele>349.0</ele><time>2026-03-22T13:59:28Z</time></trkpt><trkpt lat="45.597961224127175" lon="8.197822362381864"><ele>346.5</ele><time>2026-03-22T13:59:30Z</time></trkpt><trkpt lat="45.597939664091975" lon="8.197719720532056"><ele>344.0</ele><time>2026-03-22T13:59:31.999Z</time></trkpt><trkpt lat="45.59797424461072" lon="8.197617929251997"><ele>341.5</ele><time>2026-03-22T13:59:36.999Z</time></trkpt><trkpt lat="45.59803168907555" lon="8.197542261747696"><ele>339.0</ele><time>2026-03-22T13:59:40.999Z</time></trkpt><trkpt lat="45.59813303241741" lon="8.197491194255424"><ele>339.0</ele><time>2026-03-22T13:59:42.999Z</time></trkpt><trkpt lat="45.598214230988184" lon="8.197457366549555"><ele>339.0</ele><time>2026-03-22T13:59:44.999Z</time></trkpt><trkpt lat="45.59829000838003" lon="8.197409279706326"><ele>339.0</ele><time>2026-03-22T13:59:46.999Z</time></trkpt><trkpt lat="45.598327004555095" lon="8.197316266400524"><ele>339.0</ele><time>2026-03-22T13:59:48.999Z</time></trkpt><trkpt lat="45.598396184011364" lon="8.197266408354496"><ele>339.0</ele><time>2026-03-22T13:59:50.999Z</time></trkpt><trkpt lat="45.59846040321786" lon="8.197217385798547"><ele>339.0</ele><time>2026-03-22T13:59:52.999Z</time></trkpt><trkpt lat="45.598540491007235" lon="8.197217907698944"><ele>339.4</ele><time>2026-03-22T13:59:55.999Z</time></trkpt><trkpt lat="45.59868375846594" lon="8.197227947606793"><ele>339.79999999999995</ele><time>2026-03-22T14:00:00.999Z</time></trkpt><trkpt lat="45.598790968780584" lon="8.197260395419109"><ele>340.20000000000005</ele><time>2026-03-22T14:00:02.999Z</time></trkpt><trkpt lat="45.5988768494553" lon="8.197354199117498"><ele>340.6</ele><time>2026-03-22T14:00:04.999Z</time></trkpt><trkpt lat="45.598949371563165" lon="8.197380937400093"><ele>341.0</ele><time>2026-03-22T14:00:05.999Z</time></trkpt><trkpt lat="45.59903698256757" lon="8.197403152166212"><ele>341.0</ele><time>2026-03-22T14:00:07.999Z</time></trkpt><trkpt lat="45.599260300160395" lon="8.19740855827861"><ele>341.0</ele><time>2026-03-22T14:00:12.999Z</time></trkpt><trkpt lat="45.599365173850636" lon="8.197407570977019"><ele>341.0</ele><time>2026-03-22T14:00:13.999Z</time></trkpt><trkpt lat="45.59947961176988" lon="8.19741129266242"><ele>341.0</ele><time>2026-03-22T14:00:14.999Z</time></trkpt><trkpt lat="45.59953966564965" lon="8.197378250860163"><ele>341.5</ele><time>2026-03-22T14:00:15.999Z</time></trkpt><trkpt lat="45.5995835573924" lon="8.19731187006732"><ele>342.0</ele><time>2026-03-22T14:00:16.999Z</time></trkpt><trkpt lat="45.59968981886485" lon="8.197289963172134"><ele>342.5</ele><time>2026-03-22T14:00:18.999Z</time></trkpt><trkpt lat="45.59985755652258" lon="8.197356827104299"><ele>343.0</ele><time>2026-03-22T14:01:25Z</time></trkpt><trkpt lat="45.5999844390515" lon="8.19738915215838"><ele>343.16666666666663</ele><time>2026-03-22T14:01:31.999Z</time></trkpt><trkpt lat="45.600049484441435" lon="8.19738574699859"><ele>343.3333333333333</ele><time>2026-03-22T14:01:45.999Z</time></trkpt><trkpt lat="45.60011764014158" lon="8.197451259335471"><ele>343.5</ele><time>2026-03-22T14:01:51.999Z</time></trkpt><trkpt lat="45.60021016490651" lon="8.197454246179872"><ele>343.6666666666667</ele><time>2026-03-22T14:01:55.999Z</time></trkpt><trkpt lat="45.600263025747715" lon="8.197551498332881"><ele>343.83333333333337</ele><time>2026-03-22T14:01:59.999Z</time></trkpt><trkpt lat="45.60032414237808" lon="8.19759835035407"><ele>344.0</ele><time>2026-03-22T14:02:02.999Z</time></trkpt><trkpt lat="45.60033253204483" lon="8.19771161009328"><ele>344.28571428571433</ele><time>2026-03-22T14:02:06.999Z</time></trkpt><trkpt lat="45.60039577424782" lon="8.19775538687782"><ele>344.57142857142856</ele><time>2026-03-22T14:02:08.999Z</time></trkpt><trkpt lat="45.600476063344296" lon="8.197707386574537"><ele>344.8571428571429</ele><time>2026-03-22T14:02:10.999Z</time></trkpt><trkpt lat="45.60050632851264" lon="8.19779194166648"><ele>345.14285714285717</ele><time>2026-03-22T14:02:13.999Z</time></trkpt><trkpt lat="45.6005550904482" lon="8.19790056975477"><ele>345.42857142857144</ele><time>2026-03-22T14:02:15.999Z</time></trkpt><trkpt lat="45.60055431713889" lon="8.197994566231273"><ele>345.7142857142857</ele><time>2026-03-22T14:02:28.998Z</time></trkpt><trkpt lat="45.600578626145634" lon="8.198082604870235"><ele>346.0</ele><time>2026-03-22T14:02:31.998Z</time></trkpt><trkpt lat="45.600654527040824" lon="8.198098447617813"><ele>346.0</ele><time>2026-03-22T14:02:34.998Z</time></trkpt><trkpt lat="45.600742338874944" lon="8.198128286603398"><ele>346.0</ele><time>2026-03-22T14:04:09.999Z</time></trkpt><trkpt lat="45.60077447031449" lon="8.198217177042544"><ele>346.0</ele><time>2026-03-22T14:04:11.999Z</time></trkpt><trkpt lat="45.60085189828657" lon="8.198266640069765"><ele>346.0</ele><time>2026-03-22T14:05:22Z</time></trkpt><trkpt lat="45.600900458846915" lon="8.19835475535591"><ele>346.0</ele><time>2026-03-22T14:05:24Z</time></trkpt><trkpt lat="45.60094465478468" lon="8.19850878415799"><ele>346.0</ele><time>2026-03-22T14:05:26Z</time></trkpt><trkpt lat="45.600987020538774" lon="8.198640133553658"><ele>348.4</ele><time>2026-03-22T14:05:29Z</time></trkpt><trkpt lat="45.60103673851552" lon="8.198748964760275"><ele>350.8</ele><time>2026-03-22T14:05:31Z</time></trkpt><trkpt lat="45.60106247558086" lon="8.198909662890435"><ele>353.2</ele><time>2026-03-22T14:05:33Z</time></trkpt><trkpt lat="45.601112071523715" lon="8.199034071110805"><ele>355.59999999999997</ele><time>2026-03-22T14:05:35Z</time></trkpt><trkpt lat="45.60120846676611" lon="8.199087943183564"><ele>358.0</ele><time>2026-03-22T14:05:37Z</time></trkpt><trkpt lat="45.60127741645654" lon="8.199175822413517"><ele>360.00000000000006</ele><time>2026-03-22T14:05:41.999Z</time></trkpt><trkpt lat="45.60122087492751" lon="8.19921951748749"><ele>362.0</ele><time>2026-03-22T14:05:44.999Z</time></trkpt><trkpt lat="45.601225586948225" lon="8.199310058841217"><ele>364.0</ele><time>2026-03-22T14:05:49.999Z</time></trkpt><trkpt lat="45.60115994206435" lon="8.1993708663504"><ele>366.0</ele><time>2026-03-22T14:05:53.999Z</time></trkpt><trkpt lat="45.60114776598014" lon="8.199485333167027"><ele>368.0</ele><time>2026-03-22T14:06:02.999Z</time></trkpt><trkpt lat="45.601220497475055" lon="8.1994670916798"><ele>370.00000000000006</ele><time>2026-03-22T14:06:07.999Z</time></trkpt><trkpt lat="45.60114977111557" lon="8.199531285178509"><ele>372.0</ele><time>2026-03-22T14:12:52.999Z</time></trkpt><trkpt lat="45.60112045647353" lon="8.19965196165358"><ele>373.0</ele><time>2026-03-22T14:12:54.999Z</time></trkpt><trkpt lat="45.60116275460334" lon="8.199783736393105"><ele>374.0</ele><time>2026-03-22T14:12:57.999Z</time></trkpt><trkpt lat="45.60125522706819" lon="8.199844024245866"><ele>375.0</ele><time>2026-03-22T14:12:59.999Z</time></trkpt><trkpt lat="45.60137009808604" lon="8.19989874690186"><ele>376.0</ele><time>2026-03-22T14:13:01.999Z</time></trkpt><trkpt lat="45.60145946077179" lon="8.200034275919416"><ele>379.0</ele><time>2026-03-22T14:13:03.999Z</time></trkpt><trkpt lat="45.601490406328246" lon="8.200136950861848"><ele>382.0</ele><time>2026-03-22T14:13:04.999Z</time></trkpt><trkpt lat="45.60154338604893" lon="8.200201536621183"><ele>385.0</ele><time>2026-03-22T14:13:05.999Z</time></trkpt><trkpt lat="45.601601486031235" lon="8.200269374938888"><ele>388.0</ele><time>2026-03-22T14:13:06.999Z</time></trkpt><trkpt lat="45.60164782257584" lon="8.20036841592539"><ele>391.00000000000006</ele><time>2026-03-22T14:13:07.999Z</time></trkpt><trkpt lat="45.60169649762742" lon="8.200457593581678"><ele>394.0</ele><time>2026-03-22T14:13:08.999Z</time></trkpt><trkpt lat="45.6017411693324" lon="8.200546297919056"><ele>394.00000000000006</ele><time>2026-03-22T14:13:09.999Z</time></trkpt><trkpt lat="45.60179980770578" lon="8.200631401875777"><ele>394.0</ele><time>2026-03-22T14:13:10.999Z</time></trkpt><trkpt lat="45.60184191013268" lon="8.200726030735787"><ele>394.0</ele><time>2026-03-22T14:13:11.999Z</time></trkpt><trkpt lat="45.60189370149608" lon="8.200780896454583"><ele>394.0</ele><time>2026-03-22T14:13:13.999Z</time></trkpt><trkpt lat="45.60196892643702" lon="8.200808152835924"><ele>394.00000000000006</ele><time>2026-03-22T14:13:16.999Z</time></trkpt><trkpt lat="45.60206841060575" lon="8.200855267767853"><ele>394.0</ele><time>2026-03-22T14:13:18.999Z</time></trkpt><trkpt lat="45.60212646006588" lon="8.200944016540118"><ele>394.79999999999995</ele><time>2026-03-22T14:13:20.999Z</time></trkpt><trkpt lat="45.602100762663625" lon="8.201077009896744"><ele>395.59999999999997</ele><time>2026-03-22T14:14:27Z</time></trkpt><trkpt lat="45.60207736006264" lon="8.201165501560949"><ele>396.4</ele><time>2026-03-22T14:14:29Z</time></trkpt><trkpt lat="45.60198849076177" lon="8.20130308685155"><ele>397.2</ele><time>2026-03-22T14:14:31Z</time></trkpt><trkpt lat="45.601944551720266" lon="8.201367860307753"><ele>398.0</ele><time>2026-03-22T14:14:32Z</time></trkpt><trkpt lat="45.6018274613251" lon="8.201523704751832"><ele>401.2</ele><time>2026-03-22T14:14:34Z</time></trkpt><trkpt lat="45.601765049765916" lon="8.201582928644191"><ele>404.4</ele><time>2026-03-22T14:14:35Z</time></trkpt><trkpt lat="45.60167168474488" lon="8.20164054311788"><ele>407.59999999999997</ele><time>2026-03-22T14:14:37Z</time></trkpt><trkpt lat="45.601573019150656" lon="8.201768199520718"><ele>410.79999999999995</ele><time>2026-03-22T14:14:39Z</time></trkpt><trkpt lat="45.60156589942372" lon="8.201916025029202"><ele>414.0</ele><time>2026-03-22T14:14:41Z</time></trkpt><trkpt lat="45.601605361453416" lon="8.202023833289054"><ele>414.0</ele><time>2026-03-22T14:14:42Z</time></trkpt><trkpt lat="45.60162871507983" lon="8.202156478422157"><ele>414.0</ele><time>2026-03-22T14:14:44Z</time></trkpt><trkpt lat="45.60162339851613" lon="8.202259832107387"><ele>414.0</ele><time>2026-03-22T14:14:47Z</time></trkpt><trkpt lat="45.60161219307793" lon="8.202400098317854"><ele>414.0</ele><time>2026-03-22T14:14:49Z</time></trkpt><trkpt lat="45.60156994257715" lon="8.202546123659715"><ele>414.0</ele><time>2026-03-22T14:14:51Z</time></trkpt><trkpt lat="45.60156319213765" lon="8.202659452947447"><ele>414.0</ele><time>2026-03-22T14:14:52Z</time></trkpt><trkpt lat="45.60156721677819" lon="8.202753054442615"><ele>414.0</ele><time>2026-03-22T14:14:53Z</time></trkpt><trkpt lat="45.60157538201594" lon="8.202887459971395"><ele>414.0</ele><time>2026-03-22T14:14:54.999Z</time></trkpt><trkpt lat="45.60157439875533" lon="8.203007317664577"><ele>414.0</ele><time>2026-03-22T14:14:56.999Z</time></trkpt><trkpt lat="45.60154192941932" lon="8.20308910225188"><ele>414.0</ele><time>2026-03-22T14:14:59.999Z</time></trkpt><trkpt lat="45.601489791906495" lon="8.203154566496247"><ele>414.0</ele><time>2026-03-22T14:15:00.999Z</time></trkpt><trkpt lat="45.60142680057035" lon="8.203201368213133"><ele>414.3333333333333</ele><time>2026-03-22T14:15:01.999Z</time></trkpt><trkpt lat="45.60136787734856" lon="8.203234548441374"><ele>414.66666666666663</ele><time>2026-03-22T14:15:02.999Z</time></trkpt><trkpt lat="45.60129845345715" lon="8.203273086117855"><ele>415.0</ele><time>2026-03-22T14:15:03.999Z</time></trkpt><trkpt lat="45.60122349475253" lon="8.203359141807297"><ele>415.3333333333333</ele><time>2026-03-22T14:15:04.999Z</time></trkpt><trkpt lat="45.601143381796255" lon="8.203432290762494"><ele>415.66666666666663</ele><time>2026-03-22T14:15:05.999Z</time></trkpt><trkpt lat="45.601073428546016" lon="8.203505520247527"><ele>416.0</ele><time>2026-03-22T14:15:06.999Z</time></trkpt><trkpt lat="45.60103217226676" lon="8.20358793594094"><ele>416.0</ele><time>2026-03-22T14:15:07.999Z</time></trkpt><trkpt lat="45.60101825186599" lon="8.20371176963642"><ele>416.0</ele><time>2026-03-22T14:15:08.999Z</time></trkpt><trkpt lat="45.600998986492314" lon="8.203842715661448"><ele>416.0</ele><time>2026-03-22T14:15:09.999Z</time></trkpt><trkpt lat="45.60096902756194" lon="8.203930467742664"><ele>416.0</ele><time>2026-03-22T14:15:10.999Z</time></trkpt><trkpt lat="45.60086634336118" lon="8.204010225462339"><ele>416.0</ele><time>2026-03-22T14:15:12.999Z</time></trkpt><trkpt lat="45.60079746718179" lon="8.204105279767603"><ele>416.49999999999994</ele><time>2026-03-22T14:15:14.999Z</time></trkpt><trkpt lat="45.60082374700066" lon="8.204224817521386"><ele>417.0</ele><time>2026-03-22T14:15:22.999Z</time></trkpt><trkpt lat="45.60088506050349" lon="8.204298383297845"><ele>417.5</ele><time>2026-03-22T14:15:23.999Z</time></trkpt><trkpt lat="45.60093388466335" lon="8.204378588332201"><ele>418.0</ele><time>2026-03-22T14:15:24.999Z</time></trkpt><trkpt lat="45.600965346352375" lon="8.204472994813898"><ele>418.49999999999994</ele><time>2026-03-22T14:15:25.999Z</time></trkpt><trkpt lat="45.60092565365372" lon="8.204578024848963"><ele>419.0</ele><time>2026-03-22T14:15:27.999Z</time></trkpt><trkpt lat="45.600880698087394" lon="8.20467267787863"><ele>418.99999999999994</ele><time>2026-03-22T14:15:29.999Z</time></trkpt><trkpt lat="45.60088041217038" lon="8.204810348640358"><ele>419.0</ele><time>2026-03-22T14:15:31.999Z</time></trkpt><trkpt lat="45.600899556140966" lon="8.204897388937347"><ele>419.0</ele><time>2026-03-22T14:15:33.999Z</time></trkpt><trkpt lat="45.600953339181025" lon="8.204963677460391"><ele>419.0</ele><time>2026-03-22T14:15:35.999Z</time></trkpt><trkpt lat="45.601020369335686" lon="8.204963846092408"><ele>418.99999999999994</ele><time>2026-03-22T14:15:36.999Z</time></trkpt><trkpt lat="45.60110106261196" lon="8.204947664998949"><ele>419.0</ele><time>2026-03-22T14:15:37.999Z</time></trkpt><trkpt lat="45.601172972128225" lon="8.204900555031273"><ele>418.79999999999995</ele><time>2026-03-22T14:15:38.999Z</time></trkpt><trkpt lat="45.60130708047463" lon="8.204908705489606"><ele>418.59999999999997</ele><time>2026-03-22T14:15:40.999Z</time></trkpt><trkpt lat="45.60138777851551" lon="8.20491476136169"><ele>418.4</ele><time>2026-03-22T14:15:41.999Z</time></trkpt><trkpt lat="45.60147634596773" lon="8.204948267349423"><ele>418.2</ele><time>2026-03-22T14:15:42.999Z</time></trkpt><trkpt lat="45.60152497440776" lon="8.205007375797702"><ele>418.0</ele><time>2026-03-22T14:15:43.999Z</time></trkpt><trkpt lat="45.6014811971493" lon="8.205124673658407"><ele>418.00000000000006</ele><time>2026-03-22T14:15:45.999Z</time></trkpt><trkpt lat="45.60149872355013" lon="8.205228095213519"><ele>418.0</ele><time>2026-03-22T14:15:47.999Z</time></trkpt><trkpt lat="45.60148530511572" lon="8.205346481741664"><ele>418.0</ele><time>2026-03-22T14:15:48.999Z</time></trkpt><trkpt lat="45.60149259021359" lon="8.205442018140964"><ele>418.0</ele><time>2026-03-22T14:15:50.001Z</time></trkpt><trkpt lat="45.601547469615696" lon="8.205561316726605"><ele>418.00000000000006</ele><time>2026-03-22T14:15:52.001Z</time></trkpt><trkpt lat="45.60161340383516" lon="8.205652352961616"><ele>418.0</ele><time>2026-03-22T14:15:53.001Z</time></trkpt><trkpt lat="45.60166594951909" lon="8.205733979492004"><ele>418.7142857142857</ele><time>2026-03-22T14:15:54.001Z</time></trkpt><trkpt lat="45.601713364394236" lon="8.205813497040685"><ele>419.42857142857144</ele><time>2026-03-22T14:15:55.001Z</time></trkpt><trkpt lat="45.60178487814628" lon="8.205840708814497"><ele>420.1428571428571</ele><time>2026-03-22T14:15:56.001Z</time></trkpt><trkpt lat="45.601859745213396" lon="8.205852184898394"><ele>420.8571428571429</ele><time>2026-03-22T14:15:57.001Z</time></trkpt><trkpt lat="45.60192434967916" lon="8.205857755808589"><ele>421.5714285714286</ele><time>2026-03-22T14:15:58.001Z</time></trkpt><trkpt lat="45.60199039589989" lon="8.20585732169956"><ele>422.2857142857143</ele><time>2026-03-22T14:15:59.001Z</time></trkpt><trkpt lat="45.60205834345624" lon="8.205857723838228"><ele>423.0</ele><time>2026-03-22T14:16:00.001Z</time></trkpt><trkpt lat="45.602148853048625" lon="8.20583640384538"><ele>423.0</ele><time>2026-03-22T14:16:01.001Z</time></trkpt><trkpt lat="45.60223914745719" lon="8.20577947724771"><ele>423.0</ele><time>2026-03-22T14:16:02.001Z</time></trkpt><trkpt lat="45.602295704277324" lon="8.205737906880202"><ele>423.0</ele><time>2026-03-22T14:16:03.001Z</time></trkpt><trkpt lat="45.602360607432736" lon="8.205735208808873"><ele>423.0</ele><time>2026-03-22T14:16:04.001Z</time></trkpt><trkpt lat="45.60245234066116" lon="8.205813597526747"><ele>423.0</ele><time>2026-03-22T14:16:06Z</time></trkpt><trkpt lat="45.60250807391612" lon="8.205676052766492"><ele>423.0</ele><time>2026-03-22T14:16:10Z</time></trkpt><trkpt lat="45.60254571623175" lon="8.205570954152149"><ele>422.0</ele><time>2026-03-22T14:16:11Z</time></trkpt><trkpt lat="45.60259470805721" lon="8.205427929786572"><ele>421.0</ele><time>2026-03-22T14:16:12Z</time></trkpt><trkpt lat="45.602628078717515" lon="8.205290736139226"><ele>420.0</ele><time>2026-03-22T14:16:13Z</time></trkpt><trkpt lat="45.602668513941715" lon="8.205199728882455"><ele>419.0</ele><time>2026-03-22T14:16:14Z</time></trkpt><trkpt lat="45.60270469269136" lon="8.20510506846814"><ele>418.0</ele><time>2026-03-22T14:16:15Z</time></trkpt><trkpt lat="45.60276226646926" lon="8.205023279211622"><ele>417.0</ele><time>2026-03-22T14:16:16Z</time></trkpt><trkpt lat="45.602815595750926" lon="8.204970096829964"><ele>415.1666666666667</ele><time>2026-03-22T14:16:17Z</time></trkpt><trkpt lat="45.60286730746437" lon="8.204896959856638"><ele>413.33333333333337</ele><time>2026-03-22T14:16:18Z</time></trkpt><trkpt lat="45.60290439796279" lon="8.204783185449214"><ele>411.5</ele><time>2026-03-22T14:16:19Z</time></trkpt><trkpt lat="45.60290623310234" lon="8.204677367366799"><ele>409.6666666666667</ele><time>2026-03-22T14:16:20Z</time></trkpt><trkpt lat="45.60297240612227" lon="8.204550303816408"><ele>407.83333333333337</ele><time>2026-03-22T14:16:22Z</time></trkpt><trkpt lat="45.60302938231777" lon="8.204441974530235"><ele>406.0</ele><time>2026-03-22T14:16:23Z</time></trkpt><trkpt lat="45.6030636888317" lon="8.20436395876739"><ele>405.1666666666667</ele><time>2026-03-22T14:16:24Z</time></trkpt><trkpt lat="45.60308017659636" lon="8.204271263289407"><ele>404.33333333333337</ele><time>2026-03-22T14:16:25Z</time></trkpt><trkpt lat="45.603066130059084" lon="8.204143841785536"><ele>403.5</ele><time>2026-03-22T14:16:26Z</time></trkpt><trkpt lat="45.603039375122215" lon="8.204024075243264"><ele>402.66666666666663</ele><time>2026-03-22T14:16:27Z</time></trkpt><trkpt lat="45.60300427116737" lon="8.203940011129811"><ele>401.8333333333333</ele><time>2026-03-22T14:16:28Z</time></trkpt><trkpt lat="45.602971971662924" lon="8.20385848030699"><ele>401.0</ele><time>2026-03-22T14:16:30Z</time></trkpt><trkpt lat="45.60306347093097" lon="8.203828054023838"><ele>399.8</ele><time>2026-03-22T14:16:33Z</time></trkpt><trkpt lat="45.6031103799966" lon="8.203767526770564"><ele>398.6</ele><time>2026-03-22T14:16:36Z</time></trkpt><trkpt lat="45.603112437529724" lon="8.203635004012776"><ele>397.4</ele><time>2026-03-22T14:16:38Z</time></trkpt><trkpt lat="45.603168834455175" lon="8.203589159911727"><ele>396.2</ele><time>2026-03-22T14:16:40Z</time></trkpt><trkpt lat="45.603230011990064" lon="8.203502899025953"><ele>395.0</ele><time>2026-03-22T14:16:42Z</time></trkpt><trkpt lat="45.60342861329483" lon="8.203337092869235"><ele>395.0</ele><time>2026-03-22T14:16:45Z</time></trkpt><trkpt lat="45.60347681105048" lon="8.203256669418778"><ele>395.0</ele><time>2026-03-22T14:16:46Z</time></trkpt><trkpt lat="45.60353979107674" lon="8.203129725181912"><ele>395.0</ele><time>2026-03-22T14:16:48Z</time></trkpt><trkpt lat="45.60362102640113" lon="8.203080798209855"><ele>395.0</ele><time>2026-03-22T14:16:50Z</time></trkpt><trkpt lat="45.60367398536863" lon="8.202928911425953"><ele>395.0</ele><time>2026-03-22T14:16:52Z</time></trkpt><trkpt lat="45.60376033741951" lon="8.20277800989812"><ele>393.4</ele><time>2026-03-22T14:16:54Z</time></trkpt><trkpt lat="45.60380449663212" lon="8.20264980055466"><ele>391.8</ele><time>2026-03-22T14:16:55Z</time></trkpt><trkpt lat="45.603857634633364" lon="8.202525780911095"><ele>390.20000000000005</ele><time>2026-03-22T14:16:57Z</time></trkpt><trkpt lat="45.60390658936937" lon="8.202441659482451"><ele>388.6</ele><time>2026-03-22T14:16:58.999Z</time></trkpt><trkpt lat="45.60396497236447" lon="8.202313312870656"><ele>387.0</ele><time>2026-03-22T14:17:00.999Z</time></trkpt><trkpt lat="45.60399164914165" lon="8.202175762248137"><ele>386.1666666666667</ele><time>2026-03-22T14:17:02.999Z</time></trkpt><trkpt lat="45.603912309439245" lon="8.202093561379591"><ele>385.3333333333333</ele><time>2026-03-22T14:17:04.999Z</time></trkpt><trkpt lat="45.60386180822888" lon="8.20200382988751"><ele>384.5</ele><time>2026-03-22T14:17:12.999Z</time></trkpt><trkpt lat="45.60381910725312" lon="8.201925057202626"><ele>383.66666666666663</ele><time>2026-03-22T14:17:13.999Z</time></trkpt><trkpt lat="45.60375796333852" lon="8.20190262447348"><ele>382.8333333333333</ele><time>2026-03-22T14:17:14.999Z</time></trkpt><trkpt lat="45.60368603723878" lon="8.201937604406869"><ele>382.0</ele><time>2026-03-22T14:17:15.999Z</time></trkpt><trkpt lat="45.603625431576454" lon="8.201963342936205"><ele>382.0</ele><time>2026-03-22T14:17:16.999Z</time></trkpt><trkpt lat="45.60357578514687" lon="8.201903912808323"><ele>382.0</ele><time>2026-03-22T14:17:18.999Z</time></trkpt><trkpt lat="45.60355194635726" lon="8.201797664897216"><ele>382.0</ele><time>2026-03-22T14:17:20.999Z</time></trkpt><trkpt lat="45.60346083532171" lon="8.201828500484208"><ele>382.0</ele><time>2026-03-22T14:17:22.999Z</time></trkpt><trkpt lat="45.60342563560155" lon="8.20171977303307"><ele>382.0</ele><time>2026-03-22T14:17:25.999Z</time></trkpt><trkpt lat="45.60336237533779" lon="8.201488015011842"><ele>382.66666666666663</ele><time>2026-03-22T14:17:27.999Z</time></trkpt><trkpt lat="45.60338379078651" lon="8.201396505114266"><ele>383.3333333333333</ele><time>2026-03-22T14:17:36.999Z</time></trkpt><trkpt lat="45.60344605039994" lon="8.201343446493032"><ele>384.0</ele><time>2026-03-22T14:17:37.999Z</time></trkpt><trkpt lat="45.603504744700636" lon="8.201296249502938"><ele>384.66666666666663</ele><time>2026-03-22T14:17:38.999Z</time></trkpt><trkpt lat="45.60355691909031" lon="8.201243892042168"><ele>385.3333333333333</ele><time>2026-03-22T14:17:39.999Z</time></trkpt><trkpt lat="45.60363363667531" lon="8.20114339050011"><ele>386.0</ele><time>2026-03-22T14:17:41.999Z</time></trkpt><trkpt lat="45.60369237669731" lon="8.20104579245212"><ele>384.20000000000005</ele><time>2026-03-22T14:17:43.999Z</time></trkpt><trkpt lat="45.60373042964509" lon="8.200930658332904"><ele>382.40000000000003</ele><time>2026-03-22T14:17:44.999Z</time></trkpt><trkpt lat="45.60376713917677" lon="8.200836230055472"><ele>380.6</ele><time>2026-03-22T14:17:45.999Z</time></trkpt><trkpt lat="45.60384835365426" lon="8.200753125089717"><ele>378.8</ele><time>2026-03-22T14:17:47.999Z</time></trkpt><trkpt lat="45.60389751080975" lon="8.200677665810224"><ele>377.0</ele><time>2026-03-22T14:17:49.999Z</time></trkpt><trkpt lat="45.60397169574219" lon="8.200529157275058"><ele>377.0</ele><time>2026-03-22T14:17:51.999Z</time></trkpt><trkpt lat="45.60401588503766" lon="8.200394732659888"><ele>377.0</ele><time>2026-03-22T14:17:52.999Z</time></trkpt><trkpt lat="45.604083178263934" lon="8.200265965761366"><ele>377.0</ele><time>2026-03-22T14:17:53.999Z</time></trkpt><trkpt lat="45.60412786506803" lon="8.200166178655065"><ele>377.0</ele><time>2026-03-22T14:17:55.001Z</time></trkpt><trkpt lat="45.60415397728617" lon="8.199999955643124"><ele>377.0</ele><time>2026-03-22T14:17:57.001Z</time></trkpt><trkpt lat="45.60418893767039" lon="8.199913689424674"><ele>376.0</ele><time>2026-03-22T14:17:58.001Z</time></trkpt><trkpt lat="45.604218664314736" lon="8.199809881848118"><ele>375.0</ele><time>2026-03-22T14:17:59.001Z</time></trkpt><trkpt lat="45.60421961788502" lon="8.199649325821243"><ele>374.0</ele><time>2026-03-22T14:18:01.001Z</time></trkpt><trkpt lat="45.60429709637895" lon="8.19969554288028"><ele>373.0</ele><time>2026-03-22T14:18:05.001Z</time></trkpt><trkpt lat="45.604336278539286" lon="8.199611543855301"><ele>372.0</ele><time>2026-03-22T14:18:06.001Z</time></trkpt><trkpt lat="45.60438027133864" lon="8.199477306863036"><ele>371.0</ele><time>2026-03-22T14:18:07.001Z</time></trkpt><trkpt lat="45.60443679089249" lon="8.199373399196082"><ele>372.20000000000005</ele><time>2026-03-22T14:18:08.001Z</time></trkpt><trkpt lat="45.60455871499327" lon="8.199460434355798"><ele>373.40000000000003</ele><time>2026-03-22T14:18:26Z</time></trkpt><trkpt lat="45.60462805305591" lon="8.199464744710143"><ele>374.6</ele><time>2026-03-22T14:19:17.999Z</time></trkpt><trkpt lat="45.60459076555513" lon="8.199340064674605"><ele>375.8</ele><time>2026-03-22T14:19:22.999Z</time></trkpt><trkpt lat="45.60457217022771" lon="8.199218362035506"><ele>377.0</ele><time>2026-03-22T14:19:23.999Z</time></trkpt><trkpt lat="45.604559068534584" lon="8.199098516039586"><ele>375.0</ele><time>2026-03-22T14:19:24.999Z</time></trkpt><trkpt lat="45.604493553008375" lon="8.1989152842128"><ele>373.0</ele><time>2026-03-22T14:19:26.999Z</time></trkpt><trkpt lat="45.604458823438335" lon="8.198823401977387"><ele>371.0</ele><time>2026-03-22T14:19:27.999Z</time></trkpt><trkpt lat="45.60441868083984" lon="8.19874458564499"><ele>369.0</ele><time>2026-03-22T14:19:29.999Z</time></trkpt><trkpt lat="45.60431386702832" lon="8.19874700478674"><ele>367.0</ele><time>2026-03-22T14:19:31.999Z</time></trkpt><trkpt lat="45.6042225765874" lon="8.198692784642994"><ele>367.0</ele><time>2026-03-22T14:19:33.999Z</time></trkpt><trkpt lat="45.60417454326814" lon="8.19876464137285"><ele>367.0</ele><time>2026-03-22T14:19:35.999Z</time></trkpt><trkpt lat="45.60413679751824" lon="8.198661255766417"><ele>367.0</ele><time>2026-03-22T14:19:37.999Z</time></trkpt><trkpt lat="45.60408407109147" lon="8.198587411353198"><ele>367.0</ele><time>2026-03-22T14:19:38.999Z</time></trkpt><trkpt lat="45.6039843584402" lon="8.198531298031174"><ele>367.0</ele><time>2026-03-22T14:19:39.999Z</time></trkpt><trkpt lat="45.60389670074753" lon="8.19851397402342"><ele>367.0</ele><time>2026-03-22T14:19:40.999Z</time></trkpt><trkpt lat="45.60380337243554" lon="8.198563331302271"><ele>367.0</ele><time>2026-03-22T14:19:43.999Z</time></trkpt><trkpt lat="45.60372717131274" lon="8.198558479646564"><ele>367.0</ele><time>2026-03-22T14:19:44.999Z</time></trkpt><trkpt lat="45.603658477883386" lon="8.19860292377157"><ele>367.0</ele><time>2026-03-22T14:19:45.999Z</time></trkpt><trkpt lat="45.6035932456272" lon="8.198604355378675"><ele>367.0</ele><time>2026-03-22T14:19:48.999Z</time></trkpt><trkpt lat="45.60353183820794" lon="8.198525844913805"><ele>367.0</ele><time>2026-03-22T14:19:50.999Z</time></trkpt><trkpt lat="45.60344119617683" lon="8.198384913902366"><ele>367.0</ele><time>2026-03-22T14:19:52.999Z</time></trkpt><trkpt lat="45.60334534866852" lon="8.198315947720518"><ele>366.66666666666663</ele><time>2026-03-22T14:19:54.999Z</time></trkpt><trkpt lat="45.60324776174463" lon="8.198387967838691"><ele>366.3333333333333</ele><time>2026-03-22T14:19:57.999Z</time></trkpt><trkpt lat="45.60316524255812" lon="8.19839680477426"><ele>366.0</ele><time>2026-03-22T14:19:59.998Z</time></trkpt><trkpt lat="45.603082440105915" lon="8.198370977474847"><ele>365.6666666666667</ele><time>2026-03-22T14:20:02.001Z</time></trkpt><trkpt lat="45.60301866130044" lon="8.19829741369095"><ele>365.33333333333337</ele><time>2026-03-22T14:20:05.001Z</time></trkpt><trkpt lat="45.60292928011442" lon="8.198282212055451"><ele>365.0</ele><time>2026-03-22T14:20:08.001Z</time></trkpt><trkpt lat="45.60285966265403" lon="8.198271930625406"><ele>364.0</ele><time>2026-03-22T14:20:09.001Z</time></trkpt><trkpt lat="45.602778745329495" lon="8.19828995566767"><ele>363.0</ele><time>2026-03-22T14:20:10.001Z</time></trkpt><trkpt lat="45.60268383008489" lon="8.198319340713498"><ele>362.0</ele><time>2026-03-22T14:20:11.001Z</time></trkpt><trkpt lat="45.60260458077333" lon="8.19834832553195"><ele>361.0</ele><time>2026-03-22T14:20:12Z</time></trkpt><trkpt lat="45.60252205147371" lon="8.198435596525632"><ele>360.0</ele><time>2026-03-22T14:20:14Z</time></trkpt><trkpt lat="45.60243132078735" lon="8.19843766163661"><ele>360.0</ele><time>2026-03-22T14:20:16Z</time></trkpt><trkpt lat="45.60231994572243" lon="8.198433625680288"><ele>360.0</ele><time>2026-03-22T14:20:18Z</time></trkpt><trkpt lat="45.60223806510651" lon="8.198433550192805"><ele>360.0</ele><time>2026-03-22T14:20:20Z</time></trkpt><trkpt lat="45.602167062499994" lon="8.198401339433532"><ele>360.0</ele><time>2026-03-22T14:20:21Z</time></trkpt><trkpt lat="45.60208913623849" lon="8.19838684824902"><ele>360.0</ele><time>2026-03-22T14:20:23Z</time></trkpt><trkpt lat="45.60202282850761" lon="8.198339141504107"><ele>360.0</ele><time>2026-03-22T14:20:24Z</time></trkpt><trkpt lat="45.6019395922305" lon="8.1982927435717"><ele>360.0</ele><time>2026-03-22T14:20:25Z</time></trkpt><trkpt lat="45.601850918225836" lon="8.198222248816778"><ele>360.0</ele><time>2026-03-22T14:20:27Z</time></trkpt><trkpt lat="45.601656502943946" lon="8.198009095512548"><ele>360.0</ele><time>2026-03-22T14:20:30Z</time></trkpt><trkpt lat="45.601609332240095" lon="8.19793198007564"><ele>360.0</ele><time>2026-03-22T14:20:31Z</time></trkpt><trkpt lat="45.60153955532596" lon="8.197827875727043"><ele>360.0</ele><time>2026-03-22T14:20:33Z</time></trkpt><trkpt lat="45.60148404233601" lon="8.19778170303681"><ele>360.0</ele><time>2026-03-22T14:20:34Z</time></trkpt><trkpt lat="45.601422819634024" lon="8.1977336955723"><ele>360.0</ele><time>2026-03-22T14:20:35Z</time></trkpt><trkpt lat="45.60134733774644" lon="8.197684714675615"><ele>360.0</ele><time>2026-03-22T14:20:36Z</time></trkpt><trkpt lat="45.601283552493875" lon="8.19763586428405"><ele>360.0</ele><time>2026-03-22T14:20:37Z</time></trkpt><trkpt lat="45.60120874139046" lon="8.197599113776882"><ele>360.0</ele><time>2026-03-22T14:20:39Z</time></trkpt><trkpt lat="45.601133741015715" lon="8.197535875676994"><ele>358.6</ele><time>2026-03-22T14:20:44Z</time></trkpt><trkpt lat="45.60104509418696" lon="8.197502746956024"><ele>357.2</ele><time>2026-03-22T14:20:46Z</time></trkpt><trkpt lat="45.600941036808" lon="8.197415251062413"><ele>355.79999999999995</ele><time>2026-03-22T14:20:48Z</time></trkpt><trkpt lat="45.60086102746869" lon="8.19739016175347"><ele>354.4</ele><time>2026-03-22T14:20:49Z</time></trkpt><trkpt lat="45.60079153513651" lon="8.197327266740634"><ele>353.0</ele><time>2026-03-22T14:20:50Z</time></trkpt><trkpt lat="45.60072071177732" lon="8.197259806465697"><ele>353.0</ele><time>2026-03-22T14:20:51Z</time></trkpt><trkpt lat="45.60064645069158" lon="8.197153685050022"><ele>353.0</ele><time>2026-03-22T14:20:53Z</time></trkpt><trkpt lat="45.6005841443832" lon="8.197062508138245"><ele>353.0</ele><time>2026-03-22T14:20:55Z</time></trkpt><trkpt lat="45.60049739858739" lon="8.19697387764123"><ele>353.0</ele><time>2026-03-22T14:20:57Z</time></trkpt><trkpt lat="45.60039888716381" lon="8.196975346620327"><ele>353.0</ele><time>2026-03-22T14:20:59Z</time></trkpt><trkpt lat="45.600338164688516" lon="8.196858874081032"><ele>353.0</ele><time>2026-03-22T14:21:01Z</time></trkpt><trkpt lat="45.60035716861464" lon="8.196723593228679"><ele>353.0</ele><time>2026-03-22T14:21:03Z</time></trkpt><trkpt lat="45.60040393563171" lon="8.196583979949871"><ele>353.0</ele><time>2026-03-22T14:21:04.999Z</time></trkpt><trkpt lat="45.600465367490344" lon="8.196644179088679"><ele>353.0</ele><time>2026-03-22T14:21:07.999Z</time></trkpt><trkpt lat="45.6005410420715" lon="8.196762894218459"><ele>353.0</ele><time>2026-03-22T14:21:10.999Z</time></trkpt><trkpt lat="45.60059345472121" lon="8.196706347700548"><ele>353.0</ele><time>2026-03-22T14:21:14.999Z</time></trkpt><trkpt lat="45.60067154477927" lon="8.196665285601984"><ele>353.0</ele><time>2026-03-22T14:21:16.999Z</time></trkpt><trkpt lat="45.60072175014768" lon="8.196548034714155"><ele>353.0</ele><time>2026-03-22T14:21:19.999Z</time></trkpt><trkpt lat="45.60079177119137" lon="8.196532552080674"><ele>353.0</ele><time>2026-03-22T14:21:21.999Z</time></trkpt><trkpt lat="45.60080655825318" lon="8.196624066454273"><ele>353.0</ele><time>2026-03-22T14:21:23.999Z</time></trkpt><trkpt lat="45.60088870951916" lon="8.196666913600586"><ele>353.0</ele><time>2026-03-22T14:21:25.999Z</time></trkpt><trkpt lat="45.60098957379298" lon="8.196663332757845"><ele>353.0</ele><time>2026-03-22T14:21:27.999Z</time></trkpt><trkpt lat="45.60106496714073" lon="8.19665548477886"><ele>353.0</ele><time>2026-03-22T14:21:29.999Z</time></trkpt><trkpt lat="45.60112486593847" lon="8.196599487076908"><ele>353.0</ele><time>2026-03-22T14:21:31.999Z</time></trkpt><trkpt lat="45.601187226866465" lon="8.196567014472262"><ele>353.0</ele><time>2026-03-22T14:21:33.999Z</time></trkpt><trkpt lat="45.60124042883186" lon="8.196430149130633"><ele>353.0</ele><time>2026-03-22T14:21:37.999Z</time></trkpt><trkpt lat="45.6012914001527" lon="8.196359798938909"><ele>353.0</ele><time>2026-03-22T14:21:39.999Z</time></trkpt><trkpt lat="45.60135508220706" lon="8.196302661128675"><ele>358.5</ele><time>2026-03-22T14:21:41.999Z</time></trkpt><trkpt lat="45.60138870136613" lon="8.196216516187182"><ele>364.0</ele><time>2026-03-22T14:21:42.999Z</time></trkpt><trkpt lat="45.60155447346364" lon="8.195951348467485"><ele>369.5</ele><time>2026-03-22T14:21:45.999Z</time></trkpt><trkpt lat="45.60160198517062" lon="8.195843136563221"><ele>375.0</ele><time>2026-03-22T14:21:46.999Z</time></trkpt><trkpt lat="45.601668682393765" lon="8.195725850678503"><ele>374.4</ele><time>2026-03-22T14:21:47.999Z</time></trkpt><trkpt lat="45.60173466711799" lon="8.19563168009439"><ele>373.8</ele><time>2026-03-22T14:21:48.999Z</time></trkpt><trkpt lat="45.60179506563903" lon="8.19558957466376"><ele>373.20000000000005</ele><time>2026-03-22T14:21:49.999Z</time></trkpt><trkpt lat="45.60191697717836" lon="8.195558165500765"><ele>372.6</ele><time>2026-03-22T14:21:51.999Z</time></trkpt><trkpt lat="45.60203265420556" lon="8.195544122393892"><ele>372.0</ele><time>2026-03-22T14:21:53.999Z</time></trkpt><trkpt lat="45.60209496467744" lon="8.195513188092297"><ele>376.20000000000005</ele><time>2026-03-22T14:21:54.999Z</time></trkpt><trkpt lat="45.6021714470021" lon="8.19546163245982"><ele>380.4</ele><time>2026-03-22T14:21:56.999Z</time></trkpt><trkpt lat="45.60221851038484" lon="8.19533688090714"><ele>384.6</ele><time>2026-03-22T14:22:14.001Z</time></trkpt><trkpt lat="45.60228211226665" lon="8.195271845049561"><ele>388.79999999999995</ele><time>2026-03-22T14:22:15Z</time></trkpt><trkpt lat="45.602357000972184" lon="8.195192737494605"><ele>393.0</ele><time>2026-03-22T14:22:16Z</time></trkpt><trkpt lat="45.602439504652" lon="8.195110543345367"><ele>393.0</ele><time>2026-03-22T14:22:17Z</time></trkpt><trkpt lat="45.602498864464124" lon="8.195033176010522"><ele>393.0</ele><time>2026-03-22T14:22:18Z</time></trkpt><trkpt lat="45.60256368085271" lon="8.194959048216639"><ele>393.0</ele><time>2026-03-22T14:22:19Z</time></trkpt><trkpt lat="45.60265119452523" lon="8.194976076422481"><ele>393.0</ele><time>2026-03-22T14:22:21Z</time></trkpt><trkpt lat="45.60272755144064" lon="8.19500350817345"><ele>393.0</ele><time>2026-03-22T14:22:22Z</time></trkpt><trkpt lat="45.60281603833373" lon="8.195013511232194"><ele>393.0</ele><time>2026-03-22T14:22:23Z</time></trkpt><trkpt lat="45.60292778964091" lon="8.194997310138309"><ele>394.0</ele><time>2026-03-22T14:22:24Z</time></trkpt><trkpt lat="45.60303927329127" lon="8.194980556111291"><ele>395.0</ele><time>2026-03-22T14:22:25Z</time></trkpt><trkpt lat="45.60314099290079" lon="8.194976801301237"><ele>396.0</ele><time>2026-03-22T14:22:26Z</time></trkpt><trkpt lat="45.60323348375005" lon="8.195001212818918"><ele>397.0</ele><time>2026-03-22T14:22:27Z</time></trkpt><trkpt lat="45.60332059421376" lon="8.195036346765148"><ele>398.0</ele><time>2026-03-22T14:22:28Z</time></trkpt><trkpt lat="45.60338396228509" lon="8.195066595874657"><ele>397.99999999999994</ele><time>2026-03-22T14:22:29Z</time></trkpt><trkpt lat="45.6034549624494" lon="8.194997508448175"><ele>398.0</ele><time>2026-03-22T14:22:31Z</time></trkpt><trkpt lat="45.60349602018385" lon="8.194909617068555"><ele>398.0</ele><time>2026-03-22T14:22:45Z</time></trkpt><trkpt lat="45.60354309003319" lon="8.194822536211836"><ele>398.0</ele><time>2026-03-22T14:22:46Z</time></trkpt><trkpt lat="45.603577737202144" lon="8.1947366669394"><ele>397.99999999999994</ele><time>2026-03-22T14:22:47Z</time></trkpt><trkpt lat="45.603614516038355" lon="8.194659504762063"><ele>398.0</ele><time>2026-03-22T14:22:48Z</time></trkpt><trkpt lat="45.60367577951486" lon="8.194570536170849"><ele>397.59999999999997</ele><time>2026-03-22T14:22:49Z</time></trkpt><trkpt lat="45.603752606384795" lon="8.194485960675607"><ele>397.2</ele><time>2026-03-22T14:22:50Z</time></trkpt><trkpt lat="45.603837784815234" lon="8.194421643707907"><ele>396.8</ele><time>2026-03-22T14:22:51Z</time></trkpt><trkpt lat="45.60390742433708" lon="8.19436027634278"><ele>396.4</ele><time>2026-03-22T14:22:52Z</time></trkpt><trkpt lat="45.60396758875301" lon="8.194320303370688"><ele>396.0</ele><time>2026-03-22T14:22:53Z</time></trkpt><trkpt lat="45.60408141044492" lon="8.194220697552439"><ele>396.0</ele><time>2026-03-22T14:22:55Z</time></trkpt><trkpt lat="45.604149193736156" lon="8.194111571910272"><ele>396.0</ele><time>2026-03-22T14:22:57Z</time></trkpt><trkpt lat="45.60415728158061" lon="8.194019447991158"><ele>396.0</ele><time>2026-03-22T14:22:59Z</time></trkpt><trkpt lat="45.604227765246414" lon="8.193897607310575"><ele>396.0</ele><time>2026-03-22T14:23:01Z</time></trkpt><trkpt lat="45.6043007177277" lon="8.193825766581252"><ele>396.0</ele><time>2026-03-22T14:23:03Z</time></trkpt><trkpt lat="45.6044425510884" lon="8.193666185844735"><ele>395.5</ele><time>2026-03-22T14:23:06.999Z</time></trkpt><trkpt lat="45.604498716543716" lon="8.193600701322577"><ele>395.0</ele><time>2026-03-22T14:23:07.999Z</time></trkpt><trkpt lat="45.60455643555251" lon="8.19353170386023"><ele>394.5</ele><time>2026-03-22T14:23:08.999Z</time></trkpt><trkpt lat="45.60462548398946" lon="8.193454189973442"><ele>394.0</ele><time>2026-03-22T14:23:09.999Z</time></trkpt><trkpt lat="45.6046947213659" lon="8.1933835819457"><ele>393.5</ele><time>2026-03-22T14:23:10.999Z</time></trkpt><trkpt lat="45.604784826877236" lon="8.193318409055896"><ele>393.0</ele><time>2026-03-22T14:23:11.999Z</time></trkpt><trkpt lat="45.60487342366638" lon="8.19327338599131"><ele>393.0</ele><time>2026-03-22T14:23:12.999Z</time></trkpt><trkpt lat="45.60495701520536" lon="8.193240292280079"><ele>393.0</ele><time>2026-03-22T14:23:13.999Z</time></trkpt><trkpt lat="45.605032524754925" lon="8.193216535861515"><ele>393.0</ele><time>2026-03-22T14:23:14.999Z</time></trkpt><trkpt lat="45.60511860034879" lon="8.193186560892443"><ele>393.0</ele><time>2026-03-22T14:23:16.999Z</time></trkpt><trkpt lat="45.60519326968051" lon="8.193186560024929"><ele>393.0</ele><time>2026-03-22T14:23:19.999Z</time></trkpt><trkpt lat="45.605266223815455" lon="8.193196037917927"><ele>393.0</ele><time>2026-03-22T14:23:21.999Z</time></trkpt><trkpt lat="45.60533737032436" lon="8.193181212297715"><ele>393.0</ele><time>2026-03-22T14:23:59.998Z</time></trkpt><trkpt lat="45.60533456324844" lon="8.193311624102787"><ele>393.0</ele><time>2026-03-22T14:24:01.998Z</time></trkpt><trkpt lat="45.605322787935584" lon="8.193461993883286"><ele>393.0</ele><time>2026-03-22T14:24:03.998Z</time></trkpt><trkpt lat="45.60531671543523" lon="8.193556356890179"><ele>393.0</ele><time>2026-03-22T14:24:04.998Z</time></trkpt><trkpt lat="45.605307886651026" lon="8.19372273581016"><ele>393.0</ele><time>2026-03-22T14:24:06.998Z</time></trkpt><trkpt lat="45.60529815374354" lon="8.193878910240159"><ele>393.0</ele><time>2026-03-22T14:24:08.998Z</time></trkpt><trkpt lat="45.60527279372857" lon="8.193972960136163"><ele>393.0</ele><time>2026-03-22T14:24:13Z</time></trkpt><trkpt lat="45.605248899711505" lon="8.194072913457681"><ele>393.0</ele><time>2026-03-22T14:24:50Z</time></trkpt><trkpt lat="45.60527605985068" lon="8.193961906182036"><ele>393.0</ele><time>2026-03-22T14:24:54Z</time></trkpt><trkpt lat="45.605274232835015" lon="8.193828259570154"><ele>393.0</ele><time>2026-03-22T14:24:56Z</time></trkpt><trkpt lat="45.605296538170165" lon="8.193694872767047"><ele>393.0</ele><time>2026-03-22T14:24:58Z</time></trkpt><trkpt lat="45.60530109067135" lon="8.193570569540636"><ele>393.0</ele><time>2026-03-22T14:25:00Z</time></trkpt><trkpt lat="45.60531552774734" lon="8.193454007371667"><ele>393.0</ele><time>2026-03-22T14:25:01.999Z</time></trkpt><trkpt lat="45.6053345745395" lon="8.193356169042701"><ele>393.0</ele><time>2026-03-22T14:25:03.999Z</time></trkpt><trkpt lat="45.605362280878786" lon="8.193266576357436"><ele>393.0</ele><time>2026-03-22T14:25:05.999Z</time></trkpt><trkpt lat="45.60530568231601" lon="8.193136001286051"><ele>393.0</ele><time>2026-03-22T14:26:46Z</time></trkpt><trkpt lat="45.60521406894354" lon="8.193131290257577"><ele>393.0</ele><time>2026-03-22T14:26:48Z</time></trkpt><trkpt lat="45.6051458148851" lon="8.193143651512715"><ele>393.0</ele><time>2026-03-22T14:26:49Z</time></trkpt><trkpt lat="45.605079174141586" lon="8.193157294593117"><ele>393.0</ele><time>2026-03-22T14:26:50Z</time></trkpt><trkpt lat="45.60496079758114" lon="8.193235441288953"><ele>393.0</ele><time>2026-03-22T14:26:52Z</time></trkpt><trkpt lat="45.60485060017379" lon="8.193277019683586"><ele>393.0</ele><time>2026-03-22T14:26:54Z</time></trkpt><trkpt lat="45.60478648968319" lon="8.193313802752911"><ele>393.0</ele><time>2026-03-22T14:26:55Z</time></trkpt><trkpt lat="45.60472033396207" lon="8.193357804739046"><ele>393.0</ele><time>2026-03-22T14:26:56Z</time></trkpt><trkpt lat="45.60464442520715" lon="8.19342803162222"><ele>393.0</ele><time>2026-03-22T14:26:57Z</time></trkpt><trkpt lat="45.604553885102035" lon="8.193534020495765"><ele>393.0</ele><time>2026-03-22T14:26:58Z</time></trkpt><trkpt lat="45.6044700244059" lon="8.193630593346368"><ele>393.0</ele><time>2026-03-22T14:26:58.999Z</time></trkpt><trkpt lat="45.60437079578152" lon="8.193721759749362"><ele>393.0</ele><time>2026-03-22T14:26:59.999Z</time></trkpt><trkpt lat="45.604279781968906" lon="8.193775968683498"><ele>392.6666666666667</ele><time>2026-03-22T14:27:00.999Z</time></trkpt><trkpt lat="45.604203627021235" lon="8.193853807772323"><ele>392.33333333333337</ele><time>2026-03-22T14:27:01.999Z</time></trkpt><trkpt lat="45.60414370404866" lon="8.193957700343454"><ele>392.0</ele><time>2026-03-22T14:27:02.999Z</time></trkpt><trkpt lat="45.6041121995062" lon="8.194039235465123"><ele>391.6666666666667</ele><time>2026-03-22T14:27:03.999Z</time></trkpt><trkpt lat="45.604100023782806" lon="8.194137705366613"><ele>391.33333333333337</ele><time>2026-03-22T14:27:04.999Z</time></trkpt><trkpt lat="45.60405076938938" lon="8.194224639940737"><ele>391.0</ele><time>2026-03-22T14:27:05.999Z</time></trkpt><trkpt lat="45.60398423350381" lon="8.194288317096921"><ele>391.83333333333337</ele><time>2026-03-22T14:27:06.999Z</time></trkpt><trkpt lat="45.60389756241991" lon="8.194324952831545"><ele>392.6666666666667</ele><time>2026-03-22T14:27:07.999Z</time></trkpt><trkpt lat="45.60383006392504" lon="8.194390316710841"><ele>393.5</ele><time>2026-03-22T14:27:08.999Z</time></trkpt><trkpt lat="45.60375922057663" lon="8.194474347117957"><ele>394.33333333333337</ele><time>2026-03-22T14:27:09.999Z</time></trkpt><trkpt lat="45.603686341192706" lon="8.194547105774033"><ele>395.1666666666667</ele><time>2026-03-22T14:27:10.999Z</time></trkpt><trkpt lat="45.60361919409202" lon="8.19462065581902"><ele>396.0</ele><time>2026-03-22T14:27:11.999Z</time></trkpt><trkpt lat="45.6035518202264" lon="8.194716902602922"><ele>396.4</ele><time>2026-03-22T14:27:12.999Z</time></trkpt><trkpt lat="45.60350007048479" lon="8.194829938849196"><ele>396.8</ele><time>2026-03-22T14:27:13.999Z</time></trkpt><trkpt lat="45.60346927120605" lon="8.19492678831137"><ele>397.2</ele><time>2026-03-22T14:27:14.999Z</time></trkpt><trkpt lat="45.60336758191955" lon="8.195013350402053"><ele>397.59999999999997</ele><time>2026-03-22T14:27:16.999Z</time></trkpt><trkpt lat="45.60324671031779" lon="8.19499444326777"><ele>398.0</ele><time>2026-03-22T14:27:18.999Z</time></trkpt><trkpt lat="45.6031830716346" lon="8.194953015837216"><ele>397.99999999999994</ele><time>2026-03-22T14:27:19.999Z</time></trkpt><trkpt lat="45.603102139301555" lon="8.194926002981234"><ele>398.0</ele><time>2026-03-22T14:27:20.999Z</time></trkpt><trkpt lat="45.603014611841054" lon="8.194916613711964"><ele>398.0</ele><time>2026-03-22T14:27:21.999Z</time></trkpt><trkpt lat="45.60291565107443" lon="8.194938973009766"><ele>398.0</ele><time>2026-03-22T14:27:22.999Z</time></trkpt><trkpt lat="45.602830831094636" lon="8.19496240816065"><ele>397.99999999999994</ele><time>2026-03-22T14:27:23.999Z</time></trkpt><trkpt lat="45.602757696311805" lon="8.194987631663041"><ele>398.0</ele><time>2026-03-22T14:27:24.999Z</time></trkpt><trkpt lat="45.602693432948534" lon="8.195001928372076"><ele>396.75</ele><time>2026-03-22T14:27:25.999Z</time></trkpt><trkpt lat="45.60258430055206" lon="8.19494968853636"><ele>395.5</ele><time>2026-03-22T14:27:27.999Z</time></trkpt><trkpt lat="45.602472181194344" lon="8.194939485529853"><ele>394.25</ele><time>2026-03-22T14:27:29.999Z</time></trkpt><trkpt lat="45.60239760392685" lon="8.195051852184376"><ele>393.0</ele><time>2026-03-22T14:27:31.999Z</time></trkpt><trkpt lat="45.60231319769376" lon="8.195177290230694"><ele>393.0</ele><time>2026-03-22T14:27:33.999Z</time></trkpt><trkpt lat="45.6022400219423" lon="8.195238777038748"><ele>393.0</ele><time>2026-03-22T14:27:34.999Z</time></trkpt><trkpt lat="45.602170528330326" lon="8.195317359085227"><ele>393.0</ele><time>2026-03-22T14:27:35.999Z</time></trkpt><trkpt lat="45.602119612311206" lon="8.195392323561865"><ele>393.0</ele><time>2026-03-22T14:27:36.999Z</time></trkpt><trkpt lat="45.602016787471214" lon="8.195477787512031"><ele>393.0</ele><time>2026-03-22T14:27:38.999Z</time></trkpt><trkpt lat="45.60191318629898" lon="8.195523318969778"><ele>389.4</ele><time>2026-03-22T14:27:40.999Z</time></trkpt><trkpt lat="45.601841158888135" lon="8.195520978395349"><ele>385.79999999999995</ele><time>2026-03-22T14:27:41.999Z</time></trkpt><trkpt lat="45.601736965000796" lon="8.19549154071225"><ele>382.2</ele><time>2026-03-22T14:27:43.999Z</time></trkpt><trkpt lat="45.60164765383703" lon="8.195611701891591"><ele>378.6</ele><time>2026-03-22T14:27:45.999Z</time></trkpt><trkpt lat="45.60160740699735" lon="8.195711135417683"><ele>375.0</ele><time>2026-03-22T14:27:46.999Z</time></trkpt><trkpt lat="45.60154706507859" lon="8.195821937690129"><ele>375.0</ele><time>2026-03-22T14:27:47.999Z</time></trkpt><trkpt lat="45.60149874340498" lon="8.195933486993027"><ele>375.0</ele><time>2026-03-22T14:27:48.999Z</time></trkpt><trkpt lat="45.60146678397557" lon="8.196038049017957"><ele>375.0</ele><time>2026-03-22T14:27:49.999Z</time></trkpt><trkpt lat="45.601398278609985" lon="8.196127495275276"><ele>375.0</ele><time>2026-03-22T14:27:51.998Z</time></trkpt><trkpt lat="45.60134524275585" lon="8.196195801873197"><ele>375.0</ele><time>2026-03-22T14:27:53.998Z</time></trkpt><trkpt lat="45.60126661580706" lon="8.196323151984702"><ele>375.0</ele><time>2026-03-22T14:27:54.998Z</time></trkpt><trkpt lat="45.60123422606148" lon="8.196408163087995"><ele>375.0</ele><time>2026-03-22T14:27:56.998Z</time></trkpt><trkpt lat="45.601185755387775" lon="8.19647013047351"><ele>375.0</ele><time>2026-03-22T14:27:58.998Z</time></trkpt><trkpt lat="45.60111271666255" lon="8.196540167968095"><ele>375.0</ele><time>2026-03-22T14:28:01.998Z</time></trkpt><trkpt lat="45.60104655849764" lon="8.196559877113444"><ele>375.0</ele><time>2026-03-22T14:28:03.998Z</time></trkpt><trkpt lat="45.60097461038536" lon="8.196598510815003"><ele>375.0</ele><time>2026-03-22T14:28:05.998Z</time></trkpt><trkpt lat="45.60092336877523" lon="8.196532984564737"><ele>375.0</ele><time>2026-03-22T14:28:07.998Z</time></trkpt><trkpt lat="45.60088979881604" lon="8.196396109287681"><ele>372.0</ele><time>2026-03-22T14:28:09.998Z</time></trkpt><trkpt lat="45.600783179859775" lon="8.196406281118188"><ele>369.0</ele><time>2026-03-22T14:28:11.998Z</time></trkpt><trkpt lat="45.60073090505633" lon="8.196461688658086"><ele>366.0</ele><time>2026-03-22T14:28:12.998Z</time></trkpt><trkpt lat="45.600702612286426" lon="8.196557240508104"><ele>363.0</ele><time>2026-03-22T14:28:14.998Z</time></trkpt><trkpt lat="45.60062061622972" lon="8.196625506701425"><ele>360.0</ele><time>2026-03-22T14:28:16.998Z</time></trkpt><trkpt lat="45.60062640530101" lon="8.196736088192822"><ele>357.0</ele><time>2026-03-22T14:28:18.998Z</time></trkpt><trkpt lat="45.60055628956448" lon="8.196702850781678"><ele>356.20000000000005</ele><time>2026-03-22T14:28:20.998Z</time></trkpt><trkpt lat="45.600526488899334" lon="8.196620438256316"><ele>355.4</ele><time>2026-03-22T14:28:21.998Z</time></trkpt><trkpt lat="45.600448643944056" lon="8.196552309011782"><ele>354.6</ele><time>2026-03-22T14:28:24Z</time></trkpt><trkpt lat="45.6003494570793" lon="8.196531012149538"><ele>353.79999999999995</ele><time>2026-03-22T14:28:26Z</time></trkpt><trkpt lat="45.60031950993434" lon="8.196651564111852"><ele>353.0</ele><time>2026-03-22T14:28:28Z</time></trkpt><trkpt lat="45.600306868424894" lon="8.196806682016552"><ele>353.0</ele><time>2026-03-22T14:28:30Z</time></trkpt><trkpt lat="45.60032123145473" lon="8.196931123090602"><ele>353.0</ele><time>2026-03-22T14:28:32Z</time></trkpt><trkpt lat="45.60041239296821" lon="8.196979101979215"><ele>353.0</ele><time>2026-03-22T14:28:34Z</time></trkpt><trkpt lat="45.60047650423649" lon="8.196997885531225"><ele>353.0</ele><time>2026-03-22T14:28:35Z</time></trkpt><trkpt lat="45.60055868615768" lon="8.19710150352464"><ele>353.0</ele><time>2026-03-22T14:28:37Z</time></trkpt><trkpt lat="45.60063767266886" lon="8.197176189107902"><ele>353.0</ele><time>2026-03-22T14:28:39Z</time></trkpt><trkpt lat="45.6007241532314" lon="8.19730745406437"><ele>353.0</ele><time>2026-03-22T14:28:43Z</time></trkpt><trkpt lat="45.600780102279344" lon="8.197415195912056"><ele>353.0</ele><time>2026-03-22T14:28:44Z</time></trkpt><trkpt lat="45.6008350937246" lon="8.19748552605458"><ele>353.0</ele><time>2026-03-22T14:28:45Z</time></trkpt><trkpt lat="45.60089520582916" lon="8.197540652838157"><ele>353.0</ele><time>2026-03-22T14:28:46Z</time></trkpt><trkpt lat="45.60100508447347" lon="8.197594552051287"><ele>351.59999999999997</ele><time>2026-03-22T14:28:48Z</time></trkpt><trkpt lat="45.601084060192406" lon="8.197647315688629"><ele>350.2</ele><time>2026-03-22T14:28:50Z</time></trkpt><trkpt lat="45.601163722441626" lon="8.197685551170357"><ele>348.8</ele><time>2026-03-22T14:28:54Z</time></trkpt><trkpt lat="45.60128573788273" lon="8.197758864682887"><ele>347.4</ele><time>2026-03-22T14:28:57Z</time></trkpt><trkpt lat="45.601370094777025" lon="8.197822461858697"><ele>346.0</ele><time>2026-03-22T14:28:58Z</time></trkpt><trkpt lat="45.601477591751795" lon="8.1978615582278"><ele>347.5</ele><time>2026-03-22T14:28:59Z</time></trkpt><trkpt lat="45.601552327471886" lon="8.197894091447228"><ele>349.0</ele><time>2026-03-22T14:29:00Z</time></trkpt><trkpt lat="45.601636089533" lon="8.197985308180758"><ele>350.5</ele><time>2026-03-22T14:29:02Z</time></trkpt><trkpt lat="45.601674892006855" lon="8.198070065882176"><ele>352.0</ele><time>2026-03-22T14:29:02.999Z</time></trkpt><trkpt lat="45.601745007876616" lon="8.198153361883822"><ele>353.5</ele><time>2026-03-22T14:29:03.999Z</time></trkpt><trkpt lat="45.601806797839046" lon="8.198229104574255"><ele>355.0</ele><time>2026-03-22T14:29:04.999Z</time></trkpt><trkpt lat="45.60185551542697" lon="8.198312314739013"><ele>355.0</ele><time>2026-03-22T14:29:05.999Z</time></trkpt><trkpt lat="45.60193094586189" lon="8.198396692053125"><ele>355.0</ele><time>2026-03-22T14:29:07.999Z</time></trkpt><trkpt lat="45.602014364280876" lon="8.19843182575238"><ele>355.0</ele><time>2026-03-22T14:29:08.999Z</time></trkpt><trkpt lat="45.60207981603155" lon="8.198480556018906"><ele>355.0</ele><time>2026-03-22T14:29:09.999Z</time></trkpt><trkpt lat="45.60222340957413" lon="8.198491482626173"><ele>355.0</ele><time>2026-03-22T14:29:11.999Z</time></trkpt><trkpt lat="45.602294301922946" lon="8.198522589390619"><ele>355.8333333333333</ele><time>2026-03-22T14:29:12.999Z</time></trkpt><trkpt lat="45.60237555964484" lon="8.198521641462454"><ele>356.66666666666663</ele><time>2026-03-22T14:29:14.999Z</time></trkpt><trkpt lat="45.602437002121576" lon="8.19856436915709"><ele>357.5</ele><time>2026-03-22T14:29:15.999Z</time></trkpt><trkpt lat="45.60251320756227" lon="8.19850335610411"><ele>358.3333333333333</ele><time>2026-03-22T14:29:16.999Z</time></trkpt><trkpt lat="45.60256107416702" lon="8.198420363093385"><ele>359.1666666666667</ele><time>2026-03-22T14:29:17.999Z</time></trkpt><trkpt lat="45.602663644320444" lon="8.198373646783793"><ele>360.0</ele><time>2026-03-22T14:29:19.999Z</time></trkpt><trkpt lat="45.60275247399087" lon="8.198338583301211"><ele>361.0</ele><time>2026-03-22T14:29:20.999Z</time></trkpt><trkpt lat="45.60284751357878" lon="8.198314477870706"><ele>362.0</ele><time>2026-03-22T14:29:21.999Z</time></trkpt><trkpt lat="45.60291139413841" lon="8.198332039816398"><ele>363.0</ele><time>2026-03-22T14:29:22.999Z</time></trkpt><trkpt lat="45.6029965115914" lon="8.198432667884063"><ele>364.0</ele><time>2026-03-22T14:29:26.999Z</time></trkpt><trkpt lat="45.603098791487916" lon="8.198438775465998"><ele>365.0</ele><time>2026-03-22T14:29:28.999Z</time></trkpt><trkpt lat="45.603201146969674" lon="8.198426513914043"><ele>365.0</ele><time>2026-03-22T14:29:30.999Z</time></trkpt><trkpt lat="45.60328761813923" lon="8.198390772275015"><ele>365.0</ele><time>2026-03-22T14:29:33.999Z</time></trkpt><trkpt lat="45.603378807023745" lon="8.198409556529853"><ele>365.0</ele><time>2026-03-22T14:29:35.999Z</time></trkpt><trkpt lat="45.60345182764704" lon="8.198554540546892"><ele>365.0</ele><time>2026-03-22T14:29:37.999Z</time></trkpt><trkpt lat="45.60351486834365" lon="8.19862630064734"><ele>365.0</ele><time>2026-03-22T14:29:38.999Z</time></trkpt><trkpt lat="45.603547036295794" lon="8.198715228341374"><ele>365.0</ele><time>2026-03-22T14:29:42.999Z</time></trkpt><trkpt lat="45.603653415148926" lon="8.198618847117192"><ele>365.0</ele><time>2026-03-22T14:29:45.999Z</time></trkpt><trkpt lat="45.60373297178854" lon="8.198551732078618"><ele>365.0</ele><time>2026-03-22T14:29:46.999Z</time></trkpt><trkpt lat="45.603829865046485" lon="8.198547170590272"><ele>365.0</ele><time>2026-03-22T14:29:48.999Z</time></trkpt><trkpt lat="45.60389803768765" lon="8.1985114013443"><ele>365.0</ele><time>2026-03-22T14:29:50.999Z</time></trkpt><trkpt lat="45.60401480967839" lon="8.198643279157034"><ele>365.33333333333337</ele><time>2026-03-22T14:29:52.999Z</time></trkpt><trkpt lat="45.60405851677789" lon="8.198724181744621"><ele>365.6666666666667</ele><time>2026-03-22T14:29:53.999Z</time></trkpt><trkpt lat="45.60413574436231" lon="8.19878881623351"><ele>366.0</ele><time>2026-03-22T14:29:55.998Z</time></trkpt><trkpt lat="45.60419968885705" lon="8.19872692692137"><ele>366.3333333333333</ele><time>2026-03-22T14:29:57.998Z</time></trkpt><trkpt lat="45.60427963395486" lon="8.198745328293073"><ele>366.66666666666663</ele><time>2026-03-22T14:29:59.998Z</time></trkpt><trkpt lat="45.60435707302398" lon="8.198744608959554"><ele>367.0</ele><time>2026-03-22T14:30:00.998Z</time></trkpt><trkpt lat="45.6044335997098" lon="8.198816967629446"><ele>367.0</ele><time>2026-03-22T14:30:02.998Z</time></trkpt><trkpt lat="45.60446950328846" lon="8.198958637715824"><ele>367.0</ele><time>2026-03-22T14:30:03.998Z</time></trkpt><trkpt lat="45.604508699022794" lon="8.199065926606195"><ele>367.0</ele><time>2026-03-22T14:30:04.998Z</time></trkpt><trkpt lat="45.60454517625307" lon="8.19915186129639"><ele>367.0</ele><time>2026-03-22T14:30:05.998Z</time></trkpt><trkpt lat="45.604513121577725" lon="8.19925276900669"><ele>367.0</ele><time>2026-03-22T14:30:07.998Z</time></trkpt><trkpt lat="45.60454679567297" lon="8.199362635979053"><ele>367.0</ele><time>2026-03-22T14:30:09.998Z</time></trkpt><trkpt lat="45.604579322025636" lon="8.199461698105686"><ele>368.66666666666663</ele><time>2026-03-22T14:30:18.998Z</time></trkpt><trkpt lat="45.60464964472749" lon="8.199549939332762"><ele>370.3333333333333</ele><time>2026-03-22T14:30:20.998Z</time></trkpt><trkpt lat="45.604709954717976" lon="8.1996096640077"><ele>372.0</ele><time>2026-03-22T14:30:21.998Z</time></trkpt><trkpt lat="45.604781242349354" lon="8.199666555358187"><ele>373.6666666666667</ele><time>2026-03-22T14:30:22.998Z</time></trkpt><trkpt lat="45.60485843467517" lon="8.19969935659599"><ele>375.33333333333337</ele><time>2026-03-22T14:30:23.998Z</time></trkpt><trkpt lat="45.60492716990183" lon="8.199753456021707"><ele>377.0</ele><time>2026-03-22T14:30:24.998Z</time></trkpt><trkpt lat="45.60498453464186" lon="8.199806448555554"><ele>377.33333333333337</ele><time>2026-03-22T14:30:25.998Z</time></trkpt><trkpt lat="45.60504015790824" lon="8.199880381270354"><ele>377.6666666666667</ele><time>2026-03-22T14:30:26.998Z</time></trkpt><trkpt lat="45.60509026076692" lon="8.19998097136188"><ele>378.0</ele><time>2026-03-22T14:30:28Z</time></trkpt><trkpt lat="45.605134457446304" lon="8.200070043212072"><ele>378.3333333333333</ele><time>2026-03-22T14:30:29Z</time></trkpt><trkpt lat="45.60519724857134" lon="8.200141848265734"><ele>378.66666666666663</ele><time>2026-03-22T14:30:30Z</time></trkpt><trkpt lat="45.60526568499115" lon="8.200147590746761"><ele>379.0</ele><time>2026-03-22T14:30:31Z</time></trkpt><trkpt lat="45.60533418985095" lon="8.200104575484863"><ele>379.0</ele><time>2026-03-22T14:30:32Z</time></trkpt><trkpt lat="45.60537390543487" lon="8.200014452574894"><ele>379.0</ele><time>2026-03-22T14:30:37Z</time></trkpt><trkpt lat="45.605418241556166" lon="8.199877958882405"><ele>379.0</ele><time>2026-03-22T14:30:39Z</time></trkpt><trkpt lat="45.60546416721316" lon="8.199801696648631"><ele>379.0</ele><time>2026-03-22T14:30:41Z</time></trkpt><trkpt lat="45.60553093991647" lon="8.199751027474868"><ele>379.0</ele><time>2026-03-22T14:30:45Z</time></trkpt><trkpt lat="45.60559480775039" lon="8.199708234919044"><ele>379.0</ele><time>2026-03-22T14:30:47Z</time></trkpt><trkpt lat="45.60565873225753" lon="8.199614814991419"><ele>379.00000000000006</ele><time>2026-03-22T14:30:49Z</time></trkpt><trkpt lat="45.605719400248965" lon="8.199556379045072"><ele>379.0</ele><time>2026-03-22T14:30:51Z</time></trkpt><trkpt lat="45.60578617441492" lon="8.19955434064931"><ele>379.0</ele><time>2026-03-22T14:30:54Z</time></trkpt><trkpt lat="45.60586189613333" lon="8.19952820959111"><ele>379.0</ele><time>2026-03-22T14:30:56Z</time></trkpt><trkpt lat="45.60591432802707" lon="8.199620808919754"><ele>379.0</ele><time>2026-03-22T14:30:59Z</time></trkpt><trkpt lat="45.60587421494063" lon="8.199694958304711"><ele>379.00000000000006</ele><time>2026-03-22T14:31:02Z</time></trkpt><trkpt lat="45.6059023942337" lon="8.199781808426634"><ele>379.0</ele><time>2026-03-22T14:31:09Z</time></trkpt><trkpt lat="45.60597426561373" lon="8.199805525213025"><ele>379.00000000000006</ele><time>2026-03-22T14:31:25.999Z</time></trkpt><trkpt lat="45.606048579737894" lon="8.199765857887817"><ele>379.0</ele><time>2026-03-22T14:31:31.999Z</time></trkpt><trkpt lat="45.60611629292624" lon="8.199699419591237"><ele>379.0</ele><time>2026-03-22T14:31:34.999Z</time></trkpt><trkpt lat="45.606166030763376" lon="8.199643549524794"><ele>379.0</ele><time>2026-03-22T14:31:37.999Z</time></trkpt><trkpt lat="45.60619505107516" lon="8.19954384585317"><ele>379.0</ele><time>2026-03-22T14:31:40.999Z</time></trkpt><trkpt lat="45.60626036897687" lon="8.199553743182753"><ele>379.00000000000006</ele><time>2026-03-22T14:31:44.999Z</time></trkpt><trkpt lat="45.60631085988203" lon="8.199495378967631"><ele>379.0</ele><time>2026-03-22T14:31:47.999Z</time></trkpt><trkpt lat="45.6063751645992" lon="8.199468357277713"><ele>377.3333333333333</ele><time>2026-03-22T14:31:55.999Z</time></trkpt><trkpt lat="45.60645697311537" lon="8.199466977882219"><ele>375.66666666666663</ele><time>2026-03-22T14:32:03.998Z</time></trkpt><trkpt lat="45.606524985537455" lon="8.1995357341577"><ele>374.0</ele><time>2026-03-22T14:32:05.998Z</time></trkpt><trkpt lat="45.60663479006654" lon="8.19947463431468"><ele>372.3333333333333</ele><time>2026-03-22T14:32:07.998Z</time></trkpt><trkpt lat="45.60669950762945" lon="8.19940619993296"><ele>370.6666666666667</ele><time>2026-03-22T14:32:08.998Z</time></trkpt><trkpt lat="45.60675349663233" lon="8.199354888763363"><ele>369.0</ele><time>2026-03-22T14:32:11.998Z</time></trkpt><trkpt lat="45.606820068048606" lon="8.199352372010368"><ele>369.0</ele><time>2026-03-22T14:32:20.998Z</time></trkpt><trkpt lat="45.60693203789294" lon="8.199376562247082"><ele>369.0</ele><time>2026-03-22T14:32:23.998Z</time></trkpt><trkpt lat="45.60701000487837" lon="8.199407814815917"><ele>369.0</ele><time>2026-03-22T14:32:25.998Z</time></trkpt><trkpt lat="45.60709368728543" lon="8.19939766068613"><ele>369.0</ele><time>2026-03-22T14:32:27.998Z</time></trkpt><trkpt lat="45.60716464831678" lon="8.199358022337728"><ele>369.0</ele><time>2026-03-22T14:32:28.998Z</time></trkpt><trkpt lat="45.6072443546521" lon="8.199323888065638"><ele>369.0</ele><time>2026-03-22T14:32:29.998Z</time></trkpt><trkpt lat="45.607313048957245" lon="8.199286066174514"><ele>367.1666666666667</ele><time>2026-03-22T14:32:30.998Z</time></trkpt><trkpt lat="45.607378534824285" lon="8.199263012589432"><ele>365.3333333333333</ele><time>2026-03-22T14:32:31.998Z</time></trkpt><trkpt lat="45.60743642523348" lon="8.199222735232816"><ele>363.5</ele><time>2026-03-22T14:32:32.998Z</time></trkpt><trkpt lat="45.60753063349281" lon="8.199214562055241"><ele>361.66666666666663</ele><time>2026-03-22T14:32:35Z</time></trkpt><trkpt lat="45.60759503974202" lon="8.199210376013022"><ele>359.8333333333333</ele><time>2026-03-22T14:32:36Z</time></trkpt><trkpt lat="45.607672729904095" lon="8.199196531804542"><ele>358.0</ele><time>2026-03-22T14:32:37Z</time></trkpt><trkpt lat="45.607761492028445" lon="8.19922481979975"><ele>358.0</ele><time>2026-03-22T14:32:39Z</time></trkpt><trkpt lat="45.607804819615346" lon="8.19932280564233"><ele>358.0</ele><time>2026-03-22T14:32:41Z</time></trkpt><trkpt lat="45.607836375457495" lon="8.199417504066819"><ele>358.0</ele><time>2026-03-22T14:32:43Z</time></trkpt><trkpt lat="45.60787963925135" lon="8.199543789822378"><ele>358.0</ele><time>2026-03-22T14:32:45Z</time></trkpt><trkpt lat="45.607950289943936" lon="8.199572566664576"><ele>358.0</ele><time>2026-03-22T14:32:49Z</time></trkpt><trkpt lat="45.60801921301936" lon="8.199614751982272"><ele>358.0</ele><time>2026-03-22T14:32:52Z</time></trkpt><trkpt lat="45.60804204260052" lon="8.199722738824972"><ele>359.0</ele><time>2026-03-22T14:32:56Z</time></trkpt><trkpt lat="45.608120137228475" lon="8.199764858490454"><ele>360.0</ele><time>2026-03-22T14:32:58Z</time></trkpt><trkpt lat="45.60814313145696" lon="8.199881187833045"><ele>361.0</ele><time>2026-03-22T14:33:00Z</time></trkpt><trkpt lat="45.6081919375582" lon="8.199973244975263"><ele>362.0</ele><time>2026-03-22T14:33:02Z</time></trkpt><trkpt lat="45.608282268404544" lon="8.200059639218294"><ele>363.0</ele><time>2026-03-22T14:33:04Z</time></trkpt><trkpt lat="45.60830187161254" lon="8.200173543492769"><ele>364.0</ele><time>2026-03-22T14:33:06Z</time></trkpt><trkpt lat="45.6082979111401" lon="8.200278421449585"><ele>361.66666666666663</ele><time>2026-03-22T14:33:10Z</time></trkpt><trkpt lat="45.608270350571104" lon="8.200372831134292"><ele>359.3333333333333</ele><time>2026-03-22T14:33:15.999Z</time></trkpt><trkpt lat="45.60830027184795" lon="8.200459490097055"><ele>357.0</ele><time>2026-03-22T14:33:17.999Z</time></trkpt><trkpt lat="45.60838094639514" lon="8.200563531179597"><ele>354.6666666666667</ele><time>2026-03-22T14:33:19.999Z</time></trkpt><trkpt lat="45.608444773806006" lon="8.200603272401816"><ele>352.33333333333337</ele><time>2026-03-22T14:33:20.999Z</time></trkpt><trkpt lat="45.60850704852745" lon="8.200692254160401"><ele>350.0</ele><time>2026-03-22T14:33:22.999Z</time></trkpt><trkpt lat="45.60856550740931" lon="8.200751368263088"><ele>349.5</ele><time>2026-03-22T14:33:23.999Z</time></trkpt><trkpt lat="45.60862448833443" lon="8.200837215586633"><ele>349.0</ele><time>2026-03-22T14:33:24.999Z</time></trkpt><trkpt lat="45.608679871530754" lon="8.200928110975703"><ele>348.5</ele><time>2026-03-22T14:33:25.999Z</time></trkpt><trkpt lat="45.608737714287706" lon="8.201021973853178"><ele>348.0</ele><time>2026-03-22T14:33:26.999Z</time></trkpt><trkpt lat="45.60879630411408" lon="8.201078714497488"><ele>347.5</ele><time>2026-03-22T14:33:27.999Z</time></trkpt><trkpt lat="45.608863071215076" lon="8.201111578878237"><ele>347.0</ele><time>2026-03-22T14:33:28.999Z</time></trkpt><trkpt lat="45.6089715422669" lon="8.201140312647833"><ele>347.0</ele><time>2026-03-22T14:33:30.999Z</time></trkpt><trkpt lat="45.60903780508074" lon="8.201138865375322"><ele>347.0</ele><time>2026-03-22T14:33:31.999Z</time></trkpt><trkpt lat="45.609028787579575" lon="8.200966817395129"><ele>347.0</ele><time>2026-03-22T14:33:37.999Z</time></trkpt><trkpt lat="45.60900338396154" lon="8.200850816396802"><ele>347.0</ele><time>2026-03-22T14:33:38.999Z</time></trkpt><trkpt lat="45.608970793147655" lon="8.200744237517947"><ele>347.0</ele><time>2026-03-22T14:33:39.999Z</time></trkpt><trkpt lat="45.60894664859195" lon="8.200626801800581"><ele>347.0</ele><time>2026-03-22T14:33:40.999Z</time></trkpt><trkpt lat="45.60891126730652" lon="8.200505754044906"><ele>350.0</ele><time>2026-03-22T14:33:41.999Z</time></trkpt><trkpt lat="45.608882856790515" lon="8.20035994813026"><ele>353.0</ele><time>2026-03-22T14:33:43.999Z</time></trkpt><trkpt lat="45.60889635948206" lon="8.200207512523585"><ele>356.0</ele><time>2026-03-22T14:33:45.999Z</time></trkpt><trkpt lat="45.6089518639773" lon="8.200068851956704"><ele>359.0</ele><time>2026-03-22T14:33:47.999Z</time></trkpt><trkpt lat="45.608985442516975" lon="8.1999838209638"><ele>362.0</ele><time>2026-03-22T14:33:48.999Z</time></trkpt><trkpt lat="45.609003756306265" lon="8.199867892169706"><ele>363.6666666666667</ele><time>2026-03-22T14:33:49.999Z</time></trkpt><trkpt lat="45.60900441720329" lon="8.199748298445009"><ele>365.33333333333337</ele><time>2026-03-22T14:33:50.999Z</time></trkpt><trkpt lat="45.60906121839005" lon="8.199624312388957"><ele>367.0</ele><time>2026-03-22T14:33:52.999Z</time></trkpt><trkpt lat="45.60909407237758" lon="8.199509338177446"><ele>368.6666666666667</ele><time>2026-03-22T14:33:53.999Z</time></trkpt><trkpt lat="45.60916950602984" lon="8.1995188601911"><ele>370.3333333333333</ele><time>2026-03-22T14:33:56.999Z</time></trkpt><trkpt lat="45.60914936303428" lon="8.199606622539505"><ele>372.0</ele><time>2026-03-22T14:33:57.999Z</time></trkpt><trkpt lat="45.60910179027601" lon="8.199704075393257"><ele>372.0</ele><time>2026-03-22T14:33:59.999Z</time></trkpt><trkpt lat="45.60909561216156" lon="8.199806463001384"><ele>372.0</ele><time>2026-03-22T14:34:00.999Z</time></trkpt><trkpt lat="45.60910726676092" lon="8.19991708430049"><ele>372.0</ele><time>2026-03-22T14:34:01.999Z</time></trkpt><trkpt lat="45.609133406457694" lon="8.20004809230368"><ele>372.0</ele><time>2026-03-22T14:34:02.998Z</time></trkpt><trkpt lat="45.60915011318966" lon="8.200167707769403"><ele>372.0</ele><time>2026-03-22T14:34:03.998Z</time></trkpt><trkpt lat="45.60919228540333" lon="8.200258393202345"><ele>372.0</ele><time>2026-03-22T14:34:04.998Z</time></trkpt><trkpt lat="45.60924633479202" lon="8.200329454830257"><ele>372.0</ele><time>2026-03-22T14:34:05.998Z</time></trkpt><trkpt lat="45.60930233917995" lon="8.200393485676136"><ele>372.0</ele><time>2026-03-22T14:34:06.998Z</time></trkpt><trkpt lat="45.60943516835485" lon="8.2004046775675"><ele>372.0</ele><time>2026-03-22T14:34:08.998Z</time></trkpt><trkpt lat="45.609495808567864" lon="8.200327520294481"><ele>372.0</ele><time>2026-03-22T14:34:09.998Z</time></trkpt><trkpt lat="45.60950170380157" lon="8.200218177255032"><ele>372.0</ele><time>2026-03-22T14:34:10.998Z</time></trkpt><trkpt lat="45.60945365099834" lon="8.200097849129879"><ele>372.0</ele><time>2026-03-22T14:34:11.998Z</time></trkpt><trkpt lat="45.609461074399796" lon="8.19994752841922"><ele>372.0</ele><time>2026-03-22T14:34:13.998Z</time></trkpt><trkpt lat="45.60951266978411" lon="8.19988644823301"><ele>372.0</ele><time>2026-03-22T14:34:14.998Z</time></trkpt><trkpt lat="45.609589794879795" lon="8.199738043014356"><ele>372.0</ele><time>2026-03-22T14:34:16.998Z</time></trkpt><trkpt lat="45.60963444102741" lon="8.19965788472538"><ele>372.0</ele><time>2026-03-22T14:34:17.998Z</time></trkpt><trkpt lat="45.6096444716206" lon="8.19955978650539"><ele>372.0</ele><time>2026-03-22T14:34:18.998Z</time></trkpt><trkpt lat="45.6096367786126" lon="8.199452626729373"><ele>374.40000000000003</ele><time>2026-03-22T14:34:19.998Z</time></trkpt><trkpt lat="45.60968204161206" lon="8.1993539748548"><ele>376.8</ele><time>2026-03-22T14:34:20.998Z</time></trkpt><trkpt lat="45.60972115902254" lon="8.199241736246794"><ele>379.2</ele><time>2026-03-22T14:34:21.998Z</time></trkpt><trkpt lat="45.6097613621965" lon="8.199095462245653"><ele>381.6</ele><time>2026-03-22T14:34:22.998Z</time></trkpt><trkpt lat="45.60978793709264" lon="8.198934198699837"><ele>384.0</ele><time>2026-03-22T14:34:23.998Z</time></trkpt><trkpt lat="45.60981092142638" lon="8.198793628188861"><ele>386.0</ele><time>2026-03-22T14:34:25.998Z</time></trkpt><trkpt lat="45.60993892566695" lon="8.198715279689191"><ele>388.0</ele><time>2026-03-22T14:34:27.998Z</time></trkpt><trkpt lat="45.61001585858576" lon="8.198670100374033"><ele>390.0</ele><time>2026-03-22T14:34:28.998Z</time></trkpt><trkpt lat="45.61013265410144" lon="8.19862128017656"><ele>392.0</ele><time>2026-03-22T14:34:30.998Z</time></trkpt><trkpt lat="45.610242146114345" lon="8.198622292250809"><ele>394.20000000000005</ele><time>2026-03-22T14:34:31.998Z</time></trkpt><trkpt lat="45.61034066299863" lon="8.1985507549266"><ele>396.4</ele><time>2026-03-22T14:34:32.998Z</time></trkpt><trkpt lat="45.61043493537195" lon="8.198487573099962"><ele>398.6</ele><time>2026-03-22T14:34:33.998Z</time></trkpt><trkpt lat="45.61051700809026" lon="8.198446168428282"><ele>400.79999999999995</ele><time>2026-03-22T14:34:34.998Z</time></trkpt><trkpt lat="45.610591222663516" lon="8.198364431860941"><ele>403.0</ele><time>2026-03-22T14:34:35.998Z</time></trkpt><trkpt lat="45.610686177257264" lon="8.198262554213612"><ele>403.00000000000006</ele><time>2026-03-22T14:34:36.998Z</time></trkpt><trkpt lat="45.61074211999985" lon="8.198198387960707"><ele>403.0</ele><time>2026-03-22T14:34:37.998Z</time></trkpt><trkpt lat="45.610836720522414" lon="8.198183470356685"><ele>403.0</ele><time>2026-03-22T14:34:40Z</time></trkpt><trkpt lat="45.61094810803081" lon="8.198244944646236"><ele>403.0</ele><time>2026-03-22T14:34:42Z</time></trkpt><trkpt lat="45.611008482882156" lon="8.198277891918622"><ele>403.00000000000006</ele><time>2026-03-22T14:34:43Z</time></trkpt><trkpt lat="45.61110502314894" lon="8.198255448278521"><ele>403.0</ele><time>2026-03-22T14:34:45Z</time></trkpt><trkpt lat="45.611167669412275" lon="8.198243108090745"><ele>404.00000000000006</ele><time>2026-03-22T14:34:46Z</time></trkpt><trkpt lat="45.611243546016" lon="8.198248004414706"><ele>405.0</ele><time>2026-03-22T14:34:47Z</time></trkpt><trkpt lat="45.61132813919823" lon="8.198262561429772"><ele>406.0</ele><time>2026-03-22T14:34:48Z</time></trkpt><trkpt lat="45.61140073154297" lon="8.19829862218868"><ele>407.0</ele><time>2026-03-22T14:34:49Z</time></trkpt><trkpt lat="45.611465193339235" lon="8.19833260835899"><ele>408.00000000000006</ele><time>2026-03-22T14:34:50Z</time></trkpt><trkpt lat="45.61155533880799" lon="8.198351991461276"><ele>409.0</ele><time>2026-03-22T14:34:52Z</time></trkpt><trkpt lat="45.6116424083422" lon="8.198343286050076"><ele>409.0</ele><time>2026-03-22T14:34:54Z</time></trkpt><trkpt lat="45.61168727618728" lon="8.198414777672246"><ele>409.0</ele><time>2026-03-22T14:34:57Z</time></trkpt><trkpt lat="45.61167865486994" lon="8.19853825394948"><ele>409.0</ele><time>2026-03-22T14:34:59Z</time></trkpt><trkpt lat="45.611709815987275" lon="8.19862004837924"><ele>409.0</ele><time>2026-03-22T14:35:00Z</time></trkpt><trkpt lat="45.611751245825936" lon="8.19872943549255"><ele>409.0</ele><time>2026-03-22T14:35:01Z</time></trkpt><trkpt lat="45.61177339814459" lon="8.19883644878868"><ele>409.0</ele><time>2026-03-22T14:35:02Z</time></trkpt><trkpt lat="45.611797594597675" lon="8.198922994587154"><ele>409.0</ele><time>2026-03-22T14:35:03Z</time></trkpt><trkpt lat="45.61188281213505" lon="8.199033395535448"><ele>409.4</ele><time>2026-03-22T14:35:04Z</time></trkpt><trkpt lat="45.61196372110949" lon="8.199120447511557"><ele>409.79999999999995</ele><time>2026-03-22T14:35:05Z</time></trkpt><trkpt lat="45.61200387490071" lon="8.19922270256748"><ele>410.20000000000005</ele><time>2026-03-22T14:35:06Z</time></trkpt><trkpt lat="45.612043328285324" lon="8.199377679041199"><ele>410.6</ele><time>2026-03-22T14:35:07Z</time></trkpt><trkpt lat="45.61206642911561" lon="8.199523063991679"><ele>411.0</ele><time>2026-03-22T14:35:08Z</time></trkpt><trkpt lat="45.61210288219622" lon="8.19962450143676"><ele>410.6666666666667</ele><time>2026-03-22T14:35:09Z</time></trkpt><trkpt lat="45.61215678197612" lon="8.199681395326424"><ele>410.33333333333337</ele><time>2026-03-22T14:35:10Z</time></trkpt><trkpt lat="45.61220583572219" lon="8.199742765489017"><ele>410.0</ele><time>2026-03-22T14:35:11Z</time></trkpt><trkpt lat="45.612245060505536" lon="8.19983664860234"><ele>409.6666666666667</ele><time>2026-03-22T14:35:14Z</time></trkpt><trkpt lat="45.612317950139854" lon="8.19989090679113"><ele>409.33333333333337</ele><time>2026-03-22T14:35:24.999Z</time></trkpt><trkpt lat="45.61239349803638" lon="8.199957422877674"><ele>409.0</ele><time>2026-03-22T14:35:26.999Z</time></trkpt><trkpt lat="45.61235180782225" lon="8.200048554804008"><ele>409.0</ele><time>2026-03-22T14:35:29.999Z</time></trkpt><trkpt lat="45.612209306332794" lon="8.200113833232367"><ele>409.0</ele><time>2026-03-22T14:35:31.999Z</time></trkpt><trkpt lat="45.61215234701842" lon="8.200228958048445"><ele>409.0</ele><time>2026-03-22T14:35:33.999Z</time></trkpt><trkpt lat="45.61212261552358" lon="8.20030880403923"><ele>409.0</ele><time>2026-03-22T14:35:34.999Z</time></trkpt><trkpt lat="45.612073676449626" lon="8.200404678451818"><ele>409.0</ele><time>2026-03-22T14:35:35.999Z</time></trkpt><trkpt lat="45.612055735345145" lon="8.200505444175345"><ele>409.0</ele><time>2026-03-22T14:35:36.999Z</time></trkpt><trkpt lat="45.61202797762991" lon="8.200605232799198"><ele>409.0</ele><time>2026-03-22T14:35:37.999Z</time></trkpt><trkpt lat="45.61199734406734" lon="8.200712595797784"><ele>409.0</ele><time>2026-03-22T14:35:38.999Z</time></trkpt><trkpt lat="45.61198629762448" lon="8.200804876612251"><ele>409.0</ele><time>2026-03-22T14:35:39.999Z</time></trkpt><trkpt lat="45.61199012279751" lon="8.200900183885176"><ele>409.0</ele><time>2026-03-22T14:35:40.999Z</time></trkpt><trkpt lat="45.611976492173554" lon="8.200996450698435"><ele>409.0</ele><time>2026-03-22T14:35:41.999Z</time></trkpt><trkpt lat="45.61197613233662" lon="8.201092501504172"><ele>409.0</ele><time>2026-03-22T14:35:42.999Z</time></trkpt><trkpt lat="45.61206500692235" lon="8.201208570376345"><ele>406.79999999999995</ele><time>2026-03-22T14:35:44.999Z</time></trkpt><trkpt lat="45.61211365848498" lon="8.201385271647833"><ele>404.59999999999997</ele><time>2026-03-22T14:35:46.999Z</time></trkpt><trkpt lat="45.6121585104626" lon="8.201497672480157"><ele>402.4</ele><time>2026-03-22T14:35:47.999Z</time></trkpt><trkpt lat="45.612204689448866" lon="8.201580318374178"><ele>400.2</ele><time>2026-03-22T14:35:48.999Z</time></trkpt><trkpt lat="45.61219486995046" lon="8.201698081147702"><ele>398.0</ele><time>2026-03-22T14:35:50.999Z</time></trkpt><trkpt lat="45.61214524363941" lon="8.201822456879418"><ele>395.59999999999997</ele><time>2026-03-22T14:35:51.999Z</time></trkpt><trkpt lat="45.61213431978122" lon="8.201969854604544"><ele>393.2</ele><time>2026-03-22T14:35:52.999Z</time></trkpt><trkpt lat="45.612129532444534" lon="8.202089287832875"><ele>390.8</ele><time>2026-03-22T14:35:53.999Z</time></trkpt><trkpt lat="45.61215811447206" lon="8.202209642726105"><ele>388.4</ele><time>2026-03-22T14:35:55.999Z</time></trkpt><trkpt lat="45.61211939762346" lon="8.202428366470162"><ele>386.0</ele><time>2026-03-22T14:35:57.999Z</time></trkpt><trkpt lat="45.61210548444543" lon="8.2025925522141"><ele>384.20000000000005</ele><time>2026-03-22T14:35:58.999Z</time></trkpt><trkpt lat="45.612148537519005" lon="8.202735070964769"><ele>382.40000000000003</ele><time>2026-03-22T14:35:59.999Z</time></trkpt><trkpt lat="45.61217789515934" lon="8.202886314823951"><ele>380.6</ele><time>2026-03-22T14:36:00.999Z</time></trkpt><trkpt lat="45.61219164578722" lon="8.203025079529777"><ele>378.8</ele><time>2026-03-22T14:36:01.999Z</time></trkpt><trkpt lat="45.612239622480104" lon="8.203180271337134"><ele>377.0</ele><time>2026-03-22T14:36:02.999Z</time></trkpt><trkpt lat="45.61227762130489" lon="8.203309797120596"><ele>376.40000000000003</ele><time>2026-03-22T14:36:03.999Z</time></trkpt><trkpt lat="45.612317239497884" lon="8.20341386467286"><ele>375.8</ele><time>2026-03-22T14:36:04.999Z</time></trkpt><trkpt lat="45.61234955772803" lon="8.203496744522182"><ele>375.2</ele><time>2026-03-22T14:36:05.998Z</time></trkpt><trkpt lat="45.61236038386846" lon="8.203679691445394"><ele>374.6</ele><time>2026-03-22T14:36:07.998Z</time></trkpt><trkpt lat="45.61231902518473" lon="8.203803786636442"><ele>374.0</ele><time>2026-03-22T14:36:08.998Z</time></trkpt><trkpt lat="45.61229708627907" lon="8.203963269454086"><ele>372.6</ele><time>2026-03-22T14:36:09.998Z</time></trkpt><trkpt lat="45.612300328741505" lon="8.204096360627453"><ele>371.2</ele><time>2026-03-22T14:36:10.998Z</time></trkpt><trkpt lat="45.61230002137808" lon="8.204245118619463"><ele>369.8</ele><time>2026-03-22T14:36:11.998Z</time></trkpt><trkpt lat="45.612319100189346" lon="8.204374858224188"><ele>368.40000000000003</ele><time>2026-03-22T14:36:12.998Z</time></trkpt><trkpt lat="45.612369512112636" lon="8.204510451059837"><ele>367.0</ele><time>2026-03-22T14:36:13.998Z</time></trkpt><trkpt lat="45.61241563558662" lon="8.204598629147679"><ele>367.0</ele><time>2026-03-22T14:36:14.998Z</time></trkpt><trkpt lat="45.612411341262806" lon="8.204692462798752"><ele>367.0</ele><time>2026-03-22T14:36:16.998Z</time></trkpt><trkpt lat="45.61234014836197" lon="8.20471999477448"><ele>367.0</ele><time>2026-03-22T14:36:17.998Z</time></trkpt><trkpt lat="45.61226363876155" lon="8.204727813599938"><ele>367.0</ele><time>2026-03-22T14:36:18.998Z</time></trkpt><trkpt lat="45.6122153199163" lon="8.204867739765024"><ele>367.0</ele><time>2026-03-22T14:36:20.998Z</time></trkpt><trkpt lat="45.61216218081119" lon="8.205018884805689"><ele>367.0</ele><time>2026-03-22T14:36:22.998Z</time></trkpt><trkpt lat="45.61214272382582" lon="8.205134962761571"><ele>365.8</ele><time>2026-03-22T14:36:24.998Z</time></trkpt><trkpt lat="45.61206119336914" lon="8.205258646454556"><ele>364.6</ele><time>2026-03-22T14:36:26.998Z</time></trkpt><trkpt lat="45.612021447350635" lon="8.205383847422832"><ele>363.40000000000003</ele><time>2026-03-22T14:36:28.998Z</time></trkpt><trkpt lat="45.61200050966448" lon="8.205494995955762"><ele>362.20000000000005</ele><time>2026-03-22T14:36:29.998Z</time></trkpt><trkpt lat="45.61190471548094" lon="8.205665912884308"><ele>361.0</ele><time>2026-03-22T14:36:31.998Z</time></trkpt><trkpt lat="45.61186741523464" lon="8.205779660112103"><ele>359.20000000000005</ele><time>2026-03-22T14:36:32.998Z</time></trkpt><trkpt lat="45.61186304102374" lon="8.205900612950598"><ele>357.40000000000003</ele><time>2026-03-22T14:36:33.998Z</time></trkpt><trkpt lat="45.61188121635484" lon="8.206020442072715"><ele>355.6</ele><time>2026-03-22T14:36:34.998Z</time></trkpt><trkpt lat="45.61182842846286" lon="8.206187174725345"><ele>353.8</ele><time>2026-03-22T14:36:36.998Z</time></trkpt><trkpt lat="45.6118079702768" lon="8.206357055679016"><ele>352.0</ele><time>2026-03-22T14:36:38.998Z</time></trkpt><trkpt lat="45.611785296054975" lon="8.206474425931235"><ele>350.66666666666663</ele><time>2026-03-22T14:36:41.998Z</time></trkpt><trkpt lat="45.61169624600667" lon="8.206541261743455"><ele>349.3333333333333</ele><time>2026-03-22T14:36:43.998Z</time></trkpt><trkpt lat="45.611628268348554" lon="8.206583536809438"><ele>348.0</ele><time>2026-03-22T14:36:46Z</time></trkpt><trkpt lat="45.61153978545033" lon="8.206670839455633"><ele>346.6666666666667</ele><time>2026-03-22T14:36:48Z</time></trkpt><trkpt lat="45.61148050371752" lon="8.206739464876033"><ele>345.33333333333337</ele><time>2026-03-22T14:36:49Z</time></trkpt><trkpt lat="45.61141157585595" lon="8.206799191633122"><ele>344.0</ele><time>2026-03-22T14:36:50Z</time></trkpt><trkpt lat="45.6112976812672" lon="8.206927602977867"><ele>344.0</ele><time>2026-03-22T14:36:52Z</time></trkpt><trkpt lat="45.61124473056708" lon="8.207003490232836"><ele>344.0</ele><time>2026-03-22T14:36:53Z</time></trkpt><trkpt lat="45.61113499393695" lon="8.20705787006432"><ele>344.0</ele><time>2026-03-22T14:36:55Z</time></trkpt><trkpt lat="45.6110686704922" lon="8.20704899540311"><ele>344.0</ele><time>2026-03-22T14:36:56Z</time></trkpt><trkpt lat="45.610970854910086" lon="8.207022029255796"><ele>344.0</ele><time>2026-03-22T14:36:58Z</time></trkpt><trkpt lat="45.61089171111955" lon="8.207044236392324"><ele>344.0</ele><time>2026-03-22T14:36:59Z</time></trkpt><trkpt lat="45.610812064072284" lon="8.20705939721094"><ele>342.33333333333337</ele><time>2026-03-22T14:37:00Z</time></trkpt><trkpt lat="45.6107451818521" lon="8.2070985914284"><ele>340.6666666666667</ele><time>2026-03-22T14:37:01Z</time></trkpt><trkpt lat="45.610654235624395" lon="8.207051610806397"><ele>339.0</ele><time>2026-03-22T14:37:04Z</time></trkpt><trkpt lat="45.61058146530184" lon="8.20707017573856"><ele>337.3333333333333</ele><time>2026-03-22T14:37:09Z</time></trkpt><trkpt lat="45.61054389563843" lon="8.207177025986889"><ele>335.66666666666663</ele><time>2026-03-22T14:37:12Z</time></trkpt><trkpt lat="45.61047851184164" lon="8.20725625505411"><ele>334.0</ele><time>2026-03-22T14:37:15Z</time></trkpt><trkpt lat="45.61040651823267" lon="8.207279169744949"><ele>334.0</ele><time>2026-03-22T14:37:16.999Z</time></trkpt><trkpt lat="45.610481487833184" lon="8.207296546079997"><ele>334.0</ele><time>2026-03-22T14:44:52.998Z</time></trkpt><trkpt lat="45.6105530830405" lon="8.207179564796613"><ele>334.0</ele><time>2026-03-22T14:44:54.998Z</time></trkpt><trkpt lat="45.610579814161234" lon="8.207093135516372"><ele>334.0</ele><time>2026-03-22T14:44:55.998Z</time></trkpt><trkpt lat="45.61060706120388" lon="8.20699982564701"><ele>334.0</ele><time>2026-03-22T14:44:56.997Z</time></trkpt><trkpt lat="45.61063905839398" lon="8.206914452202826"><ele>334.0</ele><time>2026-03-22T14:44:57.997Z</time></trkpt><trkpt lat="45.61063315445922" lon="8.206761346779285"><ele>334.0</ele><time>2026-03-22T14:45:00.997Z</time></trkpt><trkpt lat="45.61066759049518" lon="8.206634481365963"><ele>334.0</ele><time>2026-03-22T14:45:02.997Z</time></trkpt><trkpt lat="45.61072334076656" lon="8.206559073164538"><ele>334.0</ele><time>2026-03-22T14:45:03.997Z</time></trkpt><trkpt lat="45.61078187606551" lon="8.206455101565716"><ele>334.0</ele><time>2026-03-22T14:45:04.997Z</time></trkpt><trkpt lat="45.61084507528039" lon="8.20636863692872"><ele>334.0</ele><time>2026-03-22T14:45:05.997Z</time></trkpt><trkpt lat="45.61092288844234" lon="8.206324334895413"><ele>334.0</ele><time>2026-03-22T14:45:07.999Z</time></trkpt><trkpt lat="45.611010415901305" lon="8.206241730116645"><ele>334.8333333333333</ele><time>2026-03-22T14:45:09.999Z</time></trkpt><trkpt lat="45.61096320269709" lon="8.20613216135721"><ele>335.66666666666663</ele><time>2026-03-22T14:45:11.999Z</time></trkpt><trkpt lat="45.61088556738485" lon="8.206097046527836"><ele>336.5</ele><time>2026-03-22T14:45:12.999Z</time></trkpt><trkpt lat="45.61081044318488" lon="8.206054415611847"><ele>337.3333333333333</ele><time>2026-03-22T14:45:13.999Z</time></trkpt><trkpt lat="45.610736794006286" lon="8.206022541929206"><ele>338.1666666666667</ele><time>2026-03-22T14:45:14.999Z</time></trkpt><trkpt lat="45.61061774335941" lon="8.206023086221135"><ele>339.0</ele><time>2026-03-22T14:45:16.999Z</time></trkpt><trkpt lat="45.61055536644002" lon="8.206085901971257"><ele>339.0</ele><time>2026-03-22T14:45:17.999Z</time></trkpt><trkpt lat="45.610495034935845" lon="8.20613604742751"><ele>339.0</ele><time>2026-03-22T14:45:19.999Z</time></trkpt><trkpt lat="45.610383969440626" lon="8.206119249297245"><ele>339.0</ele><time>2026-03-22T14:45:21.999Z</time></trkpt><trkpt lat="45.61032248487632" lon="8.206084609818818"><ele>339.0</ele><time>2026-03-22T14:45:23.999Z</time></trkpt><trkpt lat="45.610286657222105" lon="8.206002857935488"><ele>339.0</ele><time>2026-03-22T14:45:25.999Z</time></trkpt><trkpt lat="45.61024930999993" lon="8.205893661427647"><ele>339.0</ele><time>2026-03-22T14:45:28.999Z</time></trkpt><trkpt lat="45.6102486784711" lon="8.205785523658177"><ele>338.3333333333333</ele><time>2026-03-22T14:45:31.999Z</time></trkpt><trkpt lat="45.61025210994739" lon="8.205685141966294"><ele>337.6666666666667</ele><time>2026-03-22T14:45:34.999Z</time></trkpt><trkpt lat="45.6102272248246" lon="8.205569840769662"><ele>337.0</ele><time>2026-03-22T14:45:57.999Z</time></trkpt><trkpt lat="45.61018430475278" lon="8.205395135353204"><ele>336.33333333333337</ele><time>2026-03-22T14:45:59.999Z</time></trkpt><trkpt lat="45.610142486973636" lon="8.205321019165497"><ele>335.6666666666667</ele><time>2026-03-22T14:46:00.999Z</time></trkpt><trkpt lat="45.61008289741547" lon="8.205223556961235"><ele>335.0</ele><time>2026-03-22T14:46:02.999Z</time></trkpt><trkpt lat="45.610036746083296" lon="8.20510077476136"><ele>335.0</ele><time>2026-03-22T14:46:03.999Z</time></trkpt><trkpt lat="45.61006845995884" lon="8.205007581234597"><ele>335.0</ele><time>2026-03-22T14:46:04.999Z</time></trkpt><trkpt lat="45.61006234178321" lon="8.20491242618137"><ele>335.0</ele><time>2026-03-22T14:46:05.999Z</time></trkpt><trkpt lat="45.610080830562254" lon="8.204800462744073"><ele>335.0</ele><time>2026-03-22T14:46:07.999Z</time></trkpt><trkpt lat="45.610161335529845" lon="8.204742137371653"><ele>335.0</ele><time>2026-03-22T14:46:09.999Z</time></trkpt><trkpt lat="45.610209603823876" lon="8.204658551010963"><ele>335.0</ele><time>2026-03-22T14:46:10.999Z</time></trkpt><trkpt lat="45.61025869624561" lon="8.204521932673043"><ele>340.0</ele><time>2026-03-22T14:46:12.998Z</time></trkpt><trkpt lat="45.61036889018101" lon="8.204454108593042"><ele>345.0</ele><time>2026-03-22T14:46:14.998Z</time></trkpt><trkpt lat="45.610430522726816" lon="8.204315465152327"><ele>350.0</ele><time>2026-03-22T14:46:16.998Z</time></trkpt><trkpt lat="45.610336650661395" lon="8.204266990587778"><ele>355.0</ele><time>2026-03-22T14:46:18.998Z</time></trkpt><trkpt lat="45.61033466718181" lon="8.20408759367325"><ele>351.8333333333333</ele><time>2026-03-22T14:46:20.998Z</time></trkpt><trkpt lat="45.610238495953595" lon="8.204028604384241"><ele>348.66666666666663</ele><time>2026-03-22T14:46:22.998Z</time></trkpt><trkpt lat="45.61014802010383" lon="8.204069806889953"><ele>345.5</ele><time>2026-03-22T14:46:23.998Z</time></trkpt><trkpt lat="45.610076170386215" lon="8.20410526104016"><ele>342.3333333333333</ele><time>2026-03-22T14:46:24.998Z</time></trkpt><trkpt lat="45.61006308218758" lon="8.204211420308475"><ele>339.1666666666667</ele><time>2026-03-22T14:46:25.998Z</time></trkpt><trkpt lat="45.60997614413388" lon="8.20425562943239"><ele>336.0</ele><time>2026-03-22T14:46:27.998Z</time></trkpt><trkpt lat="45.609903983258654" lon="8.204295257322133"><ele>336.0</ele><time>2026-03-22T14:46:28.998Z</time></trkpt><trkpt lat="45.609831523486434" lon="8.204212491324844"><ele>336.0</ele><time>2026-03-22T14:46:30.998Z</time></trkpt><trkpt lat="45.60977352809365" lon="8.204094191688242"><ele>336.0</ele><time>2026-03-22T14:46:31.998Z</time></trkpt><trkpt lat="45.60972129145443" lon="8.203991943464771"><ele>336.0</ele><time>2026-03-22T14:46:32.998Z</time></trkpt><trkpt lat="45.60963123991281" lon="8.20397257978436"><ele>336.0</ele><time>2026-03-22T14:46:34.998Z</time></trkpt><trkpt lat="45.609607242793636" lon="8.203831540644371"><ele>337.4</ele><time>2026-03-22T14:46:36.998Z</time></trkpt><trkpt lat="45.6096185546657" lon="8.203687345669643"><ele>338.8</ele><time>2026-03-22T14:46:37.998Z</time></trkpt><trkpt lat="45.6096037518817" lon="8.203552278895057"><ele>340.2</ele><time>2026-03-22T14:46:38.998Z</time></trkpt><trkpt lat="45.60961169819407" lon="8.203441285786521"><ele>341.59999999999997</ele><time>2026-03-22T14:46:39.998Z</time></trkpt><trkpt lat="45.60965530650644" lon="8.203305571110679"><ele>343.0</ele><time>2026-03-22T14:46:41.998Z</time></trkpt><trkpt lat="45.60972556312557" lon="8.203277889840058"><ele>343.0</ele><time>2026-03-22T14:46:42.998Z</time></trkpt><trkpt lat="45.60978879705313" lon="8.203238704753474"><ele>343.0</ele><time>2026-03-22T14:46:43.998Z</time></trkpt><trkpt lat="45.609865737084036" lon="8.203159112925642"><ele>343.0</ele><time>2026-03-22T14:46:45.998Z</time></trkpt><trkpt lat="45.60980706693455" lon="8.203099839895447"><ele>343.0</ele><time>2026-03-22T14:46:47.998Z</time></trkpt><trkpt lat="45.609708167096414" lon="8.203024547945521"><ele>343.0</ele><time>2026-03-22T14:46:49.998Z</time></trkpt><trkpt lat="45.60961339254576" lon="8.202995827789827"><ele>343.0</ele><time>2026-03-22T14:46:51.998Z</time></trkpt><trkpt lat="45.60954767192708" lon="8.202881250277018"><ele>342.0</ele><time>2026-03-22T14:46:54.998Z</time></trkpt><trkpt lat="45.60950912134173" lon="8.202794765918137"><ele>341.0</ele><time>2026-03-22T14:46:55.998Z</time></trkpt><trkpt lat="45.60946604861883" lon="8.202685432971021"><ele>340.0</ele><time>2026-03-22T14:46:57.998Z</time></trkpt><trkpt lat="45.6094015297078" lon="8.202716675623654"><ele>339.0</ele><time>2026-03-22T14:47:04.998Z</time></trkpt><trkpt lat="45.60938631132409" lon="8.202806356885905"><ele>338.0</ele><time>2026-03-22T14:47:07.998Z</time></trkpt><trkpt lat="45.60933104716729" lon="8.202856069281001"><ele>337.0</ele><time>2026-03-22T14:47:10.997Z</time></trkpt><trkpt lat="45.60923188531355" lon="8.202916591839667"><ele>337.0</ele><time>2026-03-22T14:47:13.999Z</time></trkpt><trkpt lat="45.60915174558258" lon="8.202931070254815"><ele>337.0</ele><time>2026-03-22T14:47:17.999Z</time></trkpt><trkpt lat="45.609101355906844" lon="8.20300100898392"><ele>337.0</ele><time>2026-03-22T14:47:19.999Z</time></trkpt><trkpt lat="45.60902764846138" lon="8.203077613412054"><ele>337.0</ele><time>2026-03-22T14:47:20.999Z</time></trkpt><trkpt lat="45.6089643042479" lon="8.203164537235859"><ele>337.0</ele><time>2026-03-22T14:47:21.999Z</time></trkpt><trkpt lat="45.608898932679" lon="8.203182048242558"><ele>337.0</ele><time>2026-03-22T14:47:22.999Z</time></trkpt><trkpt lat="45.60881634160346" lon="8.203133321703254"><ele>337.0</ele><time>2026-03-22T14:47:25.999Z</time></trkpt><trkpt lat="45.608730800513726" lon="8.20310013834037"><ele>337.0</ele><time>2026-03-22T14:47:26.999Z</time></trkpt><trkpt lat="45.60863234277363" lon="8.203031458752925"><ele>337.0</ele><time>2026-03-22T14:47:28.999Z</time></trkpt><trkpt lat="45.608543466371394" lon="8.202987641684908"><ele>337.0</ele><time>2026-03-22T14:47:30.999Z</time></trkpt><trkpt lat="45.60847747048989" lon="8.202962313994346"><ele>337.0</ele><time>2026-03-22T14:47:34.999Z</time></trkpt><trkpt lat="45.608415642844115" lon="8.202906878784871"><ele>337.0</ele><time>2026-03-22T14:47:38.999Z</time></trkpt><trkpt lat="45.60834349605473" lon="8.20284942879084"><ele>338.16666666666663</ele><time>2026-03-22T14:47:40.999Z</time></trkpt><trkpt lat="45.60827336590177" lon="8.202841703072187"><ele>339.3333333333333</ele><time>2026-03-22T14:47:44.999Z</time></trkpt><trkpt lat="45.6082218234403" lon="8.20278074239731"><ele>340.5</ele><time>2026-03-22T14:47:49.999Z</time></trkpt><trkpt lat="45.608145728624216" lon="8.20270746243849"><ele>341.6666666666667</ele><time>2026-03-22T14:47:53.999Z</time></trkpt><trkpt lat="45.6080472519702" lon="8.20262015652902"><ele>342.83333333333337</ele><time>2026-03-22T14:47:55.999Z</time></trkpt><trkpt lat="45.60795917124452" lon="8.202576553342166"><ele>344.0</ele><time>2026-03-22T14:47:57.999Z</time></trkpt><trkpt lat="45.607896907861544" lon="8.202521906427377"><ele>345.6666666666667</ele><time>2026-03-22T14:47:58.999Z</time></trkpt><trkpt lat="45.607817262532066" lon="8.202482808019443"><ele>347.33333333333337</ele><time>2026-03-22T14:47:59.999Z</time></trkpt><trkpt lat="45.60773224070788" lon="8.20241760978998"><ele>349.0</ele><time>2026-03-22T14:48:00.999Z</time></trkpt><trkpt lat="45.607651095827634" lon="8.202368824976222"><ele>350.6666666666667</ele><time>2026-03-22T14:48:03.999Z</time></trkpt><trkpt lat="45.607580217198695" lon="8.202327580068374"><ele>352.3333333333333</ele><time>2026-03-22T14:48:06.999Z</time></trkpt><trkpt lat="45.60750703526113" lon="8.20235678949507"><ele>354.0</ele><time>2026-03-22T14:48:10.999Z</time></trkpt><trkpt lat="45.607450768390244" lon="8.202281952099803"><ele>354.1666666666667</ele><time>2026-03-22T14:48:13.999Z</time></trkpt><trkpt lat="45.6073843113274" lon="8.202249457822615"><ele>354.3333333333333</ele><time>2026-03-22T14:48:23.998Z</time></trkpt><trkpt lat="45.60730698721443" lon="8.202189883726332"><ele>354.5</ele><time>2026-03-22T14:48:35.998Z</time></trkpt><trkpt lat="45.607248084934554" lon="8.202138087985789"><ele>354.66666666666663</ele><time>2026-03-22T14:48:40.998Z</time></trkpt><trkpt lat="45.60720025393859" lon="8.202067024232553"><ele>354.8333333333333</ele><time>2026-03-22T14:48:42.998Z</time></trkpt><trkpt lat="45.6071359672031" lon="8.202026807163794"><ele>355.0</ele><time>2026-03-22T14:48:44.998Z</time></trkpt><trkpt lat="45.60704203521051" lon="8.202038364427963"><ele>357.42857142857144</ele><time>2026-03-22T14:48:46.998Z</time></trkpt><trkpt lat="45.606962378382306" lon="8.202026751538938"><ele>359.8571428571429</ele><time>2026-03-22T14:48:48.998Z</time></trkpt><trkpt lat="45.60690432864379" lon="8.202072524493447"><ele>362.28571428571433</ele><time>2026-03-22T14:48:50.998Z</time></trkpt><trkpt lat="45.60683747479348" lon="8.202079349704457"><ele>364.7142857142857</ele><time>2026-03-22T14:48:59.998Z</time></trkpt><trkpt lat="45.60676631995024" lon="8.202087431938201"><ele>367.14285714285717</ele><time>2026-03-22T14:49:04.998Z</time></trkpt><trkpt lat="45.60669560097705" lon="8.20210943583739"><ele>369.5714285714286</ele><time>2026-03-22T14:49:07.998Z</time></trkpt><trkpt lat="45.60661590702068" lon="8.202169781776549"><ele>372.0</ele><time>2026-03-22T14:49:11.998Z</time></trkpt><trkpt lat="45.60655388609244" lon="8.20203894975587"><ele>372.0</ele><time>2026-03-22T14:49:13.998Z</time></trkpt><trkpt lat="45.606496255371" lon="8.201951973880627"><ele>372.0</ele><time>2026-03-22T14:49:15.998Z</time></trkpt><trkpt lat="45.606474026570226" lon="8.201857652068218"><ele>372.0</ele><time>2026-03-22T14:49:17.998Z</time></trkpt><trkpt lat="45.606467992800226" lon="8.201712670653228"><ele>372.0</ele><time>2026-03-22T14:49:20Z</time></trkpt><trkpt lat="45.60643034149719" lon="8.20161878866732"><ele>372.0</ele><time>2026-03-22T14:49:21Z</time></trkpt><trkpt lat="45.606380306652234" lon="8.20153016278688"><ele>372.0</ele><time>2026-03-22T14:49:22Z</time></trkpt><trkpt lat="45.60631499972244" lon="8.20144039876224"><ele>371.40000000000003</ele><time>2026-03-22T14:49:23Z</time></trkpt><trkpt lat="45.60625858477597" lon="8.201358764230454"><ele>370.8</ele><time>2026-03-22T14:49:24Z</time></trkpt><trkpt lat="45.606159415693426" lon="8.201196798004725"><ele>370.2</ele><time>2026-03-22T14:49:26Z</time></trkpt><trkpt lat="45.606102809659085" lon="8.201103746403104"><ele>369.6</ele><time>2026-03-22T14:49:27Z</time></trkpt><trkpt lat="45.60603684453555" lon="8.201020212842327"><ele>369.0</ele><time>2026-03-22T14:49:28Z</time></trkpt><trkpt lat="45.60598562445319" lon="8.200939209977694"><ele>369.79999999999995</ele><time>2026-03-22T14:49:29Z</time></trkpt><trkpt lat="45.605921186909406" lon="8.200869390997402"><ele>370.59999999999997</ele><time>2026-03-22T14:49:30Z</time></trkpt><trkpt lat="45.605859042866875" lon="8.200785475791601"><ele>371.4</ele><time>2026-03-22T14:49:32Z</time></trkpt><trkpt lat="45.60576303900349" lon="8.200675615696262"><ele>372.2</ele><time>2026-03-22T14:49:34Z</time></trkpt><trkpt lat="45.60568353614713" lon="8.20063505588537"><ele>373.0</ele><time>2026-03-22T14:49:36.999Z</time></trkpt><trkpt lat="45.605615285008625" lon="8.200733919111935"><ele>374.5</ele><time>2026-03-22T14:49:39.999Z</time></trkpt><trkpt lat="45.60562811010444" lon="8.200868328270719"><ele>376.0</ele><time>2026-03-22T14:49:41.999Z</time></trkpt><trkpt lat="45.60564063889634" lon="8.201014134283295"><ele>377.5</ele><time>2026-03-22T14:49:43.999Z</time></trkpt><trkpt lat="45.60557593422987" lon="8.20119680953401"><ele>379.0</ele><time>2026-03-22T14:49:45.999Z</time></trkpt><trkpt lat="45.60556646967601" lon="8.201376195258685"><ele>379.16666666666663</ele><time>2026-03-22T14:49:47.999Z</time></trkpt><trkpt lat="45.60551428780644" lon="8.201535567221143"><ele>379.3333333333333</ele><time>2026-03-22T14:49:49.999Z</time></trkpt><trkpt lat="45.60547518561166" lon="8.20161179797184"><ele>379.5</ele><time>2026-03-22T14:49:50.999Z</time></trkpt><trkpt lat="45.605431084149885" lon="8.201682498378762"><ele>379.6666666666667</ele><time>2026-03-22T14:49:51.999Z</time></trkpt><trkpt lat="45.60538153659339" lon="8.201758158329493"><ele>379.83333333333337</ele><time>2026-03-22T14:49:52.999Z</time></trkpt><trkpt lat="45.60532971576673" lon="8.201836405750779"><ele>380.0</ele><time>2026-03-22T14:49:53.999Z</time></trkpt><trkpt lat="45.60527503143776" lon="8.20192133485605"><ele>380.5</ele><time>2026-03-22T14:49:54.999Z</time></trkpt><trkpt lat="45.605221692418574" lon="8.202004002977398"><ele>381.0</ele><time>2026-03-22T14:49:55.999Z</time></trkpt><trkpt lat="45.605165912373906" lon="8.202086348048837"><ele>381.5</ele><time>2026-03-22T14:49:56.999Z</time></trkpt><trkpt lat="45.60510838437695" lon="8.202166309719038"><ele>382.0</ele><time>2026-03-22T14:49:57.999Z</time></trkpt><trkpt lat="45.60505334693575" lon="8.202228651671296"><ele>382.5</ele><time>2026-03-22T14:49:58.999Z</time></trkpt><trkpt lat="45.604983798784176" lon="8.202287072689865"><ele>383.0</ele><time>2026-03-22T14:50:04.999Z</time></trkpt><trkpt lat="45.604879630004355" lon="8.202331523654237"><ele>383.0</ele><time>2026-03-22T14:50:06.999Z</time></trkpt><trkpt lat="45.604799123026126" lon="8.202370209789816"><ele>383.0</ele><time>2026-03-22T14:50:07.999Z</time></trkpt><trkpt lat="45.60472061960504" lon="8.202411564563084"><ele>383.0</ele><time>2026-03-22T14:50:08.999Z</time></trkpt><trkpt lat="45.60463971490107" lon="8.202479149344285"><ele>383.0</ele><time>2026-03-22T14:50:09.999Z</time></trkpt><trkpt lat="45.60457109049102" lon="8.202563012709394"><ele>383.0</ele><time>2026-03-22T14:50:10.999Z</time></trkpt><trkpt lat="45.60450405469852" lon="8.202662407376895"><ele>383.0</ele><time>2026-03-22T14:50:11.999Z</time></trkpt><trkpt lat="45.604448854657754" lon="8.202779776916861"><ele>383.79999999999995</ele><time>2026-03-22T14:50:13Z</time></trkpt><trkpt lat="45.60439995440402" lon="8.202894899390007"><ele>384.6</ele><time>2026-03-22T14:50:14Z</time></trkpt><trkpt lat="45.60435160473467" lon="8.203010366257846"><ele>385.4</ele><time>2026-03-22T14:50:15Z</time></trkpt><trkpt lat="45.604304914645724" lon="8.203124236067087"><ele>386.20000000000005</ele><time>2026-03-22T14:50:16Z</time></trkpt><trkpt lat="45.604259000586794" lon="8.203236213207425"><ele>387.0</ele><time>2026-03-22T14:50:17Z</time></trkpt><trkpt lat="45.60421410913457" lon="8.203341410660167"><ele>387.6666666666667</ele><time>2026-03-22T14:50:18Z</time></trkpt><trkpt lat="45.60416704178115" lon="8.203452204261671"><ele>388.33333333333337</ele><time>2026-03-22T14:50:19Z</time></trkpt><trkpt lat="45.60412486481484" lon="8.203564730154575"><ele>389.0</ele><time>2026-03-22T14:50:20Z</time></trkpt><trkpt lat="45.604089881135515" lon="8.203678608214476"><ele>389.6666666666667</ele><time>2026-03-22T14:50:21Z</time></trkpt><trkpt lat="45.604067150380985" lon="8.203793786924496"><ele>390.33333333333337</ele><time>2026-03-22T14:50:22Z</time></trkpt><trkpt lat="45.60406578076468" lon="8.203913719509105"><ele>391.0</ele><time>2026-03-22T14:50:23Z</time></trkpt><trkpt lat="45.604112608620326" lon="8.20402517428245"><ele>392.33333333333337</ele><time>2026-03-22T14:50:24Z</time></trkpt><trkpt lat="45.6041627517377" lon="8.204127731891148"><ele>393.6666666666667</ele><time>2026-03-22T14:50:25Z</time></trkpt><trkpt lat="45.60421735737808" lon="8.204231563607374"><ele>395.0</ele><time>2026-03-22T14:50:26Z</time></trkpt><trkpt lat="45.60427002139856" lon="8.204335382424471"><ele>396.33333333333337</ele><time>2026-03-22T14:50:27Z</time></trkpt><trkpt lat="45.604309924979326" lon="8.204426083206563"><ele>397.6666666666667</ele><time>2026-03-22T14:50:28Z</time></trkpt><trkpt lat="45.60434645512819" lon="8.204502051945019"><ele>399.0</ele><time>2026-03-22T14:50:30Z</time></trkpt><trkpt lat="45.60442484695702" lon="8.204667618822628"><ele>399.0</ele><time>2026-03-22T14:50:32.999Z</time></trkpt><trkpt lat="45.604397716559596" lon="8.204826534346815"><ele>399.0</ele><time>2026-03-22T14:50:33.999Z</time></trkpt><trkpt lat="45.6043076623984" lon="8.204949183792113"><ele>399.0</ele><time>2026-03-22T14:50:35.999Z</time></trkpt><trkpt lat="45.60425197895723" lon="8.205001417364326"><ele>399.0</ele><time>2026-03-22T14:50:38.999Z</time></trkpt><trkpt lat="45.60415440173005" lon="8.205068869827832"><ele>399.0</ele><time>2026-03-22T14:50:39.999Z</time></trkpt><trkpt lat="45.60401679103778" lon="8.2051651442583"><ele>399.0</ele><time>2026-03-22T14:50:45.999Z</time></trkpt><trkpt lat="45.603959629834044" lon="8.205237255047821"><ele>399.0</ele><time>2026-03-22T14:50:46.999Z</time></trkpt><trkpt lat="45.60391561546301" lon="8.205322072256337"><ele>399.0</ele><time>2026-03-22T14:50:47.999Z</time></trkpt><trkpt lat="45.60384995466818" lon="8.205487768881808"><ele>399.0</ele><time>2026-03-22T14:50:48.999Z</time></trkpt><trkpt lat="45.60382162064296" lon="8.20560445874241"><ele>399.0</ele><time>2026-03-22T14:50:49.999Z</time></trkpt><trkpt lat="45.60378842989229" lon="8.205716756569725"><ele>399.0</ele><time>2026-03-22T14:50:50.999Z</time></trkpt><trkpt lat="45.60375445999771" lon="8.205836398384507"><ele>399.0</ele><time>2026-03-22T14:50:51.999Z</time></trkpt><trkpt lat="45.6037234532573" lon="8.205952955927488"><ele>399.0</ele><time>2026-03-22T14:50:53.999Z</time></trkpt><trkpt lat="45.60365529645079" lon="8.206162187171584"><ele>399.0</ele><time>2026-03-22T14:50:55.999Z</time></trkpt><trkpt lat="45.60353902825491" lon="8.206304447851343"><ele>402.0</ele><time>2026-03-22T14:50:56.999Z</time></trkpt><trkpt lat="45.603462390084886" lon="8.206359469534958"><ele>405.0</ele><time>2026-03-22T14:50:57.999Z</time></trkpt><trkpt lat="45.603239560454924" lon="8.206493791878938"><ele>408.0</ele><time>2026-03-22T14:51:08.999Z</time></trkpt><trkpt lat="45.60315119906748" lon="8.20654126333575"><ele>411.0</ele><time>2026-03-22T14:51:09.999Z</time></trkpt><trkpt lat="45.603073354993214" lon="8.20658080702387"><ele>411.20000000000005</ele><time>2026-03-22T14:51:10.999Z</time></trkpt><trkpt lat="45.60295509759711" lon="8.20661638019186"><ele>411.40000000000003</ele><time>2026-03-22T14:51:12.999Z</time></trkpt><trkpt lat="45.602883063748344" lon="8.206625648265906"><ele>411.6</ele><time>2026-03-22T14:51:13.999Z</time></trkpt><trkpt lat="45.60278117054859" lon="8.206627251514952"><ele>411.8</ele><time>2026-03-22T14:51:15.999Z</time></trkpt><trkpt lat="45.60268696266001" lon="8.206636815246583"><ele>412.0</ele><time>2026-03-22T14:51:17.999Z</time></trkpt><trkpt lat="45.60261132734242" lon="8.206657978710398"><ele>414.00000000000006</ele><time>2026-03-22T14:51:19.999Z</time></trkpt><trkpt lat="45.60255261141506" lon="8.206616979453349"><ele>416.0</ele><time>2026-03-22T14:51:43.001Z</time></trkpt><trkpt lat="45.60247763272387" lon="8.206676777576115"><ele>418.0</ele><time>2026-03-22T14:51:46Z</time></trkpt><trkpt lat="45.60240299328791" lon="8.206751168037027"><ele>420.0</ele><time>2026-03-22T14:51:48Z</time></trkpt><trkpt lat="45.6023040199868" lon="8.206830639479398"><ele>422.00000000000006</ele><time>2026-03-22T14:51:50Z</time></trkpt><trkpt lat="45.602220281195436" lon="8.20682635390312"><ele>424.0</ele><time>2026-03-22T14:51:52Z</time></trkpt><trkpt lat="45.60215601368411" lon="8.206882235720185"><ele>424.0</ele><time>2026-03-22T14:51:53Z</time></trkpt><trkpt lat="45.60206330385943" lon="8.206885260760956"><ele>424.0</ele><time>2026-03-22T14:51:54Z</time></trkpt><trkpt lat="45.60196610657512" lon="8.206885929641768"><ele>424.0</ele><time>2026-03-22T14:51:55Z</time></trkpt><trkpt lat="45.60186596490717" lon="8.206901605326529"><ele>424.0</ele><time>2026-03-22T14:51:56Z</time></trkpt><trkpt lat="45.60176744943665" lon="8.206911958158152"><ele>424.0</ele><time>2026-03-22T14:51:57Z</time></trkpt><trkpt lat="45.60167480756635" lon="8.206920530783558"><ele>425.1666666666667</ele><time>2026-03-22T14:51:58Z</time></trkpt><trkpt lat="45.60158545587786" lon="8.206931654008566"><ele>426.33333333333337</ele><time>2026-03-22T14:51:59Z</time></trkpt><trkpt lat="45.60150745803287" lon="8.206942232039125"><ele>427.5</ele><time>2026-03-22T14:52:00Z</time></trkpt><trkpt lat="45.60143515922181" lon="8.206957511188076"><ele>428.66666666666663</ele><time>2026-03-22T14:52:01Z</time></trkpt><trkpt lat="45.60132987130749" lon="8.206976686691076"><ele>429.8333333333333</ele><time>2026-03-22T14:52:03Z</time></trkpt><trkpt lat="45.60128754783952" lon="8.20705420721314"><ele>431.0</ele><time>2026-03-22T14:52:05Z</time></trkpt><trkpt lat="45.60130707063419" lon="8.207151502566306"><ele>431.0</ele><time>2026-03-22T14:52:07Z</time></trkpt><trkpt lat="45.601279221684315" lon="8.207241028583882"><ele>431.0</ele><time>2026-03-22T14:52:09Z</time></trkpt><trkpt lat="45.6012399886185" lon="8.20733825108832"><ele>431.0</ele><time>2026-03-22T14:52:10Z</time></trkpt><trkpt lat="45.60119553628701" lon="8.207455434767532"><ele>431.0</ele><time>2026-03-22T14:52:11Z</time></trkpt><trkpt lat="45.60112841862695" lon="8.207595235182344"><ele>431.0</ele><time>2026-03-22T14:52:12Z</time></trkpt><trkpt lat="45.60107299466139" lon="8.207759181708044"><ele>426.0</ele><time>2026-03-22T14:52:13Z</time></trkpt><trkpt lat="45.601043921654885" lon="8.207930841334091"><ele>421.0</ele><time>2026-03-22T14:52:14Z</time></trkpt><trkpt lat="45.60103961770443" lon="8.208091218555742"><ele>416.0</ele><time>2026-03-22T14:52:15Z</time></trkpt><trkpt lat="45.601034091674194" lon="8.208229023561792"><ele>411.0</ele><time>2026-03-22T14:52:16Z</time></trkpt><trkpt lat="45.601047790099635" lon="8.208348202890098"><ele>406.0</ele><time>2026-03-22T14:52:17Z</time></trkpt><trkpt lat="45.601073314887834" lon="8.208466746428533"><ele>405.6666666666667</ele><time>2026-03-22T14:52:18Z</time></trkpt><trkpt lat="45.601112250519336" lon="8.208560230978375"><ele>405.33333333333337</ele><time>2026-03-22T14:52:19Z</time></trkpt><trkpt lat="45.6011646328524" lon="8.208643792034238"><ele>405.0</ele><time>2026-03-22T14:52:20Z</time></trkpt><trkpt lat="45.601224381446606" lon="8.208716662612245"><ele>404.66666666666663</ele><time>2026-03-22T14:52:21Z</time></trkpt><trkpt lat="45.60129723142994" lon="8.20879728990895"><ele>404.3333333333333</ele><time>2026-03-22T14:52:22Z</time></trkpt><trkpt lat="45.60137425083091" lon="8.20888428491712"><ele>404.0</ele><time>2026-03-22T14:52:23Z</time></trkpt><trkpt lat="45.60144462726155" lon="8.208989017550714"><ele>406.0</ele><time>2026-03-22T14:52:24Z</time></trkpt><trkpt lat="45.60148484751554" lon="8.209097867187033"><ele>408.0</ele><time>2026-03-22T14:52:25Z</time></trkpt><trkpt lat="45.601502629853925" lon="8.209222795364589"><ele>410.0</ele><time>2026-03-22T14:52:26Z</time></trkpt><trkpt lat="45.60153178219323" lon="8.209318814230528"><ele>412.0</ele><time>2026-03-22T14:52:27Z</time></trkpt><trkpt lat="45.60161829227514" lon="8.209493115308161"><ele>414.0</ele><time>2026-03-22T14:52:29Z</time></trkpt><trkpt lat="45.601719122145994" lon="8.209595773348457"><ele>414.0</ele><time>2026-03-22T14:52:31Z</time></trkpt><trkpt lat="45.601805404665534" lon="8.209600331162093"><ele>414.0</ele><time>2026-03-22T14:52:32Z</time></trkpt><trkpt lat="45.6019094679952" lon="8.209604646475032"><ele>414.0</ele><time>2026-03-22T14:52:33Z</time></trkpt><trkpt lat="45.60201007783093" lon="8.209583734910625"><ele>414.0</ele><time>2026-03-22T14:52:34Z</time></trkpt><trkpt lat="45.60206452369121" lon="8.209636594703062"><ele>414.0</ele><time>2026-03-22T14:52:35Z</time></trkpt><trkpt lat="45.60208452892423" lon="8.20984884244647"><ele>414.5</ele><time>2026-03-22T14:52:37Z</time></trkpt><trkpt lat="45.602115259137015" lon="8.210006590806131"><ele>415.0</ele><time>2026-03-22T14:52:38Z</time></trkpt><trkpt lat="45.602158578507336" lon="8.210122446647762"><ele>415.5</ele><time>2026-03-22T14:52:38.999Z</time></trkpt><trkpt lat="45.60222197144944" lon="8.210202212328607"><ele>416.0</ele><time>2026-03-22T14:52:39.999Z</time></trkpt><trkpt lat="45.60231108279925" lon="8.210218828937586"><ele>416.5</ele><time>2026-03-22T14:52:41.999Z</time></trkpt><trkpt lat="45.60237579971095" lon="8.210215571818958"><ele>417.0</ele><time>2026-03-22T14:52:43.999Z</time></trkpt><trkpt lat="45.602449650017846" lon="8.210209008049716"><ele>417.0</ele><time>2026-03-22T14:52:45.999Z</time></trkpt><trkpt lat="45.602540226004876" lon="8.210194488290712"><ele>417.0</ele><time>2026-03-22T14:52:48.999Z</time></trkpt><trkpt lat="45.60267701628256" lon="8.210114088031172"><ele>417.0</ele><time>2026-03-22T14:52:50.999Z</time></trkpt><trkpt lat="45.602620938492734" lon="8.210242637441583"><ele>417.0</ele><time>2026-03-22T14:52:51.999Z</time></trkpt><trkpt lat="45.60268021872893" lon="8.21029569367792"><ele>417.0</ele><time>2026-03-22T14:52:52.999Z</time></trkpt><trkpt lat="45.60280122038251" lon="8.210289865405798"><ele>416.6</ele><time>2026-03-22T14:52:54.999Z</time></trkpt><trkpt lat="45.60294948374961" lon="8.210212682770004"><ele>416.20000000000005</ele><time>2026-03-22T14:52:56.999Z</time></trkpt><trkpt lat="45.6030246484603" lon="8.210189068767226"><ele>415.8</ele><time>2026-03-22T14:52:58.999Z</time></trkpt><trkpt lat="45.60308680768956" lon="8.210146152685548"><ele>415.4</ele><time>2026-03-22T14:53:00.999Z</time></trkpt><trkpt lat="45.60316170615954" lon="8.21010320768965"><ele>415.0</ele><time>2026-03-22T14:53:02.999Z</time></trkpt><trkpt lat="45.60326745429573" lon="8.210021114175936"><ele>415.00000000000006</ele><time>2026-03-22T14:53:05.999Z</time></trkpt><trkpt lat="45.60333237961675" lon="8.209999312009929"><ele>415.0</ele><time>2026-03-22T14:53:08.999Z</time></trkpt><trkpt lat="45.60340463031439" lon="8.210018958387591"><ele>415.0</ele><time>2026-03-22T14:53:10.999Z</time></trkpt><trkpt lat="45.6034726812412" lon="8.210068135637439"><ele>415.0</ele><time>2026-03-22T14:53:12.999Z</time></trkpt><trkpt lat="45.6035591326871" lon="8.210119454414624"><ele>415.00000000000006</ele><time>2026-03-22T14:53:15.999Z</time></trkpt><trkpt lat="45.60363632391035" lon="8.210187417145965"><ele>415.0</ele><time>2026-03-22T14:53:16.999Z</time></trkpt><trkpt lat="45.60379793440784" lon="8.210185250063493"><ele>413.75</ele><time>2026-03-22T14:53:18.999Z</time></trkpt><trkpt lat="45.60392297502468" lon="8.210113492595902"><ele>412.5</ele><time>2026-03-22T14:53:21.999Z</time></trkpt><trkpt lat="45.60404357612279" lon="8.210084117751848"><ele>411.25</ele><time>2026-03-22T14:53:23.999Z</time></trkpt><trkpt lat="45.60414918438596" lon="8.210081869968597"><ele>410.0</ele><time>2026-03-22T14:53:24.999Z</time></trkpt><trkpt lat="45.60424070745955" lon="8.210122919618128"><ele>409.99999999999994</ele><time>2026-03-22T14:53:25.999Z</time></trkpt><trkpt lat="45.60432763063765" lon="8.21013711741177"><ele>410.0</ele><time>2026-03-22T14:53:26.999Z</time></trkpt><trkpt lat="45.60439793169351" lon="8.210154357437068"><ele>410.0</ele><time>2026-03-22T14:53:27.999Z</time></trkpt><trkpt lat="45.60446641436387" lon="8.210139827917654"><ele>410.0</ele><time>2026-03-22T14:53:28.999Z</time></trkpt><trkpt lat="45.604516499987426" lon="8.210082701435509"><ele>409.99999999999994</ele><time>2026-03-22T14:53:30.001Z</time></trkpt><trkpt lat="45.604576764997844" lon="8.209951510731162"><ele>410.0</ele><time>2026-03-22T14:53:32.001Z</time></trkpt><trkpt lat="45.60463987851715" lon="8.209959672763974"><ele>408.0</ele><time>2026-03-22T14:53:34.001Z</time></trkpt><trkpt lat="45.60470894666122" lon="8.21005571567425"><ele>406.0</ele><time>2026-03-22T14:53:36.001Z</time></trkpt><trkpt lat="45.60478527654773" lon="8.210212059920002"><ele>404.0</ele><time>2026-03-22T14:53:38.001Z</time></trkpt><trkpt lat="45.60481450718764" lon="8.210296386928205"><ele>402.0</ele><time>2026-03-22T14:53:39.001Z</time></trkpt><trkpt lat="45.60478186281944" lon="8.210433209271352"><ele>400.0</ele><time>2026-03-22T14:53:41.001Z</time></trkpt><trkpt lat="45.60468201600831" lon="8.210498292220162"><ele>400.0</ele><time>2026-03-22T14:53:43.001Z</time></trkpt><trkpt lat="45.60460444109519" lon="8.21052832340946"><ele>400.0</ele><time>2026-03-22T14:53:44.001Z</time></trkpt><trkpt lat="45.604487459257285" lon="8.210619390594534"><ele>400.0</ele><time>2026-03-22T14:53:47.001Z</time></trkpt><trkpt lat="45.60441798590465" lon="8.210632860529289"><ele>400.0</ele><time>2026-03-22T14:53:49.001Z</time></trkpt><trkpt lat="45.604344596443575" lon="8.210655018085006"><ele>400.0</ele><time>2026-03-22T14:53:51Z</time></trkpt><trkpt lat="45.60422088972934" lon="8.210594884157986"><ele>398.83333333333337</ele><time>2026-03-22T14:53:54Z</time></trkpt><trkpt lat="45.604135243902846" lon="8.210566377351167"><ele>397.6666666666667</ele><time>2026-03-22T14:53:55Z</time></trkpt><trkpt lat="45.60406040266051" lon="8.21058078488103"><ele>396.5</ele><time>2026-03-22T14:53:56Z</time></trkpt><trkpt lat="45.6040074296958" lon="8.210633871866564"><ele>395.33333333333337</ele><time>2026-03-22T14:53:57Z</time></trkpt><trkpt lat="45.60396641996562" lon="8.21070685951341"><ele>394.1666666666667</ele><time>2026-03-22T14:53:58Z</time></trkpt><trkpt lat="45.60390975242808" lon="8.210830199132173"><ele>393.0</ele><time>2026-03-22T14:54:00Z</time></trkpt><trkpt lat="45.60378042673073" lon="8.21086280944518"><ele>393.0</ele><time>2026-03-22T14:54:02Z</time></trkpt><trkpt lat="45.6036657298715" lon="8.210894977390007"><ele>393.0</ele><time>2026-03-22T14:54:04Z</time></trkpt><trkpt lat="45.603574290265065" lon="8.210813895864755"><ele>393.0</ele><time>2026-03-22T14:54:06Z</time></trkpt><trkpt lat="45.603518249896624" lon="8.210758883456204"><ele>393.0</ele><time>2026-03-22T14:54:07Z</time></trkpt><trkpt lat="45.603466446508484" lon="8.210691209009997"><ele>393.0</ele><time>2026-03-22T14:54:08Z</time></trkpt><trkpt lat="45.603373882390606" lon="8.210557003553625"><ele>392.3333333333333</ele><time>2026-03-22T14:54:10Z</time></trkpt><trkpt lat="45.60326818562473" lon="8.210498579174416"><ele>391.66666666666663</ele><time>2026-03-22T14:54:12Z</time></trkpt><trkpt lat="45.60319453116261" lon="8.210545344334191"><ele>391.0</ele><time>2026-03-22T14:54:13Z</time></trkpt><trkpt lat="45.603136539800744" lon="8.210611974518056"><ele>390.3333333333333</ele><time>2026-03-22T14:54:14Z</time></trkpt><trkpt lat="45.603102701673464" lon="8.210694985175916"><ele>389.66666666666663</ele><time>2026-03-22T14:54:15Z</time></trkpt><trkpt lat="45.603078967694174" lon="8.210789958898417"><ele>389.0</ele><time>2026-03-22T14:54:16Z</time></trkpt><trkpt lat="45.603056003673906" lon="8.210880530990357"><ele>388.99999999999994</ele><time>2026-03-22T14:54:17Z</time></trkpt><trkpt lat="45.60302831346634" lon="8.210980901577905"><ele>389.0</ele><time>2026-03-22T14:54:18Z</time></trkpt><trkpt lat="45.60298881119527" lon="8.211057863519626"><ele>389.0</ele><time>2026-03-22T14:54:19Z</time></trkpt><trkpt lat="45.60294806206298" lon="8.211129938877972"><ele>389.0</ele><time>2026-03-22T14:54:20Z</time></trkpt><trkpt lat="45.602849291453374" lon="8.211206025609464"><ele>388.99999999999994</ele><time>2026-03-22T14:54:22Z</time></trkpt><trkpt lat="45.602779646354854" lon="8.211226596167643"><ele>389.0</ele><time>2026-03-22T14:54:23Z</time></trkpt><trkpt lat="45.60270620029215" lon="8.211224250892936"><ele>388.79999999999995</ele><time>2026-03-22T14:54:24Z</time></trkpt><trkpt lat="45.602642011995464" lon="8.21119064638314"><ele>388.59999999999997</ele><time>2026-03-22T14:54:25Z</time></trkpt><trkpt lat="45.60255755013146" lon="8.21105530924908"><ele>388.4</ele><time>2026-03-22T14:54:27Z</time></trkpt><trkpt lat="45.6025043161542" lon="8.210948465168755"><ele>388.2</ele><time>2026-03-22T14:54:28Z</time></trkpt><trkpt lat="45.60242859929081" lon="8.21089968316036"><ele>388.0</ele><time>2026-03-22T14:54:29Z</time></trkpt><trkpt lat="45.60233860976131" lon="8.210797134853816"><ele>388.0</ele><time>2026-03-22T14:54:31Z</time></trkpt><trkpt lat="45.60227063101705" lon="8.210851790008288"><ele>388.0</ele><time>2026-03-22T14:54:32Z</time></trkpt><trkpt lat="45.602147526864925" lon="8.210922692596085"><ele>388.0</ele><time>2026-03-22T14:54:33Z</time></trkpt><trkpt lat="45.6020714761666" lon="8.210991746480941"><ele>388.0</ele><time>2026-03-22T14:54:34Z</time></trkpt><trkpt lat="45.60201171794423" lon="8.21103322959288"><ele>388.0</ele><time>2026-03-22T14:54:35Z</time></trkpt><trkpt lat="45.60190214232754" lon="8.211062000002165"><ele>387.6666666666667</ele><time>2026-03-22T14:54:37Z</time></trkpt><trkpt lat="45.60181793270494" lon="8.211068285745922"><ele>387.33333333333337</ele><time>2026-03-22T14:54:38Z</time></trkpt><trkpt lat="45.60172444034001" lon="8.211079000894662"><ele>387.0</ele><time>2026-03-22T14:54:39Z</time></trkpt><trkpt lat="45.60165298168818" lon="8.21109740905559"><ele>386.66666666666663</ele><time>2026-03-22T14:54:40Z</time></trkpt><trkpt lat="45.60158781211102" lon="8.211123940317306"><ele>386.3333333333333</ele><time>2026-03-22T14:54:41Z</time></trkpt><trkpt lat="45.6014902890198" lon="8.211180136655885"><ele>386.0</ele><time>2026-03-22T14:54:42Z</time></trkpt><trkpt lat="45.60139281125506" lon="8.211264378762571"><ele>385.99999999999994</ele><time>2026-03-22T14:54:42.999Z</time></trkpt><trkpt lat="45.60131790951731" lon="8.211352020489343"><ele>386.0</ele><time>2026-03-22T14:54:43.999Z</time></trkpt><trkpt lat="45.60127427940765" lon="8.211443761084311"><ele>386.0</ele><time>2026-03-22T14:54:44.999Z</time></trkpt><trkpt lat="45.60121809189897" lon="8.211515121123965"><ele>386.0</ele><time>2026-03-22T14:54:45.999Z</time></trkpt><trkpt lat="45.601158335906916" lon="8.211599533077937"><ele>385.99999999999994</ele><time>2026-03-22T14:54:46.999Z</time></trkpt><trkpt lat="45.601096292928716" lon="8.211703693477084"><ele>386.0</ele><time>2026-03-22T14:54:47.999Z</time></trkpt><trkpt lat="45.60104751336364" lon="8.211805118374048"><ele>383.49999999999994</ele><time>2026-03-22T14:54:48.999Z</time></trkpt><trkpt lat="45.60100548515438" lon="8.211902723276078"><ele>381.0</ele><time>2026-03-22T14:54:49.999Z</time></trkpt><trkpt lat="45.60098024675696" lon="8.212008783367734"><ele>378.5</ele><time>2026-03-22T14:54:50.999Z</time></trkpt><trkpt lat="45.600924224713914" lon="8.212077964884962"><ele>376.0</ele><time>2026-03-22T14:54:51.999Z</time></trkpt><trkpt lat="45.60086452807901" lon="8.212139582045825"><ele>373.5</ele><time>2026-03-22T14:54:52.999Z</time></trkpt><trkpt lat="45.600775146824" lon="8.212216962297479"><ele>371.0</ele><time>2026-03-22T14:54:54.999Z</time></trkpt><trkpt lat="45.60069491239805" lon="8.212179481706178"><ele>371.0</ele><time>2026-03-22T14:54:56.999Z</time></trkpt><trkpt lat="45.60060871748786" lon="8.212125619914088"><ele>371.0</ele><time>2026-03-22T14:54:57.999Z</time></trkpt><trkpt lat="45.6005167824167" lon="8.212031373104933"><ele>371.0</ele><time>2026-03-22T14:54:58.999Z</time></trkpt><trkpt lat="45.60045617263854" lon="8.211917829826403"><ele>371.0</ele><time>2026-03-22T14:55:00.999Z</time></trkpt><trkpt lat="45.60047532582147" lon="8.211822182194954"><ele>371.0</ele><time>2026-03-22T14:55:01.999Z</time></trkpt><trkpt lat="45.600475804714314" lon="8.211694821955719"><ele>371.0</ele><time>2026-03-22T14:55:02.999Z</time></trkpt><trkpt lat="45.600461671765096" lon="8.211544785339424"><ele>371.0</ele><time>2026-03-22T14:55:03.999Z</time></trkpt><trkpt lat="45.600466821674985" lon="8.21139087186322"><ele>371.0</ele><time>2026-03-22T14:55:04.999Z</time></trkpt><trkpt lat="45.600475035145564" lon="8.21127520219125"><ele>371.0</ele><time>2026-03-22T14:55:05.999Z</time></trkpt><trkpt lat="45.6004710321909" lon="8.21118257693887"><ele>371.0</ele><time>2026-03-22T14:55:06.999Z</time></trkpt><trkpt lat="45.60043127496353" lon="8.211011344676905"><ele>371.0</ele><time>2026-03-22T14:55:08.999Z</time></trkpt><trkpt lat="45.60036521580535" lon="8.210954486221281"><ele>371.0</ele><time>2026-03-22T14:55:09.999Z</time></trkpt><trkpt lat="45.6002839946501" lon="8.210938228953085"><ele>371.0</ele><time>2026-03-22T14:55:10.999Z</time></trkpt><trkpt lat="45.60017807605539" lon="8.211016641751103"><ele>371.0</ele><time>2026-03-22T14:55:11.999Z</time></trkpt><trkpt lat="45.60010048275009" lon="8.211095157882037"><ele>371.0</ele><time>2026-03-22T14:55:12.999Z</time></trkpt><trkpt lat="45.600029288513156" lon="8.21118268672961"><ele>371.0</ele><time>2026-03-22T14:55:13.999Z</time></trkpt><trkpt lat="45.59997376261031" lon="8.211276860101282"><ele>371.0</ele><time>2026-03-22T14:55:14.999Z</time></trkpt><trkpt lat="45.59991262185082" lon="8.211371173238208"><ele>371.0</ele><time>2026-03-22T14:55:15.999Z</time></trkpt><trkpt lat="45.599884797898184" lon="8.21147534250587"><ele>371.0</ele><time>2026-03-22T14:55:16.999Z</time></trkpt><trkpt lat="45.599833033454104" lon="8.211579244988645"><ele>371.0</ele><time>2026-03-22T14:55:17.999Z</time></trkpt><trkpt lat="45.599786056179596" lon="8.211719266637841"><ele>369.4</ele><time>2026-03-22T14:55:18.999Z</time></trkpt><trkpt lat="45.59973542549128" lon="8.211833238018215"><ele>367.8</ele><time>2026-03-22T14:55:19.999Z</time></trkpt><trkpt lat="45.59968926224615" lon="8.211926575880447"><ele>366.2</ele><time>2026-03-22T14:55:20.999Z</time></trkpt><trkpt lat="45.59962231414156" lon="8.212021380839372"><ele>364.59999999999997</ele><time>2026-03-22T14:55:21.999Z</time></trkpt><trkpt lat="45.59956051947045" lon="8.21212946905018"><ele>363.0</ele><time>2026-03-22T14:55:22.999Z</time></trkpt><trkpt lat="45.59950837757063" lon="8.212273535361128"><ele>362.0</ele><time>2026-03-22T14:55:23.999Z</time></trkpt><trkpt lat="45.599492009685584" lon="8.212402092883867"><ele>361.0</ele><time>2026-03-22T14:55:24.999Z</time></trkpt><trkpt lat="45.599443786310545" lon="8.212533273834305"><ele>360.0</ele><time>2026-03-22T14:55:25.999Z</time></trkpt><trkpt lat="45.59940316994199" lon="8.212659399374655"><ele>359.0</ele><time>2026-03-22T14:55:26.999Z</time></trkpt><trkpt lat="45.59936112279217" lon="8.212784025052338"><ele>358.0</ele><time>2026-03-22T14:55:27.999Z</time></trkpt><trkpt lat="45.59931985244899" lon="8.21290367587836"><ele>358.0</ele><time>2026-03-22T14:55:28.999Z</time></trkpt><trkpt lat="45.59928066859344" lon="8.213016689441668"><ele>358.0</ele><time>2026-03-22T14:55:29.999Z</time></trkpt><trkpt lat="45.59923592845165" lon="8.213141675119546"><ele>358.0</ele><time>2026-03-22T14:55:30.999Z</time></trkpt><trkpt lat="45.599192373157926" lon="8.213263350761721"><ele>358.0</ele><time>2026-03-22T14:55:31.999Z</time></trkpt><trkpt lat="45.599151910787896" lon="8.213370854370046"><ele>358.0</ele><time>2026-03-22T14:55:32.999Z</time></trkpt><trkpt lat="45.599113078485" lon="8.213471489792191"><ele>358.0</ele><time>2026-03-22T14:55:33.999Z</time></trkpt><trkpt lat="45.59903903731516" lon="8.213581162845708"><ele>354.0</ele><time>2026-03-22T14:55:36.001Z</time></trkpt><trkpt lat="45.59896602308925" lon="8.213643147504358"><ele>354.0</ele><time>2026-03-22T14:55:38.001Z</time></trkpt><trkpt lat="45.59891664344739" lon="8.2135661333106"><ele>354.0</ele><time>2026-03-22T14:55:43.001Z</time></trkpt><trkpt lat="45.598956084525" lon="8.21347112928195"><ele>354.0</ele><time>2026-03-22T14:56:30Z</time></trkpt></trkseg></trk></gpx>